<?xml version="1.0" encoding="UTF-8" standalone="no" ?>
<gpx xmlns="http://www.topografix.com/GPX/1/1" xmlns:xsi="http://www.w3.org/2001/XMLSchema-instance" xsi:schemaLocation="http://www.topografix.com/GPX/1/1 http://www.topografix.com/GPX/1/1/gpx.xsd" version="1.1" creator="VisuGPX - https://www.visugpx.com">
  <metadata>
    <name>lac des Sagnes vélo électrique par chemin</name>
  </metadata>
  <trk>
    <name><![CDATA[lac des Sagnes vélo électrique]]></name>
    <trkseg>
      <trkpt lat="44.41951" lon="6.73502">
        <ele>1230.33</ele>
        <time>2021-07-21T07:46:24Z</time>
      </trkpt>
      <trkpt lat="44.41951" lon="6.73497">
        <ele>1230.66</ele>
        <time>2021-07-21T07:46:28Z</time>
      </trkpt>
      <trkpt lat="44.41948" lon="6.735">
        <ele>1230.26</ele>
        <time>2021-07-21T07:46:42Z</time>
      </trkpt>
      <trkpt lat="44.41945" lon="6.73502">
        <ele>1229.9</ele>
        <time>2021-07-21T07:47:12Z</time>
      </trkpt>
      <trkpt lat="44.41943" lon="6.73504">
        <ele>1229.29</ele>
        <time>2021-07-21T07:47:20Z</time>
      </trkpt>
      <trkpt lat="44.4194" lon="6.73507">
        <ele>1228.18</ele>
        <time>2021-07-21T07:47:24Z</time>
      </trkpt>
      <trkpt lat="44.41943" lon="6.73506">
        <ele>1229.14</ele>
        <time>2021-07-21T07:48:37Z</time>
      </trkpt>
      <trkpt lat="44.41941" lon="6.73504">
        <ele>1228.7</ele>
        <time>2021-07-21T07:49:22Z</time>
      </trkpt>
      <trkpt lat="44.41943" lon="6.73512">
        <ele>1228.7</ele>
        <time>2021-07-21T07:49:52Z</time>
      </trkpt>
      <trkpt lat="44.4194" lon="6.73515">
        <ele>1227.55</ele>
        <time>2021-07-21T07:49:57Z</time>
      </trkpt>
      <trkpt lat="44.41938" lon="6.73519">
        <ele>1226.62</ele>
        <time>2021-07-21T07:49:58Z</time>
      </trkpt>
      <trkpt lat="44.41934" lon="6.73523">
        <ele>1225.02</ele>
        <time>2021-07-21T07:50:00Z</time>
      </trkpt>
      <trkpt lat="44.41931" lon="6.73527">
        <ele>1223.71</ele>
        <time>2021-07-21T07:50:03Z</time>
      </trkpt>
      <trkpt lat="44.41929" lon="6.7353">
        <ele>1223</ele>
        <time>2021-07-21T07:50:05Z</time>
      </trkpt>
      <trkpt lat="44.41926" lon="6.73533">
        <ele>1222.09</ele>
        <time>2021-07-21T07:50:07Z</time>
      </trkpt>
      <trkpt lat="44.41922" lon="6.73536">
        <ele>1220.91</ele>
        <time>2021-07-21T07:50:09Z</time>
      </trkpt>
      <trkpt lat="44.41919" lon="6.7354">
        <ele>1220.12</ele>
        <time>2021-07-21T07:50:11Z</time>
      </trkpt>
      <trkpt lat="44.41916" lon="6.73543">
        <ele>1219.48</ele>
        <time>2021-07-21T07:50:13Z</time>
      </trkpt>
      <trkpt lat="44.41913" lon="6.73545">
        <ele>1219.22</ele>
        <time>2021-07-21T07:50:15Z</time>
      </trkpt>
      <trkpt lat="44.41909" lon="6.73549">
        <ele>1218.94</ele>
        <time>2021-07-21T07:50:17Z</time>
      </trkpt>
      <trkpt lat="44.41905" lon="6.73552">
        <ele>1218.61</ele>
        <time>2021-07-21T07:50:19Z</time>
      </trkpt>
      <trkpt lat="44.41901" lon="6.73557">
        <ele>1218.36</ele>
        <time>2021-07-21T07:50:21Z</time>
      </trkpt>
      <trkpt lat="44.41897" lon="6.73561">
        <ele>1218.07</ele>
        <time>2021-07-21T07:50:23Z</time>
      </trkpt>
      <trkpt lat="44.41893" lon="6.73565">
        <ele>1217.78</ele>
        <time>2021-07-21T07:50:25Z</time>
      </trkpt>
      <trkpt lat="44.41889" lon="6.73568">
        <ele>1217.46</ele>
        <time>2021-07-21T07:50:27Z</time>
      </trkpt>
      <trkpt lat="44.41886" lon="6.73571">
        <ele>1217.67</ele>
        <time>2021-07-21T07:50:29Z</time>
      </trkpt>
      <trkpt lat="44.41884" lon="6.73573">
        <ele>1217.85</ele>
        <time>2021-07-21T07:50:30Z</time>
      </trkpt>
      <trkpt lat="44.41879" lon="6.73577">
        <ele>1218.32</ele>
        <time>2021-07-21T07:50:34Z</time>
      </trkpt>
      <trkpt lat="44.41874" lon="6.73587">
        <ele>1219.41</ele>
        <time>2021-07-21T07:50:37Z</time>
      </trkpt>
      <trkpt lat="44.41871" lon="6.73595">
        <ele>1220.4</ele>
        <time>2021-07-21T07:50:42Z</time>
      </trkpt>
      <trkpt lat="44.41866" lon="6.736">
        <ele>1221.34</ele>
        <time>2021-07-21T07:50:44Z</time>
      </trkpt>
      <trkpt lat="44.41858" lon="6.73603">
        <ele>1222.41</ele>
        <time>2021-07-21T07:50:47Z</time>
      </trkpt>
      <trkpt lat="44.41851" lon="6.73608">
        <ele>1223.47</ele>
        <time>2021-07-21T07:50:50Z</time>
      </trkpt>
      <trkpt lat="44.41845" lon="6.73614">
        <ele>1224.68</ele>
        <time>2021-07-21T07:50:53Z</time>
      </trkpt>
      <trkpt lat="44.41838" lon="6.73619">
        <ele>1226.08</ele>
        <time>2021-07-21T07:50:56Z</time>
      </trkpt>
      <trkpt lat="44.41833" lon="6.73624">
        <ele>1227.32</ele>
        <time>2021-07-21T07:50:58Z</time>
      </trkpt>
      <trkpt lat="44.41829" lon="6.73631">
        <ele>1228.51</ele>
        <time>2021-07-21T07:51:00Z</time>
      </trkpt>
      <trkpt lat="44.41824" lon="6.7364">
        <ele>1229.84</ele>
        <time>2021-07-21T07:51:04Z</time>
      </trkpt>
      <trkpt lat="44.41818" lon="6.73648">
        <ele>1230.94</ele>
        <time>2021-07-21T07:51:06Z</time>
      </trkpt>
      <trkpt lat="44.41812" lon="6.73655">
        <ele>1232</ele>
        <time>2021-07-21T07:51:10Z</time>
      </trkpt>
      <trkpt lat="44.41806" lon="6.73661">
        <ele>1232.98</ele>
        <time>2021-07-21T07:51:13Z</time>
      </trkpt>
      <trkpt lat="44.41801" lon="6.73667">
        <ele>1233.04</ele>
        <time>2021-07-21T07:51:17Z</time>
      </trkpt>
      <trkpt lat="44.41797" lon="6.73675">
        <ele>1232.57</ele>
        <time>2021-07-21T07:51:22Z</time>
      </trkpt>
      <trkpt lat="44.41792" lon="6.7368">
        <ele>1231.56</ele>
        <time>2021-07-21T07:51:24Z</time>
      </trkpt>
      <trkpt lat="44.4179" lon="6.73684">
        <ele>1231.19</ele>
        <time>2021-07-21T07:51:25Z</time>
      </trkpt>
      <trkpt lat="44.41787" lon="6.73689">
        <ele>1230.53</ele>
        <time>2021-07-21T07:51:29Z</time>
      </trkpt>
      <trkpt lat="44.41782" lon="6.73695">
        <ele>1229.22</ele>
        <time>2021-07-21T07:51:34Z</time>
      </trkpt>
      <trkpt lat="44.41777" lon="6.73702">
        <ele>1227.75</ele>
        <time>2021-07-21T07:51:37Z</time>
      </trkpt>
      <trkpt lat="44.41772" lon="6.73708">
        <ele>1226.03</ele>
        <time>2021-07-21T07:51:39Z</time>
      </trkpt>
      <trkpt lat="44.41765" lon="6.73706">
        <ele>1223.75</ele>
        <time>2021-07-21T07:51:44Z</time>
      </trkpt>
      <trkpt lat="44.41761" lon="6.73698">
        <ele>1222.94</ele>
        <time>2021-07-21T07:51:46Z</time>
      </trkpt>
      <trkpt lat="44.41757" lon="6.73689">
        <ele>1222.46</ele>
        <time>2021-07-21T07:51:49Z</time>
      </trkpt>
      <trkpt lat="44.41753" lon="6.73683">
        <ele>1221.97</ele>
        <time>2021-07-21T07:51:53Z</time>
      </trkpt>
      <trkpt lat="44.41748" lon="6.73679">
        <ele>1221.42</ele>
        <time>2021-07-21T07:51:56Z</time>
      </trkpt>
      <trkpt lat="44.41744" lon="6.73684">
        <ele>1220.35</ele>
        <time>2021-07-21T07:51:59Z</time>
      </trkpt>
      <trkpt lat="44.41741" lon="6.73686">
        <ele>1219.71</ele>
        <time>2021-07-21T07:52:01Z</time>
      </trkpt>
      <trkpt lat="44.41737" lon="6.73688">
        <ele>1218.93</ele>
        <time>2021-07-21T07:52:04Z</time>
      </trkpt>
      <trkpt lat="44.41732" lon="6.73691">
        <ele>1217.86</ele>
        <time>2021-07-21T07:52:07Z</time>
      </trkpt>
      <trkpt lat="44.41726" lon="6.73695">
        <ele>1216.52</ele>
        <time>2021-07-21T07:52:11Z</time>
      </trkpt>
      <trkpt lat="44.41719" lon="6.737">
        <ele>1215.8</ele>
        <time>2021-07-21T07:52:15Z</time>
      </trkpt>
      <trkpt lat="44.41714" lon="6.73704">
        <ele>1215.66</ele>
        <time>2021-07-21T07:52:18Z</time>
      </trkpt>
      <trkpt lat="44.41709" lon="6.73709">
        <ele>1215.48</ele>
        <time>2021-07-21T07:52:21Z</time>
      </trkpt>
      <trkpt lat="44.41704" lon="6.73714">
        <ele>1215.3</ele>
        <time>2021-07-21T07:52:24Z</time>
      </trkpt>
      <trkpt lat="44.41697" lon="6.73721">
        <ele>1215.04</ele>
        <time>2021-07-21T07:52:29Z</time>
      </trkpt>
      <trkpt lat="44.41691" lon="6.73725">
        <ele>1215.8</ele>
        <time>2021-07-21T07:52:32Z</time>
      </trkpt>
      <trkpt lat="44.41685" lon="6.7373">
        <ele>1217.07</ele>
        <time>2021-07-21T07:52:35Z</time>
      </trkpt>
      <trkpt lat="44.4168" lon="6.73735">
        <ele>1218.04</ele>
        <time>2021-07-21T07:52:38Z</time>
      </trkpt>
      <trkpt lat="44.41675" lon="6.73742">
        <ele>1218.93</ele>
        <time>2021-07-21T07:52:41Z</time>
      </trkpt>
      <trkpt lat="44.41668" lon="6.73749">
        <ele>1219.85</ele>
        <time>2021-07-21T07:52:44Z</time>
      </trkpt>
      <trkpt lat="44.41661" lon="6.73755">
        <ele>1220.94</ele>
        <time>2021-07-21T07:52:45Z</time>
      </trkpt>
      <trkpt lat="44.41656" lon="6.73759">
        <ele>1221.68</ele>
        <time>2021-07-21T07:52:49Z</time>
      </trkpt>
      <trkpt lat="44.41649" lon="6.73765">
        <ele>1222.64</ele>
        <time>2021-07-21T07:52:52Z</time>
      </trkpt>
      <trkpt lat="44.41642" lon="6.73769">
        <ele>1223.42</ele>
        <time>2021-07-21T07:52:55Z</time>
      </trkpt>
      <trkpt lat="44.41635" lon="6.73774">
        <ele>1223.86</ele>
        <time>2021-07-21T07:52:58Z</time>
      </trkpt>
      <trkpt lat="44.41628" lon="6.73778">
        <ele>1223.98</ele>
        <time>2021-07-21T07:52:59Z</time>
      </trkpt>
      <trkpt lat="44.41622" lon="6.73782">
        <ele>1223.7</ele>
        <time>2021-07-21T07:53:04Z</time>
      </trkpt>
      <trkpt lat="44.41616" lon="6.73786">
        <ele>1223.41</ele>
        <time>2021-07-21T07:53:07Z</time>
      </trkpt>
      <trkpt lat="44.4161" lon="6.73791">
        <ele>1223.07</ele>
        <time>2021-07-21T07:53:10Z</time>
      </trkpt>
      <trkpt lat="44.41605" lon="6.73798">
        <ele>1222.6</ele>
        <time>2021-07-21T07:53:14Z</time>
      </trkpt>
      <trkpt lat="44.416" lon="6.73805">
        <ele>1222.05</ele>
        <time>2021-07-21T07:53:16Z</time>
      </trkpt>
      <trkpt lat="44.41597" lon="6.73811">
        <ele>1221.71</ele>
        <time>2021-07-21T07:53:19Z</time>
      </trkpt>
      <trkpt lat="44.41595" lon="6.73817">
        <ele>1221.41</ele>
        <time>2021-07-21T07:53:21Z</time>
      </trkpt>
      <trkpt lat="44.41592" lon="6.73822">
        <ele>1221.22</ele>
        <time>2021-07-21T07:53:24Z</time>
      </trkpt>
      <trkpt lat="44.4159" lon="6.73827">
        <ele>1221.04</ele>
        <time>2021-07-21T07:53:25Z</time>
      </trkpt>
      <trkpt lat="44.41588" lon="6.73831">
        <ele>1220.93</ele>
        <time>2021-07-21T07:53:27Z</time>
      </trkpt>
      <trkpt lat="44.41587" lon="6.73835">
        <ele>1220.98</ele>
        <time>2021-07-21T07:53:29Z</time>
      </trkpt>
      <trkpt lat="44.41588" lon="6.73839">
        <ele>1221.21</ele>
        <time>2021-07-21T07:54:01Z</time>
      </trkpt>
      <trkpt lat="44.41588" lon="6.73843">
        <ele>1221.47</ele>
        <time>2021-07-21T07:54:09Z</time>
      </trkpt>
      <trkpt lat="44.41587" lon="6.73848">
        <ele>1221.85</ele>
        <time>2021-07-21T07:54:10Z</time>
      </trkpt>
      <trkpt lat="44.41585" lon="6.73851">
        <ele>1222.17</ele>
        <time>2021-07-21T07:54:11Z</time>
      </trkpt>
      <trkpt lat="44.41581" lon="6.73857">
        <ele>1222.97</ele>
        <time>2021-07-21T07:54:13Z</time>
      </trkpt>
      <trkpt lat="44.41576" lon="6.73868">
        <ele>1224.54</ele>
        <time>2021-07-21T07:54:17Z</time>
      </trkpt>
      <trkpt lat="44.41571" lon="6.73878">
        <ele>1226.16</ele>
        <time>2021-07-21T07:54:19Z</time>
      </trkpt>
      <trkpt lat="44.41567" lon="6.73888">
        <ele>1227.67</ele>
        <time>2021-07-21T07:54:22Z</time>
      </trkpt>
      <trkpt lat="44.41563" lon="6.73897">
        <ele>1228.49</ele>
        <time>2021-07-21T07:54:25Z</time>
      </trkpt>
      <trkpt lat="44.4156" lon="6.73904">
        <ele>1229.06</ele>
        <time>2021-07-21T07:54:26Z</time>
      </trkpt>
      <trkpt lat="44.41556" lon="6.73914">
        <ele>1229.86</ele>
        <time>2021-07-21T07:54:30Z</time>
      </trkpt>
      <trkpt lat="44.41552" lon="6.73921">
        <ele>1229.51</ele>
        <time>2021-07-21T07:54:32Z</time>
      </trkpt>
      <trkpt lat="44.41547" lon="6.73929">
        <ele>1228.9</ele>
        <time>2021-07-21T07:54:36Z</time>
      </trkpt>
      <trkpt lat="44.41543" lon="6.73933">
        <ele>1228.46</ele>
        <time>2021-07-21T07:54:38Z</time>
      </trkpt>
      <trkpt lat="44.4154" lon="6.73936">
        <ele>1228.15</ele>
        <time>2021-07-21T07:54:40Z</time>
      </trkpt>
      <trkpt lat="44.41537" lon="6.7394">
        <ele>1227.89</ele>
        <time>2021-07-21T07:54:42Z</time>
      </trkpt>
      <trkpt lat="44.41533" lon="6.73944">
        <ele>1227.55</ele>
        <time>2021-07-21T07:54:44Z</time>
      </trkpt>
      <trkpt lat="44.4153" lon="6.73946">
        <ele>1227.28</ele>
        <time>2021-07-21T07:54:45Z</time>
      </trkpt>
      <trkpt lat="44.41525" lon="6.7395">
        <ele>1227.4</ele>
        <time>2021-07-21T07:54:49Z</time>
      </trkpt>
      <trkpt lat="44.41519" lon="6.73953">
        <ele>1227.94</ele>
        <time>2021-07-21T07:54:50Z</time>
      </trkpt>
      <trkpt lat="44.41513" lon="6.73958">
        <ele>1228.55</ele>
        <time>2021-07-21T07:54:56Z</time>
      </trkpt>
      <trkpt lat="44.41507" lon="6.73961">
        <ele>1229.09</ele>
        <time>2021-07-21T07:54:59Z</time>
      </trkpt>
      <trkpt lat="44.41502" lon="6.73966">
        <ele>1229.63</ele>
        <time>2021-07-21T07:55:02Z</time>
      </trkpt>
      <trkpt lat="44.41497" lon="6.73972">
        <ele>1230.42</ele>
        <time>2021-07-21T07:55:06Z</time>
      </trkpt>
      <trkpt lat="44.41494" lon="6.73981">
        <ele>1230.55</ele>
        <time>2021-07-21T07:55:10Z</time>
      </trkpt>
      <trkpt lat="44.41491" lon="6.7399">
        <ele>1230.66</ele>
        <time>2021-07-21T07:55:13Z</time>
      </trkpt>
      <trkpt lat="44.4149" lon="6.73997">
        <ele>1230.55</ele>
        <time>2021-07-21T07:55:15Z</time>
      </trkpt>
      <trkpt lat="44.41489" lon="6.74002">
        <ele>1230.57</ele>
        <time>2021-07-21T07:55:17Z</time>
      </trkpt>
      <trkpt lat="44.41489" lon="6.74006">
        <ele>1230.54</ele>
        <time>2021-07-21T07:55:19Z</time>
      </trkpt>
      <trkpt lat="44.41489" lon="6.7401">
        <ele>1230.51</ele>
        <time>2021-07-21T07:55:22Z</time>
      </trkpt>
      <trkpt lat="44.41487" lon="6.74007">
        <ele>1230.86</ele>
        <time>2021-07-21T07:55:36Z</time>
      </trkpt>
      <trkpt lat="44.41485" lon="6.74009">
        <ele>1231.19</ele>
        <time>2021-07-21T07:56:08Z</time>
      </trkpt>
      <trkpt lat="44.41482" lon="6.74013">
        <ele>1231.73</ele>
        <time>2021-07-21T07:56:44Z</time>
      </trkpt>
      <trkpt lat="44.41482" lon="6.74018">
        <ele>1231.78</ele>
        <time>2021-07-21T07:56:45Z</time>
      </trkpt>
      <trkpt lat="44.41481" lon="6.74027">
        <ele>1232.09</ele>
        <time>2021-07-21T07:56:48Z</time>
      </trkpt>
      <trkpt lat="44.41481" lon="6.74036">
        <ele>1232.01</ele>
        <time>2021-07-21T07:56:51Z</time>
      </trkpt>
      <trkpt lat="44.41481" lon="6.74047">
        <ele>1231.89</ele>
        <time>2021-07-21T07:56:55Z</time>
      </trkpt>
      <trkpt lat="44.4148" lon="6.74056">
        <ele>1232.04</ele>
        <time>2021-07-21T07:56:58Z</time>
      </trkpt>
      <trkpt lat="44.41479" lon="6.74064">
        <ele>1232.37</ele>
        <time>2021-07-21T07:57:01Z</time>
      </trkpt>
      <trkpt lat="44.41478" lon="6.74071">
        <ele>1232.66</ele>
        <time>2021-07-21T07:57:04Z</time>
      </trkpt>
      <trkpt lat="44.41477" lon="6.74076">
        <ele>1232.92</ele>
        <time>2021-07-21T07:57:06Z</time>
      </trkpt>
      <trkpt lat="44.41476" lon="6.74083">
        <ele>1233.18</ele>
        <time>2021-07-21T07:57:08Z</time>
      </trkpt>
      <trkpt lat="44.41477" lon="6.7409">
        <ele>1233.45</ele>
        <time>2021-07-21T07:57:10Z</time>
      </trkpt>
      <trkpt lat="44.41477" lon="6.74097">
        <ele>1233.95</ele>
        <time>2021-07-21T07:57:12Z</time>
      </trkpt>
      <trkpt lat="44.41476" lon="6.74101">
        <ele>1234.46</ele>
        <time>2021-07-21T07:57:13Z</time>
      </trkpt>
      <trkpt lat="44.41476" lon="6.74105">
        <ele>1234.74</ele>
        <time>2021-07-21T07:57:14Z</time>
      </trkpt>
      <trkpt lat="44.41476" lon="6.74109">
        <ele>1235.03</ele>
        <time>2021-07-21T07:57:15Z</time>
      </trkpt>
      <trkpt lat="44.41476" lon="6.74113">
        <ele>1235.34</ele>
        <time>2021-07-21T07:57:16Z</time>
      </trkpt>
      <trkpt lat="44.41477" lon="6.7412">
        <ele>1235.72</ele>
        <time>2021-07-21T07:57:18Z</time>
      </trkpt>
      <trkpt lat="44.41476" lon="6.74127">
        <ele>1236.48</ele>
        <time>2021-07-21T07:57:20Z</time>
      </trkpt>
      <trkpt lat="44.41476" lon="6.74134">
        <ele>1237.06</ele>
        <time>2021-07-21T07:57:21Z</time>
      </trkpt>
      <trkpt lat="44.41476" lon="6.74146">
        <ele>1237.71</ele>
        <time>2021-07-21T07:57:24Z</time>
      </trkpt>
      <trkpt lat="44.41474" lon="6.74155">
        <ele>1238.32</ele>
        <time>2021-07-21T07:57:28Z</time>
      </trkpt>
      <trkpt lat="44.41472" lon="6.74163">
        <ele>1238.89</ele>
        <time>2021-07-21T07:57:31Z</time>
      </trkpt>
      <trkpt lat="44.41469" lon="6.74173">
        <ele>1239.64</ele>
        <time>2021-07-21T07:57:36Z</time>
      </trkpt>
      <trkpt lat="44.41468" lon="6.74178">
        <ele>1240</ele>
        <time>2021-07-21T07:57:42Z</time>
      </trkpt>
      <trkpt lat="44.41468" lon="6.74182">
        <ele>1240.24</ele>
        <time>2021-07-21T07:57:54Z</time>
      </trkpt>
      <trkpt lat="44.41464" lon="6.74183">
        <ele>1240.42</ele>
        <time>2021-07-21T07:57:56Z</time>
      </trkpt>
      <trkpt lat="44.41459" lon="6.74181">
        <ele>1240.49</ele>
        <time>2021-07-21T07:57:59Z</time>
      </trkpt>
      <trkpt lat="44.41452" lon="6.74179">
        <ele>1240.7</ele>
        <time>2021-07-21T07:58:02Z</time>
      </trkpt>
      <trkpt lat="44.41445" lon="6.74179">
        <ele>1240.98</ele>
        <time>2021-07-21T07:58:04Z</time>
      </trkpt>
      <trkpt lat="44.41439" lon="6.74181">
        <ele>1241.1</ele>
        <time>2021-07-21T07:58:06Z</time>
      </trkpt>
      <trkpt lat="44.41432" lon="6.74184">
        <ele>1241.28</ele>
        <time>2021-07-21T07:58:10Z</time>
      </trkpt>
      <trkpt lat="44.41424" lon="6.74187">
        <ele>1241.54</ele>
        <time>2021-07-21T07:58:17Z</time>
      </trkpt>
      <trkpt lat="44.41417" lon="6.74188">
        <ele>1241.76</ele>
        <time>2021-07-21T07:58:21Z</time>
      </trkpt>
      <trkpt lat="44.4141" lon="6.74185">
        <ele>1242.7</ele>
        <time>2021-07-21T07:58:23Z</time>
      </trkpt>
      <trkpt lat="44.41404" lon="6.74183">
        <ele>1243.49</ele>
        <time>2021-07-21T07:58:27Z</time>
      </trkpt>
      <trkpt lat="44.41396" lon="6.7418">
        <ele>1244.43</ele>
        <time>2021-07-21T07:58:31Z</time>
      </trkpt>
      <trkpt lat="44.41388" lon="6.74179">
        <ele>1245.54</ele>
        <time>2021-07-21T07:58:34Z</time>
      </trkpt>
      <trkpt lat="44.41382" lon="6.74177">
        <ele>1246.7</ele>
        <time>2021-07-21T07:58:36Z</time>
      </trkpt>
      <trkpt lat="44.41376" lon="6.74174">
        <ele>1247.7</ele>
        <time>2021-07-21T07:58:39Z</time>
      </trkpt>
      <trkpt lat="44.41369" lon="6.74175">
        <ele>1249.41</ele>
        <time>2021-07-21T07:58:43Z</time>
      </trkpt>
      <trkpt lat="44.4136" lon="6.74176">
        <ele>1251.66</ele>
        <time>2021-07-21T07:58:48Z</time>
      </trkpt>
      <trkpt lat="44.41355" lon="6.74172">
        <ele>1252.62</ele>
        <time>2021-07-21T07:58:50Z</time>
      </trkpt>
      <trkpt lat="44.4135" lon="6.74165">
        <ele>1253.35</ele>
        <time>2021-07-21T07:58:52Z</time>
      </trkpt>
      <trkpt lat="44.41344" lon="6.74157">
        <ele>1253.86</ele>
        <time>2021-07-21T07:58:56Z</time>
      </trkpt>
      <trkpt lat="44.41336" lon="6.74151">
        <ele>1254.91</ele>
        <time>2021-07-21T07:59:01Z</time>
      </trkpt>
      <trkpt lat="44.4133" lon="6.74149">
        <ele>1256.76</ele>
        <time>2021-07-21T07:59:04Z</time>
      </trkpt>
      <trkpt lat="44.41324" lon="6.74147">
        <ele>1259.08</ele>
        <time>2021-07-21T07:59:07Z</time>
      </trkpt>
      <trkpt lat="44.41316" lon="6.74143">
        <ele>1261.65</ele>
        <time>2021-07-21T07:59:11Z</time>
      </trkpt>
      <trkpt lat="44.4131" lon="6.74141">
        <ele>1263.73</ele>
        <time>2021-07-21T07:59:16Z</time>
      </trkpt>
      <trkpt lat="44.41304" lon="6.74138">
        <ele>1265.1</ele>
        <time>2021-07-21T07:59:19Z</time>
      </trkpt>
      <trkpt lat="44.41299" lon="6.74134">
        <ele>1264.86</ele>
        <time>2021-07-21T07:59:26Z</time>
      </trkpt>
      <trkpt lat="44.41295" lon="6.74131">
        <ele>1264.56</ele>
        <time>2021-07-21T07:59:28Z</time>
      </trkpt>
      <trkpt lat="44.41291" lon="6.74128">
        <ele>1264.11</ele>
        <time>2021-07-21T07:59:32Z</time>
      </trkpt>
      <trkpt lat="44.41286" lon="6.74125">
        <ele>1263.67</ele>
        <time>2021-07-21T07:59:34Z</time>
      </trkpt>
      <trkpt lat="44.4128" lon="6.74122">
        <ele>1263.17</ele>
        <time>2021-07-21T07:59:39Z</time>
      </trkpt>
      <trkpt lat="44.41273" lon="6.74119">
        <ele>1264.63</ele>
        <time>2021-07-21T07:59:42Z</time>
      </trkpt>
      <trkpt lat="44.41266" lon="6.74116">
        <ele>1267.1</ele>
        <time>2021-07-21T07:59:45Z</time>
      </trkpt>
      <trkpt lat="44.4126" lon="6.74113">
        <ele>1269.1</ele>
        <time>2021-07-21T07:59:48Z</time>
      </trkpt>
      <trkpt lat="44.41255" lon="6.74111">
        <ele>1271.06</ele>
        <time>2021-07-21T07:59:52Z</time>
      </trkpt>
      <trkpt lat="44.41248" lon="6.74108">
        <ele>1273.04</ele>
        <time>2021-07-21T07:59:57Z</time>
      </trkpt>
      <trkpt lat="44.41242" lon="6.74105">
        <ele>1274.17</ele>
        <time>2021-07-21T08:00:00Z</time>
      </trkpt>
      <trkpt lat="44.41235" lon="6.74102">
        <ele>1275.66</ele>
        <time>2021-07-21T08:00:04Z</time>
      </trkpt>
      <trkpt lat="44.41227" lon="6.74099">
        <ele>1277.49</ele>
        <time>2021-07-21T08:00:08Z</time>
      </trkpt>
      <trkpt lat="44.41219" lon="6.74097">
        <ele>1278.8</ele>
        <time>2021-07-21T08:00:12Z</time>
      </trkpt>
      <trkpt lat="44.41213" lon="6.74095">
        <ele>1278.25</ele>
        <time>2021-07-21T08:00:15Z</time>
      </trkpt>
      <trkpt lat="44.41207" lon="6.74094">
        <ele>1278.51</ele>
        <time>2021-07-21T08:00:18Z</time>
      </trkpt>
      <trkpt lat="44.41201" lon="6.74092">
        <ele>1278.18</ele>
        <time>2021-07-21T08:00:21Z</time>
      </trkpt>
      <trkpt lat="44.41195" lon="6.74091">
        <ele>1278.59</ele>
        <time>2021-07-21T08:00:24Z</time>
      </trkpt>
      <trkpt lat="44.4119" lon="6.74089">
        <ele>1276.76</ele>
        <time>2021-07-21T08:00:28Z</time>
      </trkpt>
      <trkpt lat="44.41183" lon="6.74087">
        <ele>1274.63</ele>
        <time>2021-07-21T08:00:33Z</time>
      </trkpt>
      <trkpt lat="44.41177" lon="6.74086">
        <ele>1273.33</ele>
        <time>2021-07-21T08:00:35Z</time>
      </trkpt>
      <trkpt lat="44.41171" lon="6.74085">
        <ele>1272.13</ele>
        <time>2021-07-21T08:00:38Z</time>
      </trkpt>
      <trkpt lat="44.41162" lon="6.74084">
        <ele>1270.06</ele>
        <time>2021-07-21T08:00:43Z</time>
      </trkpt>
      <trkpt lat="44.41155" lon="6.74085">
        <ele>1268.63</ele>
        <time>2021-07-21T08:00:46Z</time>
      </trkpt>
      <trkpt lat="44.41147" lon="6.74087">
        <ele>1267.27</ele>
        <time>2021-07-21T08:00:49Z</time>
      </trkpt>
      <trkpt lat="44.41138" lon="6.74089">
        <ele>1265.71</ele>
        <time>2021-07-21T08:00:53Z</time>
      </trkpt>
      <trkpt lat="44.41132" lon="6.74091">
        <ele>1265.56</ele>
        <time>2021-07-21T08:00:57Z</time>
      </trkpt>
      <trkpt lat="44.41125" lon="6.74093">
        <ele>1265.31</ele>
        <time>2021-07-21T08:01:01Z</time>
      </trkpt>
      <trkpt lat="44.41119" lon="6.74097">
        <ele>1265.92</ele>
        <time>2021-07-21T08:01:03Z</time>
      </trkpt>
      <trkpt lat="44.41113" lon="6.741">
        <ele>1266.23</ele>
        <time>2021-07-21T08:01:07Z</time>
      </trkpt>
      <trkpt lat="44.41107" lon="6.74102">
        <ele>1265.78</ele>
        <time>2021-07-21T08:01:11Z</time>
      </trkpt>
      <trkpt lat="44.411" lon="6.74105">
        <ele>1265.18</ele>
        <time>2021-07-21T08:01:14Z</time>
      </trkpt>
      <trkpt lat="44.41095" lon="6.74109">
        <ele>1265.27</ele>
        <time>2021-07-21T08:01:18Z</time>
      </trkpt>
      <trkpt lat="44.41088" lon="6.74113">
        <ele>1264.78</ele>
        <time>2021-07-21T08:01:21Z</time>
      </trkpt>
      <trkpt lat="44.41083" lon="6.74121">
        <ele>1266.1</ele>
        <time>2021-07-21T08:01:27Z</time>
      </trkpt>
      <trkpt lat="44.41081" lon="6.74132">
        <ele>1269.03</ele>
        <time>2021-07-21T08:01:32Z</time>
      </trkpt>
      <trkpt lat="44.41078" lon="6.7414">
        <ele>1270.66</ele>
        <time>2021-07-21T08:01:35Z</time>
      </trkpt>
      <trkpt lat="44.41074" lon="6.74148">
        <ele>1272.15</ele>
        <time>2021-07-21T08:01:39Z</time>
      </trkpt>
      <trkpt lat="44.41069" lon="6.74155">
        <ele>1272.86</ele>
        <time>2021-07-21T08:01:44Z</time>
      </trkpt>
      <trkpt lat="44.41065" lon="6.74162">
        <ele>1273.83</ele>
        <time>2021-07-21T08:01:47Z</time>
      </trkpt>
      <trkpt lat="44.41063" lon="6.74172">
        <ele>1276.55</ele>
        <time>2021-07-21T08:01:52Z</time>
      </trkpt>
      <trkpt lat="44.41061" lon="6.74182">
        <ele>1279.37</ele>
        <time>2021-07-21T08:01:57Z</time>
      </trkpt>
      <trkpt lat="44.41059" lon="6.74191">
        <ele>1281.89</ele>
        <time>2021-07-21T08:02:02Z</time>
      </trkpt>
      <trkpt lat="44.41057" lon="6.742">
        <ele>1284.05</ele>
        <time>2021-07-21T08:02:05Z</time>
      </trkpt>
      <trkpt lat="44.41055" lon="6.74211">
        <ele>1286.42</ele>
        <time>2021-07-21T08:02:10Z</time>
      </trkpt>
      <trkpt lat="44.41052" lon="6.7422">
        <ele>1287.17</ele>
        <time>2021-07-21T08:02:14Z</time>
      </trkpt>
      <trkpt lat="44.41049" lon="6.74226">
        <ele>1286.84</ele>
        <time>2021-07-21T08:02:19Z</time>
      </trkpt>
      <trkpt lat="44.41048" lon="6.7423">
        <ele>1287.13</ele>
        <time>2021-07-21T08:02:21Z</time>
      </trkpt>
      <trkpt lat="44.41046" lon="6.74234">
        <ele>1286.84</ele>
        <time>2021-07-21T08:02:24Z</time>
      </trkpt>
      <trkpt lat="44.41045" lon="6.74239">
        <ele>1287.39</ele>
        <time>2021-07-21T08:02:28Z</time>
      </trkpt>
      <trkpt lat="44.41043" lon="6.74251">
        <ele>1288.96</ele>
        <time>2021-07-21T08:02:34Z</time>
      </trkpt>
      <trkpt lat="44.4104" lon="6.74262">
        <ele>1289.49</ele>
        <time>2021-07-21T08:02:38Z</time>
      </trkpt>
      <trkpt lat="44.41037" lon="6.74271">
        <ele>1289.85</ele>
        <time>2021-07-21T08:02:42Z</time>
      </trkpt>
      <trkpt lat="44.41031" lon="6.74283">
        <ele>1289.57</ele>
        <time>2021-07-21T08:02:46Z</time>
      </trkpt>
      <trkpt lat="44.41029" lon="6.74291">
        <ele>1290.37</ele>
        <time>2021-07-21T08:02:49Z</time>
      </trkpt>
      <trkpt lat="44.41027" lon="6.74299">
        <ele>1290.93</ele>
        <time>2021-07-21T08:02:52Z</time>
      </trkpt>
      <trkpt lat="44.41025" lon="6.74307">
        <ele>1290.92</ele>
        <time>2021-07-21T08:02:57Z</time>
      </trkpt>
      <trkpt lat="44.41023" lon="6.74316">
        <ele>1290.68</ele>
        <time>2021-07-21T08:02:58Z</time>
      </trkpt>
      <trkpt lat="44.41021" lon="6.74329">
        <ele>1291.18</ele>
        <time>2021-07-21T08:03:02Z</time>
      </trkpt>
      <trkpt lat="44.41019" lon="6.74341">
        <ele>1292.02</ele>
        <time>2021-07-21T08:03:08Z</time>
      </trkpt>
      <trkpt lat="44.41017" lon="6.74349">
        <ele>1292.24</ele>
        <time>2021-07-21T08:03:10Z</time>
      </trkpt>
      <trkpt lat="44.41015" lon="6.7436">
        <ele>1293.1</ele>
        <time>2021-07-21T08:03:14Z</time>
      </trkpt>
      <trkpt lat="44.41014" lon="6.74369">
        <ele>1293.29</ele>
        <time>2021-07-21T08:03:17Z</time>
      </trkpt>
      <trkpt lat="44.41013" lon="6.74379">
        <ele>1293.5</ele>
        <time>2021-07-21T08:03:22Z</time>
      </trkpt>
      <trkpt lat="44.41012" lon="6.74388">
        <ele>1293.69</ele>
        <time>2021-07-21T08:03:25Z</time>
      </trkpt>
      <trkpt lat="44.41012" lon="6.74397">
        <ele>1294.9</ele>
        <time>2021-07-21T08:03:29Z</time>
      </trkpt>
      <trkpt lat="44.41012" lon="6.74406">
        <ele>1296.14</ele>
        <time>2021-07-21T08:03:33Z</time>
      </trkpt>
      <trkpt lat="44.41011" lon="6.74415">
        <ele>1296.91</ele>
        <time>2021-07-21T08:03:36Z</time>
      </trkpt>
      <trkpt lat="44.41011" lon="6.74423">
        <ele>1297.74</ele>
        <time>2021-07-21T08:03:40Z</time>
      </trkpt>
      <trkpt lat="44.41009" lon="6.74432">
        <ele>1297.69</ele>
        <time>2021-07-21T08:03:43Z</time>
      </trkpt>
      <trkpt lat="44.41006" lon="6.74443">
        <ele>1297.45</ele>
        <time>2021-07-21T08:03:47Z</time>
      </trkpt>
      <trkpt lat="44.41005" lon="6.74454">
        <ele>1298.82</ele>
        <time>2021-07-21T08:03:51Z</time>
      </trkpt>
      <trkpt lat="44.41003" lon="6.74462">
        <ele>1299.39</ele>
        <time>2021-07-21T08:03:54Z</time>
      </trkpt>
      <trkpt lat="44.41001" lon="6.74471">
        <ele>1300.18</ele>
        <time>2021-07-21T08:03:58Z</time>
      </trkpt>
      <trkpt lat="44.40998" lon="6.74482">
        <ele>1300.95</ele>
        <time>2021-07-21T08:04:03Z</time>
      </trkpt>
      <trkpt lat="44.40995" lon="6.74491">
        <ele>1301.46</ele>
        <time>2021-07-21T08:04:07Z</time>
      </trkpt>
      <trkpt lat="44.40994" lon="6.74501">
        <ele>1303.06</ele>
        <time>2021-07-21T08:04:11Z</time>
      </trkpt>
      <trkpt lat="44.40991" lon="6.74509">
        <ele>1303.81</ele>
        <time>2021-07-21T08:04:15Z</time>
      </trkpt>
      <trkpt lat="44.40988" lon="6.74518">
        <ele>1304.85</ele>
        <time>2021-07-21T08:04:18Z</time>
      </trkpt>
      <trkpt lat="44.40992" lon="6.74525">
        <ele>1307.78</ele>
        <time>2021-07-21T08:04:22Z</time>
      </trkpt>
      <trkpt lat="44.40998" lon="6.74524">
        <ele>1309.53</ele>
        <time>2021-07-21T08:04:26Z</time>
      </trkpt>
      <trkpt lat="44.41002" lon="6.74516">
        <ele>1309.18</ele>
        <time>2021-07-21T08:04:31Z</time>
      </trkpt>
      <trkpt lat="44.41006" lon="6.74506">
        <ele>1308.46</ele>
        <time>2021-07-21T08:04:34Z</time>
      </trkpt>
      <trkpt lat="44.4101" lon="6.74497">
        <ele>1308.1</ele>
        <time>2021-07-21T08:04:37Z</time>
      </trkpt>
      <trkpt lat="44.41014" lon="6.7449">
        <ele>1308.42</ele>
        <time>2021-07-21T08:04:40Z</time>
      </trkpt>
      <trkpt lat="44.41018" lon="6.74481">
        <ele>1308.5</ele>
        <time>2021-07-21T08:04:44Z</time>
      </trkpt>
      <trkpt lat="44.41022" lon="6.74473">
        <ele>1308.83</ele>
        <time>2021-07-21T08:04:47Z</time>
      </trkpt>
      <trkpt lat="44.41026" lon="6.74464">
        <ele>1309.09</ele>
        <time>2021-07-21T08:04:52Z</time>
      </trkpt>
      <trkpt lat="44.4103" lon="6.74456">
        <ele>1309.11</ele>
        <time>2021-07-21T08:04:55Z</time>
      </trkpt>
      <trkpt lat="44.41034" lon="6.74449">
        <ele>1308.96</ele>
        <time>2021-07-21T08:05:00Z</time>
      </trkpt>
      <trkpt lat="44.4104" lon="6.74448">
        <ele>1310.1</ele>
        <time>2021-07-21T08:05:05Z</time>
      </trkpt>
      <trkpt lat="44.41045" lon="6.74453">
        <ele>1311.76</ele>
        <time>2021-07-21T08:05:09Z</time>
      </trkpt>
      <trkpt lat="44.41047" lon="6.74458">
        <ele>1312.77</ele>
        <time>2021-07-21T08:05:11Z</time>
      </trkpt>
      <trkpt lat="44.41048" lon="6.74464">
        <ele>1313.67</ele>
        <time>2021-07-21T08:05:15Z</time>
      </trkpt>
      <trkpt lat="44.4105" lon="6.74472">
        <ele>1314.97</ele>
        <time>2021-07-21T08:05:18Z</time>
      </trkpt>
      <trkpt lat="44.4105" lon="6.7448">
        <ele>1316.12</ele>
        <time>2021-07-21T08:05:22Z</time>
      </trkpt>
      <trkpt lat="44.41047" lon="6.74487">
        <ele>1316.59</ele>
        <time>2021-07-21T08:05:26Z</time>
      </trkpt>
      <trkpt lat="44.41041" lon="6.74491">
        <ele>1316.08</ele>
        <time>2021-07-21T08:05:28Z</time>
      </trkpt>
      <trkpt lat="44.41035" lon="6.74492">
        <ele>1315.15</ele>
        <time>2021-07-21T08:05:32Z</time>
      </trkpt>
      <trkpt lat="44.41029" lon="6.74495">
        <ele>1314.5</ele>
        <time>2021-07-21T08:05:34Z</time>
      </trkpt>
      <trkpt lat="44.41025" lon="6.74505">
        <ele>1315.08</ele>
        <time>2021-07-21T08:05:40Z</time>
      </trkpt>
      <trkpt lat="44.41024" lon="6.74514">
        <ele>1316.66</ele>
        <time>2021-07-21T08:05:45Z</time>
      </trkpt>
      <trkpt lat="44.41024" lon="6.74525">
        <ele>1319.04</ele>
        <time>2021-07-21T08:05:50Z</time>
      </trkpt>
      <trkpt lat="44.41024" lon="6.74536">
        <ele>1320.94</ele>
        <time>2021-07-21T08:05:53Z</time>
      </trkpt>
      <trkpt lat="44.41024" lon="6.74546">
        <ele>1322.53</ele>
        <time>2021-07-21T08:05:57Z</time>
      </trkpt>
      <trkpt lat="44.41023" lon="6.74555">
        <ele>1323.71</ele>
        <time>2021-07-21T08:06:02Z</time>
      </trkpt>
      <trkpt lat="44.41023" lon="6.74566">
        <ele>1325.74</ele>
        <time>2021-07-21T08:06:06Z</time>
      </trkpt>
      <trkpt lat="44.41024" lon="6.74577">
        <ele>1328.01</ele>
        <time>2021-07-21T08:06:11Z</time>
      </trkpt>
      <trkpt lat="44.41024" lon="6.74589">
        <ele>1329.8</ele>
        <time>2021-07-21T08:06:16Z</time>
      </trkpt>
      <trkpt lat="44.41024" lon="6.746">
        <ele>1330.98</ele>
        <time>2021-07-21T08:06:20Z</time>
      </trkpt>
      <trkpt lat="44.41024" lon="6.74609">
        <ele>1331.96</ele>
        <time>2021-07-21T08:06:23Z</time>
      </trkpt>
      <trkpt lat="44.41024" lon="6.74618">
        <ele>1332.5</ele>
        <time>2021-07-21T08:06:27Z</time>
      </trkpt>
      <trkpt lat="44.41024" lon="6.74628">
        <ele>1332.96</ele>
        <time>2021-07-21T08:06:31Z</time>
      </trkpt>
      <trkpt lat="44.41024" lon="6.74636">
        <ele>1333.32</ele>
        <time>2021-07-21T08:06:36Z</time>
      </trkpt>
      <trkpt lat="44.41024" lon="6.74641">
        <ele>1333.61</ele>
        <time>2021-07-21T08:06:40Z</time>
      </trkpt>
      <trkpt lat="44.41022" lon="6.74649">
        <ele>1333.9</ele>
        <time>2021-07-21T08:06:44Z</time>
      </trkpt>
      <trkpt lat="44.4102" lon="6.74656">
        <ele>1334.11</ele>
        <time>2021-07-21T08:06:50Z</time>
      </trkpt>
      <trkpt lat="44.41018" lon="6.74659">
        <ele>1334.04</ele>
        <time>2021-07-21T08:06:50Z</time>
      </trkpt>
      <trkpt lat="44.41016" lon="6.74663">
        <ele>1334.04</ele>
        <time>2021-07-21T08:06:54Z</time>
      </trkpt>
      <trkpt lat="44.41015" lon="6.74667">
        <ele>1334.21</ele>
        <time>2021-07-21T08:06:55Z</time>
      </trkpt>
      <trkpt lat="44.41013" lon="6.74676">
        <ele>1335.24</ele>
        <time>2021-07-21T08:06:59Z</time>
      </trkpt>
      <trkpt lat="44.4101" lon="6.74684">
        <ele>1336.11</ele>
        <time>2021-07-21T08:07:03Z</time>
      </trkpt>
      <trkpt lat="44.41009" lon="6.74692">
        <ele>1337.27</ele>
        <time>2021-07-21T08:07:06Z</time>
      </trkpt>
      <trkpt lat="44.41008" lon="6.74702">
        <ele>1338.78</ele>
        <time>2021-07-21T08:07:10Z</time>
      </trkpt>
      <trkpt lat="44.41006" lon="6.74712">
        <ele>1340.32</ele>
        <time>2021-07-21T08:07:15Z</time>
      </trkpt>
      <trkpt lat="44.41004" lon="6.74718">
        <ele>1341.28</ele>
        <time>2021-07-21T08:07:18Z</time>
      </trkpt>
      <trkpt lat="44.41001" lon="6.74728">
        <ele>1343.04</ele>
        <time>2021-07-21T08:07:23Z</time>
      </trkpt>
      <trkpt lat="44.40999" lon="6.74736">
        <ele>1344.46</ele>
        <time>2021-07-21T08:07:27Z</time>
      </trkpt>
      <trkpt lat="44.40996" lon="6.74744">
        <ele>1345.81</ele>
        <time>2021-07-21T08:07:31Z</time>
      </trkpt>
      <trkpt lat="44.40993" lon="6.74752">
        <ele>1347.13</ele>
        <time>2021-07-21T08:07:38Z</time>
      </trkpt>
      <trkpt lat="44.40991" lon="6.74756">
        <ele>1347.83</ele>
        <time>2021-07-21T08:07:41Z</time>
      </trkpt>
      <trkpt lat="44.40989" lon="6.7476">
        <ele>1348.55</ele>
        <time>2021-07-21T08:07:42Z</time>
      </trkpt>
      <trkpt lat="44.40987" lon="6.74763">
        <ele>1349.09</ele>
        <time>2021-07-21T08:07:46Z</time>
      </trkpt>
      <trkpt lat="44.40984" lon="6.74767">
        <ele>1349.84</ele>
        <time>2021-07-21T08:07:47Z</time>
      </trkpt>
      <trkpt lat="44.40983" lon="6.74772">
        <ele>1350.83</ele>
        <time>2021-07-21T08:07:47Z</time>
      </trkpt>
      <trkpt lat="44.40983" lon="6.74776">
        <ele>1351.64</ele>
        <time>2021-07-21T08:09:08Z</time>
      </trkpt>
      <trkpt lat="44.40983" lon="6.7478">
        <ele>1352.35</ele>
        <time>2021-07-21T08:09:20Z</time>
      </trkpt>
      <trkpt lat="44.40983" lon="6.74784">
        <ele>1352.98</ele>
        <time>2021-07-21T08:09:25Z</time>
      </trkpt>
      <trkpt lat="44.40981" lon="6.74789">
        <ele>1353.74</ele>
        <time>2021-07-21T08:09:28Z</time>
      </trkpt>
      <trkpt lat="44.40979" lon="6.74793">
        <ele>1354.33</ele>
        <time>2021-07-21T08:09:31Z</time>
      </trkpt>
      <trkpt lat="44.40978" lon="6.74797">
        <ele>1354.91</ele>
        <time>2021-07-21T08:09:32Z</time>
      </trkpt>
      <trkpt lat="44.40975" lon="6.74803">
        <ele>1355.72</ele>
        <time>2021-07-21T08:09:35Z</time>
      </trkpt>
      <trkpt lat="44.40972" lon="6.74813">
        <ele>1357.6</ele>
        <time>2021-07-21T08:09:41Z</time>
      </trkpt>
      <trkpt lat="44.40969" lon="6.74821">
        <ele>1359.09</ele>
        <time>2021-07-21T08:09:45Z</time>
      </trkpt>
      <trkpt lat="44.40966" lon="6.74828">
        <ele>1360.26</ele>
        <time>2021-07-21T08:09:47Z</time>
      </trkpt>
      <trkpt lat="44.40965" lon="6.74835">
        <ele>1361.5</ele>
        <time>2021-07-21T08:09:51Z</time>
      </trkpt>
      <trkpt lat="44.40962" lon="6.74843">
        <ele>1362.51</ele>
        <time>2021-07-21T08:09:55Z</time>
      </trkpt>
      <trkpt lat="44.40959" lon="6.74851">
        <ele>1363.45</ele>
        <time>2021-07-21T08:09:59Z</time>
      </trkpt>
      <trkpt lat="44.40959" lon="6.74856">
        <ele>1364.26</ele>
        <time>2021-07-21T08:10:03Z</time>
      </trkpt>
      <trkpt lat="44.40958" lon="6.74864">
        <ele>1365.32</ele>
        <time>2021-07-21T08:10:05Z</time>
      </trkpt>
      <trkpt lat="44.40958" lon="6.74875">
        <ele>1366.71</ele>
        <time>2021-07-21T08:10:09Z</time>
      </trkpt>
      <trkpt lat="44.40958" lon="6.74887">
        <ele>1368.23</ele>
        <time>2021-07-21T08:10:14Z</time>
      </trkpt>
      <trkpt lat="44.40957" lon="6.74898">
        <ele>1368.39</ele>
        <time>2021-07-21T08:10:17Z</time>
      </trkpt>
      <trkpt lat="44.40955" lon="6.74908">
        <ele>1368.31</ele>
        <time>2021-07-21T08:10:20Z</time>
      </trkpt>
      <trkpt lat="44.40955" lon="6.74918">
        <ele>1368.33</ele>
        <time>2021-07-21T08:10:25Z</time>
      </trkpt>
      <trkpt lat="44.40952" lon="6.74927">
        <ele>1367.9</ele>
        <time>2021-07-21T08:10:28Z</time>
      </trkpt>
      <trkpt lat="44.40948" lon="6.74934">
        <ele>1367.5</ele>
        <time>2021-07-21T08:10:32Z</time>
      </trkpt>
      <trkpt lat="44.40945" lon="6.74944">
        <ele>1367.04</ele>
        <time>2021-07-21T08:10:37Z</time>
      </trkpt>
      <trkpt lat="44.40941" lon="6.74952">
        <ele>1367.07</ele>
        <time>2021-07-21T08:10:40Z</time>
      </trkpt>
      <trkpt lat="44.40937" lon="6.74959">
        <ele>1367.28</ele>
        <time>2021-07-21T08:10:43Z</time>
      </trkpt>
      <trkpt lat="44.40934" lon="6.74964">
        <ele>1367.53</ele>
        <time>2021-07-21T08:10:47Z</time>
      </trkpt>
      <trkpt lat="44.40931" lon="6.7497">
        <ele>1367.89</ele>
        <time>2021-07-21T08:10:50Z</time>
      </trkpt>
      <trkpt lat="44.40927" lon="6.74978">
        <ele>1368.88</ele>
        <time>2021-07-21T08:10:55Z</time>
      </trkpt>
      <trkpt lat="44.40924" lon="6.74985">
        <ele>1369.85</ele>
        <time>2021-07-21T08:10:58Z</time>
      </trkpt>
      <trkpt lat="44.4092" lon="6.74992">
        <ele>1370.9</ele>
        <time>2021-07-21T08:11:01Z</time>
      </trkpt>
      <trkpt lat="44.40918" lon="6.75001">
        <ele>1372.08</ele>
        <time>2021-07-21T08:11:06Z</time>
      </trkpt>
      <trkpt lat="44.40917" lon="6.75009">
        <ele>1373.59</ele>
        <time>2021-07-21T08:11:09Z</time>
      </trkpt>
      <trkpt lat="44.40914" lon="6.75019">
        <ele>1375.87</ele>
        <time>2021-07-21T08:11:14Z</time>
      </trkpt>
      <trkpt lat="44.40912" lon="6.75027">
        <ele>1377.7</ele>
        <time>2021-07-21T08:11:17Z</time>
      </trkpt>
      <trkpt lat="44.4091" lon="6.75039">
        <ele>1380.01</ele>
        <time>2021-07-21T08:11:22Z</time>
      </trkpt>
      <trkpt lat="44.40908" lon="6.75047">
        <ele>1381.76</ele>
        <time>2021-07-21T08:11:25Z</time>
      </trkpt>
      <trkpt lat="44.40906" lon="6.75057">
        <ele>1383.86</ele>
        <time>2021-07-21T08:11:30Z</time>
      </trkpt>
      <trkpt lat="44.40904" lon="6.75064">
        <ele>1385.13</ele>
        <time>2021-07-21T08:11:33Z</time>
      </trkpt>
      <trkpt lat="44.40904" lon="6.7507">
        <ele>1385.8</ele>
        <time>2021-07-21T08:11:35Z</time>
      </trkpt>
      <trkpt lat="44.40905" lon="6.75078">
        <ele>1386.49</ele>
        <time>2021-07-21T08:11:40Z</time>
      </trkpt>
      <trkpt lat="44.40906" lon="6.7509">
        <ele>1386.92</ele>
        <time>2021-07-21T08:11:43Z</time>
      </trkpt>
      <trkpt lat="44.40908" lon="6.75099">
        <ele>1386.56</ele>
        <time>2021-07-21T08:11:47Z</time>
      </trkpt>
      <trkpt lat="44.40911" lon="6.75106">
        <ele>1386.02</ele>
        <time>2021-07-21T08:11:50Z</time>
      </trkpt>
      <trkpt lat="44.40912" lon="6.75116">
        <ele>1385.99</ele>
        <time>2021-07-21T08:11:54Z</time>
      </trkpt>
      <trkpt lat="44.40913" lon="6.75127">
        <ele>1386.16</ele>
        <time>2021-07-21T08:11:56Z</time>
      </trkpt>
      <trkpt lat="44.40913" lon="6.75138">
        <ele>1386.5</ele>
        <time>2021-07-21T08:12:00Z</time>
      </trkpt>
      <trkpt lat="44.40913" lon="6.75148">
        <ele>1386.53</ele>
        <time>2021-07-21T08:12:03Z</time>
      </trkpt>
      <trkpt lat="44.40912" lon="6.75158">
        <ele>1386.67</ele>
        <time>2021-07-21T08:12:07Z</time>
      </trkpt>
      <trkpt lat="44.4091" lon="6.75169">
        <ele>1386.96</ele>
        <time>2021-07-21T08:12:11Z</time>
      </trkpt>
      <trkpt lat="44.4091" lon="6.7518">
        <ele>1386.96</ele>
        <time>2021-07-21T08:12:15Z</time>
      </trkpt>
      <trkpt lat="44.40908" lon="6.75191">
        <ele>1387.25</ele>
        <time>2021-07-21T08:12:20Z</time>
      </trkpt>
      <trkpt lat="44.40904" lon="6.75198">
        <ele>1387.82</ele>
        <time>2021-07-21T08:12:23Z</time>
      </trkpt>
      <trkpt lat="44.40898" lon="6.75205">
        <ele>1388.69</ele>
        <time>2021-07-21T08:12:27Z</time>
      </trkpt>
      <trkpt lat="44.40894" lon="6.75213">
        <ele>1389.26</ele>
        <time>2021-07-21T08:12:30Z</time>
      </trkpt>
      <trkpt lat="44.40889" lon="6.7522">
        <ele>1389.98</ele>
        <time>2021-07-21T08:12:35Z</time>
      </trkpt>
      <trkpt lat="44.40886" lon="6.75224">
        <ele>1390.69</ele>
        <time>2021-07-21T08:12:37Z</time>
      </trkpt>
      <trkpt lat="44.40885" lon="6.7523">
        <ele>1391.12</ele>
        <time>2021-07-21T08:12:39Z</time>
      </trkpt>
      <trkpt lat="44.40883" lon="6.75239">
        <ele>1391.88</ele>
        <time>2021-07-21T08:12:43Z</time>
      </trkpt>
      <trkpt lat="44.4088" lon="6.75246">
        <ele>1392.78</ele>
        <time>2021-07-21T08:12:45Z</time>
      </trkpt>
      <trkpt lat="44.40876" lon="6.75255">
        <ele>1394.07</ele>
        <time>2021-07-21T08:12:48Z</time>
      </trkpt>
      <trkpt lat="44.40871" lon="6.75265">
        <ele>1395.44</ele>
        <time>2021-07-21T08:12:53Z</time>
      </trkpt>
      <trkpt lat="44.40867" lon="6.75272">
        <ele>1396.23</ele>
        <time>2021-07-21T08:12:55Z</time>
      </trkpt>
      <trkpt lat="44.40862" lon="6.75282">
        <ele>1397.37</ele>
        <time>2021-07-21T08:13:00Z</time>
      </trkpt>
      <trkpt lat="44.40857" lon="6.75289">
        <ele>1399.1</ele>
        <time>2021-07-21T08:13:04Z</time>
      </trkpt>
      <trkpt lat="44.40851" lon="6.75294">
        <ele>1400.94</ele>
        <time>2021-07-21T08:13:08Z</time>
      </trkpt>
      <trkpt lat="44.40846" lon="6.75299">
        <ele>1402.56</ele>
        <time>2021-07-21T08:13:11Z</time>
      </trkpt>
      <trkpt lat="44.4084" lon="6.75302">
        <ele>1404.18</ele>
        <time>2021-07-21T08:13:15Z</time>
      </trkpt>
      <trkpt lat="44.40837" lon="6.7531">
        <ele>1405.87</ele>
        <time>2021-07-21T08:13:18Z</time>
      </trkpt>
      <trkpt lat="44.40832" lon="6.75317">
        <ele>1407.8</ele>
        <time>2021-07-21T08:13:24Z</time>
      </trkpt>
      <trkpt lat="44.40828" lon="6.75325">
        <ele>1409.3</ele>
        <time>2021-07-21T08:13:26Z</time>
      </trkpt>
      <trkpt lat="44.40824" lon="6.75334">
        <ele>1410.74</ele>
        <time>2021-07-21T08:13:30Z</time>
      </trkpt>
      <trkpt lat="44.40821" lon="6.75341">
        <ele>1411.59</ele>
        <time>2021-07-21T08:13:34Z</time>
      </trkpt>
      <trkpt lat="44.40819" lon="6.75348">
        <ele>1412.34</ele>
        <time>2021-07-21T08:13:38Z</time>
      </trkpt>
      <trkpt lat="44.40816" lon="6.75357">
        <ele>1413.27</ele>
        <time>2021-07-21T08:13:41Z</time>
      </trkpt>
      <trkpt lat="44.40809" lon="6.75365">
        <ele>1414.17</ele>
        <time>2021-07-21T08:13:44Z</time>
      </trkpt>
      <trkpt lat="44.40803" lon="6.75372">
        <ele>1414.78</ele>
        <time>2021-07-21T08:13:48Z</time>
      </trkpt>
      <trkpt lat="44.40798" lon="6.75377">
        <ele>1415.14</ele>
        <time>2021-07-21T08:13:54Z</time>
      </trkpt>
      <trkpt lat="44.40794" lon="6.75382">
        <ele>1415.5</ele>
        <time>2021-07-21T08:13:57Z</time>
      </trkpt>
      <trkpt lat="44.4079" lon="6.75385">
        <ele>1415.72</ele>
        <time>2021-07-21T08:14:00Z</time>
      </trkpt>
      <trkpt lat="44.40788" lon="6.75391">
        <ele>1416.34</ele>
        <time>2021-07-21T08:14:06Z</time>
      </trkpt>
      <trkpt lat="44.40788" lon="6.75395">
        <ele>1416.98</ele>
        <time>2021-07-21T08:14:09Z</time>
      </trkpt>
      <trkpt lat="44.40787" lon="6.754">
        <ele>1417.73</ele>
        <time>2021-07-21T08:14:12Z</time>
      </trkpt>
      <trkpt lat="44.40786" lon="6.75404">
        <ele>1418.28</ele>
        <time>2021-07-21T08:14:14Z</time>
      </trkpt>
      <trkpt lat="44.40784" lon="6.75407">
        <ele>1418.54</ele>
        <time>2021-07-21T08:14:17Z</time>
      </trkpt>
      <trkpt lat="44.40781" lon="6.75409">
        <ele>1418.51</ele>
        <time>2021-07-21T08:14:21Z</time>
      </trkpt>
      <trkpt lat="44.40778" lon="6.75409">
        <ele>1418.2</ele>
        <time>2021-07-21T08:14:23Z</time>
      </trkpt>
      <trkpt lat="44.40775" lon="6.7541">
        <ele>1418.53</ele>
        <time>2021-07-21T08:14:31Z</time>
      </trkpt>
      <trkpt lat="44.40772" lon="6.75411">
        <ele>1418.89</ele>
        <time>2021-07-21T08:14:42Z</time>
      </trkpt>
      <trkpt lat="44.40769" lon="6.75412">
        <ele>1419.23</ele>
        <time>2021-07-21T08:14:59Z</time>
      </trkpt>
      <trkpt lat="44.40769" lon="6.75416">
        <ele>1419.58</ele>
        <time>2021-07-21T08:19:43Z</time>
      </trkpt>
      <trkpt lat="44.40764" lon="6.75419">
        <ele>1420.37</ele>
        <time>2021-07-21T08:19:46Z</time>
      </trkpt>
      <trkpt lat="44.40758" lon="6.75422">
        <ele>1421.25</ele>
        <time>2021-07-21T08:19:48Z</time>
      </trkpt>
      <trkpt lat="44.40751" lon="6.75426">
        <ele>1422.28</ele>
        <time>2021-07-21T08:19:51Z</time>
      </trkpt>
      <trkpt lat="44.40745" lon="6.7543">
        <ele>1423.47</ele>
        <time>2021-07-21T08:19:55Z</time>
      </trkpt>
      <trkpt lat="44.4074" lon="6.75435">
        <ele>1424.6</ele>
        <time>2021-07-21T08:19:56Z</time>
      </trkpt>
      <trkpt lat="44.40735" lon="6.75441">
        <ele>1425.72</ele>
        <time>2021-07-21T08:20:02Z</time>
      </trkpt>
      <trkpt lat="44.40732" lon="6.75448">
        <ele>1426.73</ele>
        <time>2021-07-21T08:20:04Z</time>
      </trkpt>
      <trkpt lat="44.40729" lon="6.75458">
        <ele>1428.1</ele>
        <time>2021-07-21T08:20:08Z</time>
      </trkpt>
      <trkpt lat="44.40726" lon="6.75465">
        <ele>1429.05</ele>
        <time>2021-07-21T08:20:11Z</time>
      </trkpt>
      <trkpt lat="44.40723" lon="6.75473">
        <ele>1430.06</ele>
        <time>2021-07-21T08:20:14Z</time>
      </trkpt>
      <trkpt lat="44.40722" lon="6.75478">
        <ele>1430.65</ele>
        <time>2021-07-21T08:20:16Z</time>
      </trkpt>
      <trkpt lat="44.40721" lon="6.75483">
        <ele>1431.3</ele>
        <time>2021-07-21T08:20:18Z</time>
      </trkpt>
      <trkpt lat="44.4072" lon="6.75487">
        <ele>1431.84</ele>
        <time>2021-07-21T08:20:20Z</time>
      </trkpt>
      <trkpt lat="44.40719" lon="6.75491">
        <ele>1432.38</ele>
        <time>2021-07-21T08:20:22Z</time>
      </trkpt>
      <trkpt lat="44.40718" lon="6.75496">
        <ele>1433.02</ele>
        <time>2021-07-21T08:20:24Z</time>
      </trkpt>
      <trkpt lat="44.40717" lon="6.755">
        <ele>1433.56</ele>
        <time>2021-07-21T08:20:26Z</time>
      </trkpt>
      <trkpt lat="44.40716" lon="6.75504">
        <ele>1434.22</ele>
        <time>2021-07-21T08:20:28Z</time>
      </trkpt>
      <trkpt lat="44.40715" lon="6.75508">
        <ele>1434.86</ele>
        <time>2021-07-21T08:20:30Z</time>
      </trkpt>
      <trkpt lat="44.40714" lon="6.75513">
        <ele>1435.62</ele>
        <time>2021-07-21T08:20:32Z</time>
      </trkpt>
      <trkpt lat="44.40713" lon="6.75517">
        <ele>1436.24</ele>
        <time>2021-07-21T08:20:34Z</time>
      </trkpt>
      <trkpt lat="44.40711" lon="6.75521">
        <ele>1436.93</ele>
        <time>2021-07-21T08:20:36Z</time>
      </trkpt>
      <trkpt lat="44.40709" lon="6.75525">
        <ele>1437.6</ele>
        <time>2021-07-21T08:20:38Z</time>
      </trkpt>
      <trkpt lat="44.40707" lon="6.75528">
        <ele>1438.12</ele>
        <time>2021-07-21T08:20:40Z</time>
      </trkpt>
      <trkpt lat="44.40705" lon="6.75531">
        <ele>1438.63</ele>
        <time>2021-07-21T08:20:42Z</time>
      </trkpt>
      <trkpt lat="44.40702" lon="6.75534">
        <ele>1439.19</ele>
        <time>2021-07-21T08:20:44Z</time>
      </trkpt>
      <trkpt lat="44.40699" lon="6.75535">
        <ele>1439.49</ele>
        <time>2021-07-21T08:20:46Z</time>
      </trkpt>
      <trkpt lat="44.40696" lon="6.75536">
        <ele>1439.79</ele>
        <time>2021-07-21T08:20:48Z</time>
      </trkpt>
      <trkpt lat="44.40693" lon="6.75537">
        <ele>1440.36</ele>
        <time>2021-07-21T08:20:50Z</time>
      </trkpt>
      <trkpt lat="44.40689" lon="6.75537">
        <ele>1441.37</ele>
        <time>2021-07-21T08:20:52Z</time>
      </trkpt>
      <trkpt lat="44.40686" lon="6.75536">
        <ele>1442.02</ele>
        <time>2021-07-21T08:20:54Z</time>
      </trkpt>
      <trkpt lat="44.40682" lon="6.75534">
        <ele>1442.81</ele>
        <time>2021-07-21T08:20:56Z</time>
      </trkpt>
      <trkpt lat="44.40679" lon="6.75532">
        <ele>1443.35</ele>
        <time>2021-07-21T08:20:58Z</time>
      </trkpt>
      <trkpt lat="44.40677" lon="6.7553">
        <ele>1443.64</ele>
        <time>2021-07-21T08:21:00Z</time>
      </trkpt>
      <trkpt lat="44.40674" lon="6.75528">
        <ele>1444.18</ele>
        <time>2021-07-21T08:21:02Z</time>
      </trkpt>
      <trkpt lat="44.40671" lon="6.75525">
        <ele>1444.61</ele>
        <time>2021-07-21T08:21:04Z</time>
      </trkpt>
      <trkpt lat="44.40669" lon="6.75522">
        <ele>1444.79</ele>
        <time>2021-07-21T08:21:06Z</time>
      </trkpt>
      <trkpt lat="44.40667" lon="6.75518">
        <ele>1444.86</ele>
        <time>2021-07-21T08:21:08Z</time>
      </trkpt>
      <trkpt lat="44.40665" lon="6.75514">
        <ele>1444.9</ele>
        <time>2021-07-21T08:21:10Z</time>
      </trkpt>
      <trkpt lat="44.40663" lon="6.7551">
        <ele>1444.96</ele>
        <time>2021-07-21T08:21:12Z</time>
      </trkpt>
      <trkpt lat="44.40661" lon="6.75506">
        <ele>1445.03</ele>
        <time>2021-07-21T08:21:14Z</time>
      </trkpt>
      <trkpt lat="44.40659" lon="6.75502">
        <ele>1445.13</ele>
        <time>2021-07-21T08:21:16Z</time>
      </trkpt>
      <trkpt lat="44.40658" lon="6.75498">
        <ele>1444.95</ele>
        <time>2021-07-21T08:21:18Z</time>
      </trkpt>
      <trkpt lat="44.40656" lon="6.75494">
        <ele>1444.96</ele>
        <time>2021-07-21T08:21:20Z</time>
      </trkpt>
      <trkpt lat="44.40654" lon="6.7549">
        <ele>1444.95</ele>
        <time>2021-07-21T08:21:22Z</time>
      </trkpt>
      <trkpt lat="44.40653" lon="6.75487">
        <ele>1444.81</ele>
        <time>2021-07-21T08:21:24Z</time>
      </trkpt>
      <trkpt lat="44.40651" lon="6.75482">
        <ele>1444.64</ele>
        <time>2021-07-21T08:21:26Z</time>
      </trkpt>
      <trkpt lat="44.40649" lon="6.75478">
        <ele>1444.57</ele>
        <time>2021-07-21T08:21:28Z</time>
      </trkpt>
      <trkpt lat="44.40647" lon="6.75474">
        <ele>1444.49</ele>
        <time>2021-07-21T08:21:30Z</time>
      </trkpt>
      <trkpt lat="44.40644" lon="6.75471">
        <ele>1444.74</ele>
        <time>2021-07-21T08:21:32Z</time>
      </trkpt>
      <trkpt lat="44.40642" lon="6.75467">
        <ele>1444.62</ele>
        <time>2021-07-21T08:21:34Z</time>
      </trkpt>
      <trkpt lat="44.40639" lon="6.75464">
        <ele>1444.79</ele>
        <time>2021-07-21T08:21:36Z</time>
      </trkpt>
      <trkpt lat="44.40636" lon="6.75461">
        <ele>1444.13</ele>
        <time>2021-07-21T08:21:38Z</time>
      </trkpt>
      <trkpt lat="44.40633" lon="6.75458">
        <ele>1443.42</ele>
        <time>2021-07-21T08:21:40Z</time>
      </trkpt>
      <trkpt lat="44.40629" lon="6.75455">
        <ele>1442.59</ele>
        <time>2021-07-21T08:21:42Z</time>
      </trkpt>
      <trkpt lat="44.40626" lon="6.75453">
        <ele>1441.98</ele>
        <time>2021-07-21T08:21:44Z</time>
      </trkpt>
      <trkpt lat="44.40623" lon="6.75452">
        <ele>1441.53</ele>
        <time>2021-07-21T08:21:46Z</time>
      </trkpt>
      <trkpt lat="44.4062" lon="6.75451">
        <ele>1441.06</ele>
        <time>2021-07-21T08:21:48Z</time>
      </trkpt>
      <trkpt lat="44.40616" lon="6.7545">
        <ele>1440.49</ele>
        <time>2021-07-21T08:21:50Z</time>
      </trkpt>
      <trkpt lat="44.40613" lon="6.7545">
        <ele>1440.19</ele>
        <time>2021-07-21T08:21:52Z</time>
      </trkpt>
      <trkpt lat="44.40609" lon="6.75451">
        <ele>1439.67</ele>
        <time>2021-07-21T08:21:54Z</time>
      </trkpt>
      <trkpt lat="44.40604" lon="6.75451">
        <ele>1438.45</ele>
        <time>2021-07-21T08:21:56Z</time>
      </trkpt>
      <trkpt lat="44.406" lon="6.75453">
        <ele>1437.86</ele>
        <time>2021-07-21T08:21:58Z</time>
      </trkpt>
      <trkpt lat="44.40596" lon="6.75455">
        <ele>1437.3</ele>
        <time>2021-07-21T08:22:00Z</time>
      </trkpt>
      <trkpt lat="44.40592" lon="6.75457">
        <ele>1436.75</ele>
        <time>2021-07-21T08:22:02Z</time>
      </trkpt>
      <trkpt lat="44.40588" lon="6.75461">
        <ele>1436.65</ele>
        <time>2021-07-21T08:22:04Z</time>
      </trkpt>
      <trkpt lat="44.40585" lon="6.75464">
        <ele>1436.6</ele>
        <time>2021-07-21T08:22:06Z</time>
      </trkpt>
      <trkpt lat="44.40581" lon="6.75468">
        <ele>1436.51</ele>
        <time>2021-07-21T08:22:07Z</time>
      </trkpt>
      <trkpt lat="44.40577" lon="6.75472">
        <ele>1436.36</ele>
        <time>2021-07-21T08:22:10Z</time>
      </trkpt>
      <trkpt lat="44.40573" lon="6.75478">
        <ele>1436.85</ele>
        <time>2021-07-21T08:22:13Z</time>
      </trkpt>
      <trkpt lat="44.40571" lon="6.75484">
        <ele>1437.86</ele>
        <time>2021-07-21T08:22:15Z</time>
      </trkpt>
      <trkpt lat="44.40569" lon="6.75489">
        <ele>1438.62</ele>
        <time>2021-07-21T08:22:17Z</time>
      </trkpt>
      <trkpt lat="44.40568" lon="6.75494">
        <ele>1439.62</ele>
        <time>2021-07-21T08:22:19Z</time>
      </trkpt>
      <trkpt lat="44.40566" lon="6.75499">
        <ele>1440.38</ele>
        <time>2021-07-21T08:22:21Z</time>
      </trkpt>
      <trkpt lat="44.40565" lon="6.75503">
        <ele>1441.06</ele>
        <time>2021-07-21T08:22:22Z</time>
      </trkpt>
      <trkpt lat="44.40564" lon="6.75508">
        <ele>1441.97</ele>
        <time>2021-07-21T08:22:23Z</time>
      </trkpt>
      <trkpt lat="44.40562" lon="6.75516">
        <ele>1443.39</ele>
        <time>2021-07-21T08:22:25Z</time>
      </trkpt>
      <trkpt lat="44.4056" lon="6.75526">
        <ele>1445.37</ele>
        <time>2021-07-21T08:22:30Z</time>
      </trkpt>
      <trkpt lat="44.40559" lon="6.75537">
        <ele>1447.86</ele>
        <time>2021-07-21T08:22:33Z</time>
      </trkpt>
      <trkpt lat="44.40558" lon="6.75547">
        <ele>1450.16</ele>
        <time>2021-07-21T08:22:37Z</time>
      </trkpt>
      <trkpt lat="44.40557" lon="6.75557">
        <ele>1452.11</ele>
        <time>2021-07-21T08:22:39Z</time>
      </trkpt>
      <trkpt lat="44.40557" lon="6.75568">
        <ele>1451.78</ele>
        <time>2021-07-21T08:22:41Z</time>
      </trkpt>
      <trkpt lat="44.40558" lon="6.75577">
        <ele>1451.7</ele>
        <time>2021-07-21T08:22:45Z</time>
      </trkpt>
      <trkpt lat="44.4056" lon="6.75587">
        <ele>1451.74</ele>
        <time>2021-07-21T08:22:48Z</time>
      </trkpt>
      <trkpt lat="44.40562" lon="6.75595">
        <ele>1451.75</ele>
        <time>2021-07-21T08:22:49Z</time>
      </trkpt>
      <trkpt lat="44.40562" lon="6.75602">
        <ele>1451.36</ele>
        <time>2021-07-21T08:22:53Z</time>
      </trkpt>
      <trkpt lat="44.40563" lon="6.75611">
        <ele>1451.15</ele>
        <time>2021-07-21T08:22:56Z</time>
      </trkpt>
      <trkpt lat="44.40563" lon="6.75621">
        <ele>1450.88</ele>
        <time>2021-07-21T08:23:00Z</time>
      </trkpt>
      <trkpt lat="44.40562" lon="6.75631">
        <ele>1450.31</ele>
        <time>2021-07-21T08:23:03Z</time>
      </trkpt>
      <trkpt lat="44.4056" lon="6.75637">
        <ele>1449.5</ele>
        <time>2021-07-21T08:23:05Z</time>
      </trkpt>
      <trkpt lat="44.40558" lon="6.75642">
        <ele>1449.01</ele>
        <time>2021-07-21T08:23:07Z</time>
      </trkpt>
      <trkpt lat="44.40556" lon="6.75647">
        <ele>1448.72</ele>
        <time>2021-07-21T08:23:09Z</time>
      </trkpt>
      <trkpt lat="44.40554" lon="6.75651">
        <ele>1448.45</ele>
        <time>2021-07-21T08:23:11Z</time>
      </trkpt>
      <trkpt lat="44.40552" lon="6.75653">
        <ele>1448.06</ele>
        <time>2021-07-21T08:23:13Z</time>
      </trkpt>
      <trkpt lat="44.40549" lon="6.75656">
        <ele>1447.49</ele>
        <time>2021-07-21T08:23:16Z</time>
      </trkpt>
      <trkpt lat="44.40545" lon="6.75659">
        <ele>1446.68</ele>
        <time>2021-07-21T08:23:19Z</time>
      </trkpt>
      <trkpt lat="44.40543" lon="6.7566">
        <ele>1446.25</ele>
        <time>2021-07-21T08:23:21Z</time>
      </trkpt>
      <trkpt lat="44.4054" lon="6.75663">
        <ele>1445.74</ele>
        <time>2021-07-21T08:23:22Z</time>
      </trkpt>
      <trkpt lat="44.40537" lon="6.75669">
        <ele>1445.72</ele>
        <time>2021-07-21T08:23:25Z</time>
      </trkpt>
      <trkpt lat="44.40533" lon="6.75677">
        <ele>1446.11</ele>
        <time>2021-07-21T08:23:30Z</time>
      </trkpt>
      <trkpt lat="44.40527" lon="6.75685">
        <ele>1446.09</ele>
        <time>2021-07-21T08:23:34Z</time>
      </trkpt>
      <trkpt lat="44.40524" lon="6.75693">
        <ele>1446.78</ele>
        <time>2021-07-21T08:23:39Z</time>
      </trkpt>
      <trkpt lat="44.40519" lon="6.75699">
        <ele>1446.99</ele>
        <time>2021-07-21T08:23:41Z</time>
      </trkpt>
      <trkpt lat="44.40515" lon="6.75706">
        <ele>1447.88</ele>
        <time>2021-07-21T08:23:44Z</time>
      </trkpt>
      <trkpt lat="44.40511" lon="6.75712">
        <ele>1448.58</ele>
        <time>2021-07-21T08:23:46Z</time>
      </trkpt>
      <trkpt lat="44.40506" lon="6.75717">
        <ele>1448.83</ele>
        <time>2021-07-21T08:23:50Z</time>
      </trkpt>
      <trkpt lat="44.40501" lon="6.75723">
        <ele>1449.41</ele>
        <time>2021-07-21T08:23:52Z</time>
      </trkpt>
      <trkpt lat="44.40496" lon="6.75732">
        <ele>1449.97</ele>
        <time>2021-07-21T08:23:57Z</time>
      </trkpt>
      <trkpt lat="44.40491" lon="6.75737">
        <ele>1449.31</ele>
        <time>2021-07-21T08:23:58Z</time>
      </trkpt>
      <trkpt lat="44.40486" lon="6.75744">
        <ele>1449.05</ele>
        <time>2021-07-21T08:24:00Z</time>
      </trkpt>
      <trkpt lat="44.40482" lon="6.75752">
        <ele>1449.19</ele>
        <time>2021-07-21T08:24:03Z</time>
      </trkpt>
      <trkpt lat="44.4048" lon="6.75763">
        <ele>1450.08</ele>
        <time>2021-07-21T08:24:05Z</time>
      </trkpt>
      <trkpt lat="44.40481" lon="6.75776">
        <ele>1452.52</ele>
        <time>2021-07-21T08:24:08Z</time>
      </trkpt>
      <trkpt lat="44.40483" lon="6.75786">
        <ele>1454.18</ele>
        <time>2021-07-21T08:24:11Z</time>
      </trkpt>
      <trkpt lat="44.40487" lon="6.758">
        <ele>1457.04</ele>
        <time>2021-07-21T08:24:14Z</time>
      </trkpt>
      <trkpt lat="44.4049" lon="6.7581">
        <ele>1459.06</ele>
        <time>2021-07-21T08:24:16Z</time>
      </trkpt>
      <trkpt lat="44.40492" lon="6.7582">
        <ele>1460.34</ele>
        <time>2021-07-21T08:24:18Z</time>
      </trkpt>
      <trkpt lat="44.40494" lon="6.75829">
        <ele>1461.64</ele>
        <time>2021-07-21T08:24:20Z</time>
      </trkpt>
      <trkpt lat="44.40495" lon="6.75839">
        <ele>1461.97</ele>
        <time>2021-07-21T08:24:23Z</time>
      </trkpt>
      <trkpt lat="44.40495" lon="6.75848">
        <ele>1461.43</ele>
        <time>2021-07-21T08:24:25Z</time>
      </trkpt>
      <trkpt lat="44.40495" lon="6.7586">
        <ele>1460.73</ele>
        <time>2021-07-21T08:24:28Z</time>
      </trkpt>
      <trkpt lat="44.40494" lon="6.75871">
        <ele>1460.19</ele>
        <time>2021-07-21T08:24:30Z</time>
      </trkpt>
      <trkpt lat="44.40489" lon="6.75882">
        <ele>1457.85</ele>
        <time>2021-07-21T08:24:33Z</time>
      </trkpt>
      <trkpt lat="44.40486" lon="6.75897">
        <ele>1457.03</ele>
        <time>2021-07-21T08:24:36Z</time>
      </trkpt>
      <trkpt lat="44.40483" lon="6.75906">
        <ele>1456.41</ele>
        <time>2021-07-21T08:24:38Z</time>
      </trkpt>
      <trkpt lat="44.4048" lon="6.75912">
        <ele>1455.67</ele>
        <time>2021-07-21T08:24:39Z</time>
      </trkpt>
      <trkpt lat="44.40475" lon="6.75922">
        <ele>1454.85</ele>
        <time>2021-07-21T08:24:42Z</time>
      </trkpt>
      <trkpt lat="44.40471" lon="6.75929">
        <ele>1454.58</ele>
        <time>2021-07-21T08:24:45Z</time>
      </trkpt>
      <trkpt lat="44.40462" lon="6.75937">
        <ele>1454.36</ele>
        <time>2021-07-21T08:24:47Z</time>
      </trkpt>
      <trkpt lat="44.40456" lon="6.7594">
        <ele>1453.93</ele>
        <time>2021-07-21T08:24:48Z</time>
      </trkpt>
      <trkpt lat="44.4045" lon="6.75942">
        <ele>1453.38</ele>
        <time>2021-07-21T08:24:49Z</time>
      </trkpt>
      <trkpt lat="44.40443" lon="6.75946">
        <ele>1453.06</ele>
        <time>2021-07-21T08:24:53Z</time>
      </trkpt>
      <trkpt lat="44.40438" lon="6.75949">
        <ele>1452.85</ele>
        <time>2021-07-21T08:24:53Z</time>
      </trkpt>
      <trkpt lat="44.40434" lon="6.75953">
        <ele>1452.76</ele>
        <time>2021-07-21T08:24:54Z</time>
      </trkpt>
      <trkpt lat="44.40429" lon="6.75957">
        <ele>1452.39</ele>
        <time>2021-07-21T08:24:55Z</time>
      </trkpt>
      <trkpt lat="44.40425" lon="6.75961">
        <ele>1452.03</ele>
        <time>2021-07-21T08:24:56Z</time>
      </trkpt>
      <trkpt lat="44.40421" lon="6.75964">
        <ele>1451.5</ele>
        <time>2021-07-21T08:24:57Z</time>
      </trkpt>
      <trkpt lat="44.40416" lon="6.75966">
        <ele>1450.61</ele>
        <time>2021-07-21T08:24:58Z</time>
      </trkpt>
      <trkpt lat="44.40411" lon="6.75969">
        <ele>1449.46</ele>
        <time>2021-07-21T08:24:59Z</time>
      </trkpt>
      <trkpt lat="44.40407" lon="6.75969">
        <ele>1448.45</ele>
        <time>2021-07-21T08:25:00Z</time>
      </trkpt>
      <trkpt lat="44.40402" lon="6.75969">
        <ele>1447.19</ele>
        <time>2021-07-21T08:25:01Z</time>
      </trkpt>
      <trkpt lat="44.40396" lon="6.75972">
        <ele>1445.78</ele>
        <time>2021-07-21T08:25:03Z</time>
      </trkpt>
      <trkpt lat="44.40389" lon="6.75977">
        <ele>1444.37</ele>
        <time>2021-07-21T08:25:08Z</time>
      </trkpt>
      <trkpt lat="44.40384" lon="6.75984">
        <ele>1443.74</ele>
        <time>2021-07-21T08:25:09Z</time>
      </trkpt>
      <trkpt lat="44.40378" lon="6.75991">
        <ele>1443.28</ele>
        <time>2021-07-21T08:25:11Z</time>
      </trkpt>
      <trkpt lat="44.40373" lon="6.75997">
        <ele>1443.25</ele>
        <time>2021-07-21T08:25:13Z</time>
      </trkpt>
      <trkpt lat="44.40368" lon="6.76002">
        <ele>1443.53</ele>
        <time>2021-07-21T08:25:15Z</time>
      </trkpt>
      <trkpt lat="44.40362" lon="6.76007">
        <ele>1444.13</ele>
        <time>2021-07-21T08:25:18Z</time>
      </trkpt>
      <trkpt lat="44.40357" lon="6.76011">
        <ele>1444.49</ele>
        <time>2021-07-21T08:25:21Z</time>
      </trkpt>
      <trkpt lat="44.40351" lon="6.76015">
        <ele>1444.7</ele>
        <time>2021-07-21T08:25:25Z</time>
      </trkpt>
      <trkpt lat="44.40344" lon="6.7602">
        <ele>1445.12</ele>
        <time>2021-07-21T08:25:30Z</time>
      </trkpt>
      <trkpt lat="44.40338" lon="6.76022">
        <ele>1444.83</ele>
        <time>2021-07-21T08:25:32Z</time>
      </trkpt>
      <trkpt lat="44.40332" lon="6.76026">
        <ele>1445.29</ele>
        <time>2021-07-21T08:25:36Z</time>
      </trkpt>
      <trkpt lat="44.40325" lon="6.76029">
        <ele>1445.46</ele>
        <time>2021-07-21T08:25:40Z</time>
      </trkpt>
      <trkpt lat="44.4032" lon="6.76032">
        <ele>1445.71</ele>
        <time>2021-07-21T08:25:43Z</time>
      </trkpt>
      <trkpt lat="44.40313" lon="6.76035">
        <ele>1445.57</ele>
        <time>2021-07-21T08:25:46Z</time>
      </trkpt>
      <trkpt lat="44.40306" lon="6.76037">
        <ele>1445.06</ele>
        <time>2021-07-21T08:25:49Z</time>
      </trkpt>
      <trkpt lat="44.40298" lon="6.76041">
        <ele>1444.37</ele>
        <time>2021-07-21T08:25:53Z</time>
      </trkpt>
      <trkpt lat="44.40293" lon="6.76044">
        <ele>1443.98</ele>
        <time>2021-07-21T08:25:55Z</time>
      </trkpt>
      <trkpt lat="44.40286" lon="6.76049">
        <ele>1443.53</ele>
        <time>2021-07-21T08:25:58Z</time>
      </trkpt>
      <trkpt lat="44.40281" lon="6.76054">
        <ele>1443.41</ele>
        <time>2021-07-21T08:26:00Z</time>
      </trkpt>
      <trkpt lat="44.40276" lon="6.76059">
        <ele>1443.67</ele>
        <time>2021-07-21T08:26:03Z</time>
      </trkpt>
      <trkpt lat="44.40272" lon="6.76066">
        <ele>1444.97</ele>
        <time>2021-07-21T08:26:06Z</time>
      </trkpt>
      <trkpt lat="44.4027" lon="6.76074">
        <ele>1446.91</ele>
        <time>2021-07-21T08:26:09Z</time>
      </trkpt>
      <trkpt lat="44.40268" lon="6.76085">
        <ele>1449.64</ele>
        <time>2021-07-21T08:26:14Z</time>
      </trkpt>
      <trkpt lat="44.40266" lon="6.76094">
        <ele>1451.41</ele>
        <time>2021-07-21T08:26:16Z</time>
      </trkpt>
      <trkpt lat="44.40263" lon="6.76102">
        <ele>1452.69</ele>
        <time>2021-07-21T08:26:19Z</time>
      </trkpt>
      <trkpt lat="44.4026" lon="6.7611">
        <ele>1453.91</ele>
        <time>2021-07-21T08:26:22Z</time>
      </trkpt>
      <trkpt lat="44.40257" lon="6.76118">
        <ele>1454.44</ele>
        <time>2021-07-21T08:26:25Z</time>
      </trkpt>
      <trkpt lat="44.40253" lon="6.76125">
        <ele>1454.59</ele>
        <time>2021-07-21T08:26:27Z</time>
      </trkpt>
      <trkpt lat="44.40249" lon="6.76133">
        <ele>1454.94</ele>
        <time>2021-07-21T08:26:30Z</time>
      </trkpt>
      <trkpt lat="44.40246" lon="6.76142">
        <ele>1455.34</ele>
        <time>2021-07-21T08:26:32Z</time>
      </trkpt>
      <trkpt lat="44.40244" lon="6.76152">
        <ele>1455.55</ele>
        <time>2021-07-21T08:26:37Z</time>
      </trkpt>
      <trkpt lat="44.4024" lon="6.76163">
        <ele>1455.26</ele>
        <time>2021-07-21T08:26:41Z</time>
      </trkpt>
      <trkpt lat="44.40237" lon="6.76173">
        <ele>1455.07</ele>
        <time>2021-07-21T08:26:45Z</time>
      </trkpt>
      <trkpt lat="44.40236" lon="6.76186">
        <ele>1455.51</ele>
        <time>2021-07-21T08:26:47Z</time>
      </trkpt>
      <trkpt lat="44.40233" lon="6.76195">
        <ele>1455.16</ele>
        <time>2021-07-21T08:26:49Z</time>
      </trkpt>
      <trkpt lat="44.4023" lon="6.76208">
        <ele>1455.57</ele>
        <time>2021-07-21T08:26:53Z</time>
      </trkpt>
      <trkpt lat="44.40227" lon="6.76215">
        <ele>1455.47</ele>
        <time>2021-07-21T08:26:55Z</time>
      </trkpt>
      <trkpt lat="44.40224" lon="6.76225">
        <ele>1455.84</ele>
        <time>2021-07-21T08:26:58Z</time>
      </trkpt>
      <trkpt lat="44.40221" lon="6.76235">
        <ele>1456.75</ele>
        <time>2021-07-21T08:27:02Z</time>
      </trkpt>
      <trkpt lat="44.40219" lon="6.76245">
        <ele>1458.12</ele>
        <time>2021-07-21T08:27:05Z</time>
      </trkpt>
      <trkpt lat="44.40216" lon="6.76252">
        <ele>1459.17</ele>
        <time>2021-07-21T08:27:07Z</time>
      </trkpt>
      <trkpt lat="44.40214" lon="6.76262">
        <ele>1461.12</ele>
        <time>2021-07-21T08:27:11Z</time>
      </trkpt>
      <trkpt lat="44.40211" lon="6.7627">
        <ele>1462.78</ele>
        <time>2021-07-21T08:27:14Z</time>
      </trkpt>
      <trkpt lat="44.40207" lon="6.7628">
        <ele>1464.99</ele>
        <time>2021-07-21T08:27:16Z</time>
      </trkpt>
      <trkpt lat="44.40205" lon="6.76294">
        <ele>1467.9</ele>
        <time>2021-07-21T08:27:21Z</time>
      </trkpt>
      <trkpt lat="44.40204" lon="6.76303">
        <ele>1469.79</ele>
        <time>2021-07-21T08:27:22Z</time>
      </trkpt>
      <trkpt lat="44.40203" lon="6.76311">
        <ele>1471.3</ele>
        <time>2021-07-21T08:27:25Z</time>
      </trkpt>
      <trkpt lat="44.40201" lon="6.76319">
        <ele>1472.83</ele>
        <time>2021-07-21T08:27:28Z</time>
      </trkpt>
      <trkpt lat="44.40196" lon="6.76326">
        <ele>1474.53</ele>
        <time>2021-07-21T08:27:31Z</time>
      </trkpt>
      <trkpt lat="44.40187" lon="6.76327">
        <ele>1473.99</ele>
        <time>2021-07-21T08:27:36Z</time>
      </trkpt>
      <trkpt lat="44.4018" lon="6.76325">
        <ele>1472.78</ele>
        <time>2021-07-21T08:27:37Z</time>
      </trkpt>
      <trkpt lat="44.40173" lon="6.76318">
        <ele>1470.5</ele>
        <time>2021-07-21T08:27:39Z</time>
      </trkpt>
      <trkpt lat="44.4017" lon="6.76306">
        <ele>1467.57</ele>
        <time>2021-07-21T08:27:43Z</time>
      </trkpt>
      <trkpt lat="44.40167" lon="6.76295">
        <ele>1464.39</ele>
        <time>2021-07-21T08:27:45Z</time>
      </trkpt>
      <trkpt lat="44.40165" lon="6.76284">
        <ele>1461.37</ele>
        <time>2021-07-21T08:27:48Z</time>
      </trkpt>
      <trkpt lat="44.4016" lon="6.76278">
        <ele>1459.33</ele>
        <time>2021-07-21T08:27:50Z</time>
      </trkpt>
      <trkpt lat="44.40152" lon="6.76275">
        <ele>1457.87</ele>
        <time>2021-07-21T08:27:53Z</time>
      </trkpt>
      <trkpt lat="44.40146" lon="6.76275">
        <ele>1457.24</ele>
        <time>2021-07-21T08:27:55Z</time>
      </trkpt>
      <trkpt lat="44.4014" lon="6.76276">
        <ele>1456.8</ele>
        <time>2021-07-21T08:27:57Z</time>
      </trkpt>
      <trkpt lat="44.40133" lon="6.76279">
        <ele>1457.87</ele>
        <time>2021-07-21T08:28:01Z</time>
      </trkpt>
      <trkpt lat="44.40128" lon="6.76282">
        <ele>1458.91</ele>
        <time>2021-07-21T08:28:03Z</time>
      </trkpt>
      <trkpt lat="44.40122" lon="6.76288">
        <ele>1460.36</ele>
        <time>2021-07-21T08:28:07Z</time>
      </trkpt>
      <trkpt lat="44.40114" lon="6.76293">
        <ele>1461.5</ele>
        <time>2021-07-21T08:28:11Z</time>
      </trkpt>
      <trkpt lat="44.40108" lon="6.76296">
        <ele>1462</ele>
        <time>2021-07-21T08:28:12Z</time>
      </trkpt>
      <trkpt lat="44.401" lon="6.763">
        <ele>1462.64</ele>
        <time>2021-07-21T08:28:15Z</time>
      </trkpt>
      <trkpt lat="44.40095" lon="6.76304">
        <ele>1463.35</ele>
        <time>2021-07-21T08:28:18Z</time>
      </trkpt>
      <trkpt lat="44.4009" lon="6.76307">
        <ele>1463.9</ele>
        <time>2021-07-21T08:28:21Z</time>
      </trkpt>
      <trkpt lat="44.40084" lon="6.7631">
        <ele>1464.31</ele>
        <time>2021-07-21T08:28:25Z</time>
      </trkpt>
      <trkpt lat="44.40079" lon="6.76312">
        <ele>1464.07</ele>
        <time>2021-07-21T08:28:29Z</time>
      </trkpt>
      <trkpt lat="44.40075" lon="6.76315">
        <ele>1463.98</ele>
        <time>2021-07-21T08:28:32Z</time>
      </trkpt>
      <trkpt lat="44.40069" lon="6.7632">
        <ele>1464.03</ele>
        <time>2021-07-21T08:28:34Z</time>
      </trkpt>
      <trkpt lat="44.40063" lon="6.76324">
        <ele>1464.1</ele>
        <time>2021-07-21T08:28:37Z</time>
      </trkpt>
      <trkpt lat="44.40058" lon="6.76331">
        <ele>1464.77</ele>
        <time>2021-07-21T08:28:39Z</time>
      </trkpt>
      <trkpt lat="44.40053" lon="6.76338">
        <ele>1465.61</ele>
        <time>2021-07-21T08:28:42Z</time>
      </trkpt>
      <trkpt lat="44.40048" lon="6.76347">
        <ele>1466.88</ele>
        <time>2021-07-21T08:28:45Z</time>
      </trkpt>
      <trkpt lat="44.40043" lon="6.76355">
        <ele>1468.14</ele>
        <time>2021-07-21T08:28:48Z</time>
      </trkpt>
      <trkpt lat="44.40038" lon="6.76364">
        <ele>1469.76</ele>
        <time>2021-07-21T08:28:51Z</time>
      </trkpt>
      <trkpt lat="44.40033" lon="6.7637">
        <ele>1471.02</ele>
        <time>2021-07-21T08:28:53Z</time>
      </trkpt>
      <trkpt lat="44.40029" lon="6.76378">
        <ele>1472.4</ele>
        <time>2021-07-21T08:28:58Z</time>
      </trkpt>
      <trkpt lat="44.40022" lon="6.76385">
        <ele>1473.91</ele>
        <time>2021-07-21T08:29:03Z</time>
      </trkpt>
      <trkpt lat="44.40016" lon="6.76387">
        <ele>1474.63</ele>
        <time>2021-07-21T08:29:04Z</time>
      </trkpt>
      <trkpt lat="44.4001" lon="6.7639">
        <ele>1475.37</ele>
        <time>2021-07-21T08:29:07Z</time>
      </trkpt>
      <trkpt lat="44.40002" lon="6.76394">
        <ele>1476.24</ele>
        <time>2021-07-21T08:29:12Z</time>
      </trkpt>
      <trkpt lat="44.39996" lon="6.76395">
        <ele>1476.47</ele>
        <time>2021-07-21T08:29:15Z</time>
      </trkpt>
      <trkpt lat="44.3999" lon="6.76395">
        <ele>1476.52</ele>
        <time>2021-07-21T08:29:18Z</time>
      </trkpt>
      <trkpt lat="44.39983" lon="6.76398">
        <ele>1476.86</ele>
        <time>2021-07-21T08:29:21Z</time>
      </trkpt>
      <trkpt lat="44.39977" lon="6.76403">
        <ele>1477.44</ele>
        <time>2021-07-21T08:29:24Z</time>
      </trkpt>
      <trkpt lat="44.39976" lon="6.76413">
        <ele>1478.49</ele>
        <time>2021-07-21T08:29:28Z</time>
      </trkpt>
      <trkpt lat="44.3998" lon="6.76421">
        <ele>1479.26</ele>
        <time>2021-07-21T08:29:31Z</time>
      </trkpt>
      <trkpt lat="44.39988" lon="6.76423">
        <ele>1479.08</ele>
        <time>2021-07-21T08:29:37Z</time>
      </trkpt>
      <trkpt lat="44.39995" lon="6.76419">
        <ele>1478.38</ele>
        <time>2021-07-21T08:29:39Z</time>
      </trkpt>
      <trkpt lat="44.40002" lon="6.76414">
        <ele>1477.73</ele>
        <time>2021-07-21T08:29:42Z</time>
      </trkpt>
      <trkpt lat="44.40009" lon="6.76415">
        <ele>1477.54</ele>
        <time>2021-07-21T08:29:47Z</time>
      </trkpt>
      <trkpt lat="44.40016" lon="6.76418">
        <ele>1477.55</ele>
        <time>2021-07-21T08:29:50Z</time>
      </trkpt>
      <trkpt lat="44.40022" lon="6.76422">
        <ele>1477.74</ele>
        <time>2021-07-21T08:29:53Z</time>
      </trkpt>
      <trkpt lat="44.40028" lon="6.76426">
        <ele>1478.02</ele>
        <time>2021-07-21T08:29:57Z</time>
      </trkpt>
      <trkpt lat="44.40035" lon="6.7643">
        <ele>1478.84</ele>
        <time>2021-07-21T08:30:01Z</time>
      </trkpt>
      <trkpt lat="44.40041" lon="6.76433">
        <ele>1479.44</ele>
        <time>2021-07-21T08:30:04Z</time>
      </trkpt>
      <trkpt lat="44.40047" lon="6.76437">
        <ele>1480.07</ele>
        <time>2021-07-21T08:30:07Z</time>
      </trkpt>
      <trkpt lat="44.40053" lon="6.7644">
        <ele>1480.57</ele>
        <time>2021-07-21T08:30:10Z</time>
      </trkpt>
      <trkpt lat="44.40059" lon="6.76444">
        <ele>1481.34</ele>
        <time>2021-07-21T08:30:12Z</time>
      </trkpt>
      <trkpt lat="44.40066" lon="6.76447">
        <ele>1482.36</ele>
        <time>2021-07-21T08:30:16Z</time>
      </trkpt>
      <trkpt lat="44.40074" lon="6.76448">
        <ele>1483.46</ele>
        <time>2021-07-21T08:30:19Z</time>
      </trkpt>
      <trkpt lat="44.40081" lon="6.76443">
        <ele>1483.6</ele>
        <time>2021-07-21T08:30:23Z</time>
      </trkpt>
      <trkpt lat="44.40085" lon="6.76436">
        <ele>1483.39</ele>
        <time>2021-07-21T08:30:26Z</time>
      </trkpt>
      <trkpt lat="44.40089" lon="6.76427">
        <ele>1482.96</ele>
        <time>2021-07-21T08:30:30Z</time>
      </trkpt>
      <trkpt lat="44.40093" lon="6.76417">
        <ele>1482.09</ele>
        <time>2021-07-21T08:30:34Z</time>
      </trkpt>
      <trkpt lat="44.40097" lon="6.76411">
        <ele>1481.15</ele>
        <time>2021-07-21T08:30:36Z</time>
      </trkpt>
      <trkpt lat="44.40103" lon="6.76405">
        <ele>1480.31</ele>
        <time>2021-07-21T08:30:40Z</time>
      </trkpt>
      <trkpt lat="44.4011" lon="6.76402">
        <ele>1480.21</ele>
        <time>2021-07-21T08:30:44Z</time>
      </trkpt>
      <trkpt lat="44.40116" lon="6.76401">
        <ele>1481.01</ele>
        <time>2021-07-21T08:30:48Z</time>
      </trkpt>
      <trkpt lat="44.4012" lon="6.764">
        <ele>1481.53</ele>
        <time>2021-07-21T08:30:50Z</time>
      </trkpt>
      <trkpt lat="44.40126" lon="6.764">
        <ele>1482.69</ele>
        <time>2021-07-21T08:30:52Z</time>
      </trkpt>
      <trkpt lat="44.40132" lon="6.76402">
        <ele>1484.42</ele>
        <time>2021-07-21T08:30:56Z</time>
      </trkpt>
      <trkpt lat="44.40136" lon="6.76409">
        <ele>1487.2</ele>
        <time>2021-07-21T08:30:58Z</time>
      </trkpt>
      <trkpt lat="44.40136" lon="6.7642">
        <ele>1490.2</ele>
        <time>2021-07-21T08:31:01Z</time>
      </trkpt>
      <trkpt lat="44.4013" lon="6.76427">
        <ele>1490.56</ele>
        <time>2021-07-21T08:31:04Z</time>
      </trkpt>
      <trkpt lat="44.40124" lon="6.76434">
        <ele>1490.82</ele>
        <time>2021-07-21T08:31:08Z</time>
      </trkpt>
      <trkpt lat="44.40117" lon="6.76438">
        <ele>1490.04</ele>
        <time>2021-07-21T08:31:12Z</time>
      </trkpt>
      <trkpt lat="44.40112" lon="6.76443">
        <ele>1489.91</ele>
        <time>2021-07-21T08:31:15Z</time>
      </trkpt>
      <trkpt lat="44.40109" lon="6.76451">
        <ele>1490.72</ele>
        <time>2021-07-21T08:31:21Z</time>
      </trkpt>
      <trkpt lat="44.40109" lon="6.76461">
        <ele>1492.52</ele>
        <time>2021-07-21T08:31:24Z</time>
      </trkpt>
      <trkpt lat="44.40109" lon="6.76472">
        <ele>1494.5</ele>
        <time>2021-07-21T08:31:28Z</time>
      </trkpt>
      <trkpt lat="44.40109" lon="6.76481">
        <ele>1495.47</ele>
        <time>2021-07-21T08:31:32Z</time>
      </trkpt>
      <trkpt lat="44.4011" lon="6.76492">
        <ele>1496.87</ele>
        <time>2021-07-21T08:31:34Z</time>
      </trkpt>
      <trkpt lat="44.40109" lon="6.76501">
        <ele>1497.47</ele>
        <time>2021-07-21T08:31:38Z</time>
      </trkpt>
      <trkpt lat="44.40108" lon="6.7651">
        <ele>1497.26</ele>
        <time>2021-07-21T08:31:42Z</time>
      </trkpt>
      <trkpt lat="44.40105" lon="6.7652">
        <ele>1496.62</ele>
        <time>2021-07-21T08:31:47Z</time>
      </trkpt>
      <trkpt lat="44.40101" lon="6.76528">
        <ele>1495.83</ele>
        <time>2021-07-21T08:31:53Z</time>
      </trkpt>
      <trkpt lat="44.40097" lon="6.76535">
        <ele>1495.48</ele>
        <time>2021-07-21T08:31:55Z</time>
      </trkpt>
      <trkpt lat="44.40093" lon="6.76542">
        <ele>1495.27</ele>
        <time>2021-07-21T08:31:58Z</time>
      </trkpt>
      <trkpt lat="44.40088" lon="6.76552">
        <ele>1495.33</ele>
        <time>2021-07-21T08:32:02Z</time>
      </trkpt>
      <trkpt lat="44.40084" lon="6.76559">
        <ele>1495.47</ele>
        <time>2021-07-21T08:32:06Z</time>
      </trkpt>
      <trkpt lat="44.40079" lon="6.76567">
        <ele>1495.24</ele>
        <time>2021-07-21T08:32:09Z</time>
      </trkpt>
      <trkpt lat="44.40077" lon="6.76575">
        <ele>1495.57</ele>
        <time>2021-07-21T08:32:13Z</time>
      </trkpt>
      <trkpt lat="44.40072" lon="6.76584">
        <ele>1495.23</ele>
        <time>2021-07-21T08:32:15Z</time>
      </trkpt>
      <trkpt lat="44.4007" lon="6.76595">
        <ele>1496.1</ele>
        <time>2021-07-21T08:32:19Z</time>
      </trkpt>
      <trkpt lat="44.40068" lon="6.76607">
        <ele>1497.16</ele>
        <time>2021-07-21T08:32:23Z</time>
      </trkpt>
      <trkpt lat="44.40065" lon="6.76616">
        <ele>1497.74</ele>
        <time>2021-07-21T08:32:25Z</time>
      </trkpt>
      <trkpt lat="44.40062" lon="6.76623">
        <ele>1498.23</ele>
        <time>2021-07-21T08:32:28Z</time>
      </trkpt>
      <trkpt lat="44.40058" lon="6.7663">
        <ele>1498.75</ele>
        <time>2021-07-21T08:32:30Z</time>
      </trkpt>
      <trkpt lat="44.40054" lon="6.76637">
        <ele>1499.61</ele>
        <time>2021-07-21T08:32:33Z</time>
      </trkpt>
      <trkpt lat="44.4005" lon="6.76644">
        <ele>1500.54</ele>
        <time>2021-07-21T08:32:36Z</time>
      </trkpt>
      <trkpt lat="44.40046" lon="6.76651">
        <ele>1501.4</ele>
        <time>2021-07-21T08:32:39Z</time>
      </trkpt>
      <trkpt lat="44.40042" lon="6.76658">
        <ele>1502.26</ele>
        <time>2021-07-21T08:32:41Z</time>
      </trkpt>
      <trkpt lat="44.40038" lon="6.76666">
        <ele>1503.27</ele>
        <time>2021-07-21T08:32:44Z</time>
      </trkpt>
      <trkpt lat="44.40033" lon="6.76673">
        <ele>1504.51</ele>
        <time>2021-07-21T08:32:47Z</time>
      </trkpt>
      <trkpt lat="44.40028" lon="6.76679">
        <ele>1505.67</ele>
        <time>2021-07-21T08:32:50Z</time>
      </trkpt>
      <trkpt lat="44.40022" lon="6.76684">
        <ele>1506.9</ele>
        <time>2021-07-21T08:32:53Z</time>
      </trkpt>
      <trkpt lat="44.40014" lon="6.76688">
        <ele>1507.84</ele>
        <time>2021-07-21T08:32:57Z</time>
      </trkpt>
      <trkpt lat="44.40007" lon="6.76691">
        <ele>1508.44</ele>
        <time>2021-07-21T08:33:00Z</time>
      </trkpt>
      <trkpt lat="44.40001" lon="6.76693">
        <ele>1508.79</ele>
        <time>2021-07-21T08:33:03Z</time>
      </trkpt>
      <trkpt lat="44.39996" lon="6.76696">
        <ele>1509.76</ele>
        <time>2021-07-21T08:33:07Z</time>
      </trkpt>
      <trkpt lat="44.39989" lon="6.76694">
        <ele>1510.12</ele>
        <time>2021-07-21T08:33:10Z</time>
      </trkpt>
      <trkpt lat="44.39985" lon="6.76692">
        <ele>1510.22</ele>
        <time>2021-07-21T08:33:14Z</time>
      </trkpt>
      <trkpt lat="44.39981" lon="6.76694">
        <ele>1510.98</ele>
        <time>2021-07-21T08:33:16Z</time>
      </trkpt>
      <trkpt lat="44.39976" lon="6.76697">
        <ele>1512.06</ele>
        <time>2021-07-21T08:33:20Z</time>
      </trkpt>
      <trkpt lat="44.3997" lon="6.767">
        <ele>1513.24</ele>
        <time>2021-07-21T08:33:24Z</time>
      </trkpt>
      <trkpt lat="44.39964" lon="6.767">
        <ele>1513.89</ele>
        <time>2021-07-21T08:33:25Z</time>
      </trkpt>
      <trkpt lat="44.39957" lon="6.76701">
        <ele>1514.82</ele>
        <time>2021-07-21T08:33:29Z</time>
      </trkpt>
      <trkpt lat="44.3995" lon="6.76703">
        <ele>1515.94</ele>
        <time>2021-07-21T08:33:31Z</time>
      </trkpt>
      <trkpt lat="44.39944" lon="6.76706">
        <ele>1517.11</ele>
        <time>2021-07-21T08:33:36Z</time>
      </trkpt>
      <trkpt lat="44.39938" lon="6.7671">
        <ele>1518.13</ele>
        <time>2021-07-21T08:33:38Z</time>
      </trkpt>
      <trkpt lat="44.39932" lon="6.76714">
        <ele>1519.1</ele>
        <time>2021-07-21T08:33:42Z</time>
      </trkpt>
      <trkpt lat="44.39926" lon="6.76719">
        <ele>1520.16</ele>
        <time>2021-07-21T08:33:46Z</time>
      </trkpt>
      <trkpt lat="44.39919" lon="6.76724">
        <ele>1521.05</ele>
        <time>2021-07-21T08:33:49Z</time>
      </trkpt>
      <trkpt lat="44.39913" lon="6.76728">
        <ele>1521.68</ele>
        <time>2021-07-21T08:33:54Z</time>
      </trkpt>
      <trkpt lat="44.39906" lon="6.76729">
        <ele>1522.26</ele>
        <time>2021-07-21T08:33:58Z</time>
      </trkpt>
      <trkpt lat="44.399" lon="6.76725">
        <ele>1522.4</ele>
        <time>2021-07-21T08:34:01Z</time>
      </trkpt>
      <trkpt lat="44.39894" lon="6.76721">
        <ele>1522.42</ele>
        <time>2021-07-21T08:34:02Z</time>
      </trkpt>
      <trkpt lat="44.39887" lon="6.76719">
        <ele>1522.49</ele>
        <time>2021-07-21T08:34:06Z</time>
      </trkpt>
      <trkpt lat="44.39882" lon="6.76718">
        <ele>1522.49</ele>
        <time>2021-07-21T08:34:09Z</time>
      </trkpt>
      <trkpt lat="44.3988" lon="6.76721">
        <ele>1523.1</ele>
        <time>2021-07-21T08:34:27Z</time>
      </trkpt>
      <trkpt lat="44.39878" lon="6.76724">
        <ele>1523.57</ele>
        <time>2021-07-21T08:35:27Z</time>
      </trkpt>
      <trkpt lat="44.39875" lon="6.7672">
        <ele>1523.1</ele>
        <time>2021-07-21T08:35:33Z</time>
      </trkpt>
      <trkpt lat="44.3987" lon="6.76716">
        <ele>1522.56</ele>
        <time>2021-07-21T08:35:35Z</time>
      </trkpt>
      <trkpt lat="44.39865" lon="6.76715">
        <ele>1522.56</ele>
        <time>2021-07-21T08:35:37Z</time>
      </trkpt>
      <trkpt lat="44.39861" lon="6.76718">
        <ele>1523.27</ele>
        <time>2021-07-21T08:35:38Z</time>
      </trkpt>
      <trkpt lat="44.39853" lon="6.76719">
        <ele>1525.5</ele>
        <time>2021-07-21T08:35:43Z</time>
      </trkpt>
      <trkpt lat="44.39848" lon="6.76718">
        <ele>1526.62</ele>
        <time>2021-07-21T08:35:48Z</time>
      </trkpt>
      <trkpt lat="44.39845" lon="6.76716">
        <ele>1527.07</ele>
        <time>2021-07-21T08:35:50Z</time>
      </trkpt>
      <trkpt lat="44.39841" lon="6.76712">
        <ele>1527.49</ele>
        <time>2021-07-21T08:35:52Z</time>
      </trkpt>
      <trkpt lat="44.39834" lon="6.76709">
        <ele>1528.92</ele>
        <time>2021-07-21T08:35:55Z</time>
      </trkpt>
      <trkpt lat="44.39828" lon="6.76706">
        <ele>1530.7</ele>
        <time>2021-07-21T08:35:57Z</time>
      </trkpt>
      <trkpt lat="44.39822" lon="6.76704">
        <ele>1532.72</ele>
        <time>2021-07-21T08:36:00Z</time>
      </trkpt>
      <trkpt lat="44.39816" lon="6.76701">
        <ele>1534.66</ele>
        <time>2021-07-21T08:36:04Z</time>
      </trkpt>
      <trkpt lat="44.3981" lon="6.76697">
        <ele>1536.53</ele>
        <time>2021-07-21T08:36:07Z</time>
      </trkpt>
      <trkpt lat="44.39804" lon="6.76694">
        <ele>1538.43</ele>
        <time>2021-07-21T08:36:11Z</time>
      </trkpt>
      <trkpt lat="44.39799" lon="6.76687">
        <ele>1538.91</ele>
        <time>2021-07-21T08:36:13Z</time>
      </trkpt>
      <trkpt lat="44.39796" lon="6.7668">
        <ele>1538.85</ele>
        <time>2021-07-21T08:36:17Z</time>
      </trkpt>
      <trkpt lat="44.39792" lon="6.76671">
        <ele>1539</ele>
        <time>2021-07-21T08:36:20Z</time>
      </trkpt>
      <trkpt lat="44.39788" lon="6.76662">
        <ele>1539.57</ele>
        <time>2021-07-21T08:36:23Z</time>
      </trkpt>
      <trkpt lat="44.39784" lon="6.76654">
        <ele>1540.37</ele>
        <time>2021-07-21T08:36:27Z</time>
      </trkpt>
      <trkpt lat="44.3978" lon="6.76647">
        <ele>1541.11</ele>
        <time>2021-07-21T08:36:30Z</time>
      </trkpt>
      <trkpt lat="44.39778" lon="6.76638">
        <ele>1540.8</ele>
        <time>2021-07-21T08:36:33Z</time>
      </trkpt>
      <trkpt lat="44.39774" lon="6.7663">
        <ele>1540.54</ele>
        <time>2021-07-21T08:36:36Z</time>
      </trkpt>
      <trkpt lat="44.3977" lon="6.76623">
        <ele>1540.39</ele>
        <time>2021-07-21T08:36:40Z</time>
      </trkpt>
      <trkpt lat="44.39767" lon="6.76616">
        <ele>1540.03</ele>
        <time>2021-07-21T08:36:46Z</time>
      </trkpt>
      <trkpt lat="44.39763" lon="6.76608">
        <ele>1539.86</ele>
        <time>2021-07-21T08:36:50Z</time>
      </trkpt>
      <trkpt lat="44.39758" lon="6.76604">
        <ele>1540.5</ele>
        <time>2021-07-21T08:36:55Z</time>
      </trkpt>
      <trkpt lat="44.39753" lon="6.76595">
        <ele>1540.61</ele>
        <time>2021-07-21T08:36:59Z</time>
      </trkpt>
      <trkpt lat="44.39748" lon="6.76589">
        <ele>1540.93</ele>
        <time>2021-07-21T08:37:06Z</time>
      </trkpt>
      <trkpt lat="44.39745" lon="6.76587">
        <ele>1541.22</ele>
        <time>2021-07-21T08:37:11Z</time>
      </trkpt>
      <trkpt lat="44.39743" lon="6.76584">
        <ele>1541.31</ele>
        <time>2021-07-21T08:37:13Z</time>
      </trkpt>
      <trkpt lat="44.3974" lon="6.76583">
        <ele>1541.76</ele>
        <time>2021-07-21T08:37:15Z</time>
      </trkpt>
      <trkpt lat="44.39736" lon="6.76581">
        <ele>1542.23</ele>
        <time>2021-07-21T08:37:18Z</time>
      </trkpt>
      <trkpt lat="44.39732" lon="6.76581">
        <ele>1542.93</ele>
        <time>2021-07-21T08:37:20Z</time>
      </trkpt>
      <trkpt lat="44.39728" lon="6.76582">
        <ele>1543.78</ele>
        <time>2021-07-21T08:37:22Z</time>
      </trkpt>
      <trkpt lat="44.39723" lon="6.76583">
        <ele>1544.81</ele>
        <time>2021-07-21T08:37:24Z</time>
      </trkpt>
      <trkpt lat="44.39718" lon="6.76583">
        <ele>1544.81</ele>
        <time>2021-07-21T08:37:28Z</time>
      </trkpt>
      <trkpt lat="44.39714" lon="6.76583">
        <ele>1544.67</ele>
        <time>2021-07-21T08:37:30Z</time>
      </trkpt>
      <trkpt lat="44.39708" lon="6.76584">
        <ele>1544.49</ele>
        <time>2021-07-21T08:37:34Z</time>
      </trkpt>
      <trkpt lat="44.39704" lon="6.76586">
        <ele>1544.34</ele>
        <time>2021-07-21T08:37:36Z</time>
      </trkpt>
      <trkpt lat="44.39702" lon="6.76588">
        <ele>1544.27</ele>
        <time>2021-07-21T08:37:37Z</time>
      </trkpt>
      <trkpt lat="44.39699" lon="6.7659">
        <ele>1544.16</ele>
        <time>2021-07-21T08:37:39Z</time>
      </trkpt>
      <trkpt lat="44.39696" lon="6.76592">
        <ele>1544.06</ele>
        <time>2021-07-21T08:37:40Z</time>
      </trkpt>
      <trkpt lat="44.39692" lon="6.76595">
        <ele>1544.02</ele>
        <time>2021-07-21T08:37:42Z</time>
      </trkpt>
      <trkpt lat="44.39686" lon="6.76602">
        <ele>1544.31</ele>
        <time>2021-07-21T08:37:46Z</time>
      </trkpt>
      <trkpt lat="44.39682" lon="6.76609">
        <ele>1544.79</ele>
        <time>2021-07-21T08:37:50Z</time>
      </trkpt>
      <trkpt lat="44.39677" lon="6.76615">
        <ele>1545.9</ele>
        <time>2021-07-21T08:37:54Z</time>
      </trkpt>
      <trkpt lat="44.39671" lon="6.7662">
        <ele>1547.24</ele>
        <time>2021-07-21T08:37:57Z</time>
      </trkpt>
      <trkpt lat="44.39666" lon="6.76626">
        <ele>1548.71</ele>
        <time>2021-07-21T08:38:03Z</time>
      </trkpt>
      <trkpt lat="44.3966" lon="6.76631">
        <ele>1549.78</ele>
        <time>2021-07-21T08:38:07Z</time>
      </trkpt>
      <trkpt lat="44.39653" lon="6.76635">
        <ele>1550.51</ele>
        <time>2021-07-21T08:38:11Z</time>
      </trkpt>
      <trkpt lat="44.39649" lon="6.76638">
        <ele>1550.9</ele>
        <time>2021-07-21T08:38:18Z</time>
      </trkpt>
      <trkpt lat="44.39643" lon="6.76642">
        <ele>1551.53</ele>
        <time>2021-07-21T08:38:21Z</time>
      </trkpt>
      <trkpt lat="44.39637" lon="6.76645">
        <ele>1552.27</ele>
        <time>2021-07-21T08:38:24Z</time>
      </trkpt>
      <trkpt lat="44.39631" lon="6.76649">
        <ele>1553.59</ele>
        <time>2021-07-21T08:38:27Z</time>
      </trkpt>
      <trkpt lat="44.39625" lon="6.76651">
        <ele>1554.62</ele>
        <time>2021-07-21T08:38:30Z</time>
      </trkpt>
      <trkpt lat="44.39617" lon="6.76652">
        <ele>1555.68</ele>
        <time>2021-07-21T08:38:35Z</time>
      </trkpt>
      <trkpt lat="44.39611" lon="6.76656">
        <ele>1557.3</ele>
        <time>2021-07-21T08:38:39Z</time>
      </trkpt>
      <trkpt lat="44.39605" lon="6.76658">
        <ele>1557.22</ele>
        <time>2021-07-21T08:38:42Z</time>
      </trkpt>
      <trkpt lat="44.39597" lon="6.76661">
        <ele>1557.15</ele>
        <time>2021-07-21T08:38:44Z</time>
      </trkpt>
      <trkpt lat="44.39591" lon="6.76665">
        <ele>1557.45</ele>
        <time>2021-07-21T08:38:48Z</time>
      </trkpt>
      <trkpt lat="44.39585" lon="6.76668">
        <ele>1557.46</ele>
        <time>2021-07-21T08:38:53Z</time>
      </trkpt>
      <trkpt lat="44.39578" lon="6.7667">
        <ele>1557.5</ele>
        <time>2021-07-21T08:38:56Z</time>
      </trkpt>
      <trkpt lat="44.3957" lon="6.76671">
        <ele>1557.38</ele>
        <time>2021-07-21T08:39:00Z</time>
      </trkpt>
      <trkpt lat="44.39563" lon="6.76672">
        <ele>1557.28</ele>
        <time>2021-07-21T08:39:02Z</time>
      </trkpt>
      <trkpt lat="44.39556" lon="6.76672">
        <ele>1556.98</ele>
        <time>2021-07-21T08:39:05Z</time>
      </trkpt>
      <trkpt lat="44.39549" lon="6.76673">
        <ele>1556.99</ele>
        <time>2021-07-21T08:39:09Z</time>
      </trkpt>
      <trkpt lat="44.39541" lon="6.76677">
        <ele>1557.98</ele>
        <time>2021-07-21T08:39:13Z</time>
      </trkpt>
      <trkpt lat="44.39537" lon="6.76682">
        <ele>1559.64</ele>
        <time>2021-07-21T08:39:17Z</time>
      </trkpt>
      <trkpt lat="44.39534" lon="6.76688">
        <ele>1561.86</ele>
        <time>2021-07-21T08:39:20Z</time>
      </trkpt>
      <trkpt lat="44.3953" lon="6.76692">
        <ele>1563.75</ele>
        <time>2021-07-21T08:39:22Z</time>
      </trkpt>
      <trkpt lat="44.39524" lon="6.76698">
        <ele>1565.05</ele>
        <time>2021-07-21T08:39:27Z</time>
      </trkpt>
      <trkpt lat="44.39519" lon="6.76704">
        <ele>1565.52</ele>
        <time>2021-07-21T08:39:31Z</time>
      </trkpt>
      <trkpt lat="44.39514" lon="6.76709">
        <ele>1566.12</ele>
        <time>2021-07-21T08:39:34Z</time>
      </trkpt>
      <trkpt lat="44.39508" lon="6.76715">
        <ele>1567.19</ele>
        <time>2021-07-21T08:39:38Z</time>
      </trkpt>
      <trkpt lat="44.39503" lon="6.7672">
        <ele>1568.37</ele>
        <time>2021-07-21T08:39:42Z</time>
      </trkpt>
      <trkpt lat="44.39499" lon="6.76725">
        <ele>1569.21</ele>
        <time>2021-07-21T08:39:48Z</time>
      </trkpt>
      <trkpt lat="44.39496" lon="6.76729">
        <ele>1569.03</ele>
        <time>2021-07-21T08:39:51Z</time>
      </trkpt>
      <trkpt lat="44.39493" lon="6.76733">
        <ele>1568.83</ele>
        <time>2021-07-21T08:39:54Z</time>
      </trkpt>
      <trkpt lat="44.39488" lon="6.76737">
        <ele>1567.97</ele>
        <time>2021-07-21T08:39:57Z</time>
      </trkpt>
      <trkpt lat="44.39484" lon="6.76742">
        <ele>1567.54</ele>
        <time>2021-07-21T08:40:00Z</time>
      </trkpt>
      <trkpt lat="44.39481" lon="6.76748">
        <ele>1567.53</ele>
        <time>2021-07-21T08:40:03Z</time>
      </trkpt>
      <trkpt lat="44.39477" lon="6.76755">
        <ele>1567.18</ele>
        <time>2021-07-21T08:40:07Z</time>
      </trkpt>
      <trkpt lat="44.39474" lon="6.76763">
        <ele>1567.36</ele>
        <time>2021-07-21T08:40:11Z</time>
      </trkpt>
      <trkpt lat="44.39471" lon="6.76771">
        <ele>1567.72</ele>
        <time>2021-07-21T08:40:15Z</time>
      </trkpt>
      <trkpt lat="44.39467" lon="6.7678">
        <ele>1567.92</ele>
        <time>2021-07-21T08:40:20Z</time>
      </trkpt>
      <trkpt lat="44.39465" lon="6.76789">
        <ele>1568.39</ele>
        <time>2021-07-21T08:40:24Z</time>
      </trkpt>
      <trkpt lat="44.39462" lon="6.76799">
        <ele>1568.72</ele>
        <time>2021-07-21T08:40:27Z</time>
      </trkpt>
      <trkpt lat="44.39459" lon="6.76808">
        <ele>1568.97</ele>
        <time>2021-07-21T08:40:31Z</time>
      </trkpt>
      <trkpt lat="44.39454" lon="6.76818">
        <ele>1569.05</ele>
        <time>2021-07-21T08:40:36Z</time>
      </trkpt>
      <trkpt lat="44.3945" lon="6.76828">
        <ele>1569.47</ele>
        <time>2021-07-21T08:40:40Z</time>
      </trkpt>
      <trkpt lat="44.39447" lon="6.76835">
        <ele>1569.85</ele>
        <time>2021-07-21T08:40:43Z</time>
      </trkpt>
      <trkpt lat="44.39443" lon="6.76844">
        <ele>1570.69</ele>
        <time>2021-07-21T08:40:47Z</time>
      </trkpt>
      <trkpt lat="44.39439" lon="6.76854">
        <ele>1571.79</ele>
        <time>2021-07-21T08:40:51Z</time>
      </trkpt>
      <trkpt lat="44.39435" lon="6.76862">
        <ele>1572.48</ele>
        <time>2021-07-21T08:40:54Z</time>
      </trkpt>
      <trkpt lat="44.39433" lon="6.7687">
        <ele>1573.73</ele>
        <time>2021-07-21T08:40:58Z</time>
      </trkpt>
      <trkpt lat="44.39433" lon="6.76881">
        <ele>1575.94</ele>
        <time>2021-07-21T08:41:04Z</time>
      </trkpt>
      <trkpt lat="44.39431" lon="6.7689">
        <ele>1577.29</ele>
        <time>2021-07-21T08:41:07Z</time>
      </trkpt>
      <trkpt lat="44.39428" lon="6.76901">
        <ele>1578.71</ele>
        <time>2021-07-21T08:41:11Z</time>
      </trkpt>
      <trkpt lat="44.39427" lon="6.7691">
        <ele>1580.23</ele>
        <time>2021-07-21T08:41:14Z</time>
      </trkpt>
      <trkpt lat="44.39426" lon="6.76919">
        <ele>1581.71</ele>
        <time>2021-07-21T08:41:17Z</time>
      </trkpt>
      <trkpt lat="44.39426" lon="6.76928">
        <ele>1583.11</ele>
        <time>2021-07-21T08:41:21Z</time>
      </trkpt>
      <trkpt lat="44.39425" lon="6.76937">
        <ele>1584.42</ele>
        <time>2021-07-21T08:41:25Z</time>
      </trkpt>
      <trkpt lat="44.39425" lon="6.76943">
        <ele>1585.37</ele>
        <time>2021-07-21T08:41:33Z</time>
      </trkpt>
      <trkpt lat="44.39423" lon="6.76947">
        <ele>1585.64</ele>
        <time>2021-07-21T08:41:48Z</time>
      </trkpt>
      <trkpt lat="44.39423" lon="6.76953">
        <ele>1586.07</ele>
        <time>2021-07-21T08:41:51Z</time>
      </trkpt>
      <trkpt lat="44.39421" lon="6.76963">
        <ele>1586.65</ele>
        <time>2021-07-21T08:41:55Z</time>
      </trkpt>
      <trkpt lat="44.39419" lon="6.76975">
        <ele>1587.38</ele>
        <time>2021-07-21T08:42:00Z</time>
      </trkpt>
      <trkpt lat="44.39417" lon="6.76985">
        <ele>1587.95</ele>
        <time>2021-07-21T08:42:03Z</time>
      </trkpt>
      <trkpt lat="44.39415" lon="6.76996">
        <ele>1588.28</ele>
        <time>2021-07-21T08:42:07Z</time>
      </trkpt>
      <trkpt lat="44.39415" lon="6.77004">
        <ele>1588.87</ele>
        <time>2021-07-21T08:42:11Z</time>
      </trkpt>
      <trkpt lat="44.39416" lon="6.77011">
        <ele>1589.62</ele>
        <time>2021-07-21T08:42:14Z</time>
      </trkpt>
      <trkpt lat="44.39415" lon="6.77016">
        <ele>1589.73</ele>
        <time>2021-07-21T08:42:17Z</time>
      </trkpt>
      <trkpt lat="44.39414" lon="6.77021">
        <ele>1589.84</ele>
        <time>2021-07-21T08:42:19Z</time>
      </trkpt>
      <trkpt lat="44.39412" lon="6.77026">
        <ele>1589.7</ele>
        <time>2021-07-21T08:42:21Z</time>
      </trkpt>
      <trkpt lat="44.3941" lon="6.7703">
        <ele>1589.7</ele>
        <time>2021-07-21T08:42:23Z</time>
      </trkpt>
      <trkpt lat="44.39408" lon="6.77034">
        <ele>1589.87</ele>
        <time>2021-07-21T08:42:25Z</time>
      </trkpt>
      <trkpt lat="44.39407" lon="6.77038">
        <ele>1590.28</ele>
        <time>2021-07-21T08:42:27Z</time>
      </trkpt>
      <trkpt lat="44.39407" lon="6.77042">
        <ele>1590.95</ele>
        <time>2021-07-21T08:42:29Z</time>
      </trkpt>
      <trkpt lat="44.39409" lon="6.77046">
        <ele>1592.17</ele>
        <time>2021-07-21T08:42:31Z</time>
      </trkpt>
      <trkpt lat="44.39412" lon="6.77048">
        <ele>1593.34</ele>
        <time>2021-07-21T08:42:33Z</time>
      </trkpt>
      <trkpt lat="44.39415" lon="6.77048">
        <ele>1594.18</ele>
        <time>2021-07-21T08:42:35Z</time>
      </trkpt>
      <trkpt lat="44.39418" lon="6.77045">
        <ele>1594.4</ele>
        <time>2021-07-21T08:42:37Z</time>
      </trkpt>
      <trkpt lat="44.39423" lon="6.77038">
        <ele>1594.15</ele>
        <time>2021-07-21T08:42:41Z</time>
      </trkpt>
      <trkpt lat="44.39426" lon="6.7703">
        <ele>1593.13</ele>
        <time>2021-07-21T08:42:45Z</time>
      </trkpt>
      <trkpt lat="44.39428" lon="6.77024">
        <ele>1592.66</ele>
        <time>2021-07-21T08:42:48Z</time>
      </trkpt>
      <trkpt lat="44.3943" lon="6.77018">
        <ele>1592.36</ele>
        <time>2021-07-21T08:42:54Z</time>
      </trkpt>
      <trkpt lat="44.39433" lon="6.77015">
        <ele>1592.48</ele>
        <time>2021-07-21T08:44:05Z</time>
      </trkpt>
      <trkpt lat="44.39437" lon="6.77018">
        <ele>1593.44</ele>
        <time>2021-07-21T08:44:08Z</time>
      </trkpt>
      <trkpt lat="44.39436" lon="6.77022">
        <ele>1593.77</ele>
        <time>2021-07-21T08:44:10Z</time>
      </trkpt>
      <trkpt lat="44.39433" lon="6.77027">
        <ele>1593.85</ele>
        <time>2021-07-21T08:44:13Z</time>
      </trkpt>
      <trkpt lat="44.39431" lon="6.77035">
        <ele>1595.15</ele>
        <time>2021-07-21T08:44:16Z</time>
      </trkpt>
      <trkpt lat="44.39429" lon="6.77043">
        <ele>1596.45</ele>
        <time>2021-07-21T08:44:19Z</time>
      </trkpt>
      <trkpt lat="44.39425" lon="6.77051">
        <ele>1597.18</ele>
        <time>2021-07-21T08:44:23Z</time>
      </trkpt>
      <trkpt lat="44.39421" lon="6.77059">
        <ele>1597.81</ele>
        <time>2021-07-21T08:44:27Z</time>
      </trkpt>
      <trkpt lat="44.39417" lon="6.77065">
        <ele>1597.8</ele>
        <time>2021-07-21T08:44:30Z</time>
      </trkpt>
      <trkpt lat="44.39414" lon="6.77068">
        <ele>1597.43</ele>
        <time>2021-07-21T08:44:32Z</time>
      </trkpt>
      <trkpt lat="44.39411" lon="6.77072">
        <ele>1597.21</ele>
        <time>2021-07-21T08:44:34Z</time>
      </trkpt>
      <trkpt lat="44.39408" lon="6.77076">
        <ele>1596.95</ele>
        <time>2021-07-21T08:44:36Z</time>
      </trkpt>
      <trkpt lat="44.39406" lon="6.77079">
        <ele>1596.82</ele>
        <time>2021-07-21T08:44:38Z</time>
      </trkpt>
      <trkpt lat="44.39404" lon="6.77082">
        <ele>1596.68</ele>
        <time>2021-07-21T08:44:40Z</time>
      </trkpt>
      <trkpt lat="44.39402" lon="6.77086">
        <ele>1596.77</ele>
        <time>2021-07-21T08:44:42Z</time>
      </trkpt>
      <trkpt lat="44.39399" lon="6.7709">
        <ele>1596.5</ele>
        <time>2021-07-21T08:44:44Z</time>
      </trkpt>
      <trkpt lat="44.39396" lon="6.77094">
        <ele>1596.13</ele>
        <time>2021-07-21T08:44:46Z</time>
      </trkpt>
      <trkpt lat="44.39393" lon="6.77098">
        <ele>1595.68</ele>
        <time>2021-07-21T08:44:48Z</time>
      </trkpt>
      <trkpt lat="44.3939" lon="6.77102">
        <ele>1595.13</ele>
        <time>2021-07-21T08:44:50Z</time>
      </trkpt>
      <trkpt lat="44.39387" lon="6.77106">
        <ele>1594.8</ele>
        <time>2021-07-21T08:44:52Z</time>
      </trkpt>
      <trkpt lat="44.39384" lon="6.77109">
        <ele>1594.48</ele>
        <time>2021-07-21T08:44:54Z</time>
      </trkpt>
      <trkpt lat="44.39381" lon="6.77113">
        <ele>1594.47</ele>
        <time>2021-07-21T08:44:56Z</time>
      </trkpt>
      <trkpt lat="44.39378" lon="6.77117">
        <ele>1594.66</ele>
        <time>2021-07-21T08:44:58Z</time>
      </trkpt>
      <trkpt lat="44.39375" lon="6.7712">
        <ele>1594.58</ele>
        <time>2021-07-21T08:45:00Z</time>
      </trkpt>
      <trkpt lat="44.39371" lon="6.77125">
        <ele>1594.67</ele>
        <time>2021-07-21T08:45:02Z</time>
      </trkpt>
      <trkpt lat="44.39367" lon="6.7713">
        <ele>1594.71</ele>
        <time>2021-07-21T08:45:04Z</time>
      </trkpt>
      <trkpt lat="44.39363" lon="6.77134">
        <ele>1594.48</ele>
        <time>2021-07-21T08:45:06Z</time>
      </trkpt>
      <trkpt lat="44.3936" lon="6.77138">
        <ele>1594.69</ele>
        <time>2021-07-21T08:45:08Z</time>
      </trkpt>
      <trkpt lat="44.39356" lon="6.77143">
        <ele>1595.75</ele>
        <time>2021-07-21T08:45:10Z</time>
      </trkpt>
      <trkpt lat="44.39352" lon="6.77147">
        <ele>1596.55</ele>
        <time>2021-07-21T08:45:12Z</time>
      </trkpt>
      <trkpt lat="44.39349" lon="6.77151">
        <ele>1597.43</ele>
        <time>2021-07-21T08:45:14Z</time>
      </trkpt>
      <trkpt lat="44.39346" lon="6.77156">
        <ele>1598.58</ele>
        <time>2021-07-21T08:45:16Z</time>
      </trkpt>
      <trkpt lat="44.39343" lon="6.77161">
        <ele>1599.69</ele>
        <time>2021-07-21T08:45:18Z</time>
      </trkpt>
      <trkpt lat="44.3934" lon="6.77166">
        <ele>1600.76</ele>
        <time>2021-07-21T08:45:20Z</time>
      </trkpt>
      <trkpt lat="44.39337" lon="6.77171">
        <ele>1601.57</ele>
        <time>2021-07-21T08:45:22Z</time>
      </trkpt>
      <trkpt lat="44.39334" lon="6.77177">
        <ele>1602.37</ele>
        <time>2021-07-21T08:45:24Z</time>
      </trkpt>
      <trkpt lat="44.39331" lon="6.77182">
        <ele>1603.11</ele>
        <time>2021-07-21T08:45:26Z</time>
      </trkpt>
      <trkpt lat="44.39328" lon="6.77187">
        <ele>1603.96</ele>
        <time>2021-07-21T08:45:28Z</time>
      </trkpt>
      <trkpt lat="44.39324" lon="6.77191">
        <ele>1604.54</ele>
        <time>2021-07-21T08:45:30Z</time>
      </trkpt>
      <trkpt lat="44.39321" lon="6.77196">
        <ele>1605.46</ele>
        <time>2021-07-21T08:45:33Z</time>
      </trkpt>
      <trkpt lat="44.39318" lon="6.77201">
        <ele>1606.26</ele>
        <time>2021-07-21T08:45:34Z</time>
      </trkpt>
      <trkpt lat="44.39315" lon="6.77207">
        <ele>1607.1</ele>
        <time>2021-07-21T08:45:36Z</time>
      </trkpt>
      <trkpt lat="44.39313" lon="6.77212">
        <ele>1607.74</ele>
        <time>2021-07-21T08:45:38Z</time>
      </trkpt>
      <trkpt lat="44.3931" lon="6.77218">
        <ele>1608.25</ele>
        <time>2021-07-21T08:45:40Z</time>
      </trkpt>
      <trkpt lat="44.39307" lon="6.77224">
        <ele>1608.58</ele>
        <time>2021-07-21T08:45:42Z</time>
      </trkpt>
      <trkpt lat="44.39305" lon="6.77231">
        <ele>1609.15</ele>
        <time>2021-07-21T08:45:44Z</time>
      </trkpt>
      <trkpt lat="44.39302" lon="6.7724">
        <ele>1609.87</ele>
        <time>2021-07-21T08:45:47Z</time>
      </trkpt>
      <trkpt lat="44.393" lon="6.77249">
        <ele>1610.85</ele>
        <time>2021-07-21T08:45:50Z</time>
      </trkpt>
      <trkpt lat="44.39298" lon="6.77257">
        <ele>1611.51</ele>
        <time>2021-07-21T08:45:53Z</time>
      </trkpt>
      <trkpt lat="44.39297" lon="6.77263">
        <ele>1612.04</ele>
        <time>2021-07-21T08:45:55Z</time>
      </trkpt>
      <trkpt lat="44.39295" lon="6.77269">
        <ele>1612.32</ele>
        <time>2021-07-21T08:45:57Z</time>
      </trkpt>
      <trkpt lat="44.39294" lon="6.77274">
        <ele>1612.66</ele>
        <time>2021-07-21T08:45:59Z</time>
      </trkpt>
      <trkpt lat="44.39293" lon="6.77279">
        <ele>1612.97</ele>
        <time>2021-07-21T08:46:01Z</time>
      </trkpt>
      <trkpt lat="44.39292" lon="6.77284">
        <ele>1613.26</ele>
        <time>2021-07-21T08:46:03Z</time>
      </trkpt>
      <trkpt lat="44.39291" lon="6.77289">
        <ele>1613.52</ele>
        <time>2021-07-21T08:46:04Z</time>
      </trkpt>
      <trkpt lat="44.3929" lon="6.77296">
        <ele>1613.97</ele>
        <time>2021-07-21T08:46:06Z</time>
      </trkpt>
      <trkpt lat="44.3929" lon="6.77301">
        <ele>1614.49</ele>
        <time>2021-07-21T08:46:08Z</time>
      </trkpt>
      <trkpt lat="44.3929" lon="6.77307">
        <ele>1615.15</ele>
        <time>2021-07-21T08:46:10Z</time>
      </trkpt>
      <trkpt lat="44.39288" lon="6.77313">
        <ele>1615.29</ele>
        <time>2021-07-21T08:46:12Z</time>
      </trkpt>
      <trkpt lat="44.39287" lon="6.77319">
        <ele>1615.76</ele>
        <time>2021-07-21T08:46:14Z</time>
      </trkpt>
      <trkpt lat="44.39286" lon="6.77326">
        <ele>1616.39</ele>
        <time>2021-07-21T08:46:16Z</time>
      </trkpt>
      <trkpt lat="44.39284" lon="6.77329">
        <ele>1616.2</ele>
        <time>2021-07-21T08:46:17Z</time>
      </trkpt>
      <trkpt lat="44.39283" lon="6.77333">
        <ele>1616.46</ele>
        <time>2021-07-21T08:46:18Z</time>
      </trkpt>
      <trkpt lat="44.3928" lon="6.77339">
        <ele>1616.46</ele>
        <time>2021-07-21T08:46:20Z</time>
      </trkpt>
      <trkpt lat="44.39277" lon="6.77344">
        <ele>1616.29</ele>
        <time>2021-07-21T08:46:22Z</time>
      </trkpt>
      <trkpt lat="44.39274" lon="6.77349">
        <ele>1616.11</ele>
        <time>2021-07-21T08:46:24Z</time>
      </trkpt>
      <trkpt lat="44.39272" lon="6.77354">
        <ele>1616.26</ele>
        <time>2021-07-21T08:46:26Z</time>
      </trkpt>
      <trkpt lat="44.39269" lon="6.77359">
        <ele>1616.14</ele>
        <time>2021-07-21T08:46:28Z</time>
      </trkpt>
      <trkpt lat="44.39267" lon="6.77364">
        <ele>1616.52</ele>
        <time>2021-07-21T08:46:30Z</time>
      </trkpt>
      <trkpt lat="44.39263" lon="6.77369">
        <ele>1616.45</ele>
        <time>2021-07-21T08:46:32Z</time>
      </trkpt>
      <trkpt lat="44.3926" lon="6.77375">
        <ele>1616.88</ele>
        <time>2021-07-21T08:46:34Z</time>
      </trkpt>
      <trkpt lat="44.39257" lon="6.77381">
        <ele>1617.31</ele>
        <time>2021-07-21T08:46:36Z</time>
      </trkpt>
      <trkpt lat="44.39255" lon="6.77386">
        <ele>1617.82</ele>
        <time>2021-07-21T08:46:38Z</time>
      </trkpt>
      <trkpt lat="44.39252" lon="6.77391">
        <ele>1617.88</ele>
        <time>2021-07-21T08:46:40Z</time>
      </trkpt>
      <trkpt lat="44.3925" lon="6.77394">
        <ele>1617.74</ele>
        <time>2021-07-21T08:46:41Z</time>
      </trkpt>
      <trkpt lat="44.39247" lon="6.774">
        <ele>1618.02</ele>
        <time>2021-07-21T08:46:43Z</time>
      </trkpt>
      <trkpt lat="44.39245" lon="6.77405">
        <ele>1618.48</ele>
        <time>2021-07-21T08:46:45Z</time>
      </trkpt>
      <trkpt lat="44.39243" lon="6.77411">
        <ele>1619.22</ele>
        <time>2021-07-21T08:46:47Z</time>
      </trkpt>
      <trkpt lat="44.39241" lon="6.77417">
        <ele>1620.11</ele>
        <time>2021-07-21T08:46:49Z</time>
      </trkpt>
      <trkpt lat="44.39238" lon="6.77423">
        <ele>1621.3</ele>
        <time>2021-07-21T08:46:51Z</time>
      </trkpt>
      <trkpt lat="44.39236" lon="6.7743">
        <ele>1622.85</ele>
        <time>2021-07-21T08:46:53Z</time>
      </trkpt>
      <trkpt lat="44.39234" lon="6.77434">
        <ele>1623.64</ele>
        <time>2021-07-21T08:46:54Z</time>
      </trkpt>
      <trkpt lat="44.39231" lon="6.7744">
        <ele>1624.83</ele>
        <time>2021-07-21T08:46:56Z</time>
      </trkpt>
      <trkpt lat="44.39229" lon="6.77445">
        <ele>1625.82</ele>
        <time>2021-07-21T08:46:58Z</time>
      </trkpt>
      <trkpt lat="44.39227" lon="6.77448">
        <ele>1626.07</ele>
        <time>2021-07-21T08:46:59Z</time>
      </trkpt>
      <trkpt lat="44.39224" lon="6.77454">
        <ele>1626.61</ele>
        <time>2021-07-21T08:47:01Z</time>
      </trkpt>
      <trkpt lat="44.39222" lon="6.7746">
        <ele>1627.2</ele>
        <time>2021-07-21T08:47:03Z</time>
      </trkpt>
      <trkpt lat="44.3922" lon="6.77464">
        <ele>1627.45</ele>
        <time>2021-07-21T08:47:05Z</time>
      </trkpt>
      <trkpt lat="44.39218" lon="6.77469">
        <ele>1627.89</ele>
        <time>2021-07-21T08:47:07Z</time>
      </trkpt>
      <trkpt lat="44.39215" lon="6.77474">
        <ele>1628.23</ele>
        <time>2021-07-21T08:47:09Z</time>
      </trkpt>
      <trkpt lat="44.39211" lon="6.77478">
        <ele>1628.3</ele>
        <time>2021-07-21T08:47:11Z</time>
      </trkpt>
      <trkpt lat="44.39208" lon="6.77481">
        <ele>1628.38</ele>
        <time>2021-07-21T08:47:13Z</time>
      </trkpt>
      <trkpt lat="44.39204" lon="6.77483">
        <ele>1628.18</ele>
        <time>2021-07-21T08:47:15Z</time>
      </trkpt>
      <trkpt lat="44.39201" lon="6.77486">
        <ele>1628.31</ele>
        <time>2021-07-21T08:47:17Z</time>
      </trkpt>
      <trkpt lat="44.39198" lon="6.7749">
        <ele>1628.63</ele>
        <time>2021-07-21T08:47:19Z</time>
      </trkpt>
      <trkpt lat="44.39195" lon="6.77493">
        <ele>1628.81</ele>
        <time>2021-07-21T08:47:21Z</time>
      </trkpt>
      <trkpt lat="44.39191" lon="6.77497">
        <ele>1628.7</ele>
        <time>2021-07-21T08:47:23Z</time>
      </trkpt>
      <trkpt lat="44.39189" lon="6.77499">
        <ele>1628.64</ele>
        <time>2021-07-21T08:47:24Z</time>
      </trkpt>
      <trkpt lat="44.39187" lon="6.77502">
        <ele>1628.61</ele>
        <time>2021-07-21T08:47:25Z</time>
      </trkpt>
      <trkpt lat="44.39183" lon="6.77507">
        <ele>1628.28</ele>
        <time>2021-07-21T08:47:27Z</time>
      </trkpt>
      <trkpt lat="44.3918" lon="6.77512">
        <ele>1628.18</ele>
        <time>2021-07-21T08:47:29Z</time>
      </trkpt>
      <trkpt lat="44.39177" lon="6.77517">
        <ele>1628.07</ele>
        <time>2021-07-21T08:47:31Z</time>
      </trkpt>
      <trkpt lat="44.39174" lon="6.77521">
        <ele>1627.85</ele>
        <time>2021-07-21T08:47:33Z</time>
      </trkpt>
      <trkpt lat="44.39171" lon="6.77527">
        <ele>1627.85</ele>
        <time>2021-07-21T08:47:35Z</time>
      </trkpt>
      <trkpt lat="44.39169" lon="6.7753">
        <ele>1627.82</ele>
        <time>2021-07-21T08:47:36Z</time>
      </trkpt>
      <trkpt lat="44.39168" lon="6.77535">
        <ele>1628.33</ele>
        <time>2021-07-21T08:47:37Z</time>
      </trkpt>
      <trkpt lat="44.39167" lon="6.77541">
        <ele>1628.98</ele>
        <time>2021-07-21T08:47:39Z</time>
      </trkpt>
      <trkpt lat="44.39168" lon="6.77547">
        <ele>1630.06</ele>
        <time>2021-07-21T08:47:41Z</time>
      </trkpt>
      <trkpt lat="44.39171" lon="6.77551">
        <ele>1631.28</ele>
        <time>2021-07-21T08:47:43Z</time>
      </trkpt>
      <trkpt lat="44.39174" lon="6.77553">
        <ele>1632.22</ele>
        <time>2021-07-21T08:47:58Z</time>
      </trkpt>
      <trkpt lat="44.39176" lon="6.77553">
        <ele>1632.65</ele>
        <time>2021-07-21T08:48:00Z</time>
      </trkpt>
      <trkpt lat="44.39181" lon="6.77551">
        <ele>1633.44</ele>
        <time>2021-07-21T08:48:02Z</time>
      </trkpt>
      <trkpt lat="44.39187" lon="6.7755">
        <ele>1634.59</ele>
        <time>2021-07-21T08:48:05Z</time>
      </trkpt>
      <trkpt lat="44.39194" lon="6.77546">
        <ele>1635.53</ele>
        <time>2021-07-21T08:48:09Z</time>
      </trkpt>
      <trkpt lat="44.39199" lon="6.77542">
        <ele>1636.04</ele>
        <time>2021-07-21T08:48:12Z</time>
      </trkpt>
      <trkpt lat="44.39206" lon="6.77538">
        <ele>1636.86</ele>
        <time>2021-07-21T08:48:15Z</time>
      </trkpt>
      <trkpt lat="44.39213" lon="6.77534">
        <ele>1637.54</ele>
        <time>2021-07-21T08:48:19Z</time>
      </trkpt>
      <trkpt lat="44.39219" lon="6.77528">
        <ele>1637.47</ele>
        <time>2021-07-21T08:48:23Z</time>
      </trkpt>
      <trkpt lat="44.39224" lon="6.77523">
        <ele>1637.69</ele>
        <time>2021-07-21T08:48:26Z</time>
      </trkpt>
      <trkpt lat="44.39229" lon="6.77518">
        <ele>1638.26</ele>
        <time>2021-07-21T08:48:29Z</time>
      </trkpt>
      <trkpt lat="44.39235" lon="6.77511">
        <ele>1638.56</ele>
        <time>2021-07-21T08:48:33Z</time>
      </trkpt>
      <trkpt lat="44.3924" lon="6.77505">
        <ele>1638.61</ele>
        <time>2021-07-21T08:48:36Z</time>
      </trkpt>
      <trkpt lat="44.39245" lon="6.77498">
        <ele>1638.33</ele>
        <time>2021-07-21T08:48:39Z</time>
      </trkpt>
      <trkpt lat="44.39251" lon="6.77491">
        <ele>1638.44</ele>
        <time>2021-07-21T08:48:42Z</time>
      </trkpt>
      <trkpt lat="44.39256" lon="6.77484">
        <ele>1638.8</ele>
        <time>2021-07-21T08:48:46Z</time>
      </trkpt>
      <trkpt lat="44.39262" lon="6.77477">
        <ele>1639.43</ele>
        <time>2021-07-21T08:48:49Z</time>
      </trkpt>
      <trkpt lat="44.39268" lon="6.77469">
        <ele>1639.71</ele>
        <time>2021-07-21T08:48:54Z</time>
      </trkpt>
      <trkpt lat="44.39273" lon="6.77461">
        <ele>1639.52</ele>
        <time>2021-07-21T08:48:58Z</time>
      </trkpt>
      <trkpt lat="44.39277" lon="6.77455">
        <ele>1639.4</ele>
        <time>2021-07-21T08:49:01Z</time>
      </trkpt>
      <trkpt lat="44.39282" lon="6.77448">
        <ele>1640.02</ele>
        <time>2021-07-21T08:49:05Z</time>
      </trkpt>
      <trkpt lat="44.39287" lon="6.77442">
        <ele>1640.91</ele>
        <time>2021-07-21T08:49:09Z</time>
      </trkpt>
      <trkpt lat="44.39291" lon="6.77434">
        <ele>1640.48</ele>
        <time>2021-07-21T08:49:13Z</time>
      </trkpt>
      <trkpt lat="44.39297" lon="6.77427">
        <ele>1641.23</ele>
        <time>2021-07-21T08:49:17Z</time>
      </trkpt>
      <trkpt lat="44.39301" lon="6.77422">
        <ele>1641.56</ele>
        <time>2021-07-21T08:49:20Z</time>
      </trkpt>
      <trkpt lat="44.39305" lon="6.77416">
        <ele>1641.57</ele>
        <time>2021-07-21T08:49:23Z</time>
      </trkpt>
      <trkpt lat="44.39309" lon="6.77409">
        <ele>1641.6</ele>
        <time>2021-07-21T08:49:26Z</time>
      </trkpt>
      <trkpt lat="44.39314" lon="6.774">
        <ele>1640.96</ele>
        <time>2021-07-21T08:49:31Z</time>
      </trkpt>
      <trkpt lat="44.39317" lon="6.77392">
        <ele>1639.36</ele>
        <time>2021-07-21T08:49:34Z</time>
      </trkpt>
      <trkpt lat="44.39321" lon="6.77383">
        <ele>1637.63</ele>
        <time>2021-07-21T08:49:37Z</time>
      </trkpt>
      <trkpt lat="44.39325" lon="6.77374">
        <ele>1635.94</ele>
        <time>2021-07-21T08:49:41Z</time>
      </trkpt>
      <trkpt lat="44.39329" lon="6.77367">
        <ele>1634.78</ele>
        <time>2021-07-21T08:49:44Z</time>
      </trkpt>
      <trkpt lat="44.39333" lon="6.77359">
        <ele>1633.61</ele>
        <time>2021-07-21T08:49:47Z</time>
      </trkpt>
      <trkpt lat="44.39336" lon="6.77352">
        <ele>1633.94</ele>
        <time>2021-07-21T08:49:50Z</time>
      </trkpt>
      <trkpt lat="44.3934" lon="6.77345">
        <ele>1634.62</ele>
        <time>2021-07-21T08:49:53Z</time>
      </trkpt>
      <trkpt lat="44.39342" lon="6.77338">
        <ele>1634.26</ele>
        <time>2021-07-21T08:49:57Z</time>
      </trkpt>
      <trkpt lat="44.39344" lon="6.77334">
        <ele>1634.35</ele>
        <time>2021-07-21T08:49:59Z</time>
      </trkpt>
      <trkpt lat="44.39346" lon="6.77331">
        <ele>1634.82</ele>
        <time>2021-07-21T08:50:02Z</time>
      </trkpt>
      <trkpt lat="44.3935" lon="6.77326">
        <ele>1635.81</ele>
        <time>2021-07-21T08:50:06Z</time>
      </trkpt>
      <trkpt lat="44.39353" lon="6.77319">
        <ele>1635.96</ele>
        <time>2021-07-21T08:50:08Z</time>
      </trkpt>
      <trkpt lat="44.39359" lon="6.77313">
        <ele>1636.78</ele>
        <time>2021-07-21T08:50:11Z</time>
      </trkpt>
      <trkpt lat="44.39364" lon="6.77308">
        <ele>1637.41</ele>
        <time>2021-07-21T08:50:13Z</time>
      </trkpt>
      <trkpt lat="44.39371" lon="6.77304">
        <ele>1638.94</ele>
        <time>2021-07-21T08:50:16Z</time>
      </trkpt>
      <trkpt lat="44.39378" lon="6.77302">
        <ele>1640.8</ele>
        <time>2021-07-21T08:50:19Z</time>
      </trkpt>
      <trkpt lat="44.39385" lon="6.77301">
        <ele>1642.8</ele>
        <time>2021-07-21T08:50:22Z</time>
      </trkpt>
      <trkpt lat="44.3939" lon="6.773">
        <ele>1644.26</ele>
        <time>2021-07-21T08:50:25Z</time>
      </trkpt>
      <trkpt lat="44.39396" lon="6.77298">
        <ele>1646.23</ele>
        <time>2021-07-21T08:50:28Z</time>
      </trkpt>
      <trkpt lat="44.39403" lon="6.77294">
        <ele>1647.97</ele>
        <time>2021-07-21T08:50:31Z</time>
      </trkpt>
      <trkpt lat="44.39409" lon="6.7729">
        <ele>1649.11</ele>
        <time>2021-07-21T08:50:34Z</time>
      </trkpt>
      <trkpt lat="44.39415" lon="6.77285">
        <ele>1649.75</ele>
        <time>2021-07-21T08:50:37Z</time>
      </trkpt>
      <trkpt lat="44.39422" lon="6.77281">
        <ele>1650.22</ele>
        <time>2021-07-21T08:50:42Z</time>
      </trkpt>
      <trkpt lat="44.39427" lon="6.77277">
        <ele>1650.06</ele>
        <time>2021-07-21T08:50:44Z</time>
      </trkpt>
      <trkpt lat="44.39434" lon="6.77274">
        <ele>1650.93</ele>
        <time>2021-07-21T08:50:47Z</time>
      </trkpt>
      <trkpt lat="44.3944" lon="6.77272">
        <ele>1651.79</ele>
        <time>2021-07-21T08:50:50Z</time>
      </trkpt>
      <trkpt lat="44.39447" lon="6.77273">
        <ele>1653.47</ele>
        <time>2021-07-21T08:50:53Z</time>
      </trkpt>
      <trkpt lat="44.39454" lon="6.77273">
        <ele>1654.85</ele>
        <time>2021-07-21T08:50:58Z</time>
      </trkpt>
      <trkpt lat="44.39461" lon="6.77274">
        <ele>1656.52</ele>
        <time>2021-07-21T08:51:01Z</time>
      </trkpt>
      <trkpt lat="44.39467" lon="6.77274">
        <ele>1657.72</ele>
        <time>2021-07-21T08:51:04Z</time>
      </trkpt>
      <trkpt lat="44.39473" lon="6.77273">
        <ele>1658.57</ele>
        <time>2021-07-21T08:51:09Z</time>
      </trkpt>
      <trkpt lat="44.39479" lon="6.77272">
        <ele>1659.21</ele>
        <time>2021-07-21T08:51:13Z</time>
      </trkpt>
      <trkpt lat="44.39486" lon="6.77273">
        <ele>1660.61</ele>
        <time>2021-07-21T08:51:15Z</time>
      </trkpt>
      <trkpt lat="44.39493" lon="6.77274">
        <ele>1661.97</ele>
        <time>2021-07-21T08:51:19Z</time>
      </trkpt>
      <trkpt lat="44.39499" lon="6.77276">
        <ele>1663.4</ele>
        <time>2021-07-21T08:51:22Z</time>
      </trkpt>
      <trkpt lat="44.39505" lon="6.77276">
        <ele>1663.89</ele>
        <time>2021-07-21T08:51:25Z</time>
      </trkpt>
      <trkpt lat="44.39511" lon="6.77277">
        <ele>1664.57</ele>
        <time>2021-07-21T08:51:28Z</time>
      </trkpt>
      <trkpt lat="44.3952" lon="6.77278">
        <ele>1665.49</ele>
        <time>2021-07-21T08:51:31Z</time>
      </trkpt>
      <trkpt lat="44.39526" lon="6.7728">
        <ele>1666.37</ele>
        <time>2021-07-21T08:51:33Z</time>
      </trkpt>
      <trkpt lat="44.39532" lon="6.77282">
        <ele>1666.76</ele>
        <time>2021-07-21T08:51:35Z</time>
      </trkpt>
      <trkpt lat="44.39538" lon="6.77282">
        <ele>1666.54</ele>
        <time>2021-07-21T08:51:38Z</time>
      </trkpt>
      <trkpt lat="44.39546" lon="6.77284">
        <ele>1666.69</ele>
        <time>2021-07-21T08:51:41Z</time>
      </trkpt>
      <trkpt lat="44.39554" lon="6.77285">
        <ele>1666.62</ele>
        <time>2021-07-21T08:51:44Z</time>
      </trkpt>
      <trkpt lat="44.3956" lon="6.77286">
        <ele>1666.62</ele>
        <time>2021-07-21T08:51:46Z</time>
      </trkpt>
      <trkpt lat="44.39566" lon="6.77287">
        <ele>1666.62</ele>
        <time>2021-07-21T08:51:49Z</time>
      </trkpt>
      <trkpt lat="44.39573" lon="6.77288">
        <ele>1666.58</ele>
        <time>2021-07-21T08:51:51Z</time>
      </trkpt>
      <trkpt lat="44.3958" lon="6.77289">
        <ele>1666.54</ele>
        <time>2021-07-21T08:51:54Z</time>
      </trkpt>
      <trkpt lat="44.39587" lon="6.77291">
        <ele>1666.86</ele>
        <time>2021-07-21T08:51:56Z</time>
      </trkpt>
      <trkpt lat="44.39594" lon="6.77291">
        <ele>1666.86</ele>
        <time>2021-07-21T08:51:59Z</time>
      </trkpt>
      <trkpt lat="44.39603" lon="6.77289">
        <ele>1666.42</ele>
        <time>2021-07-21T08:52:03Z</time>
      </trkpt>
      <trkpt lat="44.39609" lon="6.77289">
        <ele>1666.42</ele>
        <time>2021-07-21T08:52:05Z</time>
      </trkpt>
      <trkpt lat="44.39618" lon="6.7729">
        <ele>1667.3</ele>
        <time>2021-07-21T08:52:08Z</time>
      </trkpt>
      <trkpt lat="44.39625" lon="6.77291">
        <ele>1668.14</ele>
        <time>2021-07-21T08:52:11Z</time>
      </trkpt>
      <trkpt lat="44.39633" lon="6.77293">
        <ele>1669.14</ele>
        <time>2021-07-21T08:52:14Z</time>
      </trkpt>
      <trkpt lat="44.39639" lon="6.77296">
        <ele>1669.97</ele>
        <time>2021-07-21T08:52:16Z</time>
      </trkpt>
      <trkpt lat="44.39645" lon="6.77298">
        <ele>1670.56</ele>
        <time>2021-07-21T08:52:19Z</time>
      </trkpt>
      <trkpt lat="44.39651" lon="6.77299">
        <ele>1671.06</ele>
        <time>2021-07-21T08:52:21Z</time>
      </trkpt>
      <trkpt lat="44.39658" lon="6.77299">
        <ele>1671.51</ele>
        <time>2021-07-21T08:52:25Z</time>
      </trkpt>
      <trkpt lat="44.39664" lon="6.77299">
        <ele>1671.89</ele>
        <time>2021-07-21T08:52:27Z</time>
      </trkpt>
      <trkpt lat="44.39672" lon="6.77298">
        <ele>1672.35</ele>
        <time>2021-07-21T08:52:31Z</time>
      </trkpt>
      <trkpt lat="44.39679" lon="6.77296">
        <ele>1672.66</ele>
        <time>2021-07-21T08:52:34Z</time>
      </trkpt>
      <trkpt lat="44.39686" lon="6.77296">
        <ele>1673.26</ele>
        <time>2021-07-21T08:52:37Z</time>
      </trkpt>
      <trkpt lat="44.39693" lon="6.77296">
        <ele>1673.85</ele>
        <time>2021-07-21T08:52:40Z</time>
      </trkpt>
      <trkpt lat="44.39701" lon="6.77294">
        <ele>1674.46</ele>
        <time>2021-07-21T08:52:44Z</time>
      </trkpt>
      <trkpt lat="44.39708" lon="6.77291">
        <ele>1674.89</ele>
        <time>2021-07-21T08:52:48Z</time>
      </trkpt>
      <trkpt lat="44.39716" lon="6.77288">
        <ele>1675.43</ele>
        <time>2021-07-21T08:52:51Z</time>
      </trkpt>
      <trkpt lat="44.39722" lon="6.77293">
        <ele>1676.62</ele>
        <time>2021-07-21T08:52:55Z</time>
      </trkpt>
      <trkpt lat="44.39721" lon="6.77304">
        <ele>1677.7</ele>
        <time>2021-07-21T08:52:58Z</time>
      </trkpt>
      <trkpt lat="44.39716" lon="6.7731">
        <ele>1678.25</ele>
        <time>2021-07-21T08:53:01Z</time>
      </trkpt>
      <trkpt lat="44.3971" lon="6.77314">
        <ele>1678.37</ele>
        <time>2021-07-21T08:53:05Z</time>
      </trkpt>
      <trkpt lat="44.39703" lon="6.77319">
        <ele>1678.49</ele>
        <time>2021-07-21T08:53:09Z</time>
      </trkpt>
      <trkpt lat="44.39697" lon="6.77325">
        <ele>1678.84</ele>
        <time>2021-07-21T08:53:12Z</time>
      </trkpt>
      <trkpt lat="44.39693" lon="6.77333">
        <ele>1679.89</ele>
        <time>2021-07-21T08:53:19Z</time>
      </trkpt>
      <trkpt lat="44.39685" lon="6.77336">
        <ele>1680.23</ele>
        <time>2021-07-21T08:53:23Z</time>
      </trkpt>
      <trkpt lat="44.3968" lon="6.77341">
        <ele>1680.83</ele>
        <time>2021-07-21T08:53:27Z</time>
      </trkpt>
      <trkpt lat="44.39673" lon="6.77343">
        <ele>1680.4</ele>
        <time>2021-07-21T08:53:31Z</time>
      </trkpt>
      <trkpt lat="44.39666" lon="6.77345">
        <ele>1679.89</ele>
        <time>2021-07-21T08:53:35Z</time>
      </trkpt>
      <trkpt lat="44.3966" lon="6.77348">
        <ele>1680.7</ele>
        <time>2021-07-21T08:53:38Z</time>
      </trkpt>
      <trkpt lat="44.39651" lon="6.77349">
        <ele>1681.79</ele>
        <time>2021-07-21T08:53:42Z</time>
      </trkpt>
      <trkpt lat="44.39644" lon="6.77349">
        <ele>1682.53</ele>
        <time>2021-07-21T08:53:44Z</time>
      </trkpt>
      <trkpt lat="44.39638" lon="6.77348">
        <ele>1682.77</ele>
        <time>2021-07-21T08:53:47Z</time>
      </trkpt>
      <trkpt lat="44.39631" lon="6.77347">
        <ele>1682.57</ele>
        <time>2021-07-21T08:53:50Z</time>
      </trkpt>
      <trkpt lat="44.39624" lon="6.77347">
        <ele>1682.7</ele>
        <time>2021-07-21T08:53:53Z</time>
      </trkpt>
      <trkpt lat="44.39617" lon="6.77347">
        <ele>1682.83</ele>
        <time>2021-07-21T08:53:56Z</time>
      </trkpt>
      <trkpt lat="44.39608" lon="6.77349">
        <ele>1683.65</ele>
        <time>2021-07-21T08:54:00Z</time>
      </trkpt>
      <trkpt lat="44.39601" lon="6.7735">
        <ele>1684.31</ele>
        <time>2021-07-21T08:54:02Z</time>
      </trkpt>
      <trkpt lat="44.39593" lon="6.7735">
        <ele>1684.71</ele>
        <time>2021-07-21T08:54:05Z</time>
      </trkpt>
      <trkpt lat="44.39588" lon="6.77351">
        <ele>1685.37</ele>
        <time>2021-07-21T08:54:07Z</time>
      </trkpt>
      <trkpt lat="44.39579" lon="6.77353">
        <ele>1686.85</ele>
        <time>2021-07-21T08:54:11Z</time>
      </trkpt>
      <trkpt lat="44.39572" lon="6.77355">
        <ele>1688.27</ele>
        <time>2021-07-21T08:54:13Z</time>
      </trkpt>
      <trkpt lat="44.39565" lon="6.77356">
        <ele>1689.23</ele>
        <time>2021-07-21T08:54:17Z</time>
      </trkpt>
      <trkpt lat="44.39557" lon="6.77357">
        <ele>1690.26</ele>
        <time>2021-07-21T08:54:20Z</time>
      </trkpt>
      <trkpt lat="44.3955" lon="6.77359">
        <ele>1691.9</ele>
        <time>2021-07-21T08:54:24Z</time>
      </trkpt>
      <trkpt lat="44.39543" lon="6.7736">
        <ele>1693.3</ele>
        <time>2021-07-21T08:54:28Z</time>
      </trkpt>
      <trkpt lat="44.39539" lon="6.77362">
        <ele>1694.74</ele>
        <time>2021-07-21T08:54:30Z</time>
      </trkpt>
      <trkpt lat="44.39536" lon="6.77363">
        <ele>1695.56</ele>
        <time>2021-07-21T08:54:32Z</time>
      </trkpt>
      <trkpt lat="44.39532" lon="6.77365">
        <ele>1696.86</ele>
        <time>2021-07-21T08:54:34Z</time>
      </trkpt>
      <trkpt lat="44.39529" lon="6.77368">
        <ele>1698.34</ele>
        <time>2021-07-21T08:54:35Z</time>
      </trkpt>
      <trkpt lat="44.39526" lon="6.77371">
        <ele>1699.2</ele>
        <time>2021-07-21T08:54:37Z</time>
      </trkpt>
      <trkpt lat="44.39521" lon="6.77374">
        <ele>1699.29</ele>
        <time>2021-07-21T08:54:40Z</time>
      </trkpt>
      <trkpt lat="44.39513" lon="6.77377">
        <ele>1698.83</ele>
        <time>2021-07-21T08:54:42Z</time>
      </trkpt>
      <trkpt lat="44.39508" lon="6.77379">
        <ele>1698.63</ele>
        <time>2021-07-21T08:54:44Z</time>
      </trkpt>
      <trkpt lat="44.39502" lon="6.77382">
        <ele>1698.65</ele>
        <time>2021-07-21T08:54:47Z</time>
      </trkpt>
      <trkpt lat="44.39498" lon="6.77387">
        <ele>1699.83</ele>
        <time>2021-07-21T08:54:48Z</time>
      </trkpt>
      <trkpt lat="44.39494" lon="6.77393">
        <ele>1700.91</ele>
        <time>2021-07-21T08:54:51Z</time>
      </trkpt>
      <trkpt lat="44.39487" lon="6.77399">
        <ele>1700.79</ele>
        <time>2021-07-21T08:54:52Z</time>
      </trkpt>
      <trkpt lat="44.39482" lon="6.77404">
        <ele>1700.6</ele>
        <time>2021-07-21T08:54:55Z</time>
      </trkpt>
      <trkpt lat="44.39476" lon="6.7741">
        <ele>1700.03</ele>
        <time>2021-07-21T08:54:59Z</time>
      </trkpt>
      <trkpt lat="44.39471" lon="6.77417">
        <ele>1699.96</ele>
        <time>2021-07-21T08:55:02Z</time>
      </trkpt>
      <trkpt lat="44.39466" lon="6.77423">
        <ele>1701.1</ele>
        <time>2021-07-21T08:55:05Z</time>
      </trkpt>
      <trkpt lat="44.3946" lon="6.77429">
        <ele>1702.04</ele>
        <time>2021-07-21T08:55:08Z</time>
      </trkpt>
      <trkpt lat="44.39454" lon="6.77433">
        <ele>1702.35</ele>
        <time>2021-07-21T08:55:10Z</time>
      </trkpt>
      <trkpt lat="44.39449" lon="6.77438">
        <ele>1702.99</ele>
        <time>2021-07-21T08:55:12Z</time>
      </trkpt>
      <trkpt lat="44.39445" lon="6.77448">
        <ele>1704.86</ele>
        <time>2021-07-21T08:55:15Z</time>
      </trkpt>
      <trkpt lat="44.39443" lon="6.77456">
        <ele>1706.13</ele>
        <time>2021-07-21T08:55:18Z</time>
      </trkpt>
      <trkpt lat="44.39449" lon="6.77458">
        <ele>1707.82</ele>
        <time>2021-07-21T08:55:27Z</time>
      </trkpt>
      <trkpt lat="44.39455" lon="6.77454">
        <ele>1707.98</ele>
        <time>2021-07-21T08:55:30Z</time>
      </trkpt>
      <trkpt lat="44.39461" lon="6.77451">
        <ele>1708.22</ele>
        <time>2021-07-21T08:55:34Z</time>
      </trkpt>
      <trkpt lat="44.39466" lon="6.77447">
        <ele>1707.87</ele>
        <time>2021-07-21T08:55:37Z</time>
      </trkpt>
      <trkpt lat="44.39472" lon="6.77441">
        <ele>1706.98</ele>
        <time>2021-07-21T08:55:42Z</time>
      </trkpt>
      <trkpt lat="44.39478" lon="6.77433">
        <ele>1706.05</ele>
        <time>2021-07-21T08:55:47Z</time>
      </trkpt>
      <trkpt lat="44.39485" lon="6.77432">
        <ele>1707.49</ele>
        <time>2021-07-21T08:55:50Z</time>
      </trkpt>
      <trkpt lat="44.39493" lon="6.77433">
        <ele>1709.55</ele>
        <time>2021-07-21T08:55:56Z</time>
      </trkpt>
      <trkpt lat="44.39499" lon="6.77433">
        <ele>1710.94</ele>
        <time>2021-07-21T08:55:59Z</time>
      </trkpt>
      <trkpt lat="44.39506" lon="6.77433">
        <ele>1712.03</ele>
        <time>2021-07-21T08:56:02Z</time>
      </trkpt>
      <trkpt lat="44.39513" lon="6.77431">
        <ele>1712.71</ele>
        <time>2021-07-21T08:56:06Z</time>
      </trkpt>
      <trkpt lat="44.3952" lon="6.77429">
        <ele>1713.21</ele>
        <time>2021-07-21T08:56:10Z</time>
      </trkpt>
      <trkpt lat="44.39527" lon="6.77427">
        <ele>1713.52</ele>
        <time>2021-07-21T08:56:13Z</time>
      </trkpt>
      <trkpt lat="44.39534" lon="6.77427">
        <ele>1713.6</ele>
        <time>2021-07-21T08:56:16Z</time>
      </trkpt>
      <trkpt lat="44.3954" lon="6.77427">
        <ele>1713.6</ele>
        <time>2021-07-21T08:56:18Z</time>
      </trkpt>
      <trkpt lat="44.39548" lon="6.77428">
        <ele>1713.86</ele>
        <time>2021-07-21T08:56:22Z</time>
      </trkpt>
      <trkpt lat="44.39556" lon="6.77429">
        <ele>1714.09</ele>
        <time>2021-07-21T08:56:26Z</time>
      </trkpt>
      <trkpt lat="44.39563" lon="6.77428">
        <ele>1713.54</ele>
        <time>2021-07-21T08:56:29Z</time>
      </trkpt>
      <trkpt lat="44.39571" lon="6.77428">
        <ele>1713.2</ele>
        <time>2021-07-21T08:56:34Z</time>
      </trkpt>
      <trkpt lat="44.3958" lon="6.77426">
        <ele>1712.18</ele>
        <time>2021-07-21T08:56:38Z</time>
      </trkpt>
      <trkpt lat="44.39586" lon="6.77426">
        <ele>1711.9</ele>
        <time>2021-07-21T08:56:42Z</time>
      </trkpt>
      <trkpt lat="44.39594" lon="6.77424">
        <ele>1710.81</ele>
        <time>2021-07-21T08:56:45Z</time>
      </trkpt>
      <trkpt lat="44.396" lon="6.77423">
        <ele>1710.13</ele>
        <time>2021-07-21T08:56:49Z</time>
      </trkpt>
      <trkpt lat="44.39606" lon="6.77421">
        <ele>1709.03</ele>
        <time>2021-07-21T08:56:53Z</time>
      </trkpt>
      <trkpt lat="44.39611" lon="6.77421">
        <ele>1708.72</ele>
        <time>2021-07-21T08:56:55Z</time>
      </trkpt>
      <trkpt lat="44.39617" lon="6.77422">
        <ele>1709.75</ele>
        <time>2021-07-21T08:56:58Z</time>
      </trkpt>
      <trkpt lat="44.39623" lon="6.77423">
        <ele>1710.79</ele>
        <time>2021-07-21T08:57:02Z</time>
      </trkpt>
      <trkpt lat="44.39629" lon="6.77425">
        <ele>1712.23</ele>
        <time>2021-07-21T08:57:05Z</time>
      </trkpt>
      <trkpt lat="44.39637" lon="6.7743">
        <ele>1715.08</ele>
        <time>2021-07-21T08:57:09Z</time>
      </trkpt>
      <trkpt lat="44.39643" lon="6.77434">
        <ele>1718.31</ele>
        <time>2021-07-21T08:57:11Z</time>
      </trkpt>
      <trkpt lat="44.3965" lon="6.77438">
        <ele>1722.69</ele>
        <time>2021-07-21T08:57:14Z</time>
      </trkpt>
      <trkpt lat="44.39656" lon="6.7744">
        <ele>1726.04</ele>
        <time>2021-07-21T08:57:18Z</time>
      </trkpt>
      <trkpt lat="44.39663" lon="6.7744">
        <ele>1728.82</ele>
        <time>2021-07-21T08:57:20Z</time>
      </trkpt>
      <trkpt lat="44.3967" lon="6.77439">
        <ele>1730.65</ele>
        <time>2021-07-21T08:57:24Z</time>
      </trkpt>
      <trkpt lat="44.39677" lon="6.77439">
        <ele>1732.71</ele>
        <time>2021-07-21T08:57:26Z</time>
      </trkpt>
      <trkpt lat="44.39683" lon="6.77438">
        <ele>1733.99</ele>
        <time>2021-07-21T08:57:29Z</time>
      </trkpt>
      <trkpt lat="44.39691" lon="6.77437">
        <ele>1735.98</ele>
        <time>2021-07-21T08:57:33Z</time>
      </trkpt>
      <trkpt lat="44.39699" lon="6.77435">
        <ele>1735.82</ele>
        <time>2021-07-21T08:57:38Z</time>
      </trkpt>
      <trkpt lat="44.39706" lon="6.77434">
        <ele>1734.77</ele>
        <time>2021-07-21T08:57:40Z</time>
      </trkpt>
      <trkpt lat="44.39713" lon="6.77432">
        <ele>1733.37</ele>
        <time>2021-07-21T08:57:44Z</time>
      </trkpt>
      <trkpt lat="44.39719" lon="6.77429">
        <ele>1731.72</ele>
        <time>2021-07-21T08:57:46Z</time>
      </trkpt>
      <trkpt lat="44.39726" lon="6.77426">
        <ele>1730.9</ele>
        <time>2021-07-21T08:57:48Z</time>
      </trkpt>
      <trkpt lat="44.39732" lon="6.77423">
        <ele>1730.69</ele>
        <time>2021-07-21T08:57:51Z</time>
      </trkpt>
      <trkpt lat="44.39739" lon="6.77419">
        <ele>1730.26</ele>
        <time>2021-07-21T08:57:54Z</time>
      </trkpt>
      <trkpt lat="44.39745" lon="6.77416">
        <ele>1730.04</ele>
        <time>2021-07-21T08:57:57Z</time>
      </trkpt>
      <trkpt lat="44.39752" lon="6.7741">
        <ele>1729.18</ele>
        <time>2021-07-21T08:58:00Z</time>
      </trkpt>
      <trkpt lat="44.39757" lon="6.77406">
        <ele>1728.84</ele>
        <time>2021-07-21T08:58:03Z</time>
      </trkpt>
      <trkpt lat="44.39763" lon="6.77401">
        <ele>1728.59</ele>
        <time>2021-07-21T08:58:06Z</time>
      </trkpt>
      <trkpt lat="44.39771" lon="6.77397">
        <ele>1729.26</ele>
        <time>2021-07-21T08:58:10Z</time>
      </trkpt>
      <trkpt lat="44.39776" lon="6.77394">
        <ele>1729.69</ele>
        <time>2021-07-21T08:58:12Z</time>
      </trkpt>
      <trkpt lat="44.39785" lon="6.77392">
        <ele>1730.71</ele>
        <time>2021-07-21T08:58:16Z</time>
      </trkpt>
      <trkpt lat="44.39792" lon="6.77389">
        <ele>1731.07</ele>
        <time>2021-07-21T08:58:18Z</time>
      </trkpt>
      <trkpt lat="44.39797" lon="6.77387">
        <ele>1731.39</ele>
        <time>2021-07-21T08:58:21Z</time>
      </trkpt>
      <trkpt lat="44.39804" lon="6.77383">
        <ele>1731.69</ele>
        <time>2021-07-21T08:58:24Z</time>
      </trkpt>
      <trkpt lat="44.3981" lon="6.7738">
        <ele>1732.2</ele>
        <time>2021-07-21T08:58:27Z</time>
      </trkpt>
      <trkpt lat="44.39817" lon="6.77376">
        <ele>1732.74</ele>
        <time>2021-07-21T08:58:30Z</time>
      </trkpt>
      <trkpt lat="44.39825" lon="6.77372">
        <ele>1733.46</ele>
        <time>2021-07-21T08:58:34Z</time>
      </trkpt>
      <trkpt lat="44.39832" lon="6.77369">
        <ele>1734.18</ele>
        <time>2021-07-21T08:58:36Z</time>
      </trkpt>
      <trkpt lat="44.39838" lon="6.77366">
        <ele>1734.98</ele>
        <time>2021-07-21T08:58:40Z</time>
      </trkpt>
      <trkpt lat="44.39845" lon="6.77365">
        <ele>1736.4</ele>
        <time>2021-07-21T08:58:43Z</time>
      </trkpt>
      <trkpt lat="44.39851" lon="6.77362">
        <ele>1737.04</ele>
        <time>2021-07-21T08:58:46Z</time>
      </trkpt>
      <trkpt lat="44.39857" lon="6.77359">
        <ele>1737.55</ele>
        <time>2021-07-21T08:58:49Z</time>
      </trkpt>
      <trkpt lat="44.39862" lon="6.77356">
        <ele>1737.64</ele>
        <time>2021-07-21T08:58:53Z</time>
      </trkpt>
      <trkpt lat="44.3987" lon="6.77352">
        <ele>1737.55</ele>
        <time>2021-07-21T08:58:57Z</time>
      </trkpt>
      <trkpt lat="44.39876" lon="6.7735">
        <ele>1737.84</ele>
        <time>2021-07-21T08:59:00Z</time>
      </trkpt>
      <trkpt lat="44.39884" lon="6.77348">
        <ele>1738.47</ele>
        <time>2021-07-21T08:59:04Z</time>
      </trkpt>
      <trkpt lat="44.3989" lon="6.77346">
        <ele>1738.91</ele>
        <time>2021-07-21T08:59:08Z</time>
      </trkpt>
      <trkpt lat="44.39894" lon="6.77345">
        <ele>1739.33</ele>
        <time>2021-07-21T08:59:12Z</time>
      </trkpt>
      <trkpt lat="44.39897" lon="6.77345">
        <ele>1739.81</ele>
        <time>2021-07-21T08:59:14Z</time>
      </trkpt>
      <trkpt lat="44.399" lon="6.77344">
        <ele>1740.06</ele>
        <time>2021-07-21T08:59:17Z</time>
      </trkpt>
      <trkpt lat="44.39904" lon="6.77344">
        <ele>1740.69</ele>
        <time>2021-07-21T08:59:20Z</time>
      </trkpt>
      <trkpt lat="44.3991" lon="6.77343">
        <ele>1741.39</ele>
        <time>2021-07-21T08:59:22Z</time>
      </trkpt>
      <trkpt lat="44.39917" lon="6.77343">
        <ele>1742.46</ele>
        <time>2021-07-21T08:59:27Z</time>
      </trkpt>
      <trkpt lat="44.39924" lon="6.77344">
        <ele>1743.28</ele>
        <time>2021-07-21T08:59:30Z</time>
      </trkpt>
      <trkpt lat="44.3993" lon="6.77343">
        <ele>1743.54</ele>
        <time>2021-07-21T08:59:33Z</time>
      </trkpt>
      <trkpt lat="44.39936" lon="6.77341">
        <ele>1743.64</ele>
        <time>2021-07-21T08:59:37Z</time>
      </trkpt>
      <trkpt lat="44.39942" lon="6.77337">
        <ele>1743.42</ele>
        <time>2021-07-21T08:59:40Z</time>
      </trkpt>
      <trkpt lat="44.39948" lon="6.77333">
        <ele>1743.68</ele>
        <time>2021-07-21T08:59:43Z</time>
      </trkpt>
      <trkpt lat="44.39955" lon="6.7733">
        <ele>1744.35</ele>
        <time>2021-07-21T08:59:46Z</time>
      </trkpt>
      <trkpt lat="44.39963" lon="6.7733">
        <ele>1746.01</ele>
        <time>2021-07-21T08:59:51Z</time>
      </trkpt>
      <trkpt lat="44.3997" lon="6.77331">
        <ele>1747.78</ele>
        <time>2021-07-21T08:59:53Z</time>
      </trkpt>
      <trkpt lat="44.39976" lon="6.77332">
        <ele>1748.57</ele>
        <time>2021-07-21T08:59:56Z</time>
      </trkpt>
      <trkpt lat="44.39984" lon="6.77336">
        <ele>1749.52</ele>
        <time>2021-07-21T09:00:00Z</time>
      </trkpt>
      <trkpt lat="44.39993" lon="6.77342">
        <ele>1750.79</ele>
        <time>2021-07-21T09:00:05Z</time>
      </trkpt>
      <trkpt lat="44.39998" lon="6.77347">
        <ele>1751.92</ele>
        <time>2021-07-21T09:00:07Z</time>
      </trkpt>
      <trkpt lat="44.40004" lon="6.77352">
        <ele>1752.46</ele>
        <time>2021-07-21T09:00:11Z</time>
      </trkpt>
      <trkpt lat="44.4001" lon="6.77356">
        <ele>1752.62</ele>
        <time>2021-07-21T09:00:14Z</time>
      </trkpt>
      <trkpt lat="44.40016" lon="6.7736">
        <ele>1752.96</ele>
        <time>2021-07-21T09:00:18Z</time>
      </trkpt>
      <trkpt lat="44.40023" lon="6.77364">
        <ele>1753.19</ele>
        <time>2021-07-21T09:00:22Z</time>
      </trkpt>
      <trkpt lat="44.40028" lon="6.77367">
        <ele>1753.45</ele>
        <time>2021-07-21T09:00:24Z</time>
      </trkpt>
      <trkpt lat="44.40034" lon="6.77369">
        <ele>1753.09</ele>
        <time>2021-07-21T09:00:28Z</time>
      </trkpt>
      <trkpt lat="44.40038" lon="6.77372">
        <ele>1753.27</ele>
        <time>2021-07-21T09:00:32Z</time>
      </trkpt>
      <trkpt lat="44.40044" lon="6.77378">
        <ele>1753.92</ele>
        <time>2021-07-21T09:00:35Z</time>
      </trkpt>
      <trkpt lat="44.4005" lon="6.77383">
        <ele>1754.32</ele>
        <time>2021-07-21T09:00:38Z</time>
      </trkpt>
      <trkpt lat="44.40056" lon="6.7739">
        <ele>1755.1</ele>
        <time>2021-07-21T09:00:42Z</time>
      </trkpt>
      <trkpt lat="44.40063" lon="6.77397">
        <ele>1755.02</ele>
        <time>2021-07-21T09:00:46Z</time>
      </trkpt>
      <trkpt lat="44.40067" lon="6.77404">
        <ele>1755.3</ele>
        <time>2021-07-21T09:00:49Z</time>
      </trkpt>
      <trkpt lat="44.40071" lon="6.77412">
        <ele>1755.64</ele>
        <time>2021-07-21T09:00:52Z</time>
      </trkpt>
      <trkpt lat="44.40073" lon="6.7742">
        <ele>1756.14</ele>
        <time>2021-07-21T09:00:55Z</time>
      </trkpt>
      <trkpt lat="44.40075" lon="6.77428">
        <ele>1756.44</ele>
        <time>2021-07-21T09:00:58Z</time>
      </trkpt>
      <trkpt lat="44.40077" lon="6.77438">
        <ele>1756.85</ele>
        <time>2021-07-21T09:01:03Z</time>
      </trkpt>
      <trkpt lat="44.40077" lon="6.77444">
        <ele>1757.33</ele>
        <time>2021-07-21T09:01:07Z</time>
      </trkpt>
      <trkpt lat="44.40078" lon="6.77448">
        <ele>1757.23</ele>
        <time>2021-07-21T09:01:09Z</time>
      </trkpt>
      <trkpt lat="44.40078" lon="6.77453">
        <ele>1757.34</ele>
        <time>2021-07-21T09:01:13Z</time>
      </trkpt>
      <trkpt lat="44.40078" lon="6.77459">
        <ele>1757.47</ele>
        <time>2021-07-21T09:01:15Z</time>
      </trkpt>
      <trkpt lat="44.40079" lon="6.77469">
        <ele>1757.54</ele>
        <time>2021-07-21T09:01:19Z</time>
      </trkpt>
      <trkpt lat="44.40081" lon="6.77479">
        <ele>1758.21</ele>
        <time>2021-07-21T09:01:23Z</time>
      </trkpt>
      <trkpt lat="44.40083" lon="6.77489">
        <ele>1759.43</ele>
        <time>2021-07-21T09:01:27Z</time>
      </trkpt>
      <trkpt lat="44.40085" lon="6.77498">
        <ele>1760.48</ele>
        <time>2021-07-21T09:01:30Z</time>
      </trkpt>
      <trkpt lat="44.40086" lon="6.77512">
        <ele>1760.74</ele>
        <time>2021-07-21T09:01:34Z</time>
      </trkpt>
      <trkpt lat="44.40087" lon="6.77522">
        <ele>1760.79</ele>
        <time>2021-07-21T09:01:37Z</time>
      </trkpt>
      <trkpt lat="44.40086" lon="6.77533">
        <ele>1760.9</ele>
        <time>2021-07-21T09:01:40Z</time>
      </trkpt>
      <trkpt lat="44.40084" lon="6.77543">
        <ele>1760.98</ele>
        <time>2021-07-21T09:01:42Z</time>
      </trkpt>
      <trkpt lat="44.40082" lon="6.77553">
        <ele>1761.05</ele>
        <time>2021-07-21T09:01:47Z</time>
      </trkpt>
      <trkpt lat="44.40079" lon="6.77562">
        <ele>1761.39</ele>
        <time>2021-07-21T09:01:50Z</time>
      </trkpt>
      <trkpt lat="44.40077" lon="6.77574">
        <ele>1761.89</ele>
        <time>2021-07-21T09:01:54Z</time>
      </trkpt>
      <trkpt lat="44.40076" lon="6.77584">
        <ele>1762.29</ele>
        <time>2021-07-21T09:01:57Z</time>
      </trkpt>
      <trkpt lat="44.40076" lon="6.77598">
        <ele>1762.79</ele>
        <time>2021-07-21T09:02:01Z</time>
      </trkpt>
      <trkpt lat="44.40075" lon="6.7761">
        <ele>1763.26</ele>
        <time>2021-07-21T09:02:06Z</time>
      </trkpt>
      <trkpt lat="44.40075" lon="6.77619">
        <ele>1763.98</ele>
        <time>2021-07-21T09:02:09Z</time>
      </trkpt>
      <trkpt lat="44.40078" lon="6.77627">
        <ele>1764.69</ele>
        <time>2021-07-21T09:02:12Z</time>
      </trkpt>
      <trkpt lat="44.4008" lon="6.77635">
        <ele>1765.49</ele>
        <time>2021-07-21T09:02:15Z</time>
      </trkpt>
      <trkpt lat="44.40082" lon="6.77643">
        <ele>1765.83</ele>
        <time>2021-07-21T09:02:18Z</time>
      </trkpt>
      <trkpt lat="44.40084" lon="6.77651">
        <ele>1765.42</ele>
        <time>2021-07-21T09:02:21Z</time>
      </trkpt>
      <trkpt lat="44.40086" lon="6.7766">
        <ele>1764.66</ele>
        <time>2021-07-21T09:02:24Z</time>
      </trkpt>
      <trkpt lat="44.40088" lon="6.7767">
        <ele>1763.95</ele>
        <time>2021-07-21T09:02:28Z</time>
      </trkpt>
      <trkpt lat="44.40089" lon="6.77678">
        <ele>1763.61</ele>
        <time>2021-07-21T09:02:31Z</time>
      </trkpt>
      <trkpt lat="44.40091" lon="6.77688">
        <ele>1762.92</ele>
        <time>2021-07-21T09:02:34Z</time>
      </trkpt>
      <trkpt lat="44.4009" lon="6.77698">
        <ele>1762.79</ele>
        <time>2021-07-21T09:02:38Z</time>
      </trkpt>
      <trkpt lat="44.40089" lon="6.77709">
        <ele>1762.12</ele>
        <time>2021-07-21T09:02:42Z</time>
      </trkpt>
      <trkpt lat="44.40088" lon="6.7772">
        <ele>1761.36</ele>
        <time>2021-07-21T09:02:46Z</time>
      </trkpt>
      <trkpt lat="44.40088" lon="6.77728">
        <ele>1761.37</ele>
        <time>2021-07-21T09:02:48Z</time>
      </trkpt>
      <trkpt lat="44.40087" lon="6.77738">
        <ele>1761.91</ele>
        <time>2021-07-21T09:02:50Z</time>
      </trkpt>
      <trkpt lat="44.40086" lon="6.77749">
        <ele>1762.48</ele>
        <time>2021-07-21T09:02:52Z</time>
      </trkpt>
      <trkpt lat="44.40085" lon="6.77761">
        <ele>1763.52</ele>
        <time>2021-07-21T09:02:55Z</time>
      </trkpt>
      <trkpt lat="44.40085" lon="6.7777">
        <ele>1764.18</ele>
        <time>2021-07-21T09:02:57Z</time>
      </trkpt>
      <trkpt lat="44.40084" lon="6.77784">
        <ele>1765.15</ele>
        <time>2021-07-21T09:03:00Z</time>
      </trkpt>
      <trkpt lat="44.40084" lon="6.77797">
        <ele>1765.66</ele>
        <time>2021-07-21T09:03:03Z</time>
      </trkpt>
      <trkpt lat="44.40086" lon="6.77807">
        <ele>1766.1</ele>
        <time>2021-07-21T09:03:06Z</time>
      </trkpt>
      <trkpt lat="44.40091" lon="6.77812">
        <ele>1766.46</ele>
        <time>2021-07-21T09:03:08Z</time>
      </trkpt>
      <trkpt lat="44.40097" lon="6.77813">
        <ele>1766.54</ele>
        <time>2021-07-21T09:03:11Z</time>
      </trkpt>
      <trkpt lat="44.40101" lon="6.77806">
        <ele>1766.03</ele>
        <time>2021-07-21T09:03:13Z</time>
      </trkpt>
      <trkpt lat="44.40103" lon="6.77796">
        <ele>1764.68</ele>
        <time>2021-07-21T09:03:18Z</time>
      </trkpt>
      <trkpt lat="44.40107" lon="6.77788">
        <ele>1763.21</ele>
        <time>2021-07-21T09:03:20Z</time>
      </trkpt>
      <trkpt lat="44.4011" lon="6.77779">
        <ele>1761.37</ele>
        <time>2021-07-21T09:03:24Z</time>
      </trkpt>
      <trkpt lat="44.40115" lon="6.77773">
        <ele>1760.72</ele>
        <time>2021-07-21T09:03:26Z</time>
      </trkpt>
      <trkpt lat="44.40121" lon="6.77769">
        <ele>1760.54</ele>
        <time>2021-07-21T09:03:28Z</time>
      </trkpt>
      <trkpt lat="44.40129" lon="6.77766">
        <ele>1760.47</ele>
        <time>2021-07-21T09:03:31Z</time>
      </trkpt>
      <trkpt lat="44.40139" lon="6.77762">
        <ele>1760.15</ele>
        <time>2021-07-21T09:03:34Z</time>
      </trkpt>
      <trkpt lat="44.40145" lon="6.77758">
        <ele>1758.72</ele>
        <time>2021-07-21T09:03:35Z</time>
      </trkpt>
      <trkpt lat="44.40153" lon="6.77754">
        <ele>1757.12</ele>
        <time>2021-07-21T09:03:38Z</time>
      </trkpt>
      <trkpt lat="44.40159" lon="6.77753">
        <ele>1756.29</ele>
        <time>2021-07-21T09:03:39Z</time>
      </trkpt>
      <trkpt lat="44.40166" lon="6.77755">
        <ele>1755.8</ele>
        <time>2021-07-21T09:03:41Z</time>
      </trkpt>
      <trkpt lat="44.40176" lon="6.77761">
        <ele>1755.17</ele>
        <time>2021-07-21T09:03:44Z</time>
      </trkpt>
      <trkpt lat="44.40181" lon="6.77768">
        <ele>1755.68</ele>
        <time>2021-07-21T09:03:45Z</time>
      </trkpt>
      <trkpt lat="44.40185" lon="6.77778">
        <ele>1757.04</ele>
        <time>2021-07-21T09:03:47Z</time>
      </trkpt>
      <trkpt lat="44.4019" lon="6.77785">
        <ele>1757.26</ele>
        <time>2021-07-21T09:03:49Z</time>
      </trkpt>
      <trkpt lat="44.40191" lon="6.77796">
        <ele>1758.34</ele>
        <time>2021-07-21T09:03:51Z</time>
      </trkpt>
      <trkpt lat="44.40192" lon="6.77815">
        <ele>1759.63</ele>
        <time>2021-07-21T09:03:54Z</time>
      </trkpt>
      <trkpt lat="44.40192" lon="6.77823">
        <ele>1759.95</ele>
        <time>2021-07-21T09:03:56Z</time>
      </trkpt>
      <trkpt lat="44.40191" lon="6.77832">
        <ele>1760.44</ele>
        <time>2021-07-21T09:03:58Z</time>
      </trkpt>
      <trkpt lat="44.4019" lon="6.77841">
        <ele>1760.92</ele>
        <time>2021-07-21T09:04:01Z</time>
      </trkpt>
      <trkpt lat="44.40189" lon="6.77855">
        <ele>1761.56</ele>
        <time>2021-07-21T09:04:05Z</time>
      </trkpt>
      <trkpt lat="44.40188" lon="6.77864">
        <ele>1762.01</ele>
        <time>2021-07-21T09:04:07Z</time>
      </trkpt>
      <trkpt lat="44.40186" lon="6.77875">
        <ele>1762.56</ele>
        <time>2021-07-21T09:04:09Z</time>
      </trkpt>
      <trkpt lat="44.40188" lon="6.77888">
        <ele>1762.67</ele>
        <time>2021-07-21T09:04:12Z</time>
      </trkpt>
      <trkpt lat="44.40193" lon="6.77892">
        <ele>1762.37</ele>
        <time>2021-07-21T09:04:16Z</time>
      </trkpt>
      <trkpt lat="44.40199" lon="6.7789">
        <ele>1761.43</ele>
        <time>2021-07-21T09:04:18Z</time>
      </trkpt>
      <trkpt lat="44.40205" lon="6.77883">
        <ele>1760.19</ele>
        <time>2021-07-21T09:04:22Z</time>
      </trkpt>
      <trkpt lat="44.4021" lon="6.77876">
        <ele>1759.04</ele>
        <time>2021-07-21T09:04:25Z</time>
      </trkpt>
      <trkpt lat="44.40216" lon="6.77871">
        <ele>1757.75</ele>
        <time>2021-07-21T09:04:29Z</time>
      </trkpt>
      <trkpt lat="44.4022" lon="6.77864">
        <ele>1756.6</ele>
        <time>2021-07-21T09:04:32Z</time>
      </trkpt>
      <trkpt lat="44.40225" lon="6.77858">
        <ele>1755.87</ele>
        <time>2021-07-21T09:04:34Z</time>
      </trkpt>
      <trkpt lat="44.40232" lon="6.77852">
        <ele>1755.3</ele>
        <time>2021-07-21T09:04:39Z</time>
      </trkpt>
      <trkpt lat="44.40239" lon="6.77851">
        <ele>1754.74</ele>
        <time>2021-07-21T09:04:43Z</time>
      </trkpt>
      <trkpt lat="44.40246" lon="6.77857">
        <ele>1754.76</ele>
        <time>2021-07-21T09:04:47Z</time>
      </trkpt>
      <trkpt lat="44.40249" lon="6.77865">
        <ele>1755.45</ele>
        <time>2021-07-21T09:04:49Z</time>
      </trkpt>
      <trkpt lat="44.40249" lon="6.77875">
        <ele>1756.52</ele>
        <time>2021-07-21T09:04:53Z</time>
      </trkpt>
      <trkpt lat="44.40248" lon="6.77884">
        <ele>1757.48</ele>
        <time>2021-07-21T09:04:57Z</time>
      </trkpt>
      <trkpt lat="44.40246" lon="6.77894">
        <ele>1758.39</ele>
        <time>2021-07-21T09:05:01Z</time>
      </trkpt>
      <trkpt lat="44.40246" lon="6.77902">
        <ele>1759.01</ele>
        <time>2021-07-21T09:05:04Z</time>
      </trkpt>
      <trkpt lat="44.40245" lon="6.77911">
        <ele>1759.74</ele>
        <time>2021-07-21T09:05:08Z</time>
      </trkpt>
      <trkpt lat="44.40242" lon="6.7792">
        <ele>1760.56</ele>
        <time>2021-07-21T09:05:13Z</time>
      </trkpt>
      <trkpt lat="44.4024" lon="6.77929">
        <ele>1761.41</ele>
        <time>2021-07-21T09:05:16Z</time>
      </trkpt>
      <trkpt lat="44.40236" lon="6.77937">
        <ele>1762.34</ele>
        <time>2021-07-21T09:05:19Z</time>
      </trkpt>
      <trkpt lat="44.40232" lon="6.77945">
        <ele>1763.33</ele>
        <time>2021-07-21T09:05:23Z</time>
      </trkpt>
      <trkpt lat="44.4023" lon="6.77952">
        <ele>1763.91</ele>
        <time>2021-07-21T09:05:26Z</time>
      </trkpt>
      <trkpt lat="44.40227" lon="6.7796">
        <ele>1764.68</ele>
        <time>2021-07-21T09:05:30Z</time>
      </trkpt>
      <trkpt lat="44.40221" lon="6.77968">
        <ele>1765.78</ele>
        <time>2021-07-21T09:05:34Z</time>
      </trkpt>
      <trkpt lat="44.40216" lon="6.77976">
        <ele>1767.1</ele>
        <time>2021-07-21T09:05:38Z</time>
      </trkpt>
      <trkpt lat="44.40209" lon="6.77981">
        <ele>1768.38</ele>
        <time>2021-07-21T09:05:42Z</time>
      </trkpt>
      <trkpt lat="44.40203" lon="6.77985">
        <ele>1769.37</ele>
        <time>2021-07-21T09:05:45Z</time>
      </trkpt>
      <trkpt lat="44.40197" lon="6.77989">
        <ele>1770.29</ele>
        <time>2021-07-21T09:05:48Z</time>
      </trkpt>
      <trkpt lat="44.4019" lon="6.77992">
        <ele>1770.92</ele>
        <time>2021-07-21T09:05:52Z</time>
      </trkpt>
      <trkpt lat="44.40184" lon="6.77992">
        <ele>1771.01</ele>
        <time>2021-07-21T09:05:57Z</time>
      </trkpt>
      <trkpt lat="44.40181" lon="6.77991">
        <ele>1770.87</ele>
        <time>2021-07-21T09:06:02Z</time>
      </trkpt>
      <trkpt lat="44.40177" lon="6.77992">
        <ele>1771.11</ele>
        <time>2021-07-21T09:06:03Z</time>
      </trkpt>
      <trkpt lat="44.40174" lon="6.77997">
        <ele>1772.15</ele>
        <time>2021-07-21T09:06:09Z</time>
      </trkpt>
      <trkpt lat="44.40175" lon="6.78004">
        <ele>1773.42</ele>
        <time>2021-07-21T09:06:11Z</time>
      </trkpt>
      <trkpt lat="44.40178" lon="6.78011">
        <ele>1774.57</ele>
        <time>2021-07-21T09:06:15Z</time>
      </trkpt>
      <trkpt lat="44.40184" lon="6.78016">
        <ele>1775.26</ele>
        <time>2021-07-21T09:06:23Z</time>
      </trkpt>
      <trkpt lat="44.40188" lon="6.78024">
        <ele>1776.55</ele>
        <time>2021-07-21T09:06:26Z</time>
      </trkpt>
      <trkpt lat="44.40186" lon="6.78035">
        <ele>1778.6</ele>
        <time>2021-07-21T09:06:31Z</time>
      </trkpt>
      <trkpt lat="44.40179" lon="6.7804">
        <ele>1779.76</ele>
        <time>2021-07-21T09:06:34Z</time>
      </trkpt>
      <trkpt lat="44.40173" lon="6.7804">
        <ele>1779.97</ele>
        <time>2021-07-21T09:06:37Z</time>
      </trkpt>
      <trkpt lat="44.40167" lon="6.7804">
        <ele>1780.19</ele>
        <time>2021-07-21T09:06:41Z</time>
      </trkpt>
      <trkpt lat="44.4016" lon="6.78038">
        <ele>1780.65</ele>
        <time>2021-07-21T09:06:47Z</time>
      </trkpt>
      <trkpt lat="44.40157" lon="6.78038">
        <ele>1781.01</ele>
        <time>2021-07-21T09:06:49Z</time>
      </trkpt>
      <trkpt lat="44.40153" lon="6.78042">
        <ele>1782.29</ele>
        <time>2021-07-21T09:06:52Z</time>
      </trkpt>
      <trkpt lat="44.40153" lon="6.78051">
        <ele>1784.07</ele>
        <time>2021-07-21T09:06:56Z</time>
      </trkpt>
      <trkpt lat="44.40156" lon="6.78058">
        <ele>1785.08</ele>
        <time>2021-07-21T09:06:58Z</time>
      </trkpt>
      <trkpt lat="44.40162" lon="6.78063">
        <ele>1785.46</ele>
        <time>2021-07-21T09:07:02Z</time>
      </trkpt>
      <trkpt lat="44.40168" lon="6.78068">
        <ele>1786.13</ele>
        <time>2021-07-21T09:07:06Z</time>
      </trkpt>
      <trkpt lat="44.40175" lon="6.78072">
        <ele>1787.2</ele>
        <time>2021-07-21T09:07:11Z</time>
      </trkpt>
      <trkpt lat="44.40179" lon="6.78078">
        <ele>1788.93</ele>
        <time>2021-07-21T09:07:14Z</time>
      </trkpt>
      <trkpt lat="44.40184" lon="6.78083">
        <ele>1790.53</ele>
        <time>2021-07-21T09:07:17Z</time>
      </trkpt>
      <trkpt lat="44.40188" lon="6.78088">
        <ele>1791.78</ele>
        <time>2021-07-21T09:07:21Z</time>
      </trkpt>
      <trkpt lat="44.40194" lon="6.78092">
        <ele>1792.86</ele>
        <time>2021-07-21T09:07:25Z</time>
      </trkpt>
      <trkpt lat="44.402" lon="6.78093">
        <ele>1793.5</ele>
        <time>2021-07-21T09:07:29Z</time>
      </trkpt>
      <trkpt lat="44.40207" lon="6.78094">
        <ele>1794.28</ele>
        <time>2021-07-21T09:07:33Z</time>
      </trkpt>
      <trkpt lat="44.40213" lon="6.78092">
        <ele>1794.17</ele>
        <time>2021-07-21T09:07:36Z</time>
      </trkpt>
      <trkpt lat="44.40219" lon="6.78094">
        <ele>1795.21</ele>
        <time>2021-07-21T09:07:40Z</time>
      </trkpt>
      <trkpt lat="44.40221" lon="6.78102">
        <ele>1797.92</ele>
        <time>2021-07-21T09:07:43Z</time>
      </trkpt>
      <trkpt lat="44.40215" lon="6.78108">
        <ele>1799.04</ele>
        <time>2021-07-21T09:07:46Z</time>
      </trkpt>
      <trkpt lat="44.40209" lon="6.7811">
        <ele>1798.79</ele>
        <time>2021-07-21T09:07:50Z</time>
      </trkpt>
      <trkpt lat="44.40203" lon="6.78114">
        <ele>1799.2</ele>
        <time>2021-07-21T09:07:52Z</time>
      </trkpt>
      <trkpt lat="44.40196" lon="6.78117">
        <ele>1799.14</ele>
        <time>2021-07-21T09:07:56Z</time>
      </trkpt>
      <trkpt lat="44.40192" lon="6.78123">
        <ele>1800.76</ele>
        <time>2021-07-21T09:07:59Z</time>
      </trkpt>
      <trkpt lat="44.40186" lon="6.78131">
        <ele>1803.14</ele>
        <time>2021-07-21T09:08:05Z</time>
      </trkpt>
      <trkpt lat="44.40182" lon="6.78137">
        <ele>1804.94</ele>
        <time>2021-07-21T09:08:10Z</time>
      </trkpt>
      <trkpt lat="44.40176" lon="6.78141">
        <ele>1806.12</ele>
        <time>2021-07-21T09:08:13Z</time>
      </trkpt>
      <trkpt lat="44.40168" lon="6.78145">
        <ele>1807.26</ele>
        <time>2021-07-21T09:08:16Z</time>
      </trkpt>
      <trkpt lat="44.40162" lon="6.78146">
        <ele>1807.77</ele>
        <time>2021-07-21T09:08:20Z</time>
      </trkpt>
      <trkpt lat="44.40156" lon="6.78147">
        <ele>1808.42</ele>
        <time>2021-07-21T09:08:23Z</time>
      </trkpt>
      <trkpt lat="44.40149" lon="6.78147">
        <ele>1808.74</ele>
        <time>2021-07-21T09:08:27Z</time>
      </trkpt>
      <trkpt lat="44.40141" lon="6.78148">
        <ele>1809.51</ele>
        <time>2021-07-21T09:08:32Z</time>
      </trkpt>
      <trkpt lat="44.40137" lon="6.7815">
        <ele>1810.47</ele>
        <time>2021-07-21T09:08:36Z</time>
      </trkpt>
      <trkpt lat="44.40133" lon="6.7815">
        <ele>1810.61</ele>
        <time>2021-07-21T09:08:38Z</time>
      </trkpt>
      <trkpt lat="44.40129" lon="6.7815">
        <ele>1810.76</ele>
        <time>2021-07-21T09:08:40Z</time>
      </trkpt>
      <trkpt lat="44.40122" lon="6.78153">
        <ele>1812.2</ele>
        <time>2021-07-21T09:08:44Z</time>
      </trkpt>
      <trkpt lat="44.40117" lon="6.7816">
        <ele>1815.15</ele>
        <time>2021-07-21T09:08:48Z</time>
      </trkpt>
      <trkpt lat="44.40119" lon="6.78169">
        <ele>1818.57</ele>
        <time>2021-07-21T09:08:53Z</time>
      </trkpt>
      <trkpt lat="44.40124" lon="6.78172">
        <ele>1819.38</ele>
        <time>2021-07-21T09:08:56Z</time>
      </trkpt>
      <trkpt lat="44.40132" lon="6.78172">
        <ele>1818.93</ele>
        <time>2021-07-21T09:09:02Z</time>
      </trkpt>
      <trkpt lat="44.40139" lon="6.78172">
        <ele>1818.53</ele>
        <time>2021-07-21T09:09:07Z</time>
      </trkpt>
      <trkpt lat="44.40145" lon="6.78173">
        <ele>1818.43</ele>
        <time>2021-07-21T09:09:10Z</time>
      </trkpt>
      <trkpt lat="44.40152" lon="6.78178">
        <ele>1819.51</ele>
        <time>2021-07-21T09:09:15Z</time>
      </trkpt>
      <trkpt lat="44.40157" lon="6.78181">
        <ele>1820.16</ele>
        <time>2021-07-21T09:09:18Z</time>
      </trkpt>
      <trkpt lat="44.40164" lon="6.7818">
        <ele>1819.47</ele>
        <time>2021-07-21T09:09:22Z</time>
      </trkpt>
      <trkpt lat="44.40171" lon="6.78178">
        <ele>1819.05</ele>
        <time>2021-07-21T09:09:26Z</time>
      </trkpt>
      <trkpt lat="44.40178" lon="6.78175">
        <ele>1818.64</ele>
        <time>2021-07-21T09:09:29Z</time>
      </trkpt>
      <trkpt lat="44.40184" lon="6.78172">
        <ele>1818.1</ele>
        <time>2021-07-21T09:09:33Z</time>
      </trkpt>
      <trkpt lat="44.4019" lon="6.7817">
        <ele>1817.86</ele>
        <time>2021-07-21T09:09:37Z</time>
      </trkpt>
      <trkpt lat="44.40196" lon="6.78168">
        <ele>1817.76</ele>
        <time>2021-07-21T09:09:41Z</time>
      </trkpt>
      <trkpt lat="44.40203" lon="6.78167">
        <ele>1818.66</ele>
        <time>2021-07-21T09:09:43Z</time>
      </trkpt>
      <trkpt lat="44.40209" lon="6.78167">
        <ele>1819.74</ele>
        <time>2021-07-21T09:09:46Z</time>
      </trkpt>
      <trkpt lat="44.40215" lon="6.78168">
        <ele>1821.18</ele>
        <time>2021-07-21T09:09:49Z</time>
      </trkpt>
      <trkpt lat="44.4022" lon="6.7817">
        <ele>1822.8</ele>
        <time>2021-07-21T09:09:53Z</time>
      </trkpt>
      <trkpt lat="44.40226" lon="6.78176">
        <ele>1825.41</ele>
        <time>2021-07-21T09:09:56Z</time>
      </trkpt>
      <trkpt lat="44.40231" lon="6.78183">
        <ele>1828.07</ele>
        <time>2021-07-21T09:10:01Z</time>
      </trkpt>
      <trkpt lat="44.40237" lon="6.78193">
        <ele>1831.98</ele>
        <time>2021-07-21T09:10:07Z</time>
      </trkpt>
      <trkpt lat="44.40243" lon="6.78198">
        <ele>1833.87</ele>
        <time>2021-07-21T09:10:09Z</time>
      </trkpt>
      <trkpt lat="44.40249" lon="6.78198">
        <ele>1834.11</ele>
        <time>2021-07-21T09:10:12Z</time>
      </trkpt>
      <trkpt lat="44.40255" lon="6.78193">
        <ele>1831.9</ele>
        <time>2021-07-21T09:10:16Z</time>
      </trkpt>
      <trkpt lat="44.4026" lon="6.78188">
        <ele>1829.45</ele>
        <time>2021-07-21T09:10:18Z</time>
      </trkpt>
      <trkpt lat="44.40265" lon="6.78182">
        <ele>1826.69</ele>
        <time>2021-07-21T09:10:21Z</time>
      </trkpt>
      <trkpt lat="44.4027" lon="6.78176">
        <ele>1824.01</ele>
        <time>2021-07-21T09:10:24Z</time>
      </trkpt>
      <trkpt lat="44.40276" lon="6.78171">
        <ele>1821.7</ele>
        <time>2021-07-21T09:10:28Z</time>
      </trkpt>
      <trkpt lat="44.40281" lon="6.78168">
        <ele>1820.48</ele>
        <time>2021-07-21T09:10:31Z</time>
      </trkpt>
      <trkpt lat="44.40287" lon="6.78164">
        <ele>1819.1</ele>
        <time>2021-07-21T09:10:35Z</time>
      </trkpt>
      <trkpt lat="44.40293" lon="6.78162">
        <ele>1818.4</ele>
        <time>2021-07-21T09:10:38Z</time>
      </trkpt>
      <trkpt lat="44.40301" lon="6.78162">
        <ele>1818.35</ele>
        <time>2021-07-21T09:10:42Z</time>
      </trkpt>
      <trkpt lat="44.40308" lon="6.78161">
        <ele>1818.56</ele>
        <time>2021-07-21T09:10:45Z</time>
      </trkpt>
      <trkpt lat="44.40318" lon="6.78159">
        <ele>1820.25</ele>
        <time>2021-07-21T09:10:49Z</time>
      </trkpt>
      <trkpt lat="44.40324" lon="6.7816">
        <ele>1822.09</ele>
        <time>2021-07-21T09:10:51Z</time>
      </trkpt>
      <trkpt lat="44.4033" lon="6.78159">
        <ele>1823.16</ele>
        <time>2021-07-21T09:10:54Z</time>
      </trkpt>
      <trkpt lat="44.40338" lon="6.78157">
        <ele>1824.51</ele>
        <time>2021-07-21T09:10:58Z</time>
      </trkpt>
      <trkpt lat="44.40344" lon="6.78155">
        <ele>1825.35</ele>
        <time>2021-07-21T09:11:00Z</time>
      </trkpt>
      <trkpt lat="44.40349" lon="6.78152">
        <ele>1825.37</ele>
        <time>2021-07-21T09:11:03Z</time>
      </trkpt>
      <trkpt lat="44.40355" lon="6.78149">
        <ele>1825.54</ele>
        <time>2021-07-21T09:11:06Z</time>
      </trkpt>
      <trkpt lat="44.4036" lon="6.78144">
        <ele>1824.31</ele>
        <time>2021-07-21T09:11:09Z</time>
      </trkpt>
      <trkpt lat="44.40366" lon="6.78137">
        <ele>1823.98</ele>
        <time>2021-07-21T09:11:13Z</time>
      </trkpt>
      <trkpt lat="44.40373" lon="6.78131">
        <ele>1825.56</ele>
        <time>2021-07-21T09:11:15Z</time>
      </trkpt>
      <trkpt lat="44.40377" lon="6.78127">
        <ele>1825.97</ele>
        <time>2021-07-21T09:11:17Z</time>
      </trkpt>
      <trkpt lat="44.40383" lon="6.78122">
        <ele>1826.51</ele>
        <time>2021-07-21T09:11:20Z</time>
      </trkpt>
      <trkpt lat="44.40389" lon="6.78115">
        <ele>1825.73</ele>
        <time>2021-07-21T09:11:24Z</time>
      </trkpt>
      <trkpt lat="44.40394" lon="6.78111">
        <ele>1826.18</ele>
        <time>2021-07-21T09:11:27Z</time>
      </trkpt>
      <trkpt lat="44.404" lon="6.78106">
        <ele>1827.55</ele>
        <time>2021-07-21T09:11:29Z</time>
      </trkpt>
      <trkpt lat="44.40408" lon="6.78103">
        <ele>1830.1</ele>
        <time>2021-07-21T09:11:33Z</time>
      </trkpt>
      <trkpt lat="44.40415" lon="6.78103">
        <ele>1832.98</ele>
        <time>2021-07-21T09:11:37Z</time>
      </trkpt>
      <trkpt lat="44.40421" lon="6.78105">
        <ele>1834.83</ele>
        <time>2021-07-21T09:11:40Z</time>
      </trkpt>
      <trkpt lat="44.40429" lon="6.78108">
        <ele>1836.83</ele>
        <time>2021-07-21T09:11:43Z</time>
      </trkpt>
      <trkpt lat="44.40436" lon="6.7811">
        <ele>1838.44</ele>
        <time>2021-07-21T09:11:46Z</time>
      </trkpt>
      <trkpt lat="44.40443" lon="6.78109">
        <ele>1839.11</ele>
        <time>2021-07-21T09:11:50Z</time>
      </trkpt>
      <trkpt lat="44.40449" lon="6.78107">
        <ele>1839.88</ele>
        <time>2021-07-21T09:11:52Z</time>
      </trkpt>
      <trkpt lat="44.40455" lon="6.78103">
        <ele>1839.97</ele>
        <time>2021-07-21T09:11:56Z</time>
      </trkpt>
      <trkpt lat="44.4046" lon="6.781">
        <ele>1839.98</ele>
        <time>2021-07-21T09:11:58Z</time>
      </trkpt>
      <trkpt lat="44.40467" lon="6.78097">
        <ele>1840.27</ele>
        <time>2021-07-21T09:12:01Z</time>
      </trkpt>
      <trkpt lat="44.40473" lon="6.78093">
        <ele>1839.57</ele>
        <time>2021-07-21T09:12:04Z</time>
      </trkpt>
      <trkpt lat="44.40481" lon="6.7809">
        <ele>1838.68</ele>
        <time>2021-07-21T09:12:08Z</time>
      </trkpt>
      <trkpt lat="44.4049" lon="6.78087">
        <ele>1837.91</ele>
        <time>2021-07-21T09:12:11Z</time>
      </trkpt>
      <trkpt lat="44.40496" lon="6.78082">
        <ele>1836.2</ele>
        <time>2021-07-21T09:12:14Z</time>
      </trkpt>
      <trkpt lat="44.40502" lon="6.78078">
        <ele>1835.48</ele>
        <time>2021-07-21T09:12:16Z</time>
      </trkpt>
      <trkpt lat="44.40508" lon="6.78075">
        <ele>1835.95</ele>
        <time>2021-07-21T09:12:19Z</time>
      </trkpt>
      <trkpt lat="44.40513" lon="6.78071">
        <ele>1835.5</ele>
        <time>2021-07-21T09:12:21Z</time>
      </trkpt>
      <trkpt lat="44.4052" lon="6.78066">
        <ele>1834.82</ele>
        <time>2021-07-21T09:12:25Z</time>
      </trkpt>
      <trkpt lat="44.40526" lon="6.78063">
        <ele>1834.63</ele>
        <time>2021-07-21T09:12:28Z</time>
      </trkpt>
      <trkpt lat="44.40531" lon="6.78059">
        <ele>1833.77</ele>
        <time>2021-07-21T09:12:32Z</time>
      </trkpt>
      <trkpt lat="44.40537" lon="6.78053">
        <ele>1832.83</ele>
        <time>2021-07-21T09:12:35Z</time>
      </trkpt>
      <trkpt lat="44.40544" lon="6.78047">
        <ele>1833.13</ele>
        <time>2021-07-21T09:12:40Z</time>
      </trkpt>
      <trkpt lat="44.4055" lon="6.78045">
        <ele>1834.51</ele>
        <time>2021-07-21T09:12:43Z</time>
      </trkpt>
      <trkpt lat="44.40557" lon="6.78041">
        <ele>1835.77</ele>
        <time>2021-07-21T09:12:45Z</time>
      </trkpt>
      <trkpt lat="44.40564" lon="6.78037">
        <ele>1836.75</ele>
        <time>2021-07-21T09:12:48Z</time>
      </trkpt>
      <trkpt lat="44.40573" lon="6.78033">
        <ele>1838.07</ele>
        <time>2021-07-21T09:12:52Z</time>
      </trkpt>
      <trkpt lat="44.40579" lon="6.78029">
        <ele>1838.33</ele>
        <time>2021-07-21T09:12:54Z</time>
      </trkpt>
      <trkpt lat="44.40586" lon="6.78023">
        <ele>1838.32</ele>
        <time>2021-07-21T09:12:58Z</time>
      </trkpt>
      <trkpt lat="44.40591" lon="6.78017">
        <ele>1837.5</ele>
        <time>2021-07-21T09:13:00Z</time>
      </trkpt>
      <trkpt lat="44.40597" lon="6.78011">
        <ele>1836.67</ele>
        <time>2021-07-21T09:13:03Z</time>
      </trkpt>
      <trkpt lat="44.40602" lon="6.78007">
        <ele>1836.1</ele>
        <time>2021-07-21T09:13:05Z</time>
      </trkpt>
      <trkpt lat="44.40608" lon="6.78002">
        <ele>1835.31</ele>
        <time>2021-07-21T09:13:08Z</time>
      </trkpt>
      <trkpt lat="44.40614" lon="6.77997">
        <ele>1835.06</ele>
        <time>2021-07-21T09:13:10Z</time>
      </trkpt>
      <trkpt lat="44.4062" lon="6.77992">
        <ele>1835.3</ele>
        <time>2021-07-21T09:13:13Z</time>
      </trkpt>
      <trkpt lat="44.40627" lon="6.77987">
        <ele>1835.56</ele>
        <time>2021-07-21T09:13:16Z</time>
      </trkpt>
      <trkpt lat="44.40635" lon="6.7798">
        <ele>1835.32</ele>
        <time>2021-07-21T09:13:20Z</time>
      </trkpt>
      <trkpt lat="44.4064" lon="6.77975">
        <ele>1834.96</ele>
        <time>2021-07-21T09:13:22Z</time>
      </trkpt>
      <trkpt lat="44.40646" lon="6.77972">
        <ele>1835.49</ele>
        <time>2021-07-21T09:13:25Z</time>
      </trkpt>
      <trkpt lat="44.40653" lon="6.77966">
        <ele>1835.82</ele>
        <time>2021-07-21T09:13:28Z</time>
      </trkpt>
      <trkpt lat="44.40659" lon="6.77961">
        <ele>1836.21</ele>
        <time>2021-07-21T09:13:30Z</time>
      </trkpt>
      <trkpt lat="44.40665" lon="6.77957">
        <ele>1836.87</ele>
        <time>2021-07-21T09:13:33Z</time>
      </trkpt>
      <trkpt lat="44.40671" lon="6.77952">
        <ele>1837.49</ele>
        <time>2021-07-21T09:13:36Z</time>
      </trkpt>
      <trkpt lat="44.40677" lon="6.77948">
        <ele>1838.29</ele>
        <time>2021-07-21T09:13:39Z</time>
      </trkpt>
      <trkpt lat="44.40686" lon="6.77943">
        <ele>1839.54</ele>
        <time>2021-07-21T09:13:44Z</time>
      </trkpt>
      <trkpt lat="44.40692" lon="6.77937">
        <ele>1839.36</ele>
        <time>2021-07-21T09:13:47Z</time>
      </trkpt>
      <trkpt lat="44.40697" lon="6.77933">
        <ele>1839.37</ele>
        <time>2021-07-21T09:13:50Z</time>
      </trkpt>
      <trkpt lat="44.40703" lon="6.77929">
        <ele>1839.91</ele>
        <time>2021-07-21T09:13:54Z</time>
      </trkpt>
      <trkpt lat="44.40705" lon="6.77927">
        <ele>1839.97</ele>
        <time>2021-07-21T09:14:41Z</time>
      </trkpt>
      <trkpt lat="44.40708" lon="6.77925">
        <ele>1840.35</ele>
        <time>2021-07-21T09:14:44Z</time>
      </trkpt>
      <trkpt lat="44.40711" lon="6.77922">
        <ele>1840.56</ele>
        <time>2021-07-21T09:14:45Z</time>
      </trkpt>
      <trkpt lat="44.40716" lon="6.77918">
        <ele>1841.26</ele>
        <time>2021-07-21T09:14:48Z</time>
      </trkpt>
      <trkpt lat="44.40722" lon="6.77915">
        <ele>1842.51</ele>
        <time>2021-07-21T09:14:52Z</time>
      </trkpt>
      <trkpt lat="44.40729" lon="6.7791">
        <ele>1846.57</ele>
        <time>2021-07-21T09:14:56Z</time>
      </trkpt>
      <trkpt lat="44.40736" lon="6.77903">
        <ele>1849.98</ele>
        <time>2021-07-21T09:15:00Z</time>
      </trkpt>
      <trkpt lat="44.40741" lon="6.77897">
        <ele>1851.96</ele>
        <time>2021-07-21T09:15:03Z</time>
      </trkpt>
      <trkpt lat="44.40746" lon="6.77892">
        <ele>1854.1</ele>
        <time>2021-07-21T09:15:05Z</time>
      </trkpt>
      <trkpt lat="44.40752" lon="6.77885">
        <ele>1856.62</ele>
        <time>2021-07-21T09:15:09Z</time>
      </trkpt>
      <trkpt lat="44.40756" lon="6.7788">
        <ele>1858.54</ele>
        <time>2021-07-21T09:15:11Z</time>
      </trkpt>
      <trkpt lat="44.4076" lon="6.77873">
        <ele>1860.18</ele>
        <time>2021-07-21T09:15:14Z</time>
      </trkpt>
      <trkpt lat="44.40765" lon="6.77867">
        <ele>1862.92</ele>
        <time>2021-07-21T09:15:16Z</time>
      </trkpt>
      <trkpt lat="44.40769" lon="6.77861">
        <ele>1865.03</ele>
        <time>2021-07-21T09:15:19Z</time>
      </trkpt>
      <trkpt lat="44.40772" lon="6.77854">
        <ele>1866.45</ele>
        <time>2021-07-21T09:15:22Z</time>
      </trkpt>
      <trkpt lat="44.40776" lon="6.77847">
        <ele>1868.59</ele>
        <time>2021-07-21T09:15:25Z</time>
      </trkpt>
      <trkpt lat="44.4078" lon="6.77841">
        <ele>1870.1</ele>
        <time>2021-07-21T09:15:28Z</time>
      </trkpt>
      <trkpt lat="44.40785" lon="6.77836">
        <ele>1871.71</ele>
        <time>2021-07-21T09:15:31Z</time>
      </trkpt>
      <trkpt lat="44.4079" lon="6.77832">
        <ele>1873.58</ele>
        <time>2021-07-21T09:15:34Z</time>
      </trkpt>
      <trkpt lat="44.40794" lon="6.77827">
        <ele>1874.91</ele>
        <time>2021-07-21T09:15:37Z</time>
      </trkpt>
      <trkpt lat="44.40801" lon="6.77823">
        <ele>1877.75</ele>
        <time>2021-07-21T09:15:41Z</time>
      </trkpt>
      <trkpt lat="44.40806" lon="6.77828">
        <ele>1880.38</ele>
        <time>2021-07-21T09:15:45Z</time>
      </trkpt>
      <trkpt lat="44.40807" lon="6.77837">
        <ele>1881.09</ele>
        <time>2021-07-21T09:15:50Z</time>
      </trkpt>
      <trkpt lat="44.40809" lon="6.7784">
        <ele>1881.02</ele>
        <time>2021-07-21T09:16:15Z</time>
      </trkpt>
      <trkpt lat="44.4081" lon="6.77846">
        <ele>1881.21</ele>
        <time>2021-07-21T09:18:23Z</time>
      </trkpt>
      <trkpt lat="44.4081" lon="6.77854">
        <ele>1881.65</ele>
        <time>2021-07-21T09:18:25Z</time>
      </trkpt>
      <trkpt lat="44.40811" lon="6.77864">
        <ele>1881.78</ele>
        <time>2021-07-21T09:18:27Z</time>
      </trkpt>
      <trkpt lat="44.40811" lon="6.77874">
        <ele>1881.63</ele>
        <time>2021-07-21T09:18:30Z</time>
      </trkpt>
      <trkpt lat="44.40812" lon="6.77882">
        <ele>1881.38</ele>
        <time>2021-07-21T09:18:32Z</time>
      </trkpt>
      <trkpt lat="44.40813" lon="6.77892">
        <ele>1881.37</ele>
        <time>2021-07-21T09:18:35Z</time>
      </trkpt>
      <trkpt lat="44.40815" lon="6.779">
        <ele>1881.65</ele>
        <time>2021-07-21T09:18:37Z</time>
      </trkpt>
      <trkpt lat="44.40817" lon="6.77911">
        <ele>1882.22</ele>
        <time>2021-07-21T09:18:40Z</time>
      </trkpt>
      <trkpt lat="44.4082" lon="6.77925">
        <ele>1883.21</ele>
        <time>2021-07-21T09:18:43Z</time>
      </trkpt>
      <trkpt lat="44.40822" lon="6.77937">
        <ele>1884.04</ele>
        <time>2021-07-21T09:18:46Z</time>
      </trkpt>
      <trkpt lat="44.40822" lon="6.77945">
        <ele>1884.71</ele>
        <time>2021-07-21T09:18:48Z</time>
      </trkpt>
      <trkpt lat="44.40822" lon="6.77954">
        <ele>1885.94</ele>
        <time>2021-07-21T09:18:50Z</time>
      </trkpt>
      <trkpt lat="44.40822" lon="6.77963">
        <ele>1887.18</ele>
        <time>2021-07-21T09:18:52Z</time>
      </trkpt>
      <trkpt lat="44.40823" lon="6.77974">
        <ele>1888.49</ele>
        <time>2021-07-21T09:18:55Z</time>
      </trkpt>
      <trkpt lat="44.40825" lon="6.77983">
        <ele>1889.35</ele>
        <time>2021-07-21T09:18:57Z</time>
      </trkpt>
      <trkpt lat="44.40827" lon="6.77992">
        <ele>1890.22</ele>
        <time>2021-07-21T09:18:59Z</time>
      </trkpt>
      <trkpt lat="44.40832" lon="6.78004">
        <ele>1891.01</ele>
        <time>2021-07-21T09:19:02Z</time>
      </trkpt>
      <trkpt lat="44.40836" lon="6.7801">
        <ele>1891.51</ele>
        <time>2021-07-21T09:19:04Z</time>
      </trkpt>
      <trkpt lat="44.40842" lon="6.78019">
        <ele>1892.48</ele>
        <time>2021-07-21T09:19:06Z</time>
      </trkpt>
      <trkpt lat="44.40847" lon="6.78029">
        <ele>1893.79</ele>
        <time>2021-07-21T09:19:08Z</time>
      </trkpt>
      <trkpt lat="44.40851" lon="6.78035">
        <ele>1894.58</ele>
        <time>2021-07-21T09:19:10Z</time>
      </trkpt>
      <trkpt lat="44.40857" lon="6.78043">
        <ele>1895.35</ele>
        <time>2021-07-21T09:19:12Z</time>
      </trkpt>
      <trkpt lat="44.40861" lon="6.7805">
        <ele>1896.02</ele>
        <time>2021-07-21T09:19:14Z</time>
      </trkpt>
      <trkpt lat="44.40865" lon="6.78058">
        <ele>1896.32</ele>
        <time>2021-07-21T09:19:16Z</time>
      </trkpt>
      <trkpt lat="44.40868" lon="6.78067">
        <ele>1896.5</ele>
        <time>2021-07-21T09:19:18Z</time>
      </trkpt>
      <trkpt lat="44.40873" lon="6.78075">
        <ele>1895.61</ele>
        <time>2021-07-21T09:19:21Z</time>
      </trkpt>
      <trkpt lat="44.40877" lon="6.78082">
        <ele>1894.63</ele>
        <time>2021-07-21T09:19:23Z</time>
      </trkpt>
      <trkpt lat="44.40883" lon="6.78088">
        <ele>1892.39</ele>
        <time>2021-07-21T09:19:25Z</time>
      </trkpt>
      <trkpt lat="44.4089" lon="6.78095">
        <ele>1890.19</ele>
        <time>2021-07-21T09:19:28Z</time>
      </trkpt>
      <trkpt lat="44.40894" lon="6.78102">
        <ele>1889.5</ele>
        <time>2021-07-21T09:19:30Z</time>
      </trkpt>
      <trkpt lat="44.40898" lon="6.7811">
        <ele>1888.69</ele>
        <time>2021-07-21T09:19:32Z</time>
      </trkpt>
      <trkpt lat="44.40902" lon="6.78118">
        <ele>1887.21</ele>
        <time>2021-07-21T09:19:33Z</time>
      </trkpt>
      <trkpt lat="44.40905" lon="6.78126">
        <ele>1885.78</ele>
        <time>2021-07-21T09:19:35Z</time>
      </trkpt>
      <trkpt lat="44.40907" lon="6.7814">
        <ele>1884.08</ele>
        <time>2021-07-21T09:19:38Z</time>
      </trkpt>
      <trkpt lat="44.40909" lon="6.78153">
        <ele>1882.75</ele>
        <time>2021-07-21T09:19:40Z</time>
      </trkpt>
      <trkpt lat="44.40907" lon="6.78168">
        <ele>1882.72</ele>
        <time>2021-07-21T09:19:44Z</time>
      </trkpt>
      <trkpt lat="44.40905" lon="6.78181">
        <ele>1882.51</ele>
        <time>2021-07-21T09:19:47Z</time>
      </trkpt>
      <trkpt lat="44.40903" lon="6.78189">
        <ele>1882.79</ele>
        <time>2021-07-21T09:19:49Z</time>
      </trkpt>
      <trkpt lat="44.40901" lon="6.78202">
        <ele>1882.91</ele>
        <time>2021-07-21T09:19:52Z</time>
      </trkpt>
      <trkpt lat="44.409" lon="6.7821">
        <ele>1882.9</ele>
        <time>2021-07-21T09:19:54Z</time>
      </trkpt>
      <trkpt lat="44.40899" lon="6.78221">
        <ele>1882.7</ele>
        <time>2021-07-21T09:19:56Z</time>
      </trkpt>
      <trkpt lat="44.40898" lon="6.7823">
        <ele>1882.78</ele>
        <time>2021-07-21T09:19:59Z</time>
      </trkpt>
      <trkpt lat="44.40897" lon="6.7824">
        <ele>1882.7</ele>
        <time>2021-07-21T09:20:01Z</time>
      </trkpt>
      <trkpt lat="44.40896" lon="6.78253">
        <ele>1882.25</ele>
        <time>2021-07-21T09:20:05Z</time>
      </trkpt>
      <trkpt lat="44.40894" lon="6.78264">
        <ele>1881.89</ele>
        <time>2021-07-21T09:20:07Z</time>
      </trkpt>
      <trkpt lat="44.40894" lon="6.78273">
        <ele>1881.24</ele>
        <time>2021-07-21T09:20:09Z</time>
      </trkpt>
      <trkpt lat="44.40894" lon="6.78282">
        <ele>1881.3</ele>
        <time>2021-07-21T09:20:11Z</time>
      </trkpt>
      <trkpt lat="44.40894" lon="6.7829">
        <ele>1882.05</ele>
        <time>2021-07-21T09:20:12Z</time>
      </trkpt>
      <trkpt lat="44.40894" lon="6.78304">
        <ele>1883.38</ele>
        <time>2021-07-21T09:20:16Z</time>
      </trkpt>
      <trkpt lat="44.40894" lon="6.78313">
        <ele>1883.99</ele>
        <time>2021-07-21T09:20:18Z</time>
      </trkpt>
      <trkpt lat="44.40894" lon="6.78325">
        <ele>1884.74</ele>
        <time>2021-07-21T09:20:21Z</time>
      </trkpt>
      <trkpt lat="44.40894" lon="6.78333">
        <ele>1885.24</ele>
        <time>2021-07-21T09:20:22Z</time>
      </trkpt>
      <trkpt lat="44.40895" lon="6.78345">
        <ele>1884.79</ele>
        <time>2021-07-21T09:20:25Z</time>
      </trkpt>
      <trkpt lat="44.40896" lon="6.78359">
        <ele>1884.29</ele>
        <time>2021-07-21T09:20:28Z</time>
      </trkpt>
      <trkpt lat="44.40897" lon="6.78369">
        <ele>1884.69</ele>
        <time>2021-07-21T09:20:30Z</time>
      </trkpt>
      <trkpt lat="44.40899" lon="6.78385">
        <ele>1885.63</ele>
        <time>2021-07-21T09:20:33Z</time>
      </trkpt>
      <trkpt lat="44.40901" lon="6.78399">
        <ele>1887.51</ele>
        <time>2021-07-21T09:20:36Z</time>
      </trkpt>
      <trkpt lat="44.40904" lon="6.7841">
        <ele>1889.17</ele>
        <time>2021-07-21T09:20:39Z</time>
      </trkpt>
      <trkpt lat="44.40906" lon="6.78419">
        <ele>1890.55</ele>
        <time>2021-07-21T09:20:41Z</time>
      </trkpt>
      <trkpt lat="44.40907" lon="6.78429">
        <ele>1892.13</ele>
        <time>2021-07-21T09:20:44Z</time>
      </trkpt>
      <trkpt lat="44.40909" lon="6.7844">
        <ele>1893.65</ele>
        <time>2021-07-21T09:20:46Z</time>
      </trkpt>
      <trkpt lat="44.40911" lon="6.78451">
        <ele>1894.73</ele>
        <time>2021-07-21T09:20:49Z</time>
      </trkpt>
      <trkpt lat="44.40915" lon="6.78459">
        <ele>1894.51</ele>
        <time>2021-07-21T09:20:51Z</time>
      </trkpt>
      <trkpt lat="44.40918" lon="6.78467">
        <ele>1894.3</ele>
        <time>2021-07-21T09:20:53Z</time>
      </trkpt>
      <trkpt lat="44.40922" lon="6.78476">
        <ele>1893.84</ele>
        <time>2021-07-21T09:20:55Z</time>
      </trkpt>
      <trkpt lat="44.40926" lon="6.78487">
        <ele>1893.54</ele>
        <time>2021-07-21T09:20:57Z</time>
      </trkpt>
      <trkpt lat="44.40929" lon="6.78494">
        <ele>1893.37</ele>
        <time>2021-07-21T09:20:59Z</time>
      </trkpt>
      <trkpt lat="44.40931" lon="6.78503">
        <ele>1893.57</ele>
        <time>2021-07-21T09:21:02Z</time>
      </trkpt>
      <trkpt lat="44.40935" lon="6.78514">
        <ele>1893.05</ele>
        <time>2021-07-21T09:21:05Z</time>
      </trkpt>
      <trkpt lat="44.40937" lon="6.78522">
        <ele>1892.61</ele>
        <time>2021-07-21T09:21:07Z</time>
      </trkpt>
      <trkpt lat="44.40941" lon="6.78531">
        <ele>1891.14</ele>
        <time>2021-07-21T09:21:09Z</time>
      </trkpt>
      <trkpt lat="44.40944" lon="6.78541">
        <ele>1889.69</ele>
        <time>2021-07-21T09:21:11Z</time>
      </trkpt>
      <trkpt lat="44.40946" lon="6.7855">
        <ele>1888.88</ele>
        <time>2021-07-21T09:21:13Z</time>
      </trkpt>
      <trkpt lat="44.4095" lon="6.78564">
        <ele>1888.24</ele>
        <time>2021-07-21T09:21:16Z</time>
      </trkpt>
      <trkpt lat="44.40953" lon="6.78578">
        <ele>1888.02</ele>
        <time>2021-07-21T09:21:19Z</time>
      </trkpt>
      <trkpt lat="44.40956" lon="6.78587">
        <ele>1887.08</ele>
        <time>2021-07-21T09:21:21Z</time>
      </trkpt>
      <trkpt lat="44.40958" lon="6.78595">
        <ele>1885.62</ele>
        <time>2021-07-21T09:21:23Z</time>
      </trkpt>
      <trkpt lat="44.40959" lon="6.78604">
        <ele>1884.2</ele>
        <time>2021-07-21T09:21:25Z</time>
      </trkpt>
      <trkpt lat="44.40959" lon="6.78614">
        <ele>1882.76</ele>
        <time>2021-07-21T09:21:28Z</time>
      </trkpt>
      <trkpt lat="44.40961" lon="6.78622">
        <ele>1880.68</ele>
        <time>2021-07-21T09:21:30Z</time>
      </trkpt>
      <trkpt lat="44.40965" lon="6.78629">
        <ele>1878.12</ele>
        <time>2021-07-21T09:21:32Z</time>
      </trkpt>
      <trkpt lat="44.40968" lon="6.78636">
        <ele>1875.89</ele>
        <time>2021-07-21T09:21:34Z</time>
      </trkpt>
      <trkpt lat="44.4097" lon="6.78644">
        <ele>1874.14</ele>
        <time>2021-07-21T09:21:36Z</time>
      </trkpt>
      <trkpt lat="44.40972" lon="6.78653">
        <ele>1872.54</ele>
        <time>2021-07-21T09:21:39Z</time>
      </trkpt>
      <trkpt lat="44.40973" lon="6.78662">
        <ele>1871.46</ele>
        <time>2021-07-21T09:21:41Z</time>
      </trkpt>
      <trkpt lat="44.40972" lon="6.78674">
        <ele>1870.79</ele>
        <time>2021-07-21T09:21:44Z</time>
      </trkpt>
      <trkpt lat="44.40971" lon="6.78682">
        <ele>1870.76</ele>
        <time>2021-07-21T09:21:46Z</time>
      </trkpt>
      <trkpt lat="44.40969" lon="6.78694">
        <ele>1870.83</ele>
        <time>2021-07-21T09:21:48Z</time>
      </trkpt>
      <trkpt lat="44.40965" lon="6.78702">
        <ele>1871.82</ele>
        <time>2021-07-21T09:21:51Z</time>
      </trkpt>
      <trkpt lat="44.40959" lon="6.78709">
        <ele>1873.33</ele>
        <time>2021-07-21T09:21:54Z</time>
      </trkpt>
      <trkpt lat="44.40953" lon="6.78717">
        <ele>1874.84</ele>
        <time>2021-07-21T09:21:58Z</time>
      </trkpt>
      <trkpt lat="44.40948" lon="6.78723">
        <ele>1876.19</ele>
        <time>2021-07-21T09:22:00Z</time>
      </trkpt>
      <trkpt lat="44.40942" lon="6.7873">
        <ele>1879.11</ele>
        <time>2021-07-21T09:22:02Z</time>
      </trkpt>
      <trkpt lat="44.40939" lon="6.78737">
        <ele>1881.33</ele>
        <time>2021-07-21T09:22:04Z</time>
      </trkpt>
      <trkpt lat="44.40935" lon="6.78746">
        <ele>1884.09</ele>
        <time>2021-07-21T09:22:07Z</time>
      </trkpt>
      <trkpt lat="44.40932" lon="6.78755">
        <ele>1886.38</ele>
        <time>2021-07-21T09:22:09Z</time>
      </trkpt>
      <trkpt lat="44.40931" lon="6.78764">
        <ele>1887.82</ele>
        <time>2021-07-21T09:22:11Z</time>
      </trkpt>
      <trkpt lat="44.40931" lon="6.78776">
        <ele>1889.13</ele>
        <time>2021-07-21T09:22:14Z</time>
      </trkpt>
      <trkpt lat="44.40935" lon="6.78785">
        <ele>1889.12</ele>
        <time>2021-07-21T09:22:17Z</time>
      </trkpt>
      <trkpt lat="44.4094" lon="6.78792">
        <ele>1888.67</ele>
        <time>2021-07-21T09:22:19Z</time>
      </trkpt>
      <trkpt lat="44.40945" lon="6.788">
        <ele>1888.6</ele>
        <time>2021-07-21T09:22:21Z</time>
      </trkpt>
      <trkpt lat="44.4095" lon="6.7881">
        <ele>1888.35</ele>
        <time>2021-07-21T09:22:24Z</time>
      </trkpt>
      <trkpt lat="44.40953" lon="6.78817">
        <ele>1887.87</ele>
        <time>2021-07-21T09:22:25Z</time>
      </trkpt>
      <trkpt lat="44.40957" lon="6.78826">
        <ele>1887.28</ele>
        <time>2021-07-21T09:22:27Z</time>
      </trkpt>
      <trkpt lat="44.40963" lon="6.78835">
        <ele>1885.93</ele>
        <time>2021-07-21T09:22:30Z</time>
      </trkpt>
      <trkpt lat="44.40968" lon="6.78841">
        <ele>1883.94</ele>
        <time>2021-07-21T09:22:33Z</time>
      </trkpt>
      <trkpt lat="44.40975" lon="6.78848">
        <ele>1881.21</ele>
        <time>2021-07-21T09:22:35Z</time>
      </trkpt>
      <trkpt lat="44.4098" lon="6.78856">
        <ele>1879.71</ele>
        <time>2021-07-21T09:22:38Z</time>
      </trkpt>
      <trkpt lat="44.40985" lon="6.78864">
        <ele>1878.9</ele>
        <time>2021-07-21T09:22:41Z</time>
      </trkpt>
      <trkpt lat="44.40991" lon="6.78872">
        <ele>1878.54</ele>
        <time>2021-07-21T09:22:43Z</time>
      </trkpt>
      <trkpt lat="44.40997" lon="6.78878">
        <ele>1878.23</ele>
        <time>2021-07-21T09:22:46Z</time>
      </trkpt>
      <trkpt lat="44.41002" lon="6.78883">
        <ele>1878.16</ele>
        <time>2021-07-21T09:22:49Z</time>
      </trkpt>
      <trkpt lat="44.41009" lon="6.78888">
        <ele>1878.21</ele>
        <time>2021-07-21T09:22:54Z</time>
      </trkpt>
      <trkpt lat="44.41014" lon="6.78895">
        <ele>1878.43</ele>
        <time>2021-07-21T09:22:56Z</time>
      </trkpt>
      <trkpt lat="44.41018" lon="6.78901">
        <ele>1878.58</ele>
        <time>2021-07-21T09:22:59Z</time>
      </trkpt>
      <trkpt lat="44.41022" lon="6.78917">
        <ele>1879.45</ele>
        <time>2021-07-21T09:23:03Z</time>
      </trkpt>
      <trkpt lat="44.41023" lon="6.78928">
        <ele>1880.57</ele>
        <time>2021-07-21T09:23:06Z</time>
      </trkpt>
      <trkpt lat="44.41024" lon="6.7894">
        <ele>1881.79</ele>
        <time>2021-07-21T09:23:10Z</time>
      </trkpt>
      <trkpt lat="44.41027" lon="6.78948">
        <ele>1882.83</ele>
        <time>2021-07-21T09:23:13Z</time>
      </trkpt>
      <trkpt lat="44.41032" lon="6.78958">
        <ele>1884.17</ele>
        <time>2021-07-21T09:23:16Z</time>
      </trkpt>
      <trkpt lat="44.41037" lon="6.78966">
        <ele>1885</ele>
        <time>2021-07-21T09:23:18Z</time>
      </trkpt>
      <trkpt lat="44.41041" lon="6.78972">
        <ele>1885.57</ele>
        <time>2021-07-21T09:23:20Z</time>
      </trkpt>
      <trkpt lat="44.41048" lon="6.78978">
        <ele>1886.23</ele>
        <time>2021-07-21T09:23:24Z</time>
      </trkpt>
      <trkpt lat="44.41055" lon="6.78982">
        <ele>1886.27</ele>
        <time>2021-07-21T09:23:27Z</time>
      </trkpt>
      <trkpt lat="44.41058" lon="6.78982">
        <ele>1885.88</ele>
        <time>2021-07-21T09:23:39Z</time>
      </trkpt>
      <trkpt lat="44.41062" lon="6.78984">
        <ele>1886.08</ele>
        <time>2021-07-21T09:23:41Z</time>
      </trkpt>
      <trkpt lat="44.41069" lon="6.7899">
        <ele>1887.44</ele>
        <time>2021-07-21T09:23:44Z</time>
      </trkpt>
      <trkpt lat="44.41077" lon="6.78994">
        <ele>1888.18</ele>
        <time>2021-07-21T09:23:48Z</time>
      </trkpt>
      <trkpt lat="44.41084" lon="6.78997">
        <ele>1888.78</ele>
        <time>2021-07-21T09:23:50Z</time>
      </trkpt>
      <trkpt lat="44.41091" lon="6.79">
        <ele>1889.72</ele>
        <time>2021-07-21T09:23:54Z</time>
      </trkpt>
      <trkpt lat="44.41098" lon="6.79004">
        <ele>1890.91</ele>
        <time>2021-07-21T09:23:57Z</time>
      </trkpt>
      <trkpt lat="44.41105" lon="6.7901">
        <ele>1892.82</ele>
        <time>2021-07-21T09:23:59Z</time>
      </trkpt>
      <trkpt lat="44.4111" lon="6.79014">
        <ele>1894.08</ele>
        <time>2021-07-21T09:24:02Z</time>
      </trkpt>
      <trkpt lat="44.41115" lon="6.79019">
        <ele>1895.01</ele>
        <time>2021-07-21T09:24:04Z</time>
      </trkpt>
      <trkpt lat="44.4112" lon="6.79025">
        <ele>1896.3</ele>
        <time>2021-07-21T09:24:06Z</time>
      </trkpt>
      <trkpt lat="44.41127" lon="6.79035">
        <ele>1898.18</ele>
        <time>2021-07-21T09:24:10Z</time>
      </trkpt>
      <trkpt lat="44.41131" lon="6.79042">
        <ele>1899.29</ele>
        <time>2021-07-21T09:24:12Z</time>
      </trkpt>
      <trkpt lat="44.41135" lon="6.79049">
        <ele>1900.26</ele>
        <time>2021-07-21T09:24:14Z</time>
      </trkpt>
      <trkpt lat="44.41138" lon="6.79057">
        <ele>1901.23</ele>
        <time>2021-07-21T09:24:16Z</time>
      </trkpt>
      <trkpt lat="44.41142" lon="6.79064">
        <ele>1899.58</ele>
        <time>2021-07-21T09:24:19Z</time>
      </trkpt>
      <trkpt lat="44.41146" lon="6.79072">
        <ele>1897.82</ele>
        <time>2021-07-21T09:24:21Z</time>
      </trkpt>
      <trkpt lat="44.41149" lon="6.79084">
        <ele>1896.62</ele>
        <time>2021-07-21T09:24:25Z</time>
      </trkpt>
      <trkpt lat="44.41152" lon="6.79092">
        <ele>1895.3</ele>
        <time>2021-07-21T09:24:27Z</time>
      </trkpt>
      <trkpt lat="44.41156" lon="6.791">
        <ele>1893.89</ele>
        <time>2021-07-21T09:24:31Z</time>
      </trkpt>
      <trkpt lat="44.41163" lon="6.79108">
        <ele>1891.89</ele>
        <time>2021-07-21T09:24:35Z</time>
      </trkpt>
      <trkpt lat="44.41168" lon="6.79112">
        <ele>1890.87</ele>
        <time>2021-07-21T09:24:37Z</time>
      </trkpt>
      <trkpt lat="44.41175" lon="6.79118">
        <ele>1890.29</ele>
        <time>2021-07-21T09:24:40Z</time>
      </trkpt>
      <trkpt lat="44.4118" lon="6.79123">
        <ele>1889.85</ele>
        <time>2021-07-21T09:24:42Z</time>
      </trkpt>
      <trkpt lat="44.41185" lon="6.79128">
        <ele>1889.28</ele>
        <time>2021-07-21T09:24:45Z</time>
      </trkpt>
      <trkpt lat="44.4119" lon="6.79132">
        <ele>1888.46</ele>
        <time>2021-07-21T09:24:48Z</time>
      </trkpt>
      <trkpt lat="44.41196" lon="6.79139">
        <ele>1887.57</ele>
        <time>2021-07-21T09:24:51Z</time>
      </trkpt>
      <trkpt lat="44.41202" lon="6.79144">
        <ele>1886.74</ele>
        <time>2021-07-21T09:24:54Z</time>
      </trkpt>
      <trkpt lat="44.41207" lon="6.7915">
        <ele>1886.38</ele>
        <time>2021-07-21T09:24:56Z</time>
      </trkpt>
      <trkpt lat="44.41212" lon="6.79158">
        <ele>1886.38</ele>
        <time>2021-07-21T09:24:59Z</time>
      </trkpt>
      <trkpt lat="44.41216" lon="6.79166">
        <ele>1886.67</ele>
        <time>2021-07-21T09:25:04Z</time>
      </trkpt>
      <trkpt lat="44.4122" lon="6.79174">
        <ele>1886.96</ele>
        <time>2021-07-21T09:25:06Z</time>
      </trkpt>
      <trkpt lat="44.41221" lon="6.79183">
        <ele>1888.29</ele>
        <time>2021-07-21T09:25:09Z</time>
      </trkpt>
      <trkpt lat="44.41219" lon="6.79192">
        <ele>1890.49</ele>
        <time>2021-07-21T09:25:12Z</time>
      </trkpt>
      <trkpt lat="44.41217" lon="6.792">
        <ele>1891.98</ele>
        <time>2021-07-21T09:25:15Z</time>
      </trkpt>
      <trkpt lat="44.41218" lon="6.79211">
        <ele>1892.59</ele>
        <time>2021-07-21T09:25:18Z</time>
      </trkpt>
      <trkpt lat="44.41219" lon="6.79221">
        <ele>1893.06</ele>
        <time>2021-07-21T09:25:21Z</time>
      </trkpt>
      <trkpt lat="44.4122" lon="6.79231">
        <ele>1893.48</ele>
        <time>2021-07-21T09:25:25Z</time>
      </trkpt>
      <trkpt lat="44.41225" lon="6.7924">
        <ele>1892.22</ele>
        <time>2021-07-21T09:25:29Z</time>
      </trkpt>
      <trkpt lat="44.41229" lon="6.79247">
        <ele>1891.13</ele>
        <time>2021-07-21T09:25:31Z</time>
      </trkpt>
      <trkpt lat="44.41234" lon="6.79254">
        <ele>1889.73</ele>
        <time>2021-07-21T09:25:34Z</time>
      </trkpt>
      <trkpt lat="44.41238" lon="6.79261">
        <ele>1888.66</ele>
        <time>2021-07-21T09:25:37Z</time>
      </trkpt>
      <trkpt lat="44.41244" lon="6.79268">
        <ele>1886.44</ele>
        <time>2021-07-21T09:25:39Z</time>
      </trkpt>
      <trkpt lat="44.41251" lon="6.79275">
        <ele>1883.51</ele>
        <time>2021-07-21T09:25:43Z</time>
      </trkpt>
      <trkpt lat="44.41257" lon="6.7928">
        <ele>1881.45</ele>
        <time>2021-07-21T09:25:45Z</time>
      </trkpt>
      <trkpt lat="44.41263" lon="6.79285">
        <ele>1879.51</ele>
        <time>2021-07-21T09:25:47Z</time>
      </trkpt>
      <trkpt lat="44.41272" lon="6.79291">
        <ele>1876.34</ele>
        <time>2021-07-21T09:25:51Z</time>
      </trkpt>
      <trkpt lat="44.41278" lon="6.79293">
        <ele>1874.01</ele>
        <time>2021-07-21T09:25:53Z</time>
      </trkpt>
      <trkpt lat="44.41284" lon="6.79294">
        <ele>1871.69</ele>
        <time>2021-07-21T09:25:55Z</time>
      </trkpt>
      <trkpt lat="44.41292" lon="6.79294">
        <ele>1868.5</ele>
        <time>2021-07-21T09:25:58Z</time>
      </trkpt>
      <trkpt lat="44.41301" lon="6.79296">
        <ele>1865.35</ele>
        <time>2021-07-21T09:26:02Z</time>
      </trkpt>
      <trkpt lat="44.41308" lon="6.79296">
        <ele>1862.92</ele>
        <time>2021-07-21T09:26:04Z</time>
      </trkpt>
      <trkpt lat="44.41316" lon="6.79297">
        <ele>1860.98</ele>
        <time>2021-07-21T09:26:07Z</time>
      </trkpt>
      <trkpt lat="44.41322" lon="6.79297">
        <ele>1859.34</ele>
        <time>2021-07-21T09:26:10Z</time>
      </trkpt>
      <trkpt lat="44.41329" lon="6.79298">
        <ele>1857.73</ele>
        <time>2021-07-21T09:26:12Z</time>
      </trkpt>
      <trkpt lat="44.41338" lon="6.79299">
        <ele>1855.91</ele>
        <time>2021-07-21T09:26:15Z</time>
      </trkpt>
      <trkpt lat="44.41345" lon="6.79299">
        <ele>1854.46</ele>
        <time>2021-07-21T09:26:18Z</time>
      </trkpt>
      <trkpt lat="44.41351" lon="6.79299">
        <ele>1853.21</ele>
        <time>2021-07-21T09:26:21Z</time>
      </trkpt>
      <trkpt lat="44.41356" lon="6.79299">
        <ele>1852.17</ele>
        <time>2021-07-21T09:26:24Z</time>
      </trkpt>
      <trkpt lat="44.41363" lon="6.79299">
        <ele>1851.45</ele>
        <time>2021-07-21T09:26:27Z</time>
      </trkpt>
      <trkpt lat="44.4137" lon="6.79297">
        <ele>1852.14</ele>
        <time>2021-07-21T09:26:30Z</time>
      </trkpt>
      <trkpt lat="44.41376" lon="6.79298">
        <ele>1853.5</ele>
        <time>2021-07-21T09:26:33Z</time>
      </trkpt>
      <trkpt lat="44.41378" lon="6.79301">
        <ele>1854.73</ele>
        <time>2021-07-21T09:26:55Z</time>
      </trkpt>
      <trkpt lat="44.41381" lon="6.793">
        <ele>1854.98</ele>
        <time>2021-07-21T09:28:13Z</time>
      </trkpt>
      <trkpt lat="44.41384" lon="6.793">
        <ele>1855.52</ele>
        <time>2021-07-21T09:28:15Z</time>
      </trkpt>
      <trkpt lat="44.41387" lon="6.79301">
        <ele>1856.35</ele>
        <time>2021-07-21T09:28:16Z</time>
      </trkpt>
      <trkpt lat="44.41392" lon="6.79301">
        <ele>1857.08</ele>
        <time>2021-07-21T09:28:18Z</time>
      </trkpt>
      <trkpt lat="44.41397" lon="6.79302">
        <ele>1858.03</ele>
        <time>2021-07-21T09:28:20Z</time>
      </trkpt>
      <trkpt lat="44.41403" lon="6.79303">
        <ele>1859.16</ele>
        <time>2021-07-21T09:28:21Z</time>
      </trkpt>
      <trkpt lat="44.41409" lon="6.79304">
        <ele>1860.33</ele>
        <time>2021-07-21T09:28:23Z</time>
      </trkpt>
      <trkpt lat="44.41417" lon="6.79307">
        <ele>1862.62</ele>
        <time>2021-07-21T09:28:27Z</time>
      </trkpt>
      <trkpt lat="44.41423" lon="6.79313">
        <ele>1866.44</ele>
        <time>2021-07-21T09:28:30Z</time>
      </trkpt>
      <trkpt lat="44.41429" lon="6.79319">
        <ele>1870.18</ele>
        <time>2021-07-21T09:28:33Z</time>
      </trkpt>
      <trkpt lat="44.41435" lon="6.79326">
        <ele>1874.15</ele>
        <time>2021-07-21T09:28:35Z</time>
      </trkpt>
      <trkpt lat="44.41441" lon="6.79334">
        <ele>1878.22</ele>
        <time>2021-07-21T09:28:38Z</time>
      </trkpt>
      <trkpt lat="44.41444" lon="6.7934">
        <ele>1879.63</ele>
        <time>2021-07-21T09:28:40Z</time>
      </trkpt>
      <trkpt lat="44.41447" lon="6.79349">
        <ele>1880.22</ele>
        <time>2021-07-21T09:28:42Z</time>
      </trkpt>
      <trkpt lat="44.41448" lon="6.79362">
        <ele>1881.29</ele>
        <time>2021-07-21T09:28:46Z</time>
      </trkpt>
      <trkpt lat="44.41448" lon="6.79374">
        <ele>1882.04</ele>
        <time>2021-07-21T09:28:49Z</time>
      </trkpt>
      <trkpt lat="44.41448" lon="6.79383">
        <ele>1882.61</ele>
        <time>2021-07-21T09:28:51Z</time>
      </trkpt>
      <trkpt lat="44.41447" lon="6.79394">
        <ele>1883.08</ele>
        <time>2021-07-21T09:28:54Z</time>
      </trkpt>
      <trkpt lat="44.41447" lon="6.79405">
        <ele>1882.68</ele>
        <time>2021-07-21T09:28:57Z</time>
      </trkpt>
      <trkpt lat="44.41448" lon="6.79414">
        <ele>1882.07</ele>
        <time>2021-07-21T09:28:59Z</time>
      </trkpt>
      <trkpt lat="44.41449" lon="6.79424">
        <ele>1881.38</ele>
        <time>2021-07-21T09:29:02Z</time>
      </trkpt>
      <trkpt lat="44.41448" lon="6.79435">
        <ele>1881.23</ele>
        <time>2021-07-21T09:29:05Z</time>
      </trkpt>
      <trkpt lat="44.41448" lon="6.79444">
        <ele>1880.87</ele>
        <time>2021-07-21T09:29:08Z</time>
      </trkpt>
      <trkpt lat="44.41449" lon="6.79454">
        <ele>1880.12</ele>
        <time>2021-07-21T09:29:10Z</time>
      </trkpt>
      <trkpt lat="44.41449" lon="6.79463">
        <ele>1879.75</ele>
        <time>2021-07-21T09:29:13Z</time>
      </trkpt>
      <trkpt lat="44.41448" lon="6.79472">
        <ele>1879.73</ele>
        <time>2021-07-21T09:29:15Z</time>
      </trkpt>
      <trkpt lat="44.41447" lon="6.7948">
        <ele>1879.55</ele>
        <time>2021-07-21T09:29:17Z</time>
      </trkpt>
      <trkpt lat="44.41443" lon="6.79492">
        <ele>1880.45</ele>
        <time>2021-07-21T09:29:21Z</time>
      </trkpt>
      <trkpt lat="44.4144" lon="6.795">
        <ele>1881.72</ele>
        <time>2021-07-21T09:29:23Z</time>
      </trkpt>
      <trkpt lat="44.41436" lon="6.79513">
        <ele>1882.34</ele>
        <time>2021-07-21T09:29:26Z</time>
      </trkpt>
      <trkpt lat="44.41433" lon="6.79521">
        <ele>1882.8</ele>
        <time>2021-07-21T09:29:28Z</time>
      </trkpt>
      <trkpt lat="44.41431" lon="6.79531">
        <ele>1882.26</ele>
        <time>2021-07-21T09:29:31Z</time>
      </trkpt>
      <trkpt lat="44.41428" lon="6.79543">
        <ele>1881.67</ele>
        <time>2021-07-21T09:29:34Z</time>
      </trkpt>
      <trkpt lat="44.41425" lon="6.79551">
        <ele>1881.54</ele>
        <time>2021-07-21T09:29:36Z</time>
      </trkpt>
      <trkpt lat="44.41422" lon="6.79566">
        <ele>1881.58</ele>
        <time>2021-07-21T09:29:39Z</time>
      </trkpt>
      <trkpt lat="44.41421" lon="6.79575">
        <ele>1881.69</ele>
        <time>2021-07-21T09:29:41Z</time>
      </trkpt>
      <trkpt lat="44.4142" lon="6.79583">
        <ele>1881.81</ele>
        <time>2021-07-21T09:29:43Z</time>
      </trkpt>
      <trkpt lat="44.41419" lon="6.79593">
        <ele>1882.54</ele>
        <time>2021-07-21T09:29:45Z</time>
      </trkpt>
      <trkpt lat="44.41418" lon="6.79603">
        <ele>1883.26</ele>
        <time>2021-07-21T09:29:48Z</time>
      </trkpt>
      <trkpt lat="44.41413" lon="6.79614">
        <ele>1885.78</ele>
        <time>2021-07-21T09:29:51Z</time>
      </trkpt>
      <trkpt lat="44.4141" lon="6.79623">
        <ele>1886.85</ele>
        <time>2021-07-21T09:29:53Z</time>
      </trkpt>
      <trkpt lat="44.41407" lon="6.79631">
        <ele>1887.63</ele>
        <time>2021-07-21T09:29:56Z</time>
      </trkpt>
      <trkpt lat="44.41404" lon="6.79638">
        <ele>1888.18</ele>
        <time>2021-07-21T09:29:58Z</time>
      </trkpt>
      <trkpt lat="44.41402" lon="6.7965">
        <ele>1888.96</ele>
        <time>2021-07-21T09:30:01Z</time>
      </trkpt>
      <trkpt lat="44.41398" lon="6.7966">
        <ele>1890.56</ele>
        <time>2021-07-21T09:30:04Z</time>
      </trkpt>
      <trkpt lat="44.41395" lon="6.79673">
        <ele>1891.39</ele>
        <time>2021-07-21T09:30:08Z</time>
      </trkpt>
      <trkpt lat="44.41393" lon="6.79681">
        <ele>1891.56</ele>
        <time>2021-07-21T09:30:10Z</time>
      </trkpt>
      <trkpt lat="44.41391" lon="6.79689">
        <ele>1891.69</ele>
        <time>2021-07-21T09:30:13Z</time>
      </trkpt>
      <trkpt lat="44.41387" lon="6.797">
        <ele>1892.99</ele>
        <time>2021-07-21T09:30:16Z</time>
      </trkpt>
      <trkpt lat="44.41386" lon="6.7971">
        <ele>1893.69</ele>
        <time>2021-07-21T09:30:19Z</time>
      </trkpt>
      <trkpt lat="44.41387" lon="6.79723">
        <ele>1893.71</ele>
        <time>2021-07-21T09:30:21Z</time>
      </trkpt>
      <trkpt lat="44.4139" lon="6.79734">
        <ele>1892.99</ele>
        <time>2021-07-21T09:30:24Z</time>
      </trkpt>
      <trkpt lat="44.41392" lon="6.79742">
        <ele>1892.43</ele>
        <time>2021-07-21T09:30:26Z</time>
      </trkpt>
      <trkpt lat="44.41393" lon="6.79751">
        <ele>1892.26</ele>
        <time>2021-07-21T09:30:29Z</time>
      </trkpt>
      <trkpt lat="44.41397" lon="6.79765">
        <ele>1891.04</ele>
        <time>2021-07-21T09:30:32Z</time>
      </trkpt>
      <trkpt lat="44.41398" lon="6.79774">
        <ele>1890.93</ele>
        <time>2021-07-21T09:30:34Z</time>
      </trkpt>
      <trkpt lat="44.41399" lon="6.79784">
        <ele>1890.65</ele>
        <time>2021-07-21T09:30:36Z</time>
      </trkpt>
      <trkpt lat="44.41399" lon="6.79795">
        <ele>1890.69</ele>
        <time>2021-07-21T09:30:38Z</time>
      </trkpt>
      <trkpt lat="44.41398" lon="6.79805">
        <ele>1891.05</ele>
        <time>2021-07-21T09:30:41Z</time>
      </trkpt>
      <trkpt lat="44.41399" lon="6.79814">
        <ele>1890.86</ele>
        <time>2021-07-21T09:30:43Z</time>
      </trkpt>
      <trkpt lat="44.41401" lon="6.79822">
        <ele>1890.52</ele>
        <time>2021-07-21T09:30:48Z</time>
      </trkpt>
      <trkpt lat="44.41404" lon="6.7983">
        <ele>1890.14</ele>
        <time>2021-07-21T09:30:50Z</time>
      </trkpt>
      <trkpt lat="44.41406" lon="6.79838">
        <ele>1889.78</ele>
        <time>2021-07-21T09:30:55Z</time>
      </trkpt>
      <trkpt lat="44.41405" lon="6.79845">
        <ele>1889.79</ele>
        <time>2021-07-21T09:31:07Z</time>
      </trkpt>
      <trkpt lat="44.41404" lon="6.79852">
        <ele>1889.86</ele>
        <time>2021-07-21T09:31:09Z</time>
      </trkpt>
      <trkpt lat="44.41403" lon="6.79861">
        <ele>1889.94</ele>
        <time>2021-07-21T09:31:11Z</time>
      </trkpt>
      <trkpt lat="44.41401" lon="6.79872">
        <ele>1889.17</ele>
        <time>2021-07-21T09:31:13Z</time>
      </trkpt>
      <trkpt lat="44.41398" lon="6.79884">
        <ele>1888.63</ele>
        <time>2021-07-21T09:31:17Z</time>
      </trkpt>
      <trkpt lat="44.41396" lon="6.79894">
        <ele>1888.51</ele>
        <time>2021-07-21T09:31:19Z</time>
      </trkpt>
      <trkpt lat="44.41394" lon="6.79909">
        <ele>1888.62</ele>
        <time>2021-07-21T09:31:23Z</time>
      </trkpt>
      <trkpt lat="44.41392" lon="6.79918">
        <ele>1889.07</ele>
        <time>2021-07-21T09:31:25Z</time>
      </trkpt>
      <trkpt lat="44.4139" lon="6.79927">
        <ele>1890.34</ele>
        <time>2021-07-21T09:31:27Z</time>
      </trkpt>
      <trkpt lat="44.4139" lon="6.79939">
        <ele>1891.15</ele>
        <time>2021-07-21T09:31:30Z</time>
      </trkpt>
      <trkpt lat="44.41389" lon="6.79955">
        <ele>1893.09</ele>
        <time>2021-07-21T09:31:34Z</time>
      </trkpt>
      <trkpt lat="44.4139" lon="6.79967">
        <ele>1893.92</ele>
        <time>2021-07-21T09:31:37Z</time>
      </trkpt>
      <trkpt lat="44.41393" lon="6.79976">
        <ele>1893.66</ele>
        <time>2021-07-21T09:31:39Z</time>
      </trkpt>
      <trkpt lat="44.41397" lon="6.79988">
        <ele>1893.81</ele>
        <time>2021-07-21T09:31:42Z</time>
      </trkpt>
      <trkpt lat="44.41401" lon="6.79995">
        <ele>1893.33</ele>
        <time>2021-07-21T09:31:44Z</time>
      </trkpt>
      <trkpt lat="44.41405" lon="6.80002">
        <ele>1892.81</ele>
        <time>2021-07-21T09:31:47Z</time>
      </trkpt>
      <trkpt lat="44.41411" lon="6.80015">
        <ele>1891.75</ele>
        <time>2021-07-21T09:31:51Z</time>
      </trkpt>
      <trkpt lat="44.41414" lon="6.80023">
        <ele>1891.46</ele>
        <time>2021-07-21T09:31:53Z</time>
      </trkpt>
      <trkpt lat="44.41416" lon="6.80032">
        <ele>1891.39</ele>
        <time>2021-07-21T09:31:55Z</time>
      </trkpt>
      <trkpt lat="44.4142" lon="6.80046">
        <ele>1890.26</ele>
        <time>2021-07-21T09:31:59Z</time>
      </trkpt>
      <trkpt lat="44.41424" lon="6.80057">
        <ele>1888.78</ele>
        <time>2021-07-21T09:32:01Z</time>
      </trkpt>
      <trkpt lat="44.41426" lon="6.80065">
        <ele>1887.63</ele>
        <time>2021-07-21T09:32:03Z</time>
      </trkpt>
      <trkpt lat="44.41429" lon="6.80074">
        <ele>1886.01</ele>
        <time>2021-07-21T09:32:05Z</time>
      </trkpt>
      <trkpt lat="44.41432" lon="6.80084">
        <ele>1884.39</ele>
        <time>2021-07-21T09:32:08Z</time>
      </trkpt>
      <trkpt lat="44.41435" lon="6.80093">
        <ele>1883.31</ele>
        <time>2021-07-21T09:32:10Z</time>
      </trkpt>
      <trkpt lat="44.41439" lon="6.80102">
        <ele>1881.89</ele>
        <time>2021-07-21T09:32:12Z</time>
      </trkpt>
      <trkpt lat="44.41441" lon="6.80111">
        <ele>1881.36</ele>
        <time>2021-07-21T09:32:14Z</time>
      </trkpt>
      <trkpt lat="44.41443" lon="6.80124">
        <ele>1881.94</ele>
        <time>2021-07-21T09:32:17Z</time>
      </trkpt>
      <trkpt lat="44.41445" lon="6.80134">
        <ele>1882.2</ele>
        <time>2021-07-21T09:32:19Z</time>
      </trkpt>
      <trkpt lat="44.41446" lon="6.80143">
        <ele>1882.66</ele>
        <time>2021-07-21T09:32:21Z</time>
      </trkpt>
      <trkpt lat="44.41446" lon="6.80155">
        <ele>1883.96</ele>
        <time>2021-07-21T09:32:23Z</time>
      </trkpt>
      <trkpt lat="44.41446" lon="6.80165">
        <ele>1885.04</ele>
        <time>2021-07-21T09:32:26Z</time>
      </trkpt>
      <trkpt lat="44.41446" lon="6.80174">
        <ele>1885</ele>
        <time>2021-07-21T09:32:29Z</time>
      </trkpt>
      <trkpt lat="44.41447" lon="6.80183">
        <ele>1884.29</ele>
        <time>2021-07-21T09:32:31Z</time>
      </trkpt>
      <trkpt lat="44.41447" lon="6.80195">
        <ele>1883.99</ele>
        <time>2021-07-21T09:32:36Z</time>
      </trkpt>
      <trkpt lat="44.41447" lon="6.80205">
        <ele>1884.02</ele>
        <time>2021-07-21T09:32:38Z</time>
      </trkpt>
      <trkpt lat="44.41447" lon="6.80215">
        <ele>1884.06</ele>
        <time>2021-07-21T09:32:40Z</time>
      </trkpt>
      <trkpt lat="44.41447" lon="6.80223">
        <ele>1884.08</ele>
        <time>2021-07-21T09:32:42Z</time>
      </trkpt>
      <trkpt lat="44.41447" lon="6.80232">
        <ele>1884.05</ele>
        <time>2021-07-21T09:32:44Z</time>
      </trkpt>
      <trkpt lat="44.41446" lon="6.80242">
        <ele>1884.4</ele>
        <time>2021-07-21T09:32:46Z</time>
      </trkpt>
      <trkpt lat="44.41447" lon="6.80252">
        <ele>1883.77</ele>
        <time>2021-07-21T09:32:48Z</time>
      </trkpt>
      <trkpt lat="44.41446" lon="6.80265">
        <ele>1882.76</ele>
        <time>2021-07-21T09:32:51Z</time>
      </trkpt>
      <trkpt lat="44.41444" lon="6.80278">
        <ele>1882.19</ele>
        <time>2021-07-21T09:32:54Z</time>
      </trkpt>
      <trkpt lat="44.41442" lon="6.8029">
        <ele>1882.98</ele>
        <time>2021-07-21T09:32:56Z</time>
      </trkpt>
      <trkpt lat="44.4144" lon="6.80302">
        <ele>1883.64</ele>
        <time>2021-07-21T09:32:59Z</time>
      </trkpt>
      <trkpt lat="44.41439" lon="6.80313">
        <ele>1882.56</ele>
        <time>2021-07-21T09:33:02Z</time>
      </trkpt>
      <trkpt lat="44.41437" lon="6.80324">
        <ele>1881.41</ele>
        <time>2021-07-21T09:33:04Z</time>
      </trkpt>
      <trkpt lat="44.41436" lon="6.80336">
        <ele>1880.01</ele>
        <time>2021-07-21T09:33:07Z</time>
      </trkpt>
      <trkpt lat="44.41435" lon="6.80349">
        <ele>1879.24</ele>
        <time>2021-07-21T09:33:10Z</time>
      </trkpt>
      <trkpt lat="44.41435" lon="6.80358">
        <ele>1878.36</ele>
        <time>2021-07-21T09:33:12Z</time>
      </trkpt>
      <trkpt lat="44.41433" lon="6.80369">
        <ele>1878.31</ele>
        <time>2021-07-21T09:33:15Z</time>
      </trkpt>
      <trkpt lat="44.41428" lon="6.80377">
        <ele>1879.42</ele>
        <time>2021-07-21T09:33:17Z</time>
      </trkpt>
      <trkpt lat="44.41424" lon="6.80385">
        <ele>1880.13</ele>
        <time>2021-07-21T09:33:19Z</time>
      </trkpt>
      <trkpt lat="44.4142" lon="6.80393">
        <ele>1881.02</ele>
        <time>2021-07-21T09:33:22Z</time>
      </trkpt>
      <trkpt lat="44.41416" lon="6.804">
        <ele>1882.27</ele>
        <time>2021-07-21T09:33:24Z</time>
      </trkpt>
      <trkpt lat="44.41411" lon="6.80406">
        <ele>1884.15</ele>
        <time>2021-07-21T09:33:26Z</time>
      </trkpt>
      <trkpt lat="44.41407" lon="6.80412">
        <ele>1885.37</ele>
        <time>2021-07-21T09:33:27Z</time>
      </trkpt>
      <trkpt lat="44.41403" lon="6.80422">
        <ele>1885.85</ele>
        <time>2021-07-21T09:33:30Z</time>
      </trkpt>
      <trkpt lat="44.41399" lon="6.8043">
        <ele>1886.28</ele>
        <time>2021-07-21T09:33:33Z</time>
      </trkpt>
      <trkpt lat="44.41395" lon="6.80436">
        <ele>1886.93</ele>
        <time>2021-07-21T09:33:35Z</time>
      </trkpt>
      <trkpt lat="44.41391" lon="6.80443">
        <ele>1887.47</ele>
        <time>2021-07-21T09:33:36Z</time>
      </trkpt>
      <trkpt lat="44.41387" lon="6.80451">
        <ele>1886.25</ele>
        <time>2021-07-21T09:33:39Z</time>
      </trkpt>
      <trkpt lat="44.41383" lon="6.80458">
        <ele>1885.23</ele>
        <time>2021-07-21T09:33:42Z</time>
      </trkpt>
      <trkpt lat="44.4138" lon="6.80468">
        <ele>1883.17</ele>
        <time>2021-07-21T09:33:44Z</time>
      </trkpt>
      <trkpt lat="44.41377" lon="6.80477">
        <ele>1881.74</ele>
        <time>2021-07-21T09:33:47Z</time>
      </trkpt>
      <trkpt lat="44.41373" lon="6.80491">
        <ele>1879.55</ele>
        <time>2021-07-21T09:33:51Z</time>
      </trkpt>
      <trkpt lat="44.4137" lon="6.80498">
        <ele>1879.07</ele>
        <time>2021-07-21T09:33:53Z</time>
      </trkpt>
      <trkpt lat="44.41366" lon="6.80509">
        <ele>1878.97</ele>
        <time>2021-07-21T09:33:56Z</time>
      </trkpt>
      <trkpt lat="44.4136" lon="6.80518">
        <ele>1880.13</ele>
        <time>2021-07-21T09:33:59Z</time>
      </trkpt>
      <trkpt lat="44.41355" lon="6.80525">
        <ele>1880.66</ele>
        <time>2021-07-21T09:34:01Z</time>
      </trkpt>
      <trkpt lat="44.41351" lon="6.80532">
        <ele>1881.24</ele>
        <time>2021-07-21T09:34:03Z</time>
      </trkpt>
      <trkpt lat="44.41346" lon="6.8054">
        <ele>1882.36</ele>
        <time>2021-07-21T09:34:05Z</time>
      </trkpt>
      <trkpt lat="44.41342" lon="6.80548">
        <ele>1883.2</ele>
        <time>2021-07-21T09:34:08Z</time>
      </trkpt>
      <trkpt lat="44.41338" lon="6.80559">
        <ele>1883.9</ele>
        <time>2021-07-21T09:34:12Z</time>
      </trkpt>
      <trkpt lat="44.41333" lon="6.80569">
        <ele>1885.08</ele>
        <time>2021-07-21T09:34:14Z</time>
      </trkpt>
      <trkpt lat="44.41328" lon="6.80578">
        <ele>1885.39</ele>
        <time>2021-07-21T09:34:17Z</time>
      </trkpt>
      <trkpt lat="44.41323" lon="6.80585">
        <ele>1886.22</ele>
        <time>2021-07-21T09:34:20Z</time>
      </trkpt>
      <trkpt lat="44.41319" lon="6.80592">
        <ele>1887.11</ele>
        <time>2021-07-21T09:34:22Z</time>
      </trkpt>
      <trkpt lat="44.41314" lon="6.80598">
        <ele>1888.38</ele>
        <time>2021-07-21T09:34:24Z</time>
      </trkpt>
      <trkpt lat="44.41309" lon="6.80607">
        <ele>1889.9</ele>
        <time>2021-07-21T09:34:27Z</time>
      </trkpt>
      <trkpt lat="44.41305" lon="6.80614">
        <ele>1890.88</ele>
        <time>2021-07-21T09:34:29Z</time>
      </trkpt>
      <trkpt lat="44.41302" lon="6.80625">
        <ele>1890.5</ele>
        <time>2021-07-21T09:34:32Z</time>
      </trkpt>
      <trkpt lat="44.41297" lon="6.80638">
        <ele>1890.32</ele>
        <time>2021-07-21T09:34:36Z</time>
      </trkpt>
      <trkpt lat="44.41292" lon="6.80647">
        <ele>1889.61</ele>
        <time>2021-07-21T09:34:39Z</time>
      </trkpt>
      <trkpt lat="44.41283" lon="6.80653">
        <ele>1889.29</ele>
        <time>2021-07-21T09:34:42Z</time>
      </trkpt>
      <trkpt lat="44.41275" lon="6.80656">
        <ele>1888.91</ele>
        <time>2021-07-21T09:34:44Z</time>
      </trkpt>
      <trkpt lat="44.41269" lon="6.80657">
        <ele>1888.3</ele>
        <time>2021-07-21T09:34:48Z</time>
      </trkpt>
      <trkpt lat="44.41262" lon="6.80656">
        <ele>1887.8</ele>
        <time>2021-07-21T09:34:51Z</time>
      </trkpt>
      <trkpt lat="44.41255" lon="6.80654">
        <ele>1887.35</ele>
        <time>2021-07-21T09:34:53Z</time>
      </trkpt>
      <trkpt lat="44.41247" lon="6.80651">
        <ele>1888.07</ele>
        <time>2021-07-21T09:34:55Z</time>
      </trkpt>
      <trkpt lat="44.4124" lon="6.80653">
        <ele>1890.04</ele>
        <time>2021-07-21T09:34:59Z</time>
      </trkpt>
      <trkpt lat="44.41233" lon="6.8066">
        <ele>1891.2</ele>
        <time>2021-07-21T09:35:03Z</time>
      </trkpt>
      <trkpt lat="44.41229" lon="6.80669">
        <ele>1890.98</ele>
        <time>2021-07-21T09:35:07Z</time>
      </trkpt>
      <trkpt lat="44.41225" lon="6.80677">
        <ele>1890.85</ele>
        <time>2021-07-21T09:35:09Z</time>
      </trkpt>
      <trkpt lat="44.41223" lon="6.80687">
        <ele>1889.9</ele>
        <time>2021-07-21T09:35:13Z</time>
      </trkpt>
      <trkpt lat="44.41222" lon="6.80696">
        <ele>1888.97</ele>
        <time>2021-07-21T09:35:17Z</time>
      </trkpt>
      <trkpt lat="44.41219" lon="6.80707">
        <ele>1889.56</ele>
        <time>2021-07-21T09:35:20Z</time>
      </trkpt>
      <trkpt lat="44.41218" lon="6.80718">
        <ele>1888.91</ele>
        <time>2021-07-21T09:35:22Z</time>
      </trkpt>
      <trkpt lat="44.41215" lon="6.80727">
        <ele>1889.34</ele>
        <time>2021-07-21T09:35:24Z</time>
      </trkpt>
      <trkpt lat="44.41211" lon="6.80734">
        <ele>1890.52</ele>
        <time>2021-07-21T09:35:26Z</time>
      </trkpt>
      <trkpt lat="44.41206" lon="6.80742">
        <ele>1892.2</ele>
        <time>2021-07-21T09:35:28Z</time>
      </trkpt>
      <trkpt lat="44.41204" lon="6.8075">
        <ele>1892.15</ele>
        <time>2021-07-21T09:35:30Z</time>
      </trkpt>
      <trkpt lat="44.412" lon="6.80762">
        <ele>1890.45</ele>
        <time>2021-07-21T09:35:34Z</time>
      </trkpt>
      <trkpt lat="44.41198" lon="6.80774">
        <ele>1887.09</ele>
        <time>2021-07-21T09:35:37Z</time>
      </trkpt>
      <trkpt lat="44.41195" lon="6.80784">
        <ele>1884.8</ele>
        <time>2021-07-21T09:35:39Z</time>
      </trkpt>
      <trkpt lat="44.41193" lon="6.80793">
        <ele>1882.94</ele>
        <time>2021-07-21T09:35:41Z</time>
      </trkpt>
      <trkpt lat="44.41189" lon="6.80803">
        <ele>1881.68</ele>
        <time>2021-07-21T09:35:43Z</time>
      </trkpt>
      <trkpt lat="44.41184" lon="6.80816">
        <ele>1880.91</ele>
        <time>2021-07-21T09:35:47Z</time>
      </trkpt>
      <trkpt lat="44.41177" lon="6.80825">
        <ele>1881.35</ele>
        <time>2021-07-21T09:35:49Z</time>
      </trkpt>
      <trkpt lat="44.4117" lon="6.80836">
        <ele>1880.57</ele>
        <time>2021-07-21T09:35:53Z</time>
      </trkpt>
      <trkpt lat="44.41165" lon="6.80841">
        <ele>1881.23</ele>
        <time>2021-07-21T09:35:54Z</time>
      </trkpt>
      <trkpt lat="44.41159" lon="6.80846">
        <ele>1882.38</ele>
        <time>2021-07-21T09:35:56Z</time>
      </trkpt>
      <trkpt lat="44.41152" lon="6.80852">
        <ele>1883.38</ele>
        <time>2021-07-21T09:35:58Z</time>
      </trkpt>
      <trkpt lat="44.41146" lon="6.80856">
        <ele>1884.28</ele>
        <time>2021-07-21T09:36:00Z</time>
      </trkpt>
      <trkpt lat="44.41141" lon="6.80861">
        <ele>1884.42</ele>
        <time>2021-07-21T09:36:03Z</time>
      </trkpt>
      <trkpt lat="44.41134" lon="6.80871">
        <ele>1887.01</ele>
        <time>2021-07-21T09:36:07Z</time>
      </trkpt>
      <trkpt lat="44.41129" lon="6.80878">
        <ele>1888.88</ele>
        <time>2021-07-21T09:36:09Z</time>
      </trkpt>
      <trkpt lat="44.41123" lon="6.80884">
        <ele>1890.99</ele>
        <time>2021-07-21T09:36:11Z</time>
      </trkpt>
      <trkpt lat="44.41119" lon="6.8089">
        <ele>1891.59</ele>
        <time>2021-07-21T09:36:15Z</time>
      </trkpt>
      <trkpt lat="44.41114" lon="6.80896">
        <ele>1893.27</ele>
        <time>2021-07-21T09:36:18Z</time>
      </trkpt>
      <trkpt lat="44.41108" lon="6.80902">
        <ele>1895.67</ele>
        <time>2021-07-21T09:36:22Z</time>
      </trkpt>
      <trkpt lat="44.41104" lon="6.80909">
        <ele>1896.64</ele>
        <time>2021-07-21T09:36:24Z</time>
      </trkpt>
      <trkpt lat="44.41098" lon="6.80918">
        <ele>1897.92</ele>
        <time>2021-07-21T09:36:29Z</time>
      </trkpt>
      <trkpt lat="44.41093" lon="6.80929">
        <ele>1898.75</ele>
        <time>2021-07-21T09:36:33Z</time>
      </trkpt>
      <trkpt lat="44.41091" lon="6.80937">
        <ele>1898.15</ele>
        <time>2021-07-21T09:36:36Z</time>
      </trkpt>
      <trkpt lat="44.41089" lon="6.80945">
        <ele>1897.25</ele>
        <time>2021-07-21T09:36:40Z</time>
      </trkpt>
      <trkpt lat="44.41085" lon="6.80954">
        <ele>1896.48</ele>
        <time>2021-07-21T09:36:44Z</time>
      </trkpt>
      <trkpt lat="44.41081" lon="6.80964">
        <ele>1895.66</ele>
        <time>2021-07-21T09:36:46Z</time>
      </trkpt>
      <trkpt lat="44.41077" lon="6.80972">
        <ele>1895.11</ele>
        <time>2021-07-21T09:36:47Z</time>
      </trkpt>
      <trkpt lat="44.41072" lon="6.80978">
        <ele>1895.76</ele>
        <time>2021-07-21T09:36:49Z</time>
      </trkpt>
      <trkpt lat="44.41067" lon="6.80985">
        <ele>1896.18</ele>
        <time>2021-07-21T09:36:51Z</time>
      </trkpt>
      <trkpt lat="44.4106" lon="6.80997">
        <ele>1896.24</ele>
        <time>2021-07-21T09:36:55Z</time>
      </trkpt>
      <trkpt lat="44.41057" lon="6.81005">
        <ele>1895.52</ele>
        <time>2021-07-21T09:36:57Z</time>
      </trkpt>
      <trkpt lat="44.41054" lon="6.81013">
        <ele>1894.86</ele>
        <time>2021-07-21T09:36:59Z</time>
      </trkpt>
      <trkpt lat="44.41053" lon="6.81024">
        <ele>1892.92</ele>
        <time>2021-07-21T09:37:03Z</time>
      </trkpt>
      <trkpt lat="44.41051" lon="6.81037">
        <ele>1890.7</ele>
        <time>2021-07-21T09:37:09Z</time>
      </trkpt>
      <trkpt lat="44.41051" lon="6.81047">
        <ele>1888.24</ele>
        <time>2021-07-21T09:37:12Z</time>
      </trkpt>
      <trkpt lat="44.4105" lon="6.81057">
        <ele>1886.32</ele>
        <time>2021-07-21T09:37:14Z</time>
      </trkpt>
      <trkpt lat="44.41046" lon="6.81068">
        <ele>1885.92</ele>
        <time>2021-07-21T09:37:18Z</time>
      </trkpt>
      <trkpt lat="44.41042" lon="6.81077">
        <ele>1885.73</ele>
        <time>2021-07-21T09:37:20Z</time>
      </trkpt>
      <trkpt lat="44.41038" lon="6.81085">
        <ele>1885.79</ele>
        <time>2021-07-21T09:37:22Z</time>
      </trkpt>
      <trkpt lat="44.41034" lon="6.81092">
        <ele>1886.67</ele>
        <time>2021-07-21T09:37:27Z</time>
      </trkpt>
      <trkpt lat="44.41029" lon="6.81097">
        <ele>1888.06</ele>
        <time>2021-07-21T09:37:30Z</time>
      </trkpt>
      <trkpt lat="44.41024" lon="6.81102">
        <ele>1890.24</ele>
        <time>2021-07-21T09:37:33Z</time>
      </trkpt>
      <trkpt lat="44.41019" lon="6.81109">
        <ele>1891.84</ele>
        <time>2021-07-21T09:37:37Z</time>
      </trkpt>
      <trkpt lat="44.41015" lon="6.81117">
        <ele>1892.28</ele>
        <time>2021-07-21T09:37:39Z</time>
      </trkpt>
      <trkpt lat="44.41012" lon="6.81125">
        <ele>1892.17</ele>
        <time>2021-07-21T09:37:43Z</time>
      </trkpt>
      <trkpt lat="44.41011" lon="6.81134">
        <ele>1890.84</ele>
        <time>2021-07-21T09:37:45Z</time>
      </trkpt>
      <trkpt lat="44.41011" lon="6.81146">
        <ele>1887.75</ele>
        <time>2021-07-21T09:37:48Z</time>
      </trkpt>
      <trkpt lat="44.4101" lon="6.81155">
        <ele>1885.52</ele>
        <time>2021-07-21T09:37:50Z</time>
      </trkpt>
      <trkpt lat="44.41006" lon="6.81168">
        <ele>1883.36</ele>
        <time>2021-07-21T09:37:54Z</time>
      </trkpt>
      <trkpt lat="44.40999" lon="6.8118">
        <ele>1883.87</ele>
        <time>2021-07-21T09:37:57Z</time>
      </trkpt>
      <trkpt lat="44.40991" lon="6.81189">
        <ele>1888.18</ele>
        <time>2021-07-21T09:37:59Z</time>
      </trkpt>
      <trkpt lat="44.40985" lon="6.812">
        <ele>1889.96</ele>
        <time>2021-07-21T09:38:03Z</time>
      </trkpt>
      <trkpt lat="44.40981" lon="6.81207">
        <ele>1890.5</ele>
        <time>2021-07-21T09:38:05Z</time>
      </trkpt>
      <trkpt lat="44.40977" lon="6.8122">
        <ele>1888.57</ele>
        <time>2021-07-21T09:38:09Z</time>
      </trkpt>
      <trkpt lat="44.40971" lon="6.81229">
        <ele>1886.74</ele>
        <time>2021-07-21T09:38:12Z</time>
      </trkpt>
      <trkpt lat="44.40963" lon="6.81239">
        <ele>1885.7</ele>
        <time>2021-07-21T09:38:16Z</time>
      </trkpt>
      <trkpt lat="44.40958" lon="6.81247">
        <ele>1884.68</ele>
        <time>2021-07-21T09:38:18Z</time>
      </trkpt>
      <trkpt lat="44.40951" lon="6.81258">
        <ele>1885.39</ele>
        <time>2021-07-21T09:38:21Z</time>
      </trkpt>
      <trkpt lat="44.40945" lon="6.81269">
        <ele>1884.36</ele>
        <time>2021-07-21T09:38:23Z</time>
      </trkpt>
      <trkpt lat="44.4094" lon="6.81277">
        <ele>1884.72</ele>
        <time>2021-07-21T09:38:25Z</time>
      </trkpt>
      <trkpt lat="44.40935" lon="6.81284">
        <ele>1887.6</ele>
        <time>2021-07-21T09:38:28Z</time>
      </trkpt>
      <trkpt lat="44.4093" lon="6.81294">
        <ele>1889.3</ele>
        <time>2021-07-21T09:38:30Z</time>
      </trkpt>
      <trkpt lat="44.40923" lon="6.81307">
        <ele>1890.8</ele>
        <time>2021-07-21T09:38:34Z</time>
      </trkpt>
      <trkpt lat="44.40917" lon="6.81316">
        <ele>1892.39</ele>
        <time>2021-07-21T09:38:36Z</time>
      </trkpt>
      <trkpt lat="44.40911" lon="6.81324">
        <ele>1895.33</ele>
        <time>2021-07-21T09:38:39Z</time>
      </trkpt>
      <trkpt lat="44.40907" lon="6.8133">
        <ele>1896.91</ele>
        <time>2021-07-21T09:38:41Z</time>
      </trkpt>
      <trkpt lat="44.40902" lon="6.8134">
        <ele>1896.67</ele>
        <time>2021-07-21T09:38:44Z</time>
      </trkpt>
      <trkpt lat="44.40896" lon="6.81348">
        <ele>1897.04</ele>
        <time>2021-07-21T09:38:46Z</time>
      </trkpt>
      <trkpt lat="44.40893" lon="6.81355">
        <ele>1895.07</ele>
        <time>2021-07-21T09:38:48Z</time>
      </trkpt>
      <trkpt lat="44.4089" lon="6.81367">
        <ele>1891.03</ele>
        <time>2021-07-21T09:38:51Z</time>
      </trkpt>
      <trkpt lat="44.40884" lon="6.81375">
        <ele>1892.72</ele>
        <time>2021-07-21T09:38:53Z</time>
      </trkpt>
      <trkpt lat="44.40879" lon="6.81384">
        <ele>1893.02</ele>
        <time>2021-07-21T09:38:56Z</time>
      </trkpt>
      <trkpt lat="44.40872" lon="6.81394">
        <ele>1893.71</ele>
        <time>2021-07-21T09:38:59Z</time>
      </trkpt>
      <trkpt lat="44.40867" lon="6.81399">
        <ele>1894.14</ele>
        <time>2021-07-21T09:39:01Z</time>
      </trkpt>
      <trkpt lat="44.40864" lon="6.81406">
        <ele>1891.29</ele>
        <time>2021-07-21T09:39:03Z</time>
      </trkpt>
      <trkpt lat="44.4086" lon="6.81415">
        <ele>1887.35</ele>
        <time>2021-07-21T09:39:05Z</time>
      </trkpt>
      <trkpt lat="44.40856" lon="6.81421">
        <ele>1889.64</ele>
        <time>2021-07-21T09:39:07Z</time>
      </trkpt>
      <trkpt lat="44.4085" lon="6.81431">
        <ele>1893.4</ele>
        <time>2021-07-21T09:39:10Z</time>
      </trkpt>
      <trkpt lat="44.40846" lon="6.81438">
        <ele>1895.13</ele>
        <time>2021-07-21T09:39:12Z</time>
      </trkpt>
      <trkpt lat="44.40843" lon="6.81445">
        <ele>1895.56</ele>
        <time>2021-07-21T09:39:14Z</time>
      </trkpt>
      <trkpt lat="44.40838" lon="6.81455">
        <ele>1896.5</ele>
        <time>2021-07-21T09:39:17Z</time>
      </trkpt>
      <trkpt lat="44.40835" lon="6.81464">
        <ele>1895.7</ele>
        <time>2021-07-21T09:39:19Z</time>
      </trkpt>
      <trkpt lat="44.40833" lon="6.81471">
        <ele>1894.61</ele>
        <time>2021-07-21T09:39:21Z</time>
      </trkpt>
      <trkpt lat="44.40831" lon="6.81482">
        <ele>1894.75</ele>
        <time>2021-07-21T09:39:24Z</time>
      </trkpt>
      <trkpt lat="44.40827" lon="6.81494">
        <ele>1896.18</ele>
        <time>2021-07-21T09:39:27Z</time>
      </trkpt>
      <trkpt lat="44.40824" lon="6.81502">
        <ele>1896.92</ele>
        <time>2021-07-21T09:39:29Z</time>
      </trkpt>
      <trkpt lat="44.4082" lon="6.81511">
        <ele>1897.29</ele>
        <time>2021-07-21T09:39:32Z</time>
      </trkpt>
      <trkpt lat="44.40814" lon="6.81522">
        <ele>1898.69</ele>
        <time>2021-07-21T09:39:35Z</time>
      </trkpt>
      <trkpt lat="44.40809" lon="6.81532">
        <ele>1899.95</ele>
        <time>2021-07-21T09:39:38Z</time>
      </trkpt>
      <trkpt lat="44.40807" lon="6.8154">
        <ele>1899.54</ele>
        <time>2021-07-21T09:39:40Z</time>
      </trkpt>
      <trkpt lat="44.40807" lon="6.81552">
        <ele>1897.06</ele>
        <time>2021-07-21T09:39:44Z</time>
      </trkpt>
      <trkpt lat="44.40806" lon="6.81562">
        <ele>1896.56</ele>
        <time>2021-07-21T09:39:47Z</time>
      </trkpt>
      <trkpt lat="44.40805" lon="6.81578">
        <ele>1896.5</ele>
        <time>2021-07-21T09:39:50Z</time>
      </trkpt>
      <trkpt lat="44.40805" lon="6.81586">
        <ele>1895.99</ele>
        <time>2021-07-21T09:39:52Z</time>
      </trkpt>
      <trkpt lat="44.40802" lon="6.81598">
        <ele>1896.01</ele>
        <time>2021-07-21T09:39:56Z</time>
      </trkpt>
      <trkpt lat="44.408" lon="6.8161">
        <ele>1895.34</ele>
        <time>2021-07-21T09:39:58Z</time>
      </trkpt>
      <trkpt lat="44.40798" lon="6.81618">
        <ele>1894.5</ele>
        <time>2021-07-21T09:40:01Z</time>
      </trkpt>
      <trkpt lat="44.40794" lon="6.81625">
        <ele>1894.58</ele>
        <time>2021-07-21T09:40:03Z</time>
      </trkpt>
      <trkpt lat="44.4079" lon="6.81633">
        <ele>1894.43</ele>
        <time>2021-07-21T09:40:06Z</time>
      </trkpt>
      <trkpt lat="44.40787" lon="6.81642">
        <ele>1893.45</ele>
        <time>2021-07-21T09:40:09Z</time>
      </trkpt>
      <trkpt lat="44.40784" lon="6.81649">
        <ele>1892.86</ele>
        <time>2021-07-21T09:40:12Z</time>
      </trkpt>
      <trkpt lat="44.40781" lon="6.81658">
        <ele>1892.12</ele>
        <time>2021-07-21T09:40:15Z</time>
      </trkpt>
      <trkpt lat="44.40778" lon="6.81667">
        <ele>1891.79</ele>
        <time>2021-07-21T09:40:17Z</time>
      </trkpt>
      <trkpt lat="44.40773" lon="6.81675">
        <ele>1893.73</ele>
        <time>2021-07-21T09:40:19Z</time>
      </trkpt>
      <trkpt lat="44.40771" lon="6.81683">
        <ele>1893.12</ele>
        <time>2021-07-21T09:40:22Z</time>
      </trkpt>
      <trkpt lat="44.40768" lon="6.81692">
        <ele>1892.67</ele>
        <time>2021-07-21T09:40:25Z</time>
      </trkpt>
      <trkpt lat="44.40763" lon="6.81703">
        <ele>1893.98</ele>
        <time>2021-07-21T09:40:28Z</time>
      </trkpt>
      <trkpt lat="44.40758" lon="6.81711">
        <ele>1896.14</ele>
        <time>2021-07-21T09:40:30Z</time>
      </trkpt>
      <trkpt lat="44.40755" lon="6.81722">
        <ele>1896.79</ele>
        <time>2021-07-21T09:40:32Z</time>
      </trkpt>
      <trkpt lat="44.40753" lon="6.8173">
        <ele>1896.75</ele>
        <time>2021-07-21T09:40:35Z</time>
      </trkpt>
      <trkpt lat="44.40751" lon="6.8174">
        <ele>1896.22</ele>
        <time>2021-07-21T09:40:37Z</time>
      </trkpt>
      <trkpt lat="44.4075" lon="6.81752">
        <ele>1894.86</ele>
        <time>2021-07-21T09:40:39Z</time>
      </trkpt>
      <trkpt lat="44.40748" lon="6.81767">
        <ele>1895.27</ele>
        <time>2021-07-21T09:40:43Z</time>
      </trkpt>
      <trkpt lat="44.40748" lon="6.81778">
        <ele>1894.43</ele>
        <time>2021-07-21T09:40:45Z</time>
      </trkpt>
      <trkpt lat="44.40749" lon="6.8179">
        <ele>1893.25</ele>
        <time>2021-07-21T09:40:47Z</time>
      </trkpt>
      <trkpt lat="44.4075" lon="6.818">
        <ele>1892.2</ele>
        <time>2021-07-21T09:40:50Z</time>
      </trkpt>
      <trkpt lat="44.40749" lon="6.8181">
        <ele>1892.13</ele>
        <time>2021-07-21T09:40:53Z</time>
      </trkpt>
      <trkpt lat="44.40748" lon="6.81821">
        <ele>1891.39</ele>
        <time>2021-07-21T09:40:57Z</time>
      </trkpt>
      <trkpt lat="44.40745" lon="6.8183">
        <ele>1891.65</ele>
        <time>2021-07-21T09:41:00Z</time>
      </trkpt>
      <trkpt lat="44.40741" lon="6.81836">
        <ele>1892.47</ele>
        <time>2021-07-21T09:41:02Z</time>
      </trkpt>
      <trkpt lat="44.40738" lon="6.81845">
        <ele>1892.32</ele>
        <time>2021-07-21T09:41:05Z</time>
      </trkpt>
      <trkpt lat="44.40734" lon="6.81857">
        <ele>1892.01</ele>
        <time>2021-07-21T09:41:08Z</time>
      </trkpt>
      <trkpt lat="44.40733" lon="6.81867">
        <ele>1890.65</ele>
        <time>2021-07-21T09:41:10Z</time>
      </trkpt>
      <trkpt lat="44.40731" lon="6.81876">
        <ele>1890.1</ele>
        <time>2021-07-21T09:41:12Z</time>
      </trkpt>
      <trkpt lat="44.40727" lon="6.81886">
        <ele>1891.08</ele>
        <time>2021-07-21T09:41:15Z</time>
      </trkpt>
      <trkpt lat="44.40724" lon="6.81894">
        <ele>1889.68</ele>
        <time>2021-07-21T09:41:18Z</time>
      </trkpt>
      <trkpt lat="44.4072" lon="6.81902">
        <ele>1886.47</ele>
        <time>2021-07-21T09:41:20Z</time>
      </trkpt>
      <trkpt lat="44.40714" lon="6.81911">
        <ele>1883.53</ele>
        <time>2021-07-21T09:41:24Z</time>
      </trkpt>
      <trkpt lat="44.40709" lon="6.81917">
        <ele>1883.05</ele>
        <time>2021-07-21T09:41:25Z</time>
      </trkpt>
      <trkpt lat="44.40702" lon="6.81926">
        <ele>1882.13</ele>
        <time>2021-07-21T09:41:28Z</time>
      </trkpt>
      <trkpt lat="44.40697" lon="6.81933">
        <ele>1880.79</ele>
        <time>2021-07-21T09:41:31Z</time>
      </trkpt>
      <trkpt lat="44.40691" lon="6.81939">
        <ele>1879.91</ele>
        <time>2021-07-21T09:41:32Z</time>
      </trkpt>
      <trkpt lat="44.40685" lon="6.81944">
        <ele>1879.29</ele>
        <time>2021-07-21T09:41:34Z</time>
      </trkpt>
      <trkpt lat="44.40679" lon="6.81951">
        <ele>1879.72</ele>
        <time>2021-07-21T09:41:37Z</time>
      </trkpt>
      <trkpt lat="44.40673" lon="6.81955">
        <ele>1880.96</ele>
        <time>2021-07-21T09:41:39Z</time>
      </trkpt>
      <trkpt lat="44.40665" lon="6.81961">
        <ele>1882.49</ele>
        <time>2021-07-21T09:41:42Z</time>
      </trkpt>
      <trkpt lat="44.40659" lon="6.81967">
        <ele>1882.98</ele>
        <time>2021-07-21T09:41:44Z</time>
      </trkpt>
      <trkpt lat="44.40654" lon="6.81973">
        <ele>1883.15</ele>
        <time>2021-07-21T09:41:46Z</time>
      </trkpt>
      <trkpt lat="44.40648" lon="6.81982">
        <ele>1884.36</ele>
        <time>2021-07-21T09:41:49Z</time>
      </trkpt>
      <trkpt lat="44.40643" lon="6.81989">
        <ele>1885.7</ele>
        <time>2021-07-21T09:41:51Z</time>
      </trkpt>
      <trkpt lat="44.4064" lon="6.81999">
        <ele>1886.6</ele>
        <time>2021-07-21T09:41:55Z</time>
      </trkpt>
      <trkpt lat="44.40633" lon="6.82008">
        <ele>1885.53</ele>
        <time>2021-07-21T09:41:58Z</time>
      </trkpt>
      <trkpt lat="44.40628" lon="6.82014">
        <ele>1885.22</ele>
        <time>2021-07-21T09:42:00Z</time>
      </trkpt>
      <trkpt lat="44.40623" lon="6.82024">
        <ele>1884.89</ele>
        <time>2021-07-21T09:42:03Z</time>
      </trkpt>
      <trkpt lat="44.40618" lon="6.82031">
        <ele>1885.32</ele>
        <time>2021-07-21T09:42:05Z</time>
      </trkpt>
      <trkpt lat="44.40612" lon="6.82044">
        <ele>1883.96</ele>
        <time>2021-07-21T09:42:09Z</time>
      </trkpt>
      <trkpt lat="44.40607" lon="6.82052">
        <ele>1884.46</ele>
        <time>2021-07-21T09:42:11Z</time>
      </trkpt>
      <trkpt lat="44.406" lon="6.82066">
        <ele>1884.79</ele>
        <time>2021-07-21T09:42:15Z</time>
      </trkpt>
      <trkpt lat="44.40595" lon="6.82071">
        <ele>1886.91</ele>
        <time>2021-07-21T09:42:17Z</time>
      </trkpt>
      <trkpt lat="44.40591" lon="6.82078">
        <ele>1888.15</ele>
        <time>2021-07-21T09:42:18Z</time>
      </trkpt>
      <trkpt lat="44.40584" lon="6.82087">
        <ele>1890.9</ele>
        <time>2021-07-21T09:42:21Z</time>
      </trkpt>
      <trkpt lat="44.40576" lon="6.82094">
        <ele>1891.6</ele>
        <time>2021-07-21T09:42:23Z</time>
      </trkpt>
      <trkpt lat="44.4057" lon="6.82103">
        <ele>1890.8</ele>
        <time>2021-07-21T09:42:27Z</time>
      </trkpt>
      <trkpt lat="44.40567" lon="6.8211">
        <ele>1889.64</ele>
        <time>2021-07-21T09:42:29Z</time>
      </trkpt>
      <trkpt lat="44.40563" lon="6.82116">
        <ele>1889.39</ele>
        <time>2021-07-21T09:42:30Z</time>
      </trkpt>
      <trkpt lat="44.40558" lon="6.82122">
        <ele>1889.78</ele>
        <time>2021-07-21T09:42:32Z</time>
      </trkpt>
      <trkpt lat="44.40554" lon="6.82128">
        <ele>1889.73</ele>
        <time>2021-07-21T09:42:34Z</time>
      </trkpt>
      <trkpt lat="44.40549" lon="6.82136">
        <ele>1889.72</ele>
        <time>2021-07-21T09:42:37Z</time>
      </trkpt>
      <trkpt lat="44.40544" lon="6.82146">
        <ele>1889.35</ele>
        <time>2021-07-21T09:42:40Z</time>
      </trkpt>
      <trkpt lat="44.40539" lon="6.82152">
        <ele>1890.29</ele>
        <time>2021-07-21T09:42:42Z</time>
      </trkpt>
      <trkpt lat="44.40533" lon="6.82156">
        <ele>1892.45</ele>
        <time>2021-07-21T09:42:44Z</time>
      </trkpt>
      <trkpt lat="44.40523" lon="6.82162">
        <ele>1895.09</ele>
        <time>2021-07-21T09:42:47Z</time>
      </trkpt>
      <trkpt lat="44.40517" lon="6.82167">
        <ele>1895.78</ele>
        <time>2021-07-21T09:42:49Z</time>
      </trkpt>
      <trkpt lat="44.4051" lon="6.82175">
        <ele>1896.25</ele>
        <time>2021-07-21T09:42:51Z</time>
      </trkpt>
      <trkpt lat="44.40505" lon="6.82188">
        <ele>1895.53</ele>
        <time>2021-07-21T09:42:54Z</time>
      </trkpt>
      <trkpt lat="44.40502" lon="6.82197">
        <ele>1895.44</ele>
        <time>2021-07-21T09:42:56Z</time>
      </trkpt>
      <trkpt lat="44.40501" lon="6.82206">
        <ele>1894.67</ele>
        <time>2021-07-21T09:42:58Z</time>
      </trkpt>
      <trkpt lat="44.40499" lon="6.82216">
        <ele>1894.17</ele>
        <time>2021-07-21T09:43:00Z</time>
      </trkpt>
      <trkpt lat="44.40495" lon="6.8223">
        <ele>1891.2</ele>
        <time>2021-07-21T09:43:03Z</time>
      </trkpt>
      <trkpt lat="44.40491" lon="6.82237">
        <ele>1890.05</ele>
        <time>2021-07-21T09:43:05Z</time>
      </trkpt>
      <trkpt lat="44.40488" lon="6.82244">
        <ele>1888.97</ele>
        <time>2021-07-21T09:43:06Z</time>
      </trkpt>
      <trkpt lat="44.40485" lon="6.82253">
        <ele>1888.05</ele>
        <time>2021-07-21T09:43:08Z</time>
      </trkpt>
      <trkpt lat="44.4048" lon="6.8226">
        <ele>1889.62</ele>
        <time>2021-07-21T09:43:10Z</time>
      </trkpt>
      <trkpt lat="44.40474" lon="6.82271">
        <ele>1891.15</ele>
        <time>2021-07-21T09:43:13Z</time>
      </trkpt>
      <trkpt lat="44.40471" lon="6.82279">
        <ele>1891.18</ele>
        <time>2021-07-21T09:43:15Z</time>
      </trkpt>
      <trkpt lat="44.40468" lon="6.82287">
        <ele>1890.63</ele>
        <time>2021-07-21T09:43:17Z</time>
      </trkpt>
      <trkpt lat="44.40466" lon="6.82297">
        <ele>1889.4</ele>
        <time>2021-07-21T09:43:19Z</time>
      </trkpt>
      <trkpt lat="44.40462" lon="6.82308">
        <ele>1888.68</ele>
        <time>2021-07-21T09:43:21Z</time>
      </trkpt>
      <trkpt lat="44.40458" lon="6.82321">
        <ele>1886.41</ele>
        <time>2021-07-21T09:43:24Z</time>
      </trkpt>
      <trkpt lat="44.40456" lon="6.82329">
        <ele>1884.76</ele>
        <time>2021-07-21T09:43:27Z</time>
      </trkpt>
      <trkpt lat="44.40451" lon="6.82335">
        <ele>1885.08</ele>
        <time>2021-07-21T09:43:28Z</time>
      </trkpt>
      <trkpt lat="44.40444" lon="6.82342">
        <ele>1886.63</ele>
        <time>2021-07-21T09:43:31Z</time>
      </trkpt>
      <trkpt lat="44.40439" lon="6.82348">
        <ele>1887.72</ele>
        <time>2021-07-21T09:43:33Z</time>
      </trkpt>
      <trkpt lat="44.40434" lon="6.82357">
        <ele>1888.52</ele>
        <time>2021-07-21T09:43:36Z</time>
      </trkpt>
      <trkpt lat="44.4043" lon="6.82366">
        <ele>1888.61</ele>
        <time>2021-07-21T09:43:38Z</time>
      </trkpt>
      <trkpt lat="44.40424" lon="6.82372">
        <ele>1889.93</ele>
        <time>2021-07-21T09:43:39Z</time>
      </trkpt>
      <trkpt lat="44.40418" lon="6.82377">
        <ele>1891.4</ele>
        <time>2021-07-21T09:43:41Z</time>
      </trkpt>
      <trkpt lat="44.40411" lon="6.82383">
        <ele>1893.21</ele>
        <time>2021-07-21T09:43:44Z</time>
      </trkpt>
      <trkpt lat="44.40405" lon="6.82392">
        <ele>1894.19</ele>
        <time>2021-07-21T09:43:47Z</time>
      </trkpt>
      <trkpt lat="44.40401" lon="6.82404">
        <ele>1893.7</ele>
        <time>2021-07-21T09:43:50Z</time>
      </trkpt>
      <trkpt lat="44.40397" lon="6.82412">
        <ele>1894.27</ele>
        <time>2021-07-21T09:43:52Z</time>
      </trkpt>
      <trkpt lat="44.40394" lon="6.82419">
        <ele>1894.67</ele>
        <time>2021-07-21T09:43:54Z</time>
      </trkpt>
      <trkpt lat="44.40388" lon="6.82431">
        <ele>1896.13</ele>
        <time>2021-07-21T09:43:58Z</time>
      </trkpt>
      <trkpt lat="44.40383" lon="6.82437">
        <ele>1896.34</ele>
        <time>2021-07-21T09:43:59Z</time>
      </trkpt>
      <trkpt lat="44.40377" lon="6.82444">
        <ele>1896.63</ele>
        <time>2021-07-21T09:44:01Z</time>
      </trkpt>
      <trkpt lat="44.40372" lon="6.8245">
        <ele>1896.22</ele>
        <time>2021-07-21T09:44:03Z</time>
      </trkpt>
      <trkpt lat="44.40368" lon="6.82456">
        <ele>1896.02</ele>
        <time>2021-07-21T09:44:05Z</time>
      </trkpt>
      <trkpt lat="44.4036" lon="6.82466">
        <ele>1896.95</ele>
        <time>2021-07-21T09:44:08Z</time>
      </trkpt>
      <trkpt lat="44.40352" lon="6.82473">
        <ele>1896.46</ele>
        <time>2021-07-21T09:44:10Z</time>
      </trkpt>
      <trkpt lat="44.40344" lon="6.8248">
        <ele>1895.27</ele>
        <time>2021-07-21T09:44:12Z</time>
      </trkpt>
      <trkpt lat="44.40338" lon="6.82484">
        <ele>1894.7</ele>
        <time>2021-07-21T09:44:14Z</time>
      </trkpt>
      <trkpt lat="44.40332" lon="6.82488">
        <ele>1893.89</ele>
        <time>2021-07-21T09:44:16Z</time>
      </trkpt>
      <trkpt lat="44.40325" lon="6.82494">
        <ele>1891.95</ele>
        <time>2021-07-21T09:44:19Z</time>
      </trkpt>
      <trkpt lat="44.40316" lon="6.82503">
        <ele>1889.38</ele>
        <time>2021-07-21T09:44:23Z</time>
      </trkpt>
      <trkpt lat="44.4031" lon="6.82507">
        <ele>1887.72</ele>
        <time>2021-07-21T09:44:25Z</time>
      </trkpt>
      <trkpt lat="44.40303" lon="6.8251">
        <ele>1886.17</ele>
        <time>2021-07-21T09:44:28Z</time>
      </trkpt>
      <trkpt lat="44.40297" lon="6.82509">
        <ele>1885.92</ele>
        <time>2021-07-21T09:44:31Z</time>
      </trkpt>
      <trkpt lat="44.4029" lon="6.82507">
        <ele>1885.67</ele>
        <time>2021-07-21T09:44:33Z</time>
      </trkpt>
      <trkpt lat="44.40285" lon="6.82502">
        <ele>1885.95</ele>
        <time>2021-07-21T09:44:36Z</time>
      </trkpt>
      <trkpt lat="44.40279" lon="6.82495">
        <ele>1885.42</ele>
        <time>2021-07-21T09:44:39Z</time>
      </trkpt>
      <trkpt lat="44.40272" lon="6.82488">
        <ele>1885.97</ele>
        <time>2021-07-21T09:44:42Z</time>
      </trkpt>
      <trkpt lat="44.40265" lon="6.82486">
        <ele>1886.65</ele>
        <time>2021-07-21T09:44:44Z</time>
      </trkpt>
      <trkpt lat="44.40256" lon="6.82489">
        <ele>1887.44</ele>
        <time>2021-07-21T09:44:47Z</time>
      </trkpt>
      <trkpt lat="44.40249" lon="6.82494">
        <ele>1888.21</ele>
        <time>2021-07-21T09:44:50Z</time>
      </trkpt>
      <trkpt lat="44.40243" lon="6.82498">
        <ele>1889.49</ele>
        <time>2021-07-21T09:44:51Z</time>
      </trkpt>
      <trkpt lat="44.40238" lon="6.82503">
        <ele>1890.34</ele>
        <time>2021-07-21T09:44:54Z</time>
      </trkpt>
      <trkpt lat="44.4023" lon="6.82511">
        <ele>1891.07</ele>
        <time>2021-07-21T09:44:57Z</time>
      </trkpt>
      <trkpt lat="44.40225" lon="6.82516">
        <ele>1891.27</ele>
        <time>2021-07-21T09:44:59Z</time>
      </trkpt>
      <trkpt lat="44.40219" lon="6.82521">
        <ele>1890.8</ele>
        <time>2021-07-21T09:45:01Z</time>
      </trkpt>
      <trkpt lat="44.40214" lon="6.82526">
        <ele>1889.92</ele>
        <time>2021-07-21T09:45:03Z</time>
      </trkpt>
      <trkpt lat="44.40205" lon="6.82534">
        <ele>1887.48</ele>
        <time>2021-07-21T09:45:06Z</time>
      </trkpt>
      <trkpt lat="44.40198" lon="6.82539">
        <ele>1885.29</ele>
        <time>2021-07-21T09:45:08Z</time>
      </trkpt>
      <trkpt lat="44.40191" lon="6.82545">
        <ele>1882.78</ele>
        <time>2021-07-21T09:45:11Z</time>
      </trkpt>
      <trkpt lat="44.40183" lon="6.8255">
        <ele>1881.16</ele>
        <time>2021-07-21T09:45:13Z</time>
      </trkpt>
      <trkpt lat="44.40174" lon="6.82555">
        <ele>1879.89</ele>
        <time>2021-07-21T09:45:15Z</time>
      </trkpt>
      <trkpt lat="44.40168" lon="6.82559">
        <ele>1878.95</ele>
        <time>2021-07-21T09:45:17Z</time>
      </trkpt>
      <trkpt lat="44.40162" lon="6.82564">
        <ele>1878.01</ele>
        <time>2021-07-21T09:45:19Z</time>
      </trkpt>
      <trkpt lat="44.40155" lon="6.82567">
        <ele>1877.89</ele>
        <time>2021-07-21T09:45:22Z</time>
      </trkpt>
      <trkpt lat="44.40149" lon="6.82571">
        <ele>1877.53</ele>
        <time>2021-07-21T09:45:25Z</time>
      </trkpt>
      <trkpt lat="44.40141" lon="6.82574">
        <ele>1877.76</ele>
        <time>2021-07-21T09:45:28Z</time>
      </trkpt>
      <trkpt lat="44.40135" lon="6.82576">
        <ele>1878.98</ele>
        <time>2021-07-21T09:45:30Z</time>
      </trkpt>
      <trkpt lat="44.40129" lon="6.82579">
        <ele>1880.5</ele>
        <time>2021-07-21T09:45:32Z</time>
      </trkpt>
      <trkpt lat="44.40123" lon="6.82581">
        <ele>1882.22</ele>
        <time>2021-07-21T09:45:34Z</time>
      </trkpt>
      <trkpt lat="44.40117" lon="6.82582">
        <ele>1884.17</ele>
        <time>2021-07-21T09:45:36Z</time>
      </trkpt>
      <trkpt lat="44.4011" lon="6.82584">
        <ele>1886.07</ele>
        <time>2021-07-21T09:45:38Z</time>
      </trkpt>
      <trkpt lat="44.40103" lon="6.82587">
        <ele>1886.87</ele>
        <time>2021-07-21T09:45:41Z</time>
      </trkpt>
      <trkpt lat="44.40096" lon="6.82591">
        <ele>1887.48</ele>
        <time>2021-07-21T09:45:43Z</time>
      </trkpt>
      <trkpt lat="44.4009" lon="6.82595">
        <ele>1887.94</ele>
        <time>2021-07-21T09:45:44Z</time>
      </trkpt>
      <trkpt lat="44.40084" lon="6.826">
        <ele>1888.24</ele>
        <time>2021-07-21T09:45:47Z</time>
      </trkpt>
      <trkpt lat="44.40075" lon="6.82605">
        <ele>1889.16</ele>
        <time>2021-07-21T09:45:51Z</time>
      </trkpt>
      <trkpt lat="44.40067" lon="6.82607">
        <ele>1890.66</ele>
        <time>2021-07-21T09:45:54Z</time>
      </trkpt>
      <trkpt lat="44.4006" lon="6.8261">
        <ele>1891.99</ele>
        <time>2021-07-21T09:45:57Z</time>
      </trkpt>
      <trkpt lat="44.40051" lon="6.82611">
        <ele>1893.67</ele>
        <time>2021-07-21T09:46:02Z</time>
      </trkpt>
      <trkpt lat="44.40044" lon="6.8261">
        <ele>1894.94</ele>
        <time>2021-07-21T09:46:04Z</time>
      </trkpt>
      <trkpt lat="44.40037" lon="6.8261">
        <ele>1896.07</ele>
        <time>2021-07-21T09:46:07Z</time>
      </trkpt>
      <trkpt lat="44.40029" lon="6.82611">
        <ele>1896.88</ele>
        <time>2021-07-21T09:46:09Z</time>
      </trkpt>
      <trkpt lat="44.40024" lon="6.82615">
        <ele>1895.47</ele>
        <time>2021-07-21T09:46:12Z</time>
      </trkpt>
      <trkpt lat="44.40016" lon="6.82621">
        <ele>1893.44</ele>
        <time>2021-07-21T09:46:17Z</time>
      </trkpt>
      <trkpt lat="44.40011" lon="6.82624">
        <ele>1892.6</ele>
        <time>2021-07-21T09:46:18Z</time>
      </trkpt>
      <trkpt lat="44.40001" lon="6.82628">
        <ele>1891.97</ele>
        <time>2021-07-21T09:46:21Z</time>
      </trkpt>
      <trkpt lat="44.39995" lon="6.82629">
        <ele>1893.26</ele>
        <time>2021-07-21T09:46:23Z</time>
      </trkpt>
      <trkpt lat="44.39986" lon="6.82631">
        <ele>1895.15</ele>
        <time>2021-07-21T09:46:26Z</time>
      </trkpt>
      <trkpt lat="44.3998" lon="6.82632">
        <ele>1896.52</ele>
        <time>2021-07-21T09:46:28Z</time>
      </trkpt>
      <trkpt lat="44.39973" lon="6.82635">
        <ele>1897</ele>
        <time>2021-07-21T09:46:30Z</time>
      </trkpt>
      <trkpt lat="44.39964" lon="6.82639">
        <ele>1896.41</ele>
        <time>2021-07-21T09:46:33Z</time>
      </trkpt>
      <trkpt lat="44.39956" lon="6.82643">
        <ele>1895.08</ele>
        <time>2021-07-21T09:46:36Z</time>
      </trkpt>
      <trkpt lat="44.3995" lon="6.82646">
        <ele>1893.98</ele>
        <time>2021-07-21T09:46:37Z</time>
      </trkpt>
      <trkpt lat="44.39942" lon="6.82647">
        <ele>1894.85</ele>
        <time>2021-07-21T09:46:39Z</time>
      </trkpt>
      <trkpt lat="44.39935" lon="6.82649">
        <ele>1895.47</ele>
        <time>2021-07-21T09:46:41Z</time>
      </trkpt>
      <trkpt lat="44.39927" lon="6.8265">
        <ele>1897.15</ele>
        <time>2021-07-21T09:46:44Z</time>
      </trkpt>
      <trkpt lat="44.3992" lon="6.82651">
        <ele>1898.59</ele>
        <time>2021-07-21T09:46:46Z</time>
      </trkpt>
      <trkpt lat="44.39914" lon="6.82653">
        <ele>1898.9</ele>
        <time>2021-07-21T09:46:47Z</time>
      </trkpt>
      <trkpt lat="44.39907" lon="6.82655">
        <ele>1899.19</ele>
        <time>2021-07-21T09:46:50Z</time>
      </trkpt>
      <trkpt lat="44.399" lon="6.82658">
        <ele>1899.17</ele>
        <time>2021-07-21T09:46:52Z</time>
      </trkpt>
      <trkpt lat="44.39894" lon="6.82661">
        <ele>1899.16</ele>
        <time>2021-07-21T09:46:54Z</time>
      </trkpt>
      <trkpt lat="44.39885" lon="6.82665">
        <ele>1899.38</ele>
        <time>2021-07-21T09:46:57Z</time>
      </trkpt>
      <trkpt lat="44.39879" lon="6.82667">
        <ele>1899.58</ele>
        <time>2021-07-21T09:46:59Z</time>
      </trkpt>
      <trkpt lat="44.39872" lon="6.82671">
        <ele>1898.48</ele>
        <time>2021-07-21T09:47:01Z</time>
      </trkpt>
      <trkpt lat="44.39866" lon="6.82673">
        <ele>1898.43</ele>
        <time>2021-07-21T09:47:03Z</time>
      </trkpt>
      <trkpt lat="44.39859" lon="6.82675">
        <ele>1898.72</ele>
        <time>2021-07-21T09:47:06Z</time>
      </trkpt>
      <trkpt lat="44.39853" lon="6.82677">
        <ele>1899.13</ele>
        <time>2021-07-21T09:47:08Z</time>
      </trkpt>
      <trkpt lat="44.39847" lon="6.82679">
        <ele>1899.62</ele>
        <time>2021-07-21T09:47:10Z</time>
      </trkpt>
      <trkpt lat="44.39839" lon="6.82683">
        <ele>1899.77</ele>
        <time>2021-07-21T09:47:14Z</time>
      </trkpt>
      <trkpt lat="44.39833" lon="6.82689">
        <ele>1898.67</ele>
        <time>2021-07-21T09:47:17Z</time>
      </trkpt>
      <trkpt lat="44.39827" lon="6.82692">
        <ele>1899.4</ele>
        <time>2021-07-21T09:47:19Z</time>
      </trkpt>
      <trkpt lat="44.3982" lon="6.82697">
        <ele>1900.11</ele>
        <time>2021-07-21T09:47:22Z</time>
      </trkpt>
      <trkpt lat="44.39814" lon="6.82705">
        <ele>1900.04</ele>
        <time>2021-07-21T09:47:24Z</time>
      </trkpt>
      <trkpt lat="44.39809" lon="6.8271">
        <ele>1900.35</ele>
        <time>2021-07-21T09:47:26Z</time>
      </trkpt>
      <trkpt lat="44.39805" lon="6.82717">
        <ele>1899.56</ele>
        <time>2021-07-21T09:47:28Z</time>
      </trkpt>
      <trkpt lat="44.39799" lon="6.82725">
        <ele>1897.4</ele>
        <time>2021-07-21T09:47:30Z</time>
      </trkpt>
      <trkpt lat="44.39794" lon="6.82732">
        <ele>1895.11</ele>
        <time>2021-07-21T09:47:32Z</time>
      </trkpt>
      <trkpt lat="44.39789" lon="6.82737">
        <ele>1893.66</ele>
        <time>2021-07-21T09:47:35Z</time>
      </trkpt>
      <trkpt lat="44.39781" lon="6.82741">
        <ele>1892.93</ele>
        <time>2021-07-21T09:47:38Z</time>
      </trkpt>
      <trkpt lat="44.39774" lon="6.82743">
        <ele>1892.59</ele>
        <time>2021-07-21T09:47:40Z</time>
      </trkpt>
      <trkpt lat="44.39767" lon="6.82745">
        <ele>1891.94</ele>
        <time>2021-07-21T09:47:43Z</time>
      </trkpt>
      <trkpt lat="44.39761" lon="6.82746">
        <ele>1891.61</ele>
        <time>2021-07-21T09:47:46Z</time>
      </trkpt>
      <trkpt lat="44.39755" lon="6.8275">
        <ele>1890</ele>
        <time>2021-07-21T09:47:48Z</time>
      </trkpt>
      <trkpt lat="44.39748" lon="6.82758">
        <ele>1887.75</ele>
        <time>2021-07-21T09:47:52Z</time>
      </trkpt>
      <trkpt lat="44.39743" lon="6.82766">
        <ele>1886.28</ele>
        <time>2021-07-21T09:47:55Z</time>
      </trkpt>
      <trkpt lat="44.39735" lon="6.82776">
        <ele>1883.76</ele>
        <time>2021-07-21T09:48:00Z</time>
      </trkpt>
      <trkpt lat="44.39728" lon="6.8278">
        <ele>1883.7</ele>
        <time>2021-07-21T09:48:02Z</time>
      </trkpt>
      <trkpt lat="44.39721" lon="6.82784">
        <ele>1884.04</ele>
        <time>2021-07-21T09:48:05Z</time>
      </trkpt>
      <trkpt lat="44.39715" lon="6.82794">
        <ele>1881.89</ele>
        <time>2021-07-21T09:48:09Z</time>
      </trkpt>
      <trkpt lat="44.39707" lon="6.82802">
        <ele>1880.19</ele>
        <time>2021-07-21T09:48:12Z</time>
      </trkpt>
      <trkpt lat="44.39696" lon="6.82807">
        <ele>1879.9</ele>
        <time>2021-07-21T09:48:15Z</time>
      </trkpt>
      <trkpt lat="44.39687" lon="6.82811">
        <ele>1882.68</ele>
        <time>2021-07-21T09:48:17Z</time>
      </trkpt>
      <trkpt lat="44.39681" lon="6.82813">
        <ele>1885.01</ele>
        <time>2021-07-21T09:48:20Z</time>
      </trkpt>
      <trkpt lat="44.39674" lon="6.82814">
        <ele>1888.41</ele>
        <time>2021-07-21T09:48:22Z</time>
      </trkpt>
      <trkpt lat="44.39667" lon="6.82815">
        <ele>1891.65</ele>
        <time>2021-07-21T09:48:25Z</time>
      </trkpt>
      <trkpt lat="44.39657" lon="6.82821">
        <ele>1894.47</ele>
        <time>2021-07-21T09:48:29Z</time>
      </trkpt>
      <trkpt lat="44.39649" lon="6.82827">
        <ele>1895.61</ele>
        <time>2021-07-21T09:48:32Z</time>
      </trkpt>
      <trkpt lat="44.39641" lon="6.82831">
        <ele>1898.42</ele>
        <time>2021-07-21T09:48:36Z</time>
      </trkpt>
      <trkpt lat="44.39634" lon="6.82841">
        <ele>1894.16</ele>
        <time>2021-07-21T09:48:40Z</time>
      </trkpt>
      <trkpt lat="44.39625" lon="6.8285">
        <ele>1892.5</ele>
        <time>2021-07-21T09:48:44Z</time>
      </trkpt>
      <trkpt lat="44.39619" lon="6.82863">
        <ele>1887.08</ele>
        <time>2021-07-21T09:48:50Z</time>
      </trkpt>
      <trkpt lat="44.3961" lon="6.82878">
        <ele>1884.94</ele>
        <time>2021-07-21T09:48:55Z</time>
      </trkpt>
      <trkpt lat="44.39602" lon="6.82885">
        <ele>1885.77</ele>
        <time>2021-07-21T09:48:57Z</time>
      </trkpt>
      <trkpt lat="44.39588" lon="6.82893">
        <ele>1891.28</ele>
        <time>2021-07-21T09:49:02Z</time>
      </trkpt>
      <trkpt lat="44.39577" lon="6.829">
        <ele>1895.6</ele>
        <time>2021-07-21T09:49:04Z</time>
      </trkpt>
      <trkpt lat="44.39568" lon="6.82907">
        <ele>1896.78</ele>
        <time>2021-07-21T09:49:06Z</time>
      </trkpt>
      <trkpt lat="44.39559" lon="6.82915">
        <ele>1896.03</ele>
        <time>2021-07-21T09:49:08Z</time>
      </trkpt>
      <trkpt lat="44.39552" lon="6.8292">
        <ele>1896.96</ele>
        <time>2021-07-21T09:49:10Z</time>
      </trkpt>
      <trkpt lat="44.39547" lon="6.82926">
        <ele>1897.73</ele>
        <time>2021-07-21T09:49:11Z</time>
      </trkpt>
      <trkpt lat="44.39535" lon="6.82933">
        <ele>1899.92</ele>
        <time>2021-07-21T09:49:14Z</time>
      </trkpt>
      <trkpt lat="44.3953" lon="6.82936">
        <ele>1900.41</ele>
        <time>2021-07-21T09:49:15Z</time>
      </trkpt>
      <trkpt lat="44.39524" lon="6.82938">
        <ele>1900.18</ele>
        <time>2021-07-21T09:49:16Z</time>
      </trkpt>
      <trkpt lat="44.39518" lon="6.8294">
        <ele>1899.25</ele>
        <time>2021-07-21T09:49:18Z</time>
      </trkpt>
      <trkpt lat="44.3951" lon="6.82942">
        <ele>1898.24</ele>
        <time>2021-07-21T09:49:20Z</time>
      </trkpt>
      <trkpt lat="44.39503" lon="6.82945">
        <ele>1896.83</ele>
        <time>2021-07-21T09:49:22Z</time>
      </trkpt>
      <trkpt lat="44.39494" lon="6.82948">
        <ele>1895.75</ele>
        <time>2021-07-21T09:49:24Z</time>
      </trkpt>
      <trkpt lat="44.39487" lon="6.82953">
        <ele>1894.2</ele>
        <time>2021-07-21T09:49:27Z</time>
      </trkpt>
      <trkpt lat="44.39479" lon="6.82957">
        <ele>1893.55</ele>
        <time>2021-07-21T09:49:29Z</time>
      </trkpt>
      <trkpt lat="44.39471" lon="6.8296">
        <ele>1893.48</ele>
        <time>2021-07-21T09:49:31Z</time>
      </trkpt>
      <trkpt lat="44.39463" lon="6.82966">
        <ele>1892.2</ele>
        <time>2021-07-21T09:49:34Z</time>
      </trkpt>
      <trkpt lat="44.39455" lon="6.82972">
        <ele>1891.54</ele>
        <time>2021-07-21T09:49:36Z</time>
      </trkpt>
      <trkpt lat="44.39449" lon="6.82975">
        <ele>1891.21</ele>
        <time>2021-07-21T09:49:38Z</time>
      </trkpt>
      <trkpt lat="44.39443" lon="6.82978">
        <ele>1890.5</ele>
        <time>2021-07-21T09:49:40Z</time>
      </trkpt>
      <trkpt lat="44.39435" lon="6.82983">
        <ele>1887.37</ele>
        <time>2021-07-21T09:49:43Z</time>
      </trkpt>
      <trkpt lat="44.39429" lon="6.82986">
        <ele>1885.32</ele>
        <time>2021-07-21T09:49:45Z</time>
      </trkpt>
      <trkpt lat="44.39422" lon="6.8299">
        <ele>1882.73</ele>
        <time>2021-07-21T09:49:47Z</time>
      </trkpt>
      <trkpt lat="44.39413" lon="6.82994">
        <ele>1880.95</ele>
        <time>2021-07-21T09:49:51Z</time>
      </trkpt>
      <trkpt lat="44.39407" lon="6.82995">
        <ele>1881.53</ele>
        <time>2021-07-21T09:49:53Z</time>
      </trkpt>
      <trkpt lat="44.39401" lon="6.82996">
        <ele>1882.16</ele>
        <time>2021-07-21T09:49:56Z</time>
      </trkpt>
      <trkpt lat="44.39395" lon="6.82999">
        <ele>1882.21</ele>
        <time>2021-07-21T09:49:58Z</time>
      </trkpt>
      <trkpt lat="44.39388" lon="6.83003">
        <ele>1882.33</ele>
        <time>2021-07-21T09:50:02Z</time>
      </trkpt>
      <trkpt lat="44.39381" lon="6.83005">
        <ele>1885.62</ele>
        <time>2021-07-21T09:50:04Z</time>
      </trkpt>
      <trkpt lat="44.39375" lon="6.83008">
        <ele>1887.98</ele>
        <time>2021-07-21T09:50:07Z</time>
      </trkpt>
      <trkpt lat="44.39369" lon="6.83011">
        <ele>1890.38</ele>
        <time>2021-07-21T09:50:11Z</time>
      </trkpt>
      <trkpt lat="44.39362" lon="6.83013">
        <ele>1893.79</ele>
        <time>2021-07-21T09:50:15Z</time>
      </trkpt>
      <trkpt lat="44.39355" lon="6.83017">
        <ele>1894.33</ele>
        <time>2021-07-21T09:50:18Z</time>
      </trkpt>
      <trkpt lat="44.39348" lon="6.8302">
        <ele>1894.97</ele>
        <time>2021-07-21T09:50:21Z</time>
      </trkpt>
      <trkpt lat="44.39342" lon="6.83022">
        <ele>1895.75</ele>
        <time>2021-07-21T09:50:24Z</time>
      </trkpt>
      <trkpt lat="44.39336" lon="6.83024">
        <ele>1896.57</ele>
        <time>2021-07-21T09:50:26Z</time>
      </trkpt>
      <trkpt lat="44.3933" lon="6.83026">
        <ele>1897.68</ele>
        <time>2021-07-21T09:50:29Z</time>
      </trkpt>
      <trkpt lat="44.3932" lon="6.83029">
        <ele>1899.9</ele>
        <time>2021-07-21T09:50:32Z</time>
      </trkpt>
      <trkpt lat="44.39314" lon="6.83032">
        <ele>1900.85</ele>
        <time>2021-07-21T09:50:33Z</time>
      </trkpt>
      <trkpt lat="44.39309" lon="6.83035">
        <ele>1901.51</ele>
        <time>2021-07-21T09:50:35Z</time>
      </trkpt>
      <trkpt lat="44.39301" lon="6.83039">
        <ele>1902.08</ele>
        <time>2021-07-21T09:50:39Z</time>
      </trkpt>
      <trkpt lat="44.39295" lon="6.83045">
        <ele>1900.76</ele>
        <time>2021-07-21T09:50:41Z</time>
      </trkpt>
      <trkpt lat="44.39288" lon="6.83049">
        <ele>1899.98</ele>
        <time>2021-07-21T09:50:44Z</time>
      </trkpt>
      <trkpt lat="44.3928" lon="6.83055">
        <ele>1898.09</ele>
        <time>2021-07-21T09:50:47Z</time>
      </trkpt>
      <trkpt lat="44.39274" lon="6.83061">
        <ele>1896.38</ele>
        <time>2021-07-21T09:50:49Z</time>
      </trkpt>
      <trkpt lat="44.39267" lon="6.83067">
        <ele>1894.9</ele>
        <time>2021-07-21T09:50:51Z</time>
      </trkpt>
      <trkpt lat="44.39261" lon="6.8307">
        <ele>1894.44</ele>
        <time>2021-07-21T09:50:53Z</time>
      </trkpt>
      <trkpt lat="44.39255" lon="6.83074">
        <ele>1893.32</ele>
        <time>2021-07-21T09:50:55Z</time>
      </trkpt>
      <trkpt lat="44.39246" lon="6.83076">
        <ele>1893.5</ele>
        <time>2021-07-21T09:50:59Z</time>
      </trkpt>
      <trkpt lat="44.3924" lon="6.83078">
        <ele>1893.25</ele>
        <time>2021-07-21T09:51:01Z</time>
      </trkpt>
      <trkpt lat="44.39231" lon="6.8308">
        <ele>1893.45</ele>
        <time>2021-07-21T09:51:05Z</time>
      </trkpt>
      <trkpt lat="44.39224" lon="6.83079">
        <ele>1894.94</ele>
        <time>2021-07-21T09:51:07Z</time>
      </trkpt>
      <trkpt lat="44.39218" lon="6.83078">
        <ele>1896.08</ele>
        <time>2021-07-21T09:51:09Z</time>
      </trkpt>
      <trkpt lat="44.39211" lon="6.83076">
        <ele>1897.82</ele>
        <time>2021-07-21T09:51:11Z</time>
      </trkpt>
      <trkpt lat="44.39204" lon="6.83075">
        <ele>1899.1</ele>
        <time>2021-07-21T09:51:13Z</time>
      </trkpt>
      <trkpt lat="44.39196" lon="6.83074">
        <ele>1900.54</ele>
        <time>2021-07-21T09:51:16Z</time>
      </trkpt>
      <trkpt lat="44.39186" lon="6.83075">
        <ele>1901.04</ele>
        <time>2021-07-21T09:51:19Z</time>
      </trkpt>
      <trkpt lat="44.39179" lon="6.83077">
        <ele>1900.72</ele>
        <time>2021-07-21T09:51:20Z</time>
      </trkpt>
      <trkpt lat="44.3917" lon="6.83079">
        <ele>1900.76</ele>
        <time>2021-07-21T09:51:23Z</time>
      </trkpt>
      <trkpt lat="44.39162" lon="6.83081">
        <ele>1900.74</ele>
        <time>2021-07-21T09:51:25Z</time>
      </trkpt>
      <trkpt lat="44.39152" lon="6.83086">
        <ele>1899.48</ele>
        <time>2021-07-21T09:51:27Z</time>
      </trkpt>
      <trkpt lat="44.39144" lon="6.83089">
        <ele>1899.04</ele>
        <time>2021-07-21T09:51:30Z</time>
      </trkpt>
      <trkpt lat="44.39135" lon="6.83093">
        <ele>1898.31</ele>
        <time>2021-07-21T09:51:32Z</time>
      </trkpt>
      <trkpt lat="44.39125" lon="6.83097">
        <ele>1898.32</ele>
        <time>2021-07-21T09:51:35Z</time>
      </trkpt>
      <trkpt lat="44.39117" lon="6.831">
        <ele>1898.9</ele>
        <time>2021-07-21T09:51:37Z</time>
      </trkpt>
      <trkpt lat="44.3911" lon="6.83101">
        <ele>1899.99</ele>
        <time>2021-07-21T09:51:39Z</time>
      </trkpt>
      <trkpt lat="44.39098" lon="6.83102">
        <ele>1901.51</ele>
        <time>2021-07-21T09:51:42Z</time>
      </trkpt>
      <trkpt lat="44.39088" lon="6.83103">
        <ele>1902.58</ele>
        <time>2021-07-21T09:51:44Z</time>
      </trkpt>
      <trkpt lat="44.39081" lon="6.83106">
        <ele>1902.95</ele>
        <time>2021-07-21T09:51:46Z</time>
      </trkpt>
      <trkpt lat="44.39072" lon="6.8311">
        <ele>1905.25</ele>
        <time>2021-07-21T09:51:49Z</time>
      </trkpt>
      <trkpt lat="44.39063" lon="6.83115">
        <ele>1908.06</ele>
        <time>2021-07-21T09:51:51Z</time>
      </trkpt>
      <trkpt lat="44.39057" lon="6.83118">
        <ele>1909.93</ele>
        <time>2021-07-21T09:51:53Z</time>
      </trkpt>
      <trkpt lat="44.39051" lon="6.83123">
        <ele>1909.81</ele>
        <time>2021-07-21T09:51:54Z</time>
      </trkpt>
      <trkpt lat="44.39041" lon="6.83131">
        <ele>1909.35</ele>
        <time>2021-07-21T09:51:57Z</time>
      </trkpt>
      <trkpt lat="44.39035" lon="6.83135">
        <ele>1909.49</ele>
        <time>2021-07-21T09:51:59Z</time>
      </trkpt>
      <trkpt lat="44.39028" lon="6.83141">
        <ele>1909.81</ele>
        <time>2021-07-21T09:52:01Z</time>
      </trkpt>
      <trkpt lat="44.39023" lon="6.83147">
        <ele>1909.83</ele>
        <time>2021-07-21T09:52:03Z</time>
      </trkpt>
      <trkpt lat="44.39017" lon="6.83156">
        <ele>1909.45</ele>
        <time>2021-07-21T09:52:07Z</time>
      </trkpt>
      <trkpt lat="44.39011" lon="6.83163">
        <ele>1909.03</ele>
        <time>2021-07-21T09:52:09Z</time>
      </trkpt>
      <trkpt lat="44.39006" lon="6.8317">
        <ele>1908.02</ele>
        <time>2021-07-21T09:52:11Z</time>
      </trkpt>
      <trkpt lat="44.38998" lon="6.83179">
        <ele>1906.1</ele>
        <time>2021-07-21T09:52:14Z</time>
      </trkpt>
      <trkpt lat="44.38993" lon="6.83185">
        <ele>1905.22</ele>
        <time>2021-07-21T09:52:15Z</time>
      </trkpt>
      <trkpt lat="44.38987" lon="6.8319">
        <ele>1904.84</ele>
        <time>2021-07-21T09:52:17Z</time>
      </trkpt>
      <trkpt lat="44.38981" lon="6.83194">
        <ele>1904.83</ele>
        <time>2021-07-21T09:52:19Z</time>
      </trkpt>
      <trkpt lat="44.38973" lon="6.83196">
        <ele>1905.61</ele>
        <time>2021-07-21T09:52:21Z</time>
      </trkpt>
      <trkpt lat="44.38967" lon="6.83194">
        <ele>1906.27</ele>
        <time>2021-07-21T09:52:23Z</time>
      </trkpt>
      <trkpt lat="44.38956" lon="6.83192">
        <ele>1907.08</ele>
        <time>2021-07-21T09:52:26Z</time>
      </trkpt>
      <trkpt lat="44.38948" lon="6.83193">
        <ele>1907.18</ele>
        <time>2021-07-21T09:52:28Z</time>
      </trkpt>
      <trkpt lat="44.38939" lon="6.83196">
        <ele>1906.37</ele>
        <time>2021-07-21T09:52:30Z</time>
      </trkpt>
      <trkpt lat="44.38932" lon="6.83197">
        <ele>1905.69</ele>
        <time>2021-07-21T09:52:32Z</time>
      </trkpt>
      <trkpt lat="44.38923" lon="6.83198">
        <ele>1904.85</ele>
        <time>2021-07-21T09:52:34Z</time>
      </trkpt>
      <trkpt lat="44.38917" lon="6.83199">
        <ele>1904.21</ele>
        <time>2021-07-21T09:52:36Z</time>
      </trkpt>
      <trkpt lat="44.38909" lon="6.83202">
        <ele>1903.72</ele>
        <time>2021-07-21T09:52:38Z</time>
      </trkpt>
      <trkpt lat="44.38903" lon="6.83204">
        <ele>1903.45</ele>
        <time>2021-07-21T09:52:40Z</time>
      </trkpt>
      <trkpt lat="44.38894" lon="6.83206">
        <ele>1903.26</ele>
        <time>2021-07-21T09:52:43Z</time>
      </trkpt>
      <trkpt lat="44.38884" lon="6.83207">
        <ele>1903.91</ele>
        <time>2021-07-21T09:52:46Z</time>
      </trkpt>
      <trkpt lat="44.38877" lon="6.83208">
        <ele>1904.77</ele>
        <time>2021-07-21T09:52:47Z</time>
      </trkpt>
      <trkpt lat="44.38871" lon="6.8321">
        <ele>1905.26</ele>
        <time>2021-07-21T09:52:49Z</time>
      </trkpt>
      <trkpt lat="44.38864" lon="6.83211">
        <ele>1906.03</ele>
        <time>2021-07-21T09:52:51Z</time>
      </trkpt>
      <trkpt lat="44.38857" lon="6.83212">
        <ele>1906.24</ele>
        <time>2021-07-21T09:52:53Z</time>
      </trkpt>
      <trkpt lat="44.38851" lon="6.83213">
        <ele>1905.99</ele>
        <time>2021-07-21T09:52:55Z</time>
      </trkpt>
      <trkpt lat="44.38844" lon="6.83214">
        <ele>1905.64</ele>
        <time>2021-07-21T09:52:57Z</time>
      </trkpt>
      <trkpt lat="44.38837" lon="6.83217">
        <ele>1904.37</ele>
        <time>2021-07-21T09:53:00Z</time>
      </trkpt>
      <trkpt lat="44.38831" lon="6.83219">
        <ele>1903.49</ele>
        <time>2021-07-21T09:53:02Z</time>
      </trkpt>
      <trkpt lat="44.38823" lon="6.83221">
        <ele>1902.92</ele>
        <time>2021-07-21T09:53:04Z</time>
      </trkpt>
      <trkpt lat="44.38813" lon="6.83222">
        <ele>1902.83</ele>
        <time>2021-07-21T09:53:07Z</time>
      </trkpt>
      <trkpt lat="44.38804" lon="6.83224">
        <ele>1902.46</ele>
        <time>2021-07-21T09:53:09Z</time>
      </trkpt>
      <trkpt lat="44.38797" lon="6.83226">
        <ele>1902.17</ele>
        <time>2021-07-21T09:53:12Z</time>
      </trkpt>
      <trkpt lat="44.38788" lon="6.83228">
        <ele>1901.92</ele>
        <time>2021-07-21T09:53:16Z</time>
      </trkpt>
      <trkpt lat="44.38781" lon="6.83229">
        <ele>1901.9</ele>
        <time>2021-07-21T09:53:18Z</time>
      </trkpt>
      <trkpt lat="44.38774" lon="6.83229">
        <ele>1901.63</ele>
        <time>2021-07-21T09:53:22Z</time>
      </trkpt>
      <trkpt lat="44.3877" lon="6.83234">
        <ele>1899.15</ele>
        <time>2021-07-21T09:53:27Z</time>
      </trkpt>
      <trkpt lat="44.38767" lon="6.83236">
        <ele>1898.07</ele>
        <time>2021-07-21T09:53:30Z</time>
      </trkpt>
      <trkpt lat="44.38764" lon="6.8324">
        <ele>1896.29</ele>
        <time>2021-07-21T09:53:32Z</time>
      </trkpt>
      <trkpt lat="44.38758" lon="6.83245">
        <ele>1894.06</ele>
        <time>2021-07-21T09:53:36Z</time>
      </trkpt>
      <trkpt lat="44.38752" lon="6.83249">
        <ele>1892.4</ele>
        <time>2021-07-21T09:53:38Z</time>
      </trkpt>
      <trkpt lat="44.3875" lon="6.83252">
        <ele>1891.35</ele>
        <time>2021-07-21T09:53:43Z</time>
      </trkpt>
      <trkpt lat="44.38747" lon="6.83251">
        <ele>1891.57</ele>
        <time>2021-07-21T09:53:56Z</time>
      </trkpt>
      <trkpt lat="44.38745" lon="6.83248">
        <ele>1892.44</ele>
        <time>2021-07-21T09:53:59Z</time>
      </trkpt>
      <trkpt lat="44.38742" lon="6.83246">
        <ele>1892.93</ele>
        <time>2021-07-21T09:54:10Z</time>
      </trkpt>
      <trkpt lat="44.38739" lon="6.83248">
        <ele>1892.19</ele>
        <time>2021-07-21T09:54:14Z</time>
      </trkpt>
      <trkpt lat="44.38737" lon="6.83247">
        <ele>1892.4</ele>
        <time>2021-07-21T09:54:38Z</time>
      </trkpt>
      <trkpt lat="44.38735" lon="6.83251">
        <ele>1891.14</ele>
        <time>2021-07-21T09:55:10Z</time>
      </trkpt>
      <trkpt lat="44.38737" lon="6.83255">
        <ele>1889.91</ele>
        <time>2021-07-21T09:55:14Z</time>
      </trkpt>
      <trkpt lat="44.38737" lon="6.83259">
        <ele>1888.62</ele>
        <time>2021-07-21T09:55:17Z</time>
      </trkpt>
      <trkpt lat="44.38736" lon="6.83262">
        <ele>1887.61</ele>
        <time>2021-07-21T09:55:20Z</time>
      </trkpt>
      <trkpt lat="44.38734" lon="6.83266">
        <ele>1886.24</ele>
        <time>2021-07-21T09:55:23Z</time>
      </trkpt>
      <trkpt lat="44.38731" lon="6.83267">
        <ele>1885.81</ele>
        <time>2021-07-21T09:57:01Z</time>
      </trkpt>
      <trkpt lat="44.38729" lon="6.83264">
        <ele>1886.71</ele>
        <time>2021-07-21T09:57:25Z</time>
      </trkpt>
      <trkpt lat="44.3873" lon="6.83259">
        <ele>1888.36</ele>
        <time>2021-07-21T09:57:29Z</time>
      </trkpt>
      <trkpt lat="44.38731" lon="6.83255">
        <ele>1889.7</ele>
        <time>2021-07-21T09:57:32Z</time>
      </trkpt>
      <trkpt lat="44.38732" lon="6.83251">
        <ele>1891.03</ele>
        <time>2021-07-21T09:57:36Z</time>
      </trkpt>
      <trkpt lat="44.38735" lon="6.83249">
        <ele>1891.75</ele>
        <time>2021-07-21T09:57:48Z</time>
      </trkpt>
      <trkpt lat="44.38738" lon="6.83247">
        <ele>1892.45</ele>
        <time>2021-07-21T09:58:01Z</time>
      </trkpt>
      <trkpt lat="44.3874" lon="6.83246">
        <ele>1892.83</ele>
        <time>2021-07-21T09:58:12Z</time>
      </trkpt>
      <trkpt lat="44.38743" lon="6.83245">
        <ele>1893.28</ele>
        <time>2021-07-21T09:58:28Z</time>
      </trkpt>
      <trkpt lat="44.38748" lon="6.83246">
        <ele>1893.2</ele>
        <time>2021-07-21T09:58:31Z</time>
      </trkpt>
      <trkpt lat="44.38755" lon="6.83246">
        <ele>1893.55</ele>
        <time>2021-07-21T09:58:36Z</time>
      </trkpt>
      <trkpt lat="44.38759" lon="6.83238">
        <ele>1896.63</ele>
        <time>2021-07-21T09:58:41Z</time>
      </trkpt>
      <trkpt lat="44.38755" lon="6.83231">
        <ele>1898.71</ele>
        <time>2021-07-21T09:58:44Z</time>
      </trkpt>
      <trkpt lat="44.3875" lon="6.83228">
        <ele>1899.13</ele>
        <time>2021-07-21T09:58:48Z</time>
      </trkpt>
      <trkpt lat="44.38746" lon="6.83226">
        <ele>1899.38</ele>
        <time>2021-07-21T09:58:51Z</time>
      </trkpt>
      <trkpt lat="44.38743" lon="6.83224">
        <ele>1899.7</ele>
        <time>2021-07-21T09:58:54Z</time>
      </trkpt>
      <trkpt lat="44.3874" lon="6.83223">
        <ele>1899.69</ele>
        <time>2021-07-21T09:58:56Z</time>
      </trkpt>
      <trkpt lat="44.38737" lon="6.83224">
        <ele>1899.08</ele>
        <time>2021-07-21T09:59:03Z</time>
      </trkpt>
      <trkpt lat="44.38733" lon="6.83223">
        <ele>1898.95</ele>
        <time>2021-07-21T10:02:41Z</time>
      </trkpt>
      <trkpt lat="44.38727" lon="6.83221">
        <ele>1898.9</ele>
        <time>2021-07-21T10:02:43Z</time>
      </trkpt>
      <trkpt lat="44.38721" lon="6.83217">
        <ele>1899.67</ele>
        <time>2021-07-21T10:02:45Z</time>
      </trkpt>
      <trkpt lat="44.38716" lon="6.83211">
        <ele>1901.36</ele>
        <time>2021-07-21T10:02:47Z</time>
      </trkpt>
      <trkpt lat="44.38711" lon="6.83204">
        <ele>1903.11</ele>
        <time>2021-07-21T10:02:51Z</time>
      </trkpt>
      <trkpt lat="44.38706" lon="6.83198">
        <ele>1904.32</ele>
        <time>2021-07-21T10:02:53Z</time>
      </trkpt>
      <trkpt lat="44.387" lon="6.83193">
        <ele>1904.92</ele>
        <time>2021-07-21T10:02:56Z</time>
      </trkpt>
      <trkpt lat="44.38695" lon="6.83188">
        <ele>1905.46</ele>
        <time>2021-07-21T10:02:58Z</time>
      </trkpt>
      <trkpt lat="44.38691" lon="6.83181">
        <ele>1906.23</ele>
        <time>2021-07-21T10:03:02Z</time>
      </trkpt>
      <trkpt lat="44.38686" lon="6.83174">
        <ele>1906.53</ele>
        <time>2021-07-21T10:03:04Z</time>
      </trkpt>
      <trkpt lat="44.38682" lon="6.83168">
        <ele>1906.64</ele>
        <time>2021-07-21T10:03:08Z</time>
      </trkpt>
      <trkpt lat="44.38678" lon="6.8316">
        <ele>1906.58</ele>
        <time>2021-07-21T10:03:11Z</time>
      </trkpt>
      <trkpt lat="44.38674" lon="6.83153">
        <ele>1906.32</ele>
        <time>2021-07-21T10:03:15Z</time>
      </trkpt>
      <trkpt lat="44.3867" lon="6.83146">
        <ele>1906.07</ele>
        <time>2021-07-21T10:03:19Z</time>
      </trkpt>
      <trkpt lat="44.38665" lon="6.83139">
        <ele>1905.75</ele>
        <time>2021-07-21T10:03:24Z</time>
      </trkpt>
      <trkpt lat="44.3866" lon="6.83134">
        <ele>1906.36</ele>
        <time>2021-07-21T10:03:26Z</time>
      </trkpt>
      <trkpt lat="44.38653" lon="6.83128">
        <ele>1906.78</ele>
        <time>2021-07-21T10:03:31Z</time>
      </trkpt>
      <trkpt lat="44.38649" lon="6.83128">
        <ele>1906.09</ele>
        <time>2021-07-21T10:05:04Z</time>
      </trkpt>
      <trkpt lat="44.38646" lon="6.83126">
        <ele>1906.05</ele>
        <time>2021-07-21T10:05:06Z</time>
      </trkpt>
      <trkpt lat="44.38643" lon="6.83125">
        <ele>1905.74</ele>
        <time>2021-07-21T10:05:08Z</time>
      </trkpt>
      <trkpt lat="44.38638" lon="6.83123">
        <ele>1905.17</ele>
        <time>2021-07-21T10:05:12Z</time>
      </trkpt>
      <trkpt lat="44.38633" lon="6.83123">
        <ele>1903.67</ele>
        <time>2021-07-21T10:05:13Z</time>
      </trkpt>
      <trkpt lat="44.38627" lon="6.83123">
        <ele>1901.88</ele>
        <time>2021-07-21T10:05:15Z</time>
      </trkpt>
      <trkpt lat="44.38621" lon="6.83123">
        <ele>1900.09</ele>
        <time>2021-07-21T10:05:18Z</time>
      </trkpt>
      <trkpt lat="44.38613" lon="6.83123">
        <ele>1897.71</ele>
        <time>2021-07-21T10:05:22Z</time>
      </trkpt>
      <trkpt lat="44.38605" lon="6.83123">
        <ele>1896.58</ele>
        <time>2021-07-21T10:05:25Z</time>
      </trkpt>
      <trkpt lat="44.38598" lon="6.83121">
        <ele>1896.28</ele>
        <time>2021-07-21T10:05:27Z</time>
      </trkpt>
      <trkpt lat="44.38592" lon="6.83123">
        <ele>1895.38</ele>
        <time>2021-07-21T10:05:30Z</time>
      </trkpt>
      <trkpt lat="44.38584" lon="6.83124">
        <ele>1894.35</ele>
        <time>2021-07-21T10:05:34Z</time>
      </trkpt>
      <trkpt lat="44.38577" lon="6.83125">
        <ele>1895.37</ele>
        <time>2021-07-21T10:05:36Z</time>
      </trkpt>
      <trkpt lat="44.3857" lon="6.83125">
        <ele>1896.88</ele>
        <time>2021-07-21T10:05:39Z</time>
      </trkpt>
      <trkpt lat="44.38564" lon="6.83124">
        <ele>1898.36</ele>
        <time>2021-07-21T10:05:41Z</time>
      </trkpt>
      <trkpt lat="44.38557" lon="6.83124">
        <ele>1899.84</ele>
        <time>2021-07-21T10:05:44Z</time>
      </trkpt>
      <trkpt lat="44.38551" lon="6.83124">
        <ele>1900.9</ele>
        <time>2021-07-21T10:05:48Z</time>
      </trkpt>
      <trkpt lat="44.38544" lon="6.83122">
        <ele>1902.44</ele>
        <time>2021-07-21T10:05:53Z</time>
      </trkpt>
      <trkpt lat="44.38538" lon="6.83121">
        <ele>1903.69</ele>
        <time>2021-07-21T10:05:56Z</time>
      </trkpt>
      <trkpt lat="44.38531" lon="6.83121">
        <ele>1904.94</ele>
        <time>2021-07-21T10:05:59Z</time>
      </trkpt>
      <trkpt lat="44.38525" lon="6.83118">
        <ele>1906.21</ele>
        <time>2021-07-21T10:06:02Z</time>
      </trkpt>
      <trkpt lat="44.38519" lon="6.83114">
        <ele>1907.02</ele>
        <time>2021-07-21T10:06:06Z</time>
      </trkpt>
      <trkpt lat="44.38513" lon="6.83112">
        <ele>1907.28</ele>
        <time>2021-07-21T10:06:09Z</time>
      </trkpt>
      <trkpt lat="44.38507" lon="6.83109">
        <ele>1907.77</ele>
        <time>2021-07-21T10:06:12Z</time>
      </trkpt>
      <trkpt lat="44.38501" lon="6.83106">
        <ele>1908.16</ele>
        <time>2021-07-21T10:06:15Z</time>
      </trkpt>
      <trkpt lat="44.38495" lon="6.83101">
        <ele>1908.69</ele>
        <time>2021-07-21T10:06:17Z</time>
      </trkpt>
      <trkpt lat="44.38489" lon="6.83097">
        <ele>1908.85</ele>
        <time>2021-07-21T10:06:20Z</time>
      </trkpt>
      <trkpt lat="44.38483" lon="6.83095">
        <ele>1908.55</ele>
        <time>2021-07-21T10:06:22Z</time>
      </trkpt>
      <trkpt lat="44.38476" lon="6.83096">
        <ele>1907.6</ele>
        <time>2021-07-21T10:06:25Z</time>
      </trkpt>
      <trkpt lat="44.38467" lon="6.83098">
        <ele>1906.72</ele>
        <time>2021-07-21T10:06:30Z</time>
      </trkpt>
      <trkpt lat="44.38461" lon="6.83098">
        <ele>1906.53</ele>
        <time>2021-07-21T10:06:33Z</time>
      </trkpt>
      <trkpt lat="44.38454" lon="6.83094">
        <ele>1906.5</ele>
        <time>2021-07-21T10:06:35Z</time>
      </trkpt>
      <trkpt lat="44.38449" lon="6.83089">
        <ele>1906.36</ele>
        <time>2021-07-21T10:06:37Z</time>
      </trkpt>
      <trkpt lat="44.38443" lon="6.83084">
        <ele>1906.05</ele>
        <time>2021-07-21T10:06:40Z</time>
      </trkpt>
      <trkpt lat="44.38435" lon="6.83079">
        <ele>1906.29</ele>
        <time>2021-07-21T10:06:43Z</time>
      </trkpt>
      <trkpt lat="44.38429" lon="6.83077">
        <ele>1906.43</ele>
        <time>2021-07-21T10:06:45Z</time>
      </trkpt>
      <trkpt lat="44.38421" lon="6.83076">
        <ele>1906.62</ele>
        <time>2021-07-21T10:06:47Z</time>
      </trkpt>
      <trkpt lat="44.38414" lon="6.83078">
        <ele>1907</ele>
        <time>2021-07-21T10:06:50Z</time>
      </trkpt>
      <trkpt lat="44.38407" lon="6.83079">
        <ele>1907.46</ele>
        <time>2021-07-21T10:06:52Z</time>
      </trkpt>
      <trkpt lat="44.38401" lon="6.8308">
        <ele>1907.78</ele>
        <time>2021-07-21T10:06:54Z</time>
      </trkpt>
      <trkpt lat="44.38393" lon="6.83081">
        <ele>1908.13</ele>
        <time>2021-07-21T10:06:56Z</time>
      </trkpt>
      <trkpt lat="44.38387" lon="6.83084">
        <ele>1908.11</ele>
        <time>2021-07-21T10:06:59Z</time>
      </trkpt>
      <trkpt lat="44.3838" lon="6.83087">
        <ele>1908.39</ele>
        <time>2021-07-21T10:07:01Z</time>
      </trkpt>
      <trkpt lat="44.38373" lon="6.8309">
        <ele>1908.62</ele>
        <time>2021-07-21T10:07:04Z</time>
      </trkpt>
      <trkpt lat="44.38362" lon="6.83091">
        <ele>1909.53</ele>
        <time>2021-07-21T10:07:07Z</time>
      </trkpt>
      <trkpt lat="44.38356" lon="6.83092">
        <ele>1910.26</ele>
        <time>2021-07-21T10:07:09Z</time>
      </trkpt>
      <trkpt lat="44.3835" lon="6.83095">
        <ele>1910.46</ele>
        <time>2021-07-21T10:07:11Z</time>
      </trkpt>
      <trkpt lat="44.38342" lon="6.83098">
        <ele>1910.67</ele>
        <time>2021-07-21T10:07:13Z</time>
      </trkpt>
      <trkpt lat="44.38335" lon="6.83101">
        <ele>1910.47</ele>
        <time>2021-07-21T10:07:16Z</time>
      </trkpt>
      <trkpt lat="44.38329" lon="6.83104">
        <ele>1910.06</ele>
        <time>2021-07-21T10:07:18Z</time>
      </trkpt>
      <trkpt lat="44.38323" lon="6.83107">
        <ele>1909.8</ele>
        <time>2021-07-21T10:07:21Z</time>
      </trkpt>
      <trkpt lat="44.38315" lon="6.83106">
        <ele>1911.12</ele>
        <time>2021-07-21T10:07:26Z</time>
      </trkpt>
      <trkpt lat="44.38309" lon="6.83106">
        <ele>1911.86</ele>
        <time>2021-07-21T10:07:29Z</time>
      </trkpt>
      <trkpt lat="44.38307" lon="6.83104">
        <ele>1912.62</ele>
        <time>2021-07-21T10:07:41Z</time>
      </trkpt>
      <trkpt lat="44.38304" lon="6.83102">
        <ele>1912.96</ele>
        <time>2021-07-21T10:07:44Z</time>
      </trkpt>
      <trkpt lat="44.38299" lon="6.83102">
        <ele>1911.88</ele>
        <time>2021-07-21T10:07:49Z</time>
      </trkpt>
      <trkpt lat="44.38296" lon="6.83104">
        <ele>1910.81</ele>
        <time>2021-07-21T10:07:54Z</time>
      </trkpt>
      <trkpt lat="44.38293" lon="6.83105">
        <ele>1909.98</ele>
        <time>2021-07-21T10:07:57Z</time>
      </trkpt>
      <trkpt lat="44.38291" lon="6.83107">
        <ele>1909.18</ele>
        <time>2021-07-21T10:08:01Z</time>
      </trkpt>
      <trkpt lat="44.38288" lon="6.83109">
        <ele>1908.23</ele>
        <time>2021-07-21T10:08:03Z</time>
      </trkpt>
      <trkpt lat="44.38287" lon="6.83114">
        <ele>1907.14</ele>
        <time>2021-07-21T10:08:06Z</time>
      </trkpt>
      <trkpt lat="44.38284" lon="6.83117">
        <ele>1906.2</ele>
        <time>2021-07-21T10:08:43Z</time>
      </trkpt>
      <trkpt lat="44.3828" lon="6.83115">
        <ele>1905.91</ele>
        <time>2021-07-21T10:08:46Z</time>
      </trkpt>
      <trkpt lat="44.38276" lon="6.83114">
        <ele>1905.57</ele>
        <time>2021-07-21T10:08:48Z</time>
      </trkpt>
      <trkpt lat="44.38272" lon="6.83113">
        <ele>1905.41</ele>
        <time>2021-07-21T10:08:50Z</time>
      </trkpt>
      <trkpt lat="44.38268" lon="6.83112">
        <ele>1905.22</ele>
        <time>2021-07-21T10:08:52Z</time>
      </trkpt>
      <trkpt lat="44.38265" lon="6.83112">
        <ele>1905.01</ele>
        <time>2021-07-21T10:08:55Z</time>
      </trkpt>
      <trkpt lat="44.3826" lon="6.83113">
        <ele>1904.6</ele>
        <time>2021-07-21T10:08:58Z</time>
      </trkpt>
      <trkpt lat="44.38255" lon="6.83111">
        <ele>1904.38</ele>
        <time>2021-07-21T10:09:00Z</time>
      </trkpt>
      <trkpt lat="44.38248" lon="6.83112">
        <ele>1903.75</ele>
        <time>2021-07-21T10:09:03Z</time>
      </trkpt>
      <trkpt lat="44.38243" lon="6.83117">
        <ele>1902.93</ele>
        <time>2021-07-21T10:09:06Z</time>
      </trkpt>
      <trkpt lat="44.38237" lon="6.83122">
        <ele>1901.84</ele>
        <time>2021-07-21T10:09:09Z</time>
      </trkpt>
      <trkpt lat="44.3823" lon="6.83125">
        <ele>1900.62</ele>
        <time>2021-07-21T10:09:13Z</time>
      </trkpt>
      <trkpt lat="44.38223" lon="6.83126">
        <ele>1899.51</ele>
        <time>2021-07-21T10:09:16Z</time>
      </trkpt>
      <trkpt lat="44.38217" lon="6.83125">
        <ele>1899.97</ele>
        <time>2021-07-21T10:09:19Z</time>
      </trkpt>
      <trkpt lat="44.38209" lon="6.83125">
        <ele>1900.69</ele>
        <time>2021-07-21T10:09:23Z</time>
      </trkpt>
      <trkpt lat="44.38204" lon="6.8313">
        <ele>1900.25</ele>
        <time>2021-07-21T10:09:25Z</time>
      </trkpt>
      <trkpt lat="44.38198" lon="6.8314">
        <ele>1898.74</ele>
        <time>2021-07-21T10:09:29Z</time>
      </trkpt>
      <trkpt lat="44.38193" lon="6.83145">
        <ele>1898.51</ele>
        <time>2021-07-21T10:09:31Z</time>
      </trkpt>
      <trkpt lat="44.38186" lon="6.83147">
        <ele>1899.07</ele>
        <time>2021-07-21T10:09:36Z</time>
      </trkpt>
      <trkpt lat="44.3818" lon="6.83147">
        <ele>1899.75</ele>
        <time>2021-07-21T10:09:39Z</time>
      </trkpt>
      <trkpt lat="44.38173" lon="6.83146">
        <ele>1900.73</ele>
        <time>2021-07-21T10:09:44Z</time>
      </trkpt>
      <trkpt lat="44.3817" lon="6.83145">
        <ele>1901.28</ele>
        <time>2021-07-21T10:09:54Z</time>
      </trkpt>
      <trkpt lat="44.38167" lon="6.83144">
        <ele>1901.85</ele>
        <time>2021-07-21T10:10:01Z</time>
      </trkpt>
      <trkpt lat="44.38161" lon="6.83142">
        <ele>1903.78</ele>
        <time>2021-07-21T10:10:04Z</time>
      </trkpt>
      <trkpt lat="44.38154" lon="6.83141">
        <ele>1905.77</ele>
        <time>2021-07-21T10:10:06Z</time>
      </trkpt>
      <trkpt lat="44.38146" lon="6.83141">
        <ele>1907.81</ele>
        <time>2021-07-21T10:10:09Z</time>
      </trkpt>
      <trkpt lat="44.38139" lon="6.83141">
        <ele>1909.59</ele>
        <time>2021-07-21T10:10:12Z</time>
      </trkpt>
      <trkpt lat="44.38132" lon="6.83141">
        <ele>1909.18</ele>
        <time>2021-07-21T10:10:15Z</time>
      </trkpt>
      <trkpt lat="44.38126" lon="6.83138">
        <ele>1909.15</ele>
        <time>2021-07-21T10:10:19Z</time>
      </trkpt>
      <trkpt lat="44.38119" lon="6.83137">
        <ele>1908.72</ele>
        <time>2021-07-21T10:10:21Z</time>
      </trkpt>
      <trkpt lat="44.38113" lon="6.83132">
        <ele>1908.65</ele>
        <time>2021-07-21T10:10:25Z</time>
      </trkpt>
      <trkpt lat="44.38108" lon="6.83124">
        <ele>1908.5</ele>
        <time>2021-07-21T10:10:28Z</time>
      </trkpt>
      <trkpt lat="44.38103" lon="6.83119">
        <ele>1907.85</ele>
        <time>2021-07-21T10:10:32Z</time>
      </trkpt>
      <trkpt lat="44.38097" lon="6.83119">
        <ele>1906.67</ele>
        <time>2021-07-21T10:10:35Z</time>
      </trkpt>
      <trkpt lat="44.38089" lon="6.83122">
        <ele>1905.06</ele>
        <time>2021-07-21T10:10:38Z</time>
      </trkpt>
      <trkpt lat="44.38082" lon="6.83126">
        <ele>1903.76</ele>
        <time>2021-07-21T10:10:41Z</time>
      </trkpt>
      <trkpt lat="44.38076" lon="6.83129">
        <ele>1902.68</ele>
        <time>2021-07-21T10:10:43Z</time>
      </trkpt>
      <trkpt lat="44.38069" lon="6.83129">
        <ele>1901.42</ele>
        <time>2021-07-21T10:10:46Z</time>
      </trkpt>
      <trkpt lat="44.38062" lon="6.83131">
        <ele>1900.16</ele>
        <time>2021-07-21T10:10:49Z</time>
      </trkpt>
      <trkpt lat="44.38056" lon="6.83134">
        <ele>1899.08</ele>
        <time>2021-07-21T10:10:52Z</time>
      </trkpt>
      <trkpt lat="44.3805" lon="6.83138">
        <ele>1900.19</ele>
        <time>2021-07-21T10:10:56Z</time>
      </trkpt>
      <trkpt lat="44.38044" lon="6.83139">
        <ele>1901.49</ele>
        <time>2021-07-21T10:10:59Z</time>
      </trkpt>
      <trkpt lat="44.38037" lon="6.83138">
        <ele>1902.99</ele>
        <time>2021-07-21T10:11:03Z</time>
      </trkpt>
      <trkpt lat="44.38031" lon="6.83137">
        <ele>1904.24</ele>
        <time>2021-07-21T10:11:06Z</time>
      </trkpt>
      <trkpt lat="44.38023" lon="6.83134">
        <ele>1905.34</ele>
        <time>2021-07-21T10:11:09Z</time>
      </trkpt>
      <trkpt lat="44.38016" lon="6.83132">
        <ele>1906.02</ele>
        <time>2021-07-21T10:11:12Z</time>
      </trkpt>
      <trkpt lat="44.38009" lon="6.83132">
        <ele>1906.78</ele>
        <time>2021-07-21T10:11:15Z</time>
      </trkpt>
      <trkpt lat="44.38003" lon="6.83132">
        <ele>1907.43</ele>
        <time>2021-07-21T10:11:18Z</time>
      </trkpt>
      <trkpt lat="44.37997" lon="6.83132">
        <ele>1907.99</ele>
        <time>2021-07-21T10:12:11Z</time>
      </trkpt>
      <trkpt lat="44.37991" lon="6.83132">
        <ele>1908.48</ele>
        <time>2021-07-21T10:12:12Z</time>
      </trkpt>
      <trkpt lat="44.37983" lon="6.83129">
        <ele>1909.09</ele>
        <time>2021-07-21T10:12:16Z</time>
      </trkpt>
      <trkpt lat="44.37974" lon="6.83127">
        <ele>1909.84</ele>
        <time>2021-07-21T10:12:19Z</time>
      </trkpt>
      <trkpt lat="44.37966" lon="6.83127">
        <ele>1910.64</ele>
        <time>2021-07-21T10:12:21Z</time>
      </trkpt>
      <trkpt lat="44.37959" lon="6.83126">
        <ele>1911.39</ele>
        <time>2021-07-21T10:12:24Z</time>
      </trkpt>
      <trkpt lat="44.37952" lon="6.83125">
        <ele>1912.18</ele>
        <time>2021-07-21T10:12:26Z</time>
      </trkpt>
      <trkpt lat="44.37944" lon="6.83124">
        <ele>1913.05</ele>
        <time>2021-07-21T10:12:29Z</time>
      </trkpt>
      <trkpt lat="44.37938" lon="6.83123">
        <ele>1912.75</ele>
        <time>2021-07-21T10:12:32Z</time>
      </trkpt>
      <trkpt lat="44.37931" lon="6.83121">
        <ele>1912.35</ele>
        <time>2021-07-21T10:12:35Z</time>
      </trkpt>
      <trkpt lat="44.37927" lon="6.83122">
        <ele>1912.07</ele>
        <time>2021-07-21T10:12:42Z</time>
      </trkpt>
      <trkpt lat="44.37928" lon="6.83129">
        <ele>1912.08</ele>
        <time>2021-07-21T10:13:44Z</time>
      </trkpt>
      <trkpt lat="44.3793" lon="6.83134">
        <ele>1912.08</ele>
        <time>2021-07-21T10:13:47Z</time>
      </trkpt>
      <trkpt lat="44.37932" lon="6.83138">
        <ele>1912.02</ele>
        <time>2021-07-21T10:13:51Z</time>
      </trkpt>
      <trkpt lat="44.37935" lon="6.83144">
        <ele>1911.21</ele>
        <time>2021-07-21T10:13:54Z</time>
      </trkpt>
      <trkpt lat="44.37936" lon="6.83151">
        <ele>1910.09</ele>
        <time>2021-07-21T10:13:58Z</time>
      </trkpt>
      <trkpt lat="44.37936" lon="6.83156">
        <ele>1909.29</ele>
        <time>2021-07-21T10:14:02Z</time>
      </trkpt>
      <trkpt lat="44.37937" lon="6.83161">
        <ele>1908.45</ele>
        <time>2021-07-21T10:14:04Z</time>
      </trkpt>
      <trkpt lat="44.37938" lon="6.83165">
        <ele>1907.74</ele>
        <time>2021-07-21T10:14:07Z</time>
      </trkpt>
      <trkpt lat="44.37939" lon="6.83168">
        <ele>1907.36</ele>
        <time>2021-07-21T10:14:10Z</time>
      </trkpt>
      <trkpt lat="44.3794" lon="6.83172">
        <ele>1907.19</ele>
        <time>2021-07-21T10:15:36Z</time>
      </trkpt>
      <trkpt lat="44.37941" lon="6.83176">
        <ele>1907</ele>
        <time>2021-07-21T10:15:48Z</time>
      </trkpt>
      <trkpt lat="44.37942" lon="6.8318">
        <ele>1906.78</ele>
        <time>2021-07-21T10:15:54Z</time>
      </trkpt>
      <trkpt lat="44.37944" lon="6.83183">
        <ele>1906.46</ele>
        <time>2021-07-21T10:15:57Z</time>
      </trkpt>
      <trkpt lat="44.37947" lon="6.83186">
        <ele>1906.24</ele>
        <time>2021-07-21T10:16:00Z</time>
      </trkpt>
      <trkpt lat="44.37949" lon="6.83188">
        <ele>1906.11</ele>
        <time>2021-07-21T10:16:04Z</time>
      </trkpt>
      <trkpt lat="44.37951" lon="6.83191">
        <ele>1905.92</ele>
        <time>2021-07-21T10:16:09Z</time>
      </trkpt>
      <trkpt lat="44.37954" lon="6.83194">
        <ele>1905.68</ele>
        <time>2021-07-21T10:16:15Z</time>
      </trkpt>
      <trkpt lat="44.37956" lon="6.83196">
        <ele>1905.7</ele>
        <time>2021-07-21T10:16:18Z</time>
      </trkpt>
      <trkpt lat="44.37959" lon="6.83197">
        <ele>1905.66</ele>
        <time>2021-07-21T10:16:20Z</time>
      </trkpt>
      <trkpt lat="44.37962" lon="6.83199">
        <ele>1905.7</ele>
        <time>2021-07-21T10:16:23Z</time>
      </trkpt>
      <trkpt lat="44.37964" lon="6.83198">
        <ele>1905.55</ele>
        <time>2021-07-21T10:16:26Z</time>
      </trkpt>
      <trkpt lat="44.37967" lon="6.83198">
        <ele>1905.44</ele>
        <time>2021-07-21T10:16:30Z</time>
      </trkpt>
      <trkpt lat="44.3797" lon="6.83199">
        <ele>1905.41</ele>
        <time>2021-07-21T10:16:33Z</time>
      </trkpt>
      <trkpt lat="44.37973" lon="6.832">
        <ele>1905.46</ele>
        <time>2021-07-21T10:16:38Z</time>
      </trkpt>
      <trkpt lat="44.37975" lon="6.83203">
        <ele>1905.76</ele>
        <time>2021-07-21T10:18:21Z</time>
      </trkpt>
      <trkpt lat="44.37977" lon="6.83204">
        <ele>1905.91</ele>
        <time>2021-07-21T10:20:22Z</time>
      </trkpt>
      <trkpt lat="44.3798" lon="6.83208">
        <ele>1906.13</ele>
        <time>2021-07-21T10:20:26Z</time>
      </trkpt>
      <trkpt lat="44.37982" lon="6.83205">
        <ele>1906.15</ele>
        <time>2021-07-21T10:35:43Z</time>
      </trkpt>
      <trkpt lat="44.37986" lon="6.83204">
        <ele>1906.32</ele>
        <time>2021-07-21T10:35:47Z</time>
      </trkpt>
      <trkpt lat="44.37988" lon="6.83201">
        <ele>1906.51</ele>
        <time>2021-07-21T10:35:48Z</time>
      </trkpt>
      <trkpt lat="44.3799" lon="6.83197">
        <ele>1906.81</ele>
        <time>2021-07-21T10:35:51Z</time>
      </trkpt>
      <trkpt lat="44.37991" lon="6.83194">
        <ele>1907.04</ele>
        <time>2021-07-21T10:35:53Z</time>
      </trkpt>
      <trkpt lat="44.37993" lon="6.8319">
        <ele>1907.32</ele>
        <time>2021-07-21T10:35:56Z</time>
      </trkpt>
      <trkpt lat="44.37993" lon="6.83186">
        <ele>1907.4</ele>
        <time>2021-07-21T10:36:01Z</time>
      </trkpt>
      <trkpt lat="44.37991" lon="6.83182">
        <ele>1907.32</ele>
        <time>2021-07-21T10:36:06Z</time>
      </trkpt>
      <trkpt lat="44.37993" lon="6.83179">
        <ele>1907.52</ele>
        <time>2021-07-21T10:36:44Z</time>
      </trkpt>
      <trkpt lat="44.37992" lon="6.83183">
        <ele>1907.37</ele>
        <time>2021-07-21T10:37:25Z</time>
      </trkpt>
      <trkpt lat="44.3799" lon="6.83179">
        <ele>1907.32</ele>
        <time>2021-07-21T10:37:45Z</time>
      </trkpt>
      <trkpt lat="44.37993" lon="6.83177">
        <ele>1907.56</ele>
        <time>2021-07-21T10:38:03Z</time>
      </trkpt>
      <trkpt lat="44.37991" lon="6.8318">
        <ele>1907.36</ele>
        <time>2021-07-21T10:38:18Z</time>
      </trkpt>
      <trkpt lat="44.37989" lon="6.83183">
        <ele>1907.14</ele>
        <time>2021-07-21T10:38:21Z</time>
      </trkpt>
      <trkpt lat="44.37988" lon="6.83187">
        <ele>1906.94</ele>
        <time>2021-07-21T10:38:27Z</time>
      </trkpt>
      <trkpt lat="44.37986" lon="6.83189">
        <ele>1906.69</ele>
        <time>2021-07-21T10:38:33Z</time>
      </trkpt>
      <trkpt lat="44.37984" lon="6.83193">
        <ele>1906.33</ele>
        <time>2021-07-21T10:38:37Z</time>
      </trkpt>
      <trkpt lat="44.37985" lon="6.83198">
        <ele>1906.34</ele>
        <time>2021-07-21T10:38:41Z</time>
      </trkpt>
      <trkpt lat="44.37986" lon="6.83202">
        <ele>1906.36</ele>
        <time>2021-07-21T10:38:46Z</time>
      </trkpt>
      <trkpt lat="44.37987" lon="6.83205">
        <ele>1906.35</ele>
        <time>2021-07-21T10:38:49Z</time>
      </trkpt>
      <trkpt lat="44.37985" lon="6.83205">
        <ele>1906.27</ele>
        <time>2021-07-21T10:39:00Z</time>
      </trkpt>
      <trkpt lat="44.37983" lon="6.83202">
        <ele>1906.18</ele>
        <time>2021-07-21T10:39:02Z</time>
      </trkpt>
      <trkpt lat="44.37981" lon="6.83199">
        <ele>1906.02</ele>
        <time>2021-07-21T10:39:07Z</time>
      </trkpt>
      <trkpt lat="44.37978" lon="6.83199">
        <ele>1905.78</ele>
        <time>2021-07-21T10:39:17Z</time>
      </trkpt>
      <trkpt lat="44.37975" lon="6.83199">
        <ele>1905.55</ele>
        <time>2021-07-21T10:39:27Z</time>
      </trkpt>
      <trkpt lat="44.37975" lon="6.83204">
        <ele>1905.82</ele>
        <time>2021-07-21T10:39:42Z</time>
      </trkpt>
      <trkpt lat="44.37975" lon="6.83208">
        <ele>1906.03</ele>
        <time>2021-07-21T10:39:48Z</time>
      </trkpt>
      <trkpt lat="44.37975" lon="6.83204">
        <ele>1905.82</ele>
        <time>2021-07-21T10:55:38Z</time>
      </trkpt>
      <trkpt lat="44.37978" lon="6.83203">
        <ele>1905.92</ele>
        <time>2021-07-21T11:01:04Z</time>
      </trkpt>
      <trkpt lat="44.37975" lon="6.83205">
        <ele>1905.87</ele>
        <time>2021-07-21T11:02:07Z</time>
      </trkpt>
      <trkpt lat="44.37972" lon="6.83206">
        <ele>1905.84</ele>
        <time>2021-07-21T11:02:16Z</time>
      </trkpt>
      <trkpt lat="44.37969" lon="6.83204">
        <ele>1905.8</ele>
        <time>2021-07-21T11:02:18Z</time>
      </trkpt>
      <trkpt lat="44.37965" lon="6.83204">
        <ele>1905.95</ele>
        <time>2021-07-21T11:02:21Z</time>
      </trkpt>
      <trkpt lat="44.37962" lon="6.83205">
        <ele>1906.13</ele>
        <time>2021-07-21T11:02:23Z</time>
      </trkpt>
      <trkpt lat="44.37959" lon="6.83204">
        <ele>1906.16</ele>
        <time>2021-07-21T11:02:26Z</time>
      </trkpt>
      <trkpt lat="44.37956" lon="6.83206">
        <ele>1906.42</ele>
        <time>2021-07-21T11:02:28Z</time>
      </trkpt>
      <trkpt lat="44.37952" lon="6.83206">
        <ele>1906.56</ele>
        <time>2021-07-21T11:02:33Z</time>
      </trkpt>
      <trkpt lat="44.37949" lon="6.83207">
        <ele>1906.74</ele>
        <time>2021-07-21T11:02:36Z</time>
      </trkpt>
      <trkpt lat="44.37948" lon="6.8321">
        <ele>1906.99</ele>
        <time>2021-07-21T11:02:39Z</time>
      </trkpt>
      <trkpt lat="44.37946" lon="6.83215">
        <ele>1907.42</ele>
        <time>2021-07-21T11:02:43Z</time>
      </trkpt>
      <trkpt lat="44.37947" lon="6.83219">
        <ele>1907.68</ele>
        <time>2021-07-21T11:02:46Z</time>
      </trkpt>
      <trkpt lat="44.37949" lon="6.83222">
        <ele>1907.82</ele>
        <time>2021-07-21T11:03:11Z</time>
      </trkpt>
      <trkpt lat="44.37947" lon="6.83219">
        <ele>1907.68</ele>
        <time>2021-07-21T11:03:36Z</time>
      </trkpt>
      <trkpt lat="44.37948" lon="6.83215">
        <ele>1907.35</ele>
        <time>2021-07-21T11:03:39Z</time>
      </trkpt>
      <trkpt lat="44.3795" lon="6.8321">
        <ele>1906.92</ele>
        <time>2021-07-21T11:03:43Z</time>
      </trkpt>
      <trkpt lat="44.37953" lon="6.83206">
        <ele>1906.52</ele>
        <time>2021-07-21T11:03:45Z</time>
      </trkpt>
      <trkpt lat="44.37955" lon="6.83205">
        <ele>1906.38</ele>
        <time>2021-07-21T11:03:47Z</time>
      </trkpt>
      <trkpt lat="44.37958" lon="6.83205">
        <ele>1906.27</ele>
        <time>2021-07-21T11:03:50Z</time>
      </trkpt>
      <trkpt lat="44.37957" lon="6.83201">
        <ele>1906.02</ele>
        <time>2021-07-21T11:03:58Z</time>
      </trkpt>
      <trkpt lat="44.37957" lon="6.83196">
        <ele>1905.66</ele>
        <time>2021-07-21T11:04:02Z</time>
      </trkpt>
      <trkpt lat="44.37956" lon="6.83192">
        <ele>1905.71</ele>
        <time>2021-07-21T11:04:04Z</time>
      </trkpt>
      <trkpt lat="44.37953" lon="6.83189">
        <ele>1905.95</ele>
        <time>2021-07-21T11:04:07Z</time>
      </trkpt>
      <trkpt lat="44.37951" lon="6.83186">
        <ele>1906.14</ele>
        <time>2021-07-21T11:04:09Z</time>
      </trkpt>
      <trkpt lat="44.37948" lon="6.83184">
        <ele>1906.3</ele>
        <time>2021-07-21T11:04:11Z</time>
      </trkpt>
      <trkpt lat="44.37945" lon="6.83183">
        <ele>1906.4</ele>
        <time>2021-07-21T11:04:15Z</time>
      </trkpt>
      <trkpt lat="44.37943" lon="6.83181">
        <ele>1906.64</ele>
        <time>2021-07-21T11:04:17Z</time>
      </trkpt>
      <trkpt lat="44.3794" lon="6.83179">
        <ele>1907.02</ele>
        <time>2021-07-21T11:04:20Z</time>
      </trkpt>
      <trkpt lat="44.37939" lon="6.83183">
        <ele>1907.03</ele>
        <time>2021-07-21T11:04:47Z</time>
      </trkpt>
      <trkpt lat="44.37942" lon="6.83187">
        <ele>1906.57</ele>
        <time>2021-07-21T11:04:56Z</time>
      </trkpt>
      <trkpt lat="44.37943" lon="6.83191">
        <ele>1906.32</ele>
        <time>2021-07-21T11:04:58Z</time>
      </trkpt>
      <trkpt lat="44.37945" lon="6.83195">
        <ele>1906.02</ele>
        <time>2021-07-21T11:05:00Z</time>
      </trkpt>
      <trkpt lat="44.37946" lon="6.83199">
        <ele>1906.27</ele>
        <time>2021-07-21T11:05:03Z</time>
      </trkpt>
      <trkpt lat="44.37948" lon="6.83202">
        <ele>1906.42</ele>
        <time>2021-07-21T11:05:05Z</time>
      </trkpt>
      <trkpt lat="44.37951" lon="6.83204">
        <ele>1906.45</ele>
        <time>2021-07-21T11:05:07Z</time>
      </trkpt>
      <trkpt lat="44.37958" lon="6.83206">
        <ele>1906.34</ele>
        <time>2021-07-21T11:05:12Z</time>
      </trkpt>
      <trkpt lat="44.37962" lon="6.83208">
        <ele>1906.34</ele>
        <time>2021-07-21T11:05:15Z</time>
      </trkpt>
      <trkpt lat="44.37967" lon="6.83209">
        <ele>1906.24</ele>
        <time>2021-07-21T11:05:18Z</time>
      </trkpt>
      <trkpt lat="44.3797" lon="6.83209">
        <ele>1906.13</ele>
        <time>2021-07-21T11:05:20Z</time>
      </trkpt>
      <trkpt lat="44.37974" lon="6.83207">
        <ele>1905.95</ele>
        <time>2021-07-21T11:05:23Z</time>
      </trkpt>
      <trkpt lat="44.37977" lon="6.83205">
        <ele>1905.95</ele>
        <time>2021-07-21T11:05:32Z</time>
      </trkpt>
      <trkpt lat="44.37974" lon="6.83205">
        <ele>1905.83</ele>
        <time>2021-07-21T11:06:51Z</time>
      </trkpt>
      <trkpt lat="44.37975" lon="6.83202">
        <ele>1905.71</ele>
        <time>2021-07-21T11:07:05Z</time>
      </trkpt>
      <trkpt lat="44.37977" lon="6.832">
        <ele>1905.74</ele>
        <time>2021-07-21T11:08:28Z</time>
      </trkpt>
      <trkpt lat="44.3798" lon="6.83198">
        <ele>1905.92</ele>
        <time>2021-07-21T11:08:50Z</time>
      </trkpt>
      <trkpt lat="44.37981" lon="6.83194">
        <ele>1905.97</ele>
        <time>2021-07-21T11:08:55Z</time>
      </trkpt>
      <trkpt lat="44.37984" lon="6.83194">
        <ele>1906.29</ele>
        <time>2021-07-21T11:09:18Z</time>
      </trkpt>
      <trkpt lat="44.37986" lon="6.83198">
        <ele>1906.43</ele>
        <time>2021-07-21T11:09:31Z</time>
      </trkpt>
      <trkpt lat="44.37986" lon="6.83204">
        <ele>1906.32</ele>
        <time>2021-07-21T11:09:33Z</time>
      </trkpt>
      <trkpt lat="44.37986" lon="6.83216">
        <ele>1906.12</ele>
        <time>2021-07-21T11:09:38Z</time>
      </trkpt>
      <trkpt lat="44.37985" lon="6.83225">
        <ele>1906.02</ele>
        <time>2021-07-21T11:09:43Z</time>
      </trkpt>
      <trkpt lat="44.37983" lon="6.83234">
        <ele>1905.87</ele>
        <time>2021-07-21T11:09:49Z</time>
      </trkpt>
      <trkpt lat="44.37976" lon="6.83244">
        <ele>1905.48</ele>
        <time>2021-07-21T11:09:54Z</time>
      </trkpt>
      <trkpt lat="44.37973" lon="6.83255">
        <ele>1905.2</ele>
        <time>2021-07-21T11:09:58Z</time>
      </trkpt>
      <trkpt lat="44.37971" lon="6.83266">
        <ele>1905.75</ele>
        <time>2021-07-21T11:10:01Z</time>
      </trkpt>
      <trkpt lat="44.3797" lon="6.83276">
        <ele>1906.26</ele>
        <time>2021-07-21T11:10:05Z</time>
      </trkpt>
      <trkpt lat="44.37969" lon="6.83285">
        <ele>1906.72</ele>
        <time>2021-07-21T11:10:09Z</time>
      </trkpt>
      <trkpt lat="44.37969" lon="6.83294">
        <ele>1907.05</ele>
        <time>2021-07-21T11:10:13Z</time>
      </trkpt>
      <trkpt lat="44.37968" lon="6.833">
        <ele>1907.41</ele>
        <time>2021-07-21T11:10:16Z</time>
      </trkpt>
      <trkpt lat="44.37968" lon="6.83306">
        <ele>1907.66</ele>
        <time>2021-07-21T11:10:18Z</time>
      </trkpt>
      <trkpt lat="44.37967" lon="6.83312">
        <ele>1908.45</ele>
        <time>2021-07-21T11:10:21Z</time>
      </trkpt>
      <trkpt lat="44.37967" lon="6.83317">
        <ele>1908.99</ele>
        <time>2021-07-21T11:10:23Z</time>
      </trkpt>
      <trkpt lat="44.37968" lon="6.83321">
        <ele>1909.28</ele>
        <time>2021-07-21T11:10:24Z</time>
      </trkpt>
      <trkpt lat="44.37969" lon="6.83327">
        <ele>1909.78</ele>
        <time>2021-07-21T11:10:27Z</time>
      </trkpt>
      <trkpt lat="44.37973" lon="6.83334">
        <ele>1910.11</ele>
        <time>2021-07-21T11:10:30Z</time>
      </trkpt>
      <trkpt lat="44.37977" lon="6.83343">
        <ele>1911.74</ele>
        <time>2021-07-21T11:10:34Z</time>
      </trkpt>
      <trkpt lat="44.3798" lon="6.83349">
        <ele>1912.63</ele>
        <time>2021-07-21T11:10:37Z</time>
      </trkpt>
      <trkpt lat="44.37985" lon="6.83355">
        <ele>1913.14</ele>
        <time>2021-07-21T11:10:42Z</time>
      </trkpt>
      <trkpt lat="44.37991" lon="6.83361">
        <ele>1913.28</ele>
        <time>2021-07-21T11:10:47Z</time>
      </trkpt>
      <trkpt lat="44.37996" lon="6.83366">
        <ele>1913.36</ele>
        <time>2021-07-21T11:10:50Z</time>
      </trkpt>
      <trkpt lat="44.38001" lon="6.8337">
        <ele>1913.16</ele>
        <time>2021-07-21T11:10:53Z</time>
      </trkpt>
      <trkpt lat="44.38007" lon="6.83376">
        <ele>1913.41</ele>
        <time>2021-07-21T11:10:57Z</time>
      </trkpt>
      <trkpt lat="44.38011" lon="6.83381">
        <ele>1913.85</ele>
        <time>2021-07-21T11:11:00Z</time>
      </trkpt>
      <trkpt lat="44.38016" lon="6.83385">
        <ele>1914.13</ele>
        <time>2021-07-21T11:11:04Z</time>
      </trkpt>
      <trkpt lat="44.38023" lon="6.83389">
        <ele>1914.36</ele>
        <time>2021-07-21T11:11:07Z</time>
      </trkpt>
      <trkpt lat="44.38029" lon="6.83393">
        <ele>1914.52</ele>
        <time>2021-07-21T11:11:12Z</time>
      </trkpt>
      <trkpt lat="44.38033" lon="6.83397">
        <ele>1914.52</ele>
        <time>2021-07-21T11:11:15Z</time>
      </trkpt>
      <trkpt lat="44.38038" lon="6.83403">
        <ele>1914.7</ele>
        <time>2021-07-21T11:11:20Z</time>
      </trkpt>
      <trkpt lat="44.3804" lon="6.83407">
        <ele>1915.06</ele>
        <time>2021-07-21T11:11:38Z</time>
      </trkpt>
      <trkpt lat="44.38043" lon="6.83406">
        <ele>1914.34</ele>
        <time>2021-07-21T11:12:59Z</time>
      </trkpt>
      <trkpt lat="44.38047" lon="6.83405">
        <ele>1913.44</ele>
        <time>2021-07-21T11:13:02Z</time>
      </trkpt>
      <trkpt lat="44.38045" lon="6.83407">
        <ele>1914.16</ele>
        <time>2021-07-21T11:13:31Z</time>
      </trkpt>
      <trkpt lat="44.38042" lon="6.83409">
        <ele>1915.06</ele>
        <time>2021-07-21T11:13:47Z</time>
      </trkpt>
      <trkpt lat="44.38044" lon="6.83412">
        <ele>1915.24</ele>
        <time>2021-07-21T11:16:43Z</time>
      </trkpt>
      <trkpt lat="44.38046" lon="6.83414">
        <ele>1915.24</ele>
        <time>2021-07-21T11:16:45Z</time>
      </trkpt>
      <trkpt lat="44.3805" lon="6.83416">
        <ele>1914.88</ele>
        <time>2021-07-21T11:16:47Z</time>
      </trkpt>
      <trkpt lat="44.38053" lon="6.83417">
        <ele>1914.51</ele>
        <time>2021-07-21T11:16:50Z</time>
      </trkpt>
      <trkpt lat="44.38056" lon="6.83421">
        <ele>1914.52</ele>
        <time>2021-07-21T11:16:52Z</time>
      </trkpt>
      <trkpt lat="44.3806" lon="6.83426">
        <ele>1914.22</ele>
        <time>2021-07-21T11:16:54Z</time>
      </trkpt>
      <trkpt lat="44.38064" lon="6.83433">
        <ele>1913.99</ele>
        <time>2021-07-21T11:16:58Z</time>
      </trkpt>
      <trkpt lat="44.38069" lon="6.83441">
        <ele>1913.33</ele>
        <time>2021-07-21T11:17:02Z</time>
      </trkpt>
      <trkpt lat="44.38074" lon="6.83447">
        <ele>1912.51</ele>
        <time>2021-07-21T11:17:06Z</time>
      </trkpt>
      <trkpt lat="44.38081" lon="6.8345">
        <ele>1910.77</ele>
        <time>2021-07-21T11:17:08Z</time>
      </trkpt>
      <trkpt lat="44.38087" lon="6.83455">
        <ele>1910.14</ele>
        <time>2021-07-21T11:17:11Z</time>
      </trkpt>
      <trkpt lat="44.38093" lon="6.83462">
        <ele>1909.98</ele>
        <time>2021-07-21T11:17:15Z</time>
      </trkpt>
      <trkpt lat="44.38098" lon="6.83468">
        <ele>1909.7</ele>
        <time>2021-07-21T11:17:19Z</time>
      </trkpt>
      <trkpt lat="44.381" lon="6.83473">
        <ele>1909.9</ele>
        <time>2021-07-21T11:17:24Z</time>
      </trkpt>
      <trkpt lat="44.38101" lon="6.83477">
        <ele>1910.17</ele>
        <time>2021-07-21T11:17:25Z</time>
      </trkpt>
      <trkpt lat="44.38103" lon="6.83481">
        <ele>1910.22</ele>
        <time>2021-07-21T11:17:27Z</time>
      </trkpt>
      <trkpt lat="44.38107" lon="6.83487">
        <ele>1910.09</ele>
        <time>2021-07-21T11:17:30Z</time>
      </trkpt>
      <trkpt lat="44.38111" lon="6.83493">
        <ele>1910.02</ele>
        <time>2021-07-21T11:17:35Z</time>
      </trkpt>
      <trkpt lat="44.38115" lon="6.835">
        <ele>1910.02</ele>
        <time>2021-07-21T11:17:38Z</time>
      </trkpt>
      <trkpt lat="44.38118" lon="6.83507">
        <ele>1909.96</ele>
        <time>2021-07-21T11:17:42Z</time>
      </trkpt>
      <trkpt lat="44.3812" lon="6.8351">
        <ele>1909.72</ele>
        <time>2021-07-21T11:17:45Z</time>
      </trkpt>
      <trkpt lat="44.38124" lon="6.83513">
        <ele>1908.94</ele>
        <time>2021-07-21T11:17:46Z</time>
      </trkpt>
      <trkpt lat="44.38127" lon="6.83515">
        <ele>1908.31</ele>
        <time>2021-07-21T11:17:49Z</time>
      </trkpt>
      <trkpt lat="44.38129" lon="6.83517">
        <ele>1907.93</ele>
        <time>2021-07-21T11:17:50Z</time>
      </trkpt>
      <trkpt lat="44.38133" lon="6.83524">
        <ele>1907.4</ele>
        <time>2021-07-21T11:17:55Z</time>
      </trkpt>
      <trkpt lat="44.38135" lon="6.83532">
        <ele>1907.62</ele>
        <time>2021-07-21T11:17:58Z</time>
      </trkpt>
      <trkpt lat="44.38138" lon="6.83542">
        <ele>1907.82</ele>
        <time>2021-07-21T11:18:02Z</time>
      </trkpt>
      <trkpt lat="44.38141" lon="6.8355">
        <ele>1907.72</ele>
        <time>2021-07-21T11:18:06Z</time>
      </trkpt>
      <trkpt lat="44.38147" lon="6.83554">
        <ele>1906.2</ele>
        <time>2021-07-21T11:18:09Z</time>
      </trkpt>
      <trkpt lat="44.38151" lon="6.83555">
        <ele>1905.02</ele>
        <time>2021-07-21T11:18:13Z</time>
      </trkpt>
      <trkpt lat="44.38153" lon="6.83558">
        <ele>1904.82</ele>
        <time>2021-07-21T11:18:28Z</time>
      </trkpt>
      <trkpt lat="44.38156" lon="6.8356">
        <ele>1904.19</ele>
        <time>2021-07-21T11:18:34Z</time>
      </trkpt>
      <trkpt lat="44.38159" lon="6.83561">
        <ele>1903.41</ele>
        <time>2021-07-21T11:18:37Z</time>
      </trkpt>
      <trkpt lat="44.38163" lon="6.83562">
        <ele>1902.32</ele>
        <time>2021-07-21T11:18:39Z</time>
      </trkpt>
      <trkpt lat="44.38167" lon="6.83564">
        <ele>1901.55</ele>
        <time>2021-07-21T11:18:44Z</time>
      </trkpt>
      <trkpt lat="44.3817" lon="6.83564">
        <ele>1901.8</ele>
        <time>2021-07-21T11:18:46Z</time>
      </trkpt>
      <trkpt lat="44.38173" lon="6.83566">
        <ele>1902.42</ele>
        <time>2021-07-21T11:18:50Z</time>
      </trkpt>
      <trkpt lat="44.38175" lon="6.83569">
        <ele>1903.17</ele>
        <time>2021-07-21T11:18:53Z</time>
      </trkpt>
      <trkpt lat="44.38178" lon="6.83571">
        <ele>1903.82</ele>
        <time>2021-07-21T11:18:56Z</time>
      </trkpt>
      <trkpt lat="44.3818" lon="6.83573">
        <ele>1904.4</ele>
        <time>2021-07-21T11:18:59Z</time>
      </trkpt>
      <trkpt lat="44.38183" lon="6.83571">
        <ele>1904.28</ele>
        <time>2021-07-21T11:20:04Z</time>
      </trkpt>
      <trkpt lat="44.38186" lon="6.83571">
        <ele>1904.56</ele>
        <time>2021-07-21T11:20:12Z</time>
      </trkpt>
      <trkpt lat="44.38189" lon="6.83572">
        <ele>1905.04</ele>
        <time>2021-07-21T11:20:35Z</time>
      </trkpt>
      <trkpt lat="44.38192" lon="6.83573">
        <ele>1905.54</ele>
        <time>2021-07-21T11:20:55Z</time>
      </trkpt>
      <trkpt lat="44.38194" lon="6.83572">
        <ele>1905.51</ele>
        <time>2021-07-21T11:21:20Z</time>
      </trkpt>
      <trkpt lat="44.38197" lon="6.83571">
        <ele>1905.35</ele>
        <time>2021-07-21T11:21:49Z</time>
      </trkpt>
      <trkpt lat="44.38199" lon="6.83573">
        <ele>1905.81</ele>
        <time>2021-07-21T11:22:41Z</time>
      </trkpt>
      <trkpt lat="44.38199" lon="6.83569">
        <ele>1904.9</ele>
        <time>2021-07-21T11:23:35Z</time>
      </trkpt>
      <trkpt lat="44.382" lon="6.83573">
        <ele>1905.82</ele>
        <time>2021-07-21T11:25:39Z</time>
      </trkpt>
      <trkpt lat="44.38202" lon="6.83576">
        <ele>1906.54</ele>
        <time>2021-07-21T11:25:44Z</time>
      </trkpt>
      <trkpt lat="44.38203" lon="6.8358">
        <ele>1907.51</ele>
        <time>2021-07-21T11:25:47Z</time>
      </trkpt>
      <trkpt lat="44.38204" lon="6.83583">
        <ele>1908.26</ele>
        <time>2021-07-21T11:25:51Z</time>
      </trkpt>
      <trkpt lat="44.38204" lon="6.83587">
        <ele>1909.01</ele>
        <time>2021-07-21T11:26:04Z</time>
      </trkpt>
      <trkpt lat="44.38206" lon="6.83584">
        <ele>1908.54</ele>
        <time>2021-07-21T11:26:18Z</time>
      </trkpt>
      <trkpt lat="44.38209" lon="6.83585">
        <ele>1908.86</ele>
        <time>2021-07-21T11:26:31Z</time>
      </trkpt>
      <trkpt lat="44.38212" lon="6.83584">
        <ele>1908.77</ele>
        <time>2021-07-21T11:26:35Z</time>
      </trkpt>
      <trkpt lat="44.38214" lon="6.83582">
        <ele>1908.35</ele>
        <time>2021-07-21T11:26:45Z</time>
      </trkpt>
      <trkpt lat="44.38217" lon="6.8358">
        <ele>1907.9</ele>
        <time>2021-07-21T11:26:53Z</time>
      </trkpt>
      <trkpt lat="44.38219" lon="6.83577">
        <ele>1907.11</ele>
        <time>2021-07-21T11:27:03Z</time>
      </trkpt>
      <trkpt lat="44.38222" lon="6.83574">
        <ele>1906.31</ele>
        <time>2021-07-21T11:27:09Z</time>
      </trkpt>
      <trkpt lat="44.38225" lon="6.83571">
        <ele>1905.65</ele>
        <time>2021-07-21T11:27:12Z</time>
      </trkpt>
      <trkpt lat="44.38228" lon="6.8357">
        <ele>1905.58</ele>
        <time>2021-07-21T11:27:15Z</time>
      </trkpt>
      <trkpt lat="44.3823" lon="6.83567">
        <ele>1904.86</ele>
        <time>2021-07-21T11:27:26Z</time>
      </trkpt>
      <trkpt lat="44.38232" lon="6.83564">
        <ele>1904.14</ele>
        <time>2021-07-21T11:27:29Z</time>
      </trkpt>
      <trkpt lat="44.38234" lon="6.8356">
        <ele>1903.13</ele>
        <time>2021-07-21T11:27:34Z</time>
      </trkpt>
      <trkpt lat="44.38236" lon="6.83558">
        <ele>1902.7</ele>
        <time>2021-07-21T11:27:36Z</time>
      </trkpt>
      <trkpt lat="44.38239" lon="6.83555">
        <ele>1902.12</ele>
        <time>2021-07-21T11:27:39Z</time>
      </trkpt>
      <trkpt lat="44.38241" lon="6.83553">
        <ele>1901.92</ele>
        <time>2021-07-21T11:27:41Z</time>
      </trkpt>
      <trkpt lat="44.38244" lon="6.83551">
        <ele>1901.78</ele>
        <time>2021-07-21T11:27:44Z</time>
      </trkpt>
      <trkpt lat="44.38248" lon="6.8355">
        <ele>1901.87</ele>
        <time>2021-07-21T11:27:48Z</time>
      </trkpt>
      <trkpt lat="44.3825" lon="6.83548">
        <ele>1901.64</ele>
        <time>2021-07-21T11:27:51Z</time>
      </trkpt>
      <trkpt lat="44.38252" lon="6.83545">
        <ele>1900.97</ele>
        <time>2021-07-21T11:27:59Z</time>
      </trkpt>
      <trkpt lat="44.38255" lon="6.83543">
        <ele>1900.4</ele>
        <time>2021-07-21T11:28:04Z</time>
      </trkpt>
      <trkpt lat="44.38258" lon="6.8354">
        <ele>1899.59</ele>
        <time>2021-07-21T11:28:06Z</time>
      </trkpt>
      <trkpt lat="44.38261" lon="6.83539">
        <ele>1899.15</ele>
        <time>2021-07-21T11:28:16Z</time>
      </trkpt>
      <trkpt lat="44.38264" lon="6.83537">
        <ele>1898.48</ele>
        <time>2021-07-21T11:28:19Z</time>
      </trkpt>
      <trkpt lat="44.38266" lon="6.83534">
        <ele>1897.65</ele>
        <time>2021-07-21T11:28:22Z</time>
      </trkpt>
      <trkpt lat="44.38269" lon="6.83533">
        <ele>1897.15</ele>
        <time>2021-07-21T11:28:25Z</time>
      </trkpt>
      <trkpt lat="44.38271" lon="6.83535">
        <ele>1897.43</ele>
        <time>2021-07-21T11:28:27Z</time>
      </trkpt>
      <trkpt lat="44.38274" lon="6.83537">
        <ele>1897.64</ele>
        <time>2021-07-21T11:28:29Z</time>
      </trkpt>
      <trkpt lat="44.38277" lon="6.83538">
        <ele>1897.64</ele>
        <time>2021-07-21T11:28:32Z</time>
      </trkpt>
      <trkpt lat="44.3828" lon="6.83537">
        <ele>1897.16</ele>
        <time>2021-07-21T11:28:35Z</time>
      </trkpt>
      <trkpt lat="44.38284" lon="6.83537">
        <ele>1896.88</ele>
        <time>2021-07-21T11:28:38Z</time>
      </trkpt>
      <trkpt lat="44.38287" lon="6.83539">
        <ele>1897.16</ele>
        <time>2021-07-21T11:28:41Z</time>
      </trkpt>
      <trkpt lat="44.3829" lon="6.83538">
        <ele>1896.7</ele>
        <time>2021-07-21T11:28:44Z</time>
      </trkpt>
      <trkpt lat="44.38293" lon="6.83536">
        <ele>1895.98</ele>
        <time>2021-07-21T11:28:47Z</time>
      </trkpt>
      <trkpt lat="44.38296" lon="6.83536">
        <ele>1895.76</ele>
        <time>2021-07-21T11:28:50Z</time>
      </trkpt>
      <trkpt lat="44.38299" lon="6.83535">
        <ele>1895.29</ele>
        <time>2021-07-21T11:28:53Z</time>
      </trkpt>
      <trkpt lat="44.38302" lon="6.83533">
        <ele>1894.57</ele>
        <time>2021-07-21T11:28:55Z</time>
      </trkpt>
      <trkpt lat="44.38304" lon="6.83531">
        <ele>1893.92</ele>
        <time>2021-07-21T11:28:58Z</time>
      </trkpt>
      <trkpt lat="44.38307" lon="6.83529">
        <ele>1893.35</ele>
        <time>2021-07-21T11:29:01Z</time>
      </trkpt>
      <trkpt lat="44.3831" lon="6.83528">
        <ele>1893.21</ele>
        <time>2021-07-21T11:29:04Z</time>
      </trkpt>
      <trkpt lat="44.38313" lon="6.8353">
        <ele>1893.74</ele>
        <time>2021-07-21T11:29:09Z</time>
      </trkpt>
      <trkpt lat="44.38316" lon="6.83531">
        <ele>1894.01</ele>
        <time>2021-07-21T11:29:13Z</time>
      </trkpt>
      <trkpt lat="44.38318" lon="6.8353">
        <ele>1893.86</ele>
        <time>2021-07-21T11:29:29Z</time>
      </trkpt>
      <trkpt lat="44.38321" lon="6.83528">
        <ele>1893.59</ele>
        <time>2021-07-21T11:29:37Z</time>
      </trkpt>
      <trkpt lat="44.38324" lon="6.8353">
        <ele>1894.01</ele>
        <time>2021-07-21T11:29:41Z</time>
      </trkpt>
      <trkpt lat="44.38327" lon="6.83532">
        <ele>1894.37</ele>
        <time>2021-07-21T11:29:43Z</time>
      </trkpt>
      <trkpt lat="44.3833" lon="6.83534">
        <ele>1894.66</ele>
        <time>2021-07-21T11:29:46Z</time>
      </trkpt>
      <trkpt lat="44.38332" lon="6.83536">
        <ele>1894.9</ele>
        <time>2021-07-21T11:29:56Z</time>
      </trkpt>
      <trkpt lat="44.38335" lon="6.83536">
        <ele>1894.93</ele>
        <time>2021-07-21T11:30:00Z</time>
      </trkpt>
      <trkpt lat="44.38338" lon="6.83536">
        <ele>1895.01</ele>
        <time>2021-07-21T11:30:05Z</time>
      </trkpt>
      <trkpt lat="44.38341" lon="6.83536">
        <ele>1895.08</ele>
        <time>2021-07-21T11:30:09Z</time>
      </trkpt>
      <trkpt lat="44.38344" lon="6.83537">
        <ele>1895.25</ele>
        <time>2021-07-21T11:30:17Z</time>
      </trkpt>
      <trkpt lat="44.38347" lon="6.83538">
        <ele>1895.41</ele>
        <time>2021-07-21T11:30:55Z</time>
      </trkpt>
      <trkpt lat="44.38344" lon="6.8354">
        <ele>1895.54</ele>
        <time>2021-07-21T11:33:02Z</time>
      </trkpt>
      <trkpt lat="44.38341" lon="6.83542">
        <ele>1895.67</ele>
        <time>2021-07-21T11:33:05Z</time>
      </trkpt>
      <trkpt lat="44.38342" lon="6.83537">
        <ele>1895.2</ele>
        <time>2021-07-21T11:34:38Z</time>
      </trkpt>
      <trkpt lat="44.38344" lon="6.83536">
        <ele>1895.16</ele>
        <time>2021-07-21T11:34:42Z</time>
      </trkpt>
      <trkpt lat="44.38346" lon="6.8354">
        <ele>1895.58</ele>
        <time>2021-07-21T11:34:47Z</time>
      </trkpt>
      <trkpt lat="44.38345" lon="6.83543">
        <ele>1895.83</ele>
        <time>2021-07-21T11:34:50Z</time>
      </trkpt>
      <trkpt lat="44.38342" lon="6.83544">
        <ele>1895.88</ele>
        <time>2021-07-21T11:34:57Z</time>
      </trkpt>
      <trkpt lat="44.38344" lon="6.83541">
        <ele>1895.63</ele>
        <time>2021-07-21T11:35:20Z</time>
      </trkpt>
      <trkpt lat="44.38346" lon="6.83537">
        <ele>1895.3</ele>
        <time>2021-07-21T11:35:23Z</time>
      </trkpt>
      <trkpt lat="44.38344" lon="6.83536">
        <ele>1895.16</ele>
        <time>2021-07-21T11:35:30Z</time>
      </trkpt>
      <trkpt lat="44.38341" lon="6.83539">
        <ele>1895.38</ele>
        <time>2021-07-21T11:35:33Z</time>
      </trkpt>
      <trkpt lat="44.38339" lon="6.83542">
        <ele>1895.64</ele>
        <time>2021-07-21T11:35:35Z</time>
      </trkpt>
      <trkpt lat="44.38337" lon="6.83545">
        <ele>1895.91</ele>
        <time>2021-07-21T11:35:38Z</time>
      </trkpt>
      <trkpt lat="44.38339" lon="6.83547">
        <ele>1896.14</ele>
        <time>2021-07-21T11:36:02Z</time>
      </trkpt>
      <trkpt lat="44.38342" lon="6.83549">
        <ele>1896.37</ele>
        <time>2021-07-21T11:36:16Z</time>
      </trkpt>
      <trkpt lat="44.38345" lon="6.83551">
        <ele>1896.58</ele>
        <time>2021-07-21T11:36:19Z</time>
      </trkpt>
      <trkpt lat="44.38342" lon="6.83552">
        <ele>1896.66</ele>
        <time>2021-07-21T11:36:49Z</time>
      </trkpt>
      <trkpt lat="44.38339" lon="6.83552">
        <ele>1896.64</ele>
        <time>2021-07-21T11:36:51Z</time>
      </trkpt>
      <trkpt lat="44.38341" lon="6.83553">
        <ele>1896.75</ele>
        <time>2021-07-21T11:37:01Z</time>
      </trkpt>
      <trkpt lat="44.38346" lon="6.83553">
        <ele>1896.77</ele>
        <time>2021-07-21T11:37:03Z</time>
      </trkpt>
      <trkpt lat="44.38349" lon="6.83553">
        <ele>1896.78</ele>
        <time>2021-07-21T11:37:06Z</time>
      </trkpt>
      <trkpt lat="44.38352" lon="6.83553">
        <ele>1896.79</ele>
        <time>2021-07-21T11:37:09Z</time>
      </trkpt>
      <trkpt lat="44.38355" lon="6.83554">
        <ele>1896.88</ele>
        <time>2021-07-21T11:37:11Z</time>
      </trkpt>
      <trkpt lat="44.38358" lon="6.83558">
        <ele>1897.99</ele>
        <time>2021-07-21T11:37:15Z</time>
      </trkpt>
      <trkpt lat="44.3836" lon="6.83559">
        <ele>1898.37</ele>
        <time>2021-07-21T11:37:20Z</time>
      </trkpt>
      <trkpt lat="44.38363" lon="6.83558">
        <ele>1898.04</ele>
        <time>2021-07-21T11:37:23Z</time>
      </trkpt>
      <trkpt lat="44.38365" lon="6.83555">
        <ele>1897.09</ele>
        <time>2021-07-21T11:37:29Z</time>
      </trkpt>
      <trkpt lat="44.38368" lon="6.83553">
        <ele>1896.97</ele>
        <time>2021-07-21T11:37:36Z</time>
      </trkpt>
      <trkpt lat="44.3837" lon="6.83552">
        <ele>1896.9</ele>
        <time>2021-07-21T11:37:41Z</time>
      </trkpt>
      <trkpt lat="44.38372" lon="6.83555">
        <ele>1897.32</ele>
        <time>2021-07-21T11:37:56Z</time>
      </trkpt>
      <trkpt lat="44.38375" lon="6.83552">
        <ele>1896.99</ele>
        <time>2021-07-21T11:38:32Z</time>
      </trkpt>
      <trkpt lat="44.38378" lon="6.83552">
        <ele>1897.04</ele>
        <time>2021-07-21T11:38:35Z</time>
      </trkpt>
      <trkpt lat="44.38381" lon="6.83551">
        <ele>1896.92</ele>
        <time>2021-07-21T11:38:45Z</time>
      </trkpt>
      <trkpt lat="44.38384" lon="6.8355">
        <ele>1896.76</ele>
        <time>2021-07-21T11:38:51Z</time>
      </trkpt>
      <trkpt lat="44.38386" lon="6.8355">
        <ele>1896.78</ele>
        <time>2021-07-21T11:38:59Z</time>
      </trkpt>
      <trkpt lat="44.38389" lon="6.83549">
        <ele>1896.6</ele>
        <time>2021-07-21T11:39:03Z</time>
      </trkpt>
      <trkpt lat="44.38392" lon="6.83548">
        <ele>1896.72</ele>
        <time>2021-07-21T11:39:07Z</time>
      </trkpt>
      <trkpt lat="44.38395" lon="6.83548">
        <ele>1897.07</ele>
        <time>2021-07-21T11:39:10Z</time>
      </trkpt>
      <trkpt lat="44.38398" lon="6.83547">
        <ele>1897.16</ele>
        <time>2021-07-21T11:39:14Z</time>
      </trkpt>
      <trkpt lat="44.38402" lon="6.83546">
        <ele>1897.34</ele>
        <time>2021-07-21T11:39:17Z</time>
      </trkpt>
      <trkpt lat="44.38405" lon="6.83544">
        <ele>1897.1</ele>
        <time>2021-07-21T11:39:20Z</time>
      </trkpt>
      <trkpt lat="44.38407" lon="6.83543">
        <ele>1897.01</ele>
        <time>2021-07-21T11:39:22Z</time>
      </trkpt>
      <trkpt lat="44.38411" lon="6.83542">
        <ele>1897.09</ele>
        <time>2021-07-21T11:39:24Z</time>
      </trkpt>
      <trkpt lat="44.38414" lon="6.83541">
        <ele>1897.05</ele>
        <time>2021-07-21T11:39:28Z</time>
      </trkpt>
      <trkpt lat="44.38417" lon="6.83541">
        <ele>1897.32</ele>
        <time>2021-07-21T11:39:32Z</time>
      </trkpt>
      <trkpt lat="44.38421" lon="6.83541">
        <ele>1897.74</ele>
        <time>2021-07-21T11:39:37Z</time>
      </trkpt>
      <trkpt lat="44.38424" lon="6.83541">
        <ele>1898.05</ele>
        <time>2021-07-21T11:39:38Z</time>
      </trkpt>
      <trkpt lat="44.38427" lon="6.83539">
        <ele>1897.61</ele>
        <time>2021-07-21T11:39:42Z</time>
      </trkpt>
      <trkpt lat="44.38431" lon="6.83539">
        <ele>1897.99</ele>
        <time>2021-07-21T11:39:46Z</time>
      </trkpt>
      <trkpt lat="44.38433" lon="6.83538">
        <ele>1897.77</ele>
        <time>2021-07-21T11:39:49Z</time>
      </trkpt>
      <trkpt lat="44.38437" lon="6.83536">
        <ele>1897.26</ele>
        <time>2021-07-21T11:39:53Z</time>
      </trkpt>
      <trkpt lat="44.3844" lon="6.83535">
        <ele>1897.05</ele>
        <time>2021-07-21T11:39:55Z</time>
      </trkpt>
      <trkpt lat="44.38443" lon="6.83534">
        <ele>1896.81</ele>
        <time>2021-07-21T11:39:58Z</time>
      </trkpt>
      <trkpt lat="44.38446" lon="6.83534">
        <ele>1897.41</ele>
        <time>2021-07-21T11:40:01Z</time>
      </trkpt>
      <trkpt lat="44.38449" lon="6.83534">
        <ele>1898.37</ele>
        <time>2021-07-21T11:40:05Z</time>
      </trkpt>
      <trkpt lat="44.38452" lon="6.83535">
        <ele>1899.75</ele>
        <time>2021-07-21T11:40:07Z</time>
      </trkpt>
      <trkpt lat="44.38455" lon="6.83536">
        <ele>1901.09</ele>
        <time>2021-07-21T11:40:11Z</time>
      </trkpt>
      <trkpt lat="44.38457" lon="6.83537">
        <ele>1902.09</ele>
        <time>2021-07-21T11:40:14Z</time>
      </trkpt>
      <trkpt lat="44.3846" lon="6.83535">
        <ele>1902.25</ele>
        <time>2021-07-21T11:40:19Z</time>
      </trkpt>
      <trkpt lat="44.38462" lon="6.83533">
        <ele>1902.17</ele>
        <time>2021-07-21T11:40:22Z</time>
      </trkpt>
      <trkpt lat="44.38465" lon="6.83531">
        <ele>1902.48</ele>
        <time>2021-07-21T11:40:27Z</time>
      </trkpt>
      <trkpt lat="44.38467" lon="6.83528">
        <ele>1902.19</ele>
        <time>2021-07-21T11:40:30Z</time>
      </trkpt>
      <trkpt lat="44.3847" lon="6.83526">
        <ele>1902.84</ele>
        <time>2021-07-21T11:40:32Z</time>
      </trkpt>
      <trkpt lat="44.38473" lon="6.83523">
        <ele>1903.13</ele>
        <time>2021-07-21T11:40:36Z</time>
      </trkpt>
      <trkpt lat="44.38476" lon="6.83522">
        <ele>1903.54</ele>
        <time>2021-07-21T11:40:38Z</time>
      </trkpt>
      <trkpt lat="44.38478" lon="6.83521">
        <ele>1903.73</ele>
        <time>2021-07-21T11:40:44Z</time>
      </trkpt>
      <trkpt lat="44.38482" lon="6.83519">
        <ele>1904.1</ele>
        <time>2021-07-21T11:40:49Z</time>
      </trkpt>
      <trkpt lat="44.38484" lon="6.83517">
        <ele>1904.05</ele>
        <time>2021-07-21T11:40:52Z</time>
      </trkpt>
      <trkpt lat="44.38487" lon="6.83515">
        <ele>1904.19</ele>
        <time>2021-07-21T11:40:55Z</time>
      </trkpt>
      <trkpt lat="44.38488" lon="6.83511">
        <ele>1903.44</ele>
        <time>2021-07-21T11:41:05Z</time>
      </trkpt>
      <trkpt lat="44.38491" lon="6.83511">
        <ele>1904.02</ele>
        <time>2021-07-21T11:41:07Z</time>
      </trkpt>
      <trkpt lat="44.38494" lon="6.83513">
        <ele>1905.09</ele>
        <time>2021-07-21T11:41:10Z</time>
      </trkpt>
      <trkpt lat="44.38497" lon="6.83514">
        <ele>1905.93</ele>
        <time>2021-07-21T11:41:12Z</time>
      </trkpt>
      <trkpt lat="44.38501" lon="6.83514">
        <ele>1906.55</ele>
        <time>2021-07-21T11:41:14Z</time>
      </trkpt>
      <trkpt lat="44.38503" lon="6.83514">
        <ele>1906.58</ele>
        <time>2021-07-21T11:41:17Z</time>
      </trkpt>
      <trkpt lat="44.38506" lon="6.83515">
        <ele>1906.9</ele>
        <time>2021-07-21T11:41:20Z</time>
      </trkpt>
      <trkpt lat="44.3851" lon="6.83515">
        <ele>1906.97</ele>
        <time>2021-07-21T11:41:23Z</time>
      </trkpt>
      <trkpt lat="44.38512" lon="6.83516">
        <ele>1907.28</ele>
        <time>2021-07-21T11:41:30Z</time>
      </trkpt>
      <trkpt lat="44.38515" lon="6.83518">
        <ele>1907.89</ele>
        <time>2021-07-21T11:41:32Z</time>
      </trkpt>
      <trkpt lat="44.38518" lon="6.83519">
        <ele>1908.23</ele>
        <time>2021-07-21T11:41:36Z</time>
      </trkpt>
      <trkpt lat="44.38521" lon="6.83519">
        <ele>1908.31</ele>
        <time>2021-07-21T11:41:40Z</time>
      </trkpt>
      <trkpt lat="44.38524" lon="6.83517">
        <ele>1907.81</ele>
        <time>2021-07-21T11:41:45Z</time>
      </trkpt>
      <trkpt lat="44.38527" lon="6.83516">
        <ele>1907.59</ele>
        <time>2021-07-21T11:41:50Z</time>
      </trkpt>
      <trkpt lat="44.38529" lon="6.83515">
        <ele>1907.06</ele>
        <time>2021-07-21T11:41:54Z</time>
      </trkpt>
      <trkpt lat="44.38532" lon="6.83515">
        <ele>1906.41</ele>
        <time>2021-07-21T11:42:16Z</time>
      </trkpt>
      <trkpt lat="44.38535" lon="6.83514">
        <ele>1905.47</ele>
        <time>2021-07-21T11:42:18Z</time>
      </trkpt>
      <trkpt lat="44.38537" lon="6.83513">
        <ele>1904.75</ele>
        <time>2021-07-21T11:42:20Z</time>
      </trkpt>
      <trkpt lat="44.3854" lon="6.83513">
        <ele>1904.1</ele>
        <time>2021-07-21T11:42:22Z</time>
      </trkpt>
      <trkpt lat="44.38543" lon="6.83514">
        <ele>1903.74</ele>
        <time>2021-07-21T11:42:25Z</time>
      </trkpt>
      <trkpt lat="44.38545" lon="6.83517">
        <ele>1904.18</ele>
        <time>2021-07-21T11:43:00Z</time>
      </trkpt>
      <trkpt lat="44.38548" lon="6.83517">
        <ele>1903.53</ele>
        <time>2021-07-21T11:43:04Z</time>
      </trkpt>
      <trkpt lat="44.38551" lon="6.83516">
        <ele>1902.59</ele>
        <time>2021-07-21T11:43:07Z</time>
      </trkpt>
      <trkpt lat="44.38554" lon="6.83515">
        <ele>1901.66</ele>
        <time>2021-07-21T11:43:09Z</time>
      </trkpt>
      <trkpt lat="44.38558" lon="6.83515">
        <ele>1901.72</ele>
        <time>2021-07-21T11:43:12Z</time>
      </trkpt>
      <trkpt lat="44.38562" lon="6.83514">
        <ele>1902.08</ele>
        <time>2021-07-21T11:43:15Z</time>
      </trkpt>
      <trkpt lat="44.38564" lon="6.83512">
        <ele>1901.8</ele>
        <time>2021-07-21T11:43:19Z</time>
      </trkpt>
      <trkpt lat="44.38567" lon="6.8351">
        <ele>1901.68</ele>
        <time>2021-07-21T11:43:24Z</time>
      </trkpt>
      <trkpt lat="44.3857" lon="6.83508">
        <ele>1901.53</ele>
        <time>2021-07-21T11:43:27Z</time>
      </trkpt>
      <trkpt lat="44.38573" lon="6.83506">
        <ele>1901.38</ele>
        <time>2021-07-21T11:43:29Z</time>
      </trkpt>
      <trkpt lat="44.38575" lon="6.83504">
        <ele>1901.05</ele>
        <time>2021-07-21T11:43:32Z</time>
      </trkpt>
      <trkpt lat="44.38578" lon="6.83502">
        <ele>1900.87</ele>
        <time>2021-07-21T11:43:36Z</time>
      </trkpt>
      <trkpt lat="44.38581" lon="6.83502">
        <ele>1901.31</ele>
        <time>2021-07-21T11:43:39Z</time>
      </trkpt>
      <trkpt lat="44.38584" lon="6.83501">
        <ele>1901.52</ele>
        <time>2021-07-21T11:43:42Z</time>
      </trkpt>
      <trkpt lat="44.38587" lon="6.835">
        <ele>1902.06</ele>
        <time>2021-07-21T11:43:46Z</time>
      </trkpt>
      <trkpt lat="44.3859" lon="6.835">
        <ele>1902.92</ele>
        <time>2021-07-21T11:43:53Z</time>
      </trkpt>
      <trkpt lat="44.38593" lon="6.83499">
        <ele>1903.53</ele>
        <time>2021-07-21T11:43:56Z</time>
      </trkpt>
      <trkpt lat="44.38596" lon="6.83497">
        <ele>1903.85</ele>
        <time>2021-07-21T11:43:59Z</time>
      </trkpt>
      <trkpt lat="44.38598" lon="6.83494">
        <ele>1903.59</ele>
        <time>2021-07-21T11:44:08Z</time>
      </trkpt>
      <trkpt lat="44.38601" lon="6.83492">
        <ele>1903.81</ele>
        <time>2021-07-21T11:44:11Z</time>
      </trkpt>
      <trkpt lat="44.38603" lon="6.8349">
        <ele>1903.74</ele>
        <time>2021-07-21T11:44:14Z</time>
      </trkpt>
      <trkpt lat="44.38605" lon="6.83487">
        <ele>1903.34</ele>
        <time>2021-07-21T11:44:17Z</time>
      </trkpt>
      <trkpt lat="44.38608" lon="6.83484">
        <ele>1903.11</ele>
        <time>2021-07-21T11:44:20Z</time>
      </trkpt>
      <trkpt lat="44.38611" lon="6.83482">
        <ele>1903.14</ele>
        <time>2021-07-21T11:44:24Z</time>
      </trkpt>
      <trkpt lat="44.38613" lon="6.8348">
        <ele>1902.66</ele>
        <time>2021-07-21T11:44:35Z</time>
      </trkpt>
      <trkpt lat="44.38617" lon="6.83477">
        <ele>1901.97</ele>
        <time>2021-07-21T11:44:38Z</time>
      </trkpt>
      <trkpt lat="44.3862" lon="6.83476">
        <ele>1901.86</ele>
        <time>2021-07-21T11:44:40Z</time>
      </trkpt>
      <trkpt lat="44.38622" lon="6.83474">
        <ele>1901.36</ele>
        <time>2021-07-21T11:44:42Z</time>
      </trkpt>
      <trkpt lat="44.38625" lon="6.83472">
        <ele>1900.96</ele>
        <time>2021-07-21T11:44:57Z</time>
      </trkpt>
      <trkpt lat="44.38624" lon="6.83476">
        <ele>1902.15</ele>
        <time>2021-07-21T11:45:10Z</time>
      </trkpt>
      <trkpt lat="44.38621" lon="6.83479">
        <ele>1902.91</ele>
        <time>2021-07-21T11:45:12Z</time>
      </trkpt>
      <trkpt lat="44.38617" lon="6.83478">
        <ele>1902.3</ele>
        <time>2021-07-21T11:45:13Z</time>
      </trkpt>
      <trkpt lat="44.38611" lon="6.83477">
        <ele>1901.53</ele>
        <time>2021-07-21T11:45:16Z</time>
      </trkpt>
      <trkpt lat="44.38606" lon="6.83479">
        <ele>1901.14</ele>
        <time>2021-07-21T11:45:19Z</time>
      </trkpt>
      <trkpt lat="44.38604" lon="6.83482">
        <ele>1901.62</ele>
        <time>2021-07-21T11:45:38Z</time>
      </trkpt>
      <trkpt lat="44.38608" lon="6.8348">
        <ele>1901.87</ele>
        <time>2021-07-21T11:45:55Z</time>
      </trkpt>
      <trkpt lat="44.38612" lon="6.83482">
        <ele>1903.23</ele>
        <time>2021-07-21T11:45:57Z</time>
      </trkpt>
      <trkpt lat="44.38615" lon="6.83482">
        <ele>1903.45</ele>
        <time>2021-07-21T11:46:00Z</time>
      </trkpt>
      <trkpt lat="44.38618" lon="6.83483">
        <ele>1903.99</ele>
        <time>2021-07-21T11:46:04Z</time>
      </trkpt>
      <trkpt lat="44.38622" lon="6.83482">
        <ele>1903.95</ele>
        <time>2021-07-21T11:46:06Z</time>
      </trkpt>
      <trkpt lat="44.38624" lon="6.83479">
        <ele>1903.12</ele>
        <time>2021-07-21T11:46:08Z</time>
      </trkpt>
      <trkpt lat="44.38628" lon="6.83472">
        <ele>1901.17</ele>
        <time>2021-07-21T11:46:13Z</time>
      </trkpt>
      <trkpt lat="44.38631" lon="6.83467">
        <ele>1900.36</ele>
        <time>2021-07-21T11:46:30Z</time>
      </trkpt>
      <trkpt lat="44.38633" lon="6.83463">
        <ele>1899.65</ele>
        <time>2021-07-21T11:46:32Z</time>
      </trkpt>
      <trkpt lat="44.38636" lon="6.83456">
        <ele>1898.35</ele>
        <time>2021-07-21T11:46:34Z</time>
      </trkpt>
      <trkpt lat="44.3864" lon="6.8345">
        <ele>1897.35</ele>
        <time>2021-07-21T11:46:36Z</time>
      </trkpt>
      <trkpt lat="44.38643" lon="6.83441">
        <ele>1896.1</ele>
        <time>2021-07-21T11:46:39Z</time>
      </trkpt>
      <trkpt lat="44.38644" lon="6.83432">
        <ele>1894.94</ele>
        <time>2021-07-21T11:46:43Z</time>
      </trkpt>
      <trkpt lat="44.38644" lon="6.83424">
        <ele>1893.79</ele>
        <time>2021-07-21T11:46:46Z</time>
      </trkpt>
      <trkpt lat="44.38647" lon="6.83425">
        <ele>1894.37</ele>
        <time>2021-07-21T11:47:07Z</time>
      </trkpt>
      <trkpt lat="44.38646" lon="6.83421">
        <ele>1893.65</ele>
        <time>2021-07-21T11:47:30Z</time>
      </trkpt>
      <trkpt lat="44.38643" lon="6.83419">
        <ele>1892.93</ele>
        <time>2021-07-21T11:47:36Z</time>
      </trkpt>
      <trkpt lat="44.3864" lon="6.83419">
        <ele>1892.5</ele>
        <time>2021-07-21T11:47:58Z</time>
      </trkpt>
      <trkpt lat="44.38636" lon="6.83417">
        <ele>1892.25</ele>
        <time>2021-07-21T11:47:59Z</time>
      </trkpt>
      <trkpt lat="44.38634" lon="6.83415">
        <ele>1892.29</ele>
        <time>2021-07-21T11:48:03Z</time>
      </trkpt>
      <trkpt lat="44.38631" lon="6.83413">
        <ele>1892.44</ele>
        <time>2021-07-21T11:48:06Z</time>
      </trkpt>
      <trkpt lat="44.3863" lon="6.8341">
        <ele>1892.4</ele>
        <time>2021-07-21T11:48:17Z</time>
      </trkpt>
      <trkpt lat="44.38627" lon="6.83406">
        <ele>1892.47</ele>
        <time>2021-07-21T11:48:29Z</time>
      </trkpt>
      <trkpt lat="44.38626" lon="6.83409">
        <ele>1892.65</ele>
        <time>2021-07-21T11:49:06Z</time>
      </trkpt>
      <trkpt lat="44.38629" lon="6.8341">
        <ele>1892.47</ele>
        <time>2021-07-21T11:49:48Z</time>
      </trkpt>
      <trkpt lat="44.38632" lon="6.8341">
        <ele>1892.26</ele>
        <time>2021-07-21T11:50:11Z</time>
      </trkpt>
      <trkpt lat="44.38632" lon="6.83405">
        <ele>1892.08</ele>
        <time>2021-07-21T11:51:36Z</time>
      </trkpt>
      <trkpt lat="44.38634" lon="6.83408">
        <ele>1892.04</ele>
        <time>2021-07-21T11:51:54Z</time>
      </trkpt>
      <trkpt lat="44.38637" lon="6.8341">
        <ele>1891.9</ele>
        <time>2021-07-21T11:52:02Z</time>
      </trkpt>
      <trkpt lat="44.3864" lon="6.83412">
        <ele>1891.97</ele>
        <time>2021-07-21T11:52:10Z</time>
      </trkpt>
      <trkpt lat="44.38642" lon="6.83414">
        <ele>1892.32</ele>
        <time>2021-07-21T11:52:33Z</time>
      </trkpt>
      <trkpt lat="44.38645" lon="6.83415">
        <ele>1892.78</ele>
        <time>2021-07-21T11:52:43Z</time>
      </trkpt>
      <trkpt lat="44.38645" lon="6.83418">
        <ele>1893.07</ele>
        <time>2021-07-21T11:53:58Z</time>
      </trkpt>
      <trkpt lat="44.38645" lon="6.83422">
        <ele>1893.65</ele>
        <time>2021-07-21T11:54:05Z</time>
      </trkpt>
      <trkpt lat="44.38643" lon="6.83423">
        <ele>1893.5</ele>
        <time>2021-07-21T11:54:27Z</time>
      </trkpt>
      <trkpt lat="44.3864" lon="6.83422">
        <ele>1892.93</ele>
        <time>2021-07-21T11:54:37Z</time>
      </trkpt>
      <trkpt lat="44.38643" lon="6.83424">
        <ele>1893.65</ele>
        <time>2021-07-21T11:54:59Z</time>
      </trkpt>
      <trkpt lat="44.38646" lon="6.83431">
        <ele>1895.09</ele>
        <time>2021-07-21T11:55:05Z</time>
      </trkpt>
      <trkpt lat="44.38651" lon="6.83439">
        <ele>1896.96</ele>
        <time>2021-07-21T11:55:09Z</time>
      </trkpt>
      <trkpt lat="44.38656" lon="6.83449">
        <ele>1899.35</ele>
        <time>2021-07-21T11:55:13Z</time>
      </trkpt>
      <trkpt lat="44.38661" lon="6.83455">
        <ele>1901.16</ele>
        <time>2021-07-21T11:55:15Z</time>
      </trkpt>
      <trkpt lat="44.38666" lon="6.83459">
        <ele>1902.54</ele>
        <time>2021-07-21T11:55:17Z</time>
      </trkpt>
      <trkpt lat="44.38673" lon="6.83464">
        <ele>1905.34</ele>
        <time>2021-07-21T11:55:20Z</time>
      </trkpt>
      <trkpt lat="44.38679" lon="6.83467">
        <ele>1907.61</ele>
        <time>2021-07-21T11:55:23Z</time>
      </trkpt>
      <trkpt lat="44.38684" lon="6.8347">
        <ele>1909.59</ele>
        <time>2021-07-21T11:55:25Z</time>
      </trkpt>
      <trkpt lat="44.38691" lon="6.83474">
        <ele>1912.46</ele>
        <time>2021-07-21T11:55:29Z</time>
      </trkpt>
      <trkpt lat="44.38696" lon="6.83479">
        <ele>1914.88</ele>
        <time>2021-07-21T11:55:31Z</time>
      </trkpt>
      <trkpt lat="44.38701" lon="6.83486">
        <ele>1917.18</ele>
        <time>2021-07-21T11:55:35Z</time>
      </trkpt>
      <trkpt lat="44.38707" lon="6.8349">
        <ele>1918.84</ele>
        <time>2021-07-21T11:55:38Z</time>
      </trkpt>
      <trkpt lat="44.38712" lon="6.83497">
        <ele>1921.14</ele>
        <time>2021-07-21T11:55:41Z</time>
      </trkpt>
      <trkpt lat="44.38717" lon="6.83502">
        <ele>1922.82</ele>
        <time>2021-07-21T11:55:43Z</time>
      </trkpt>
      <trkpt lat="44.38722" lon="6.83508">
        <ele>1924.42</ele>
        <time>2021-07-21T11:55:46Z</time>
      </trkpt>
      <trkpt lat="44.38728" lon="6.83513">
        <ele>1924.73</ele>
        <time>2021-07-21T11:55:49Z</time>
      </trkpt>
      <trkpt lat="44.38734" lon="6.8352">
        <ele>1925.14</ele>
        <time>2021-07-21T11:55:52Z</time>
      </trkpt>
      <trkpt lat="44.3874" lon="6.83525">
        <ele>1925.07</ele>
        <time>2021-07-21T11:55:55Z</time>
      </trkpt>
      <trkpt lat="44.38747" lon="6.8353">
        <ele>1924.91</ele>
        <time>2021-07-21T11:55:58Z</time>
      </trkpt>
      <trkpt lat="44.3875" lon="6.83536">
        <ele>1925.78</ele>
        <time>2021-07-21T11:56:01Z</time>
      </trkpt>
      <trkpt lat="44.38756" lon="6.83542">
        <ele>1926.63</ele>
        <time>2021-07-21T11:56:05Z</time>
      </trkpt>
      <trkpt lat="44.38758" lon="6.83539">
        <ele>1925.9</ele>
        <time>2021-07-21T11:56:19Z</time>
      </trkpt>
      <trkpt lat="44.38761" lon="6.83539">
        <ele>1925.71</ele>
        <time>2021-07-21T11:56:29Z</time>
      </trkpt>
      <trkpt lat="44.38764" lon="6.83541">
        <ele>1925.87</ele>
        <time>2021-07-21T11:56:31Z</time>
      </trkpt>
      <trkpt lat="44.38765" lon="6.83545">
        <ele>1926.51</ele>
        <time>2021-07-21T11:56:33Z</time>
      </trkpt>
      <trkpt lat="44.38766" lon="6.8355">
        <ele>1927.3</ele>
        <time>2021-07-21T11:56:37Z</time>
      </trkpt>
      <trkpt lat="44.38766" lon="6.83555">
        <ele>1928.18</ele>
        <time>2021-07-21T11:56:40Z</time>
      </trkpt>
      <trkpt lat="44.38764" lon="6.83552">
        <ele>1927.85</ele>
        <time>2021-07-21T11:56:50Z</time>
      </trkpt>
      <trkpt lat="44.38764" lon="6.83556">
        <ele>1928.64</ele>
        <time>2021-07-21T11:56:58Z</time>
      </trkpt>
      <trkpt lat="44.38763" lon="6.8356">
        <ele>1930.11</ele>
        <time>2021-07-21T11:57:01Z</time>
      </trkpt>
      <trkpt lat="44.38763" lon="6.83564">
        <ele>1931.47</ele>
        <time>2021-07-21T11:57:05Z</time>
      </trkpt>
      <trkpt lat="44.38763" lon="6.83569">
        <ele>1933.18</ele>
        <time>2021-07-21T11:57:09Z</time>
      </trkpt>
      <trkpt lat="44.38762" lon="6.83573">
        <ele>1934.63</ele>
        <time>2021-07-21T11:57:13Z</time>
      </trkpt>
      <trkpt lat="44.38762" lon="6.83577">
        <ele>1935.99</ele>
        <time>2021-07-21T11:57:17Z</time>
      </trkpt>
      <trkpt lat="44.38765" lon="6.83575">
        <ele>1935.06</ele>
        <time>2021-07-21T11:58:07Z</time>
      </trkpt>
      <trkpt lat="44.38765" lon="6.83571">
        <ele>1933.68</ele>
        <time>2021-07-21T11:58:11Z</time>
      </trkpt>
      <trkpt lat="44.38768" lon="6.8357">
        <ele>1933.07</ele>
        <time>2021-07-21T11:58:23Z</time>
      </trkpt>
      <trkpt lat="44.38767" lon="6.83574">
        <ele>1934.55</ele>
        <time>2021-07-21T11:58:45Z</time>
      </trkpt>
      <trkpt lat="44.38765" lon="6.83572">
        <ele>1934.03</ele>
        <time>2021-07-21T11:59:29Z</time>
      </trkpt>
      <trkpt lat="44.38765" lon="6.83566">
        <ele>1931.97</ele>
        <time>2021-07-21T11:59:39Z</time>
      </trkpt>
      <trkpt lat="44.38766" lon="6.83562">
        <ele>1930.49</ele>
        <time>2021-07-21T11:59:45Z</time>
      </trkpt>
      <trkpt lat="44.38764" lon="6.83559">
        <ele>1929.67</ele>
        <time>2021-07-21T11:59:49Z</time>
      </trkpt>
      <trkpt lat="44.38763" lon="6.83555">
        <ele>1928.49</ele>
        <time>2021-07-21T11:59:52Z</time>
      </trkpt>
      <trkpt lat="44.38761" lon="6.83551">
        <ele>1927.96</ele>
        <time>2021-07-21T11:59:56Z</time>
      </trkpt>
      <trkpt lat="44.3876" lon="6.83547">
        <ele>1927.29</ele>
        <time>2021-07-21T12:00:01Z</time>
      </trkpt>
      <trkpt lat="44.38761" lon="6.83544">
        <ele>1926.65</ele>
        <time>2021-07-21T12:00:12Z</time>
      </trkpt>
      <trkpt lat="44.3876" lon="6.8354">
        <ele>1925.96</ele>
        <time>2021-07-21T12:01:33Z</time>
      </trkpt>
      <trkpt lat="44.38757" lon="6.83537">
        <ele>1925.57</ele>
        <time>2021-07-21T12:01:50Z</time>
      </trkpt>
      <trkpt lat="44.38755" lon="6.83535">
        <ele>1925.29</ele>
        <time>2021-07-21T12:01:56Z</time>
      </trkpt>
      <trkpt lat="44.38752" lon="6.83534">
        <ele>1925.24</ele>
        <time>2021-07-21T12:01:58Z</time>
      </trkpt>
      <trkpt lat="44.38749" lon="6.83531">
        <ele>1924.84</ele>
        <time>2021-07-21T12:02:02Z</time>
      </trkpt>
      <trkpt lat="44.38747" lon="6.83528">
        <ele>1924.48</ele>
        <time>2021-07-21T12:02:05Z</time>
      </trkpt>
      <trkpt lat="44.38745" lon="6.83525">
        <ele>1924.38</ele>
        <time>2021-07-21T12:02:08Z</time>
      </trkpt>
      <trkpt lat="44.38744" lon="6.83521">
        <ele>1924.03</ele>
        <time>2021-07-21T12:02:21Z</time>
      </trkpt>
      <trkpt lat="44.3874" lon="6.83517">
        <ele>1924</ele>
        <time>2021-07-21T12:02:23Z</time>
      </trkpt>
      <trkpt lat="44.38735" lon="6.83514">
        <ele>1924.14</ele>
        <time>2021-07-21T12:02:25Z</time>
      </trkpt>
      <trkpt lat="44.38728" lon="6.83511">
        <ele>1924.4</ele>
        <time>2021-07-21T12:02:29Z</time>
      </trkpt>
      <trkpt lat="44.38723" lon="6.83503">
        <ele>1923.48</ele>
        <time>2021-07-21T12:02:32Z</time>
      </trkpt>
      <trkpt lat="44.38717" lon="6.83498">
        <ele>1921.93</ele>
        <time>2021-07-21T12:02:36Z</time>
      </trkpt>
      <trkpt lat="44.38711" lon="6.83495">
        <ele>1920.53</ele>
        <time>2021-07-21T12:02:38Z</time>
      </trkpt>
      <trkpt lat="44.38707" lon="6.83489">
        <ele>1918.58</ele>
        <time>2021-07-21T12:02:42Z</time>
      </trkpt>
      <trkpt lat="44.38702" lon="6.83482">
        <ele>1916.28</ele>
        <time>2021-07-21T12:02:44Z</time>
      </trkpt>
      <trkpt lat="44.38696" lon="6.83477">
        <ele>1914.37</ele>
        <time>2021-07-21T12:02:47Z</time>
      </trkpt>
      <trkpt lat="44.38691" lon="6.83471">
        <ele>1911.79</ele>
        <time>2021-07-21T12:02:50Z</time>
      </trkpt>
      <trkpt lat="44.38685" lon="6.83461">
        <ele>1908.26</ele>
        <time>2021-07-21T12:02:54Z</time>
      </trkpt>
      <trkpt lat="44.38681" lon="6.83455">
        <ele>1906.03</ele>
        <time>2021-07-21T12:02:57Z</time>
      </trkpt>
      <trkpt lat="44.38676" lon="6.83451">
        <ele>1903.87</ele>
        <time>2021-07-21T12:02:59Z</time>
      </trkpt>
      <trkpt lat="44.38668" lon="6.83448">
        <ele>1901.02</ele>
        <time>2021-07-21T12:03:03Z</time>
      </trkpt>
      <trkpt lat="44.38661" lon="6.83445">
        <ele>1899.29</ele>
        <time>2021-07-21T12:03:05Z</time>
      </trkpt>
      <trkpt lat="44.38656" lon="6.8344">
        <ele>1897.82</ele>
        <time>2021-07-21T12:03:08Z</time>
      </trkpt>
      <trkpt lat="44.38649" lon="6.83435">
        <ele>1896.1</ele>
        <time>2021-07-21T12:03:11Z</time>
      </trkpt>
      <trkpt lat="44.38645" lon="6.83428">
        <ele>1894.51</ele>
        <time>2021-07-21T12:03:15Z</time>
      </trkpt>
      <trkpt lat="44.38645" lon="6.83417">
        <ele>1892.93</ele>
        <time>2021-07-21T12:03:20Z</time>
      </trkpt>
      <trkpt lat="44.38649" lon="6.83411">
        <ele>1893.03</ele>
        <time>2021-07-21T12:03:23Z</time>
      </trkpt>
      <trkpt lat="44.38653" lon="6.83405">
        <ele>1892.97</ele>
        <time>2021-07-21T12:03:25Z</time>
      </trkpt>
      <trkpt lat="44.38657" lon="6.83398">
        <ele>1892.62</ele>
        <time>2021-07-21T12:03:28Z</time>
      </trkpt>
      <trkpt lat="44.38661" lon="6.83393">
        <ele>1892.3</ele>
        <time>2021-07-21T12:03:32Z</time>
      </trkpt>
      <trkpt lat="44.38667" lon="6.83389">
        <ele>1892.08</ele>
        <time>2021-07-21T12:03:36Z</time>
      </trkpt>
      <trkpt lat="44.38674" lon="6.83389">
        <ele>1893.34</ele>
        <time>2021-07-21T12:03:39Z</time>
      </trkpt>
      <trkpt lat="44.3868" lon="6.83385">
        <ele>1893.99</ele>
        <time>2021-07-21T12:03:43Z</time>
      </trkpt>
      <trkpt lat="44.38683" lon="6.83377">
        <ele>1893.58</ele>
        <time>2021-07-21T12:03:46Z</time>
      </trkpt>
      <trkpt lat="44.38689" lon="6.83373">
        <ele>1893.96</ele>
        <time>2021-07-21T12:03:49Z</time>
      </trkpt>
      <trkpt lat="44.38695" lon="6.83371">
        <ele>1894.48</ele>
        <time>2021-07-21T12:03:51Z</time>
      </trkpt>
      <trkpt lat="44.387" lon="6.83369">
        <ele>1894.65</ele>
        <time>2021-07-21T12:03:54Z</time>
      </trkpt>
      <trkpt lat="44.38707" lon="6.83366">
        <ele>1894.77</ele>
        <time>2021-07-21T12:03:58Z</time>
      </trkpt>
      <trkpt lat="44.38715" lon="6.83362">
        <ele>1894.66</ele>
        <time>2021-07-21T12:04:02Z</time>
      </trkpt>
      <trkpt lat="44.38722" lon="6.8336">
        <ele>1894.74</ele>
        <time>2021-07-21T12:04:04Z</time>
      </trkpt>
      <trkpt lat="44.38728" lon="6.83357">
        <ele>1894.77</ele>
        <time>2021-07-21T12:04:08Z</time>
      </trkpt>
      <trkpt lat="44.38734" lon="6.83353">
        <ele>1894.64</ele>
        <time>2021-07-21T12:04:13Z</time>
      </trkpt>
      <trkpt lat="44.38737" lon="6.83344">
        <ele>1893.23</ele>
        <time>2021-07-21T12:04:18Z</time>
      </trkpt>
      <trkpt lat="44.38736" lon="6.83334">
        <ele>1891.12</ele>
        <time>2021-07-21T12:04:21Z</time>
      </trkpt>
      <trkpt lat="44.38737" lon="6.83322">
        <ele>1889.06</ele>
        <time>2021-07-21T12:04:25Z</time>
      </trkpt>
      <trkpt lat="44.3874" lon="6.83315">
        <ele>1888.08</ele>
        <time>2021-07-21T12:04:27Z</time>
      </trkpt>
      <trkpt lat="44.38743" lon="6.83307">
        <ele>1886.78</ele>
        <time>2021-07-21T12:04:30Z</time>
      </trkpt>
      <trkpt lat="44.38744" lon="6.83299">
        <ele>1885.67</ele>
        <time>2021-07-21T12:04:33Z</time>
      </trkpt>
      <trkpt lat="44.38747" lon="6.8329">
        <ele>1884.6</ele>
        <time>2021-07-21T12:04:37Z</time>
      </trkpt>
      <trkpt lat="44.38749" lon="6.83283">
        <ele>1883.71</ele>
        <time>2021-07-21T12:04:42Z</time>
      </trkpt>
      <trkpt lat="44.3875" lon="6.83279">
        <ele>1883.18</ele>
        <time>2021-07-21T12:04:47Z</time>
      </trkpt>
      <trkpt lat="44.38748" lon="6.83275">
        <ele>1883.83</ele>
        <time>2021-07-21T12:05:04Z</time>
      </trkpt>
      <trkpt lat="44.38746" lon="6.83273">
        <ele>1884.4</ele>
        <time>2021-07-21T12:05:08Z</time>
      </trkpt>
      <trkpt lat="44.38746" lon="6.83278">
        <ele>1882.89</ele>
        <time>2021-07-21T12:05:23Z</time>
      </trkpt>
      <trkpt lat="44.38749" lon="6.83282">
        <ele>1883.57</ele>
        <time>2021-07-21T12:05:36Z</time>
      </trkpt>
      <trkpt lat="44.38749" lon="6.83286">
        <ele>1884.14</ele>
        <time>2021-07-21T12:05:38Z</time>
      </trkpt>
      <trkpt lat="44.38747" lon="6.83289">
        <ele>1884.46</ele>
        <time>2021-07-21T12:05:42Z</time>
      </trkpt>
      <trkpt lat="44.38744" lon="6.83291">
        <ele>1884.59</ele>
        <time>2021-07-21T12:05:45Z</time>
      </trkpt>
      <trkpt lat="44.38741" lon="6.83292">
        <ele>1884.56</ele>
        <time>2021-07-21T12:05:48Z</time>
      </trkpt>
      <trkpt lat="44.38738" lon="6.83291">
        <ele>1884.27</ele>
        <time>2021-07-21T12:05:50Z</time>
      </trkpt>
      <trkpt lat="44.38735" lon="6.83292">
        <ele>1884.23</ele>
        <time>2021-07-21T12:05:53Z</time>
      </trkpt>
      <trkpt lat="44.38732" lon="6.83291">
        <ele>1883.95</ele>
        <time>2021-07-21T12:06:28Z</time>
      </trkpt>
      <trkpt lat="44.38731" lon="6.83288">
        <ele>1883.54</ele>
        <time>2021-07-21T12:07:30Z</time>
      </trkpt>
      <trkpt lat="44.38729" lon="6.83293">
        <ele>1884.02</ele>
        <time>2021-07-21T12:11:48Z</time>
      </trkpt>
      <trkpt lat="44.38732" lon="6.83292">
        <ele>1884.07</ele>
        <time>2021-07-21T12:13:17Z</time>
      </trkpt>
      <trkpt lat="44.38744" lon="6.83289">
        <ele>1884.31</ele>
        <time>2021-07-21T12:13:26Z</time>
      </trkpt>
      <trkpt lat="44.38748" lon="6.83287">
        <ele>1884.23</ele>
        <time>2021-07-21T12:13:28Z</time>
      </trkpt>
      <trkpt lat="44.38749" lon="6.83281">
        <ele>1883.42</ele>
        <time>2021-07-21T12:13:32Z</time>
      </trkpt>
      <trkpt lat="44.38749" lon="6.83276">
        <ele>1883.54</ele>
        <time>2021-07-21T12:13:34Z</time>
      </trkpt>
      <trkpt lat="44.38748" lon="6.83272">
        <ele>1884.8</ele>
        <time>2021-07-21T12:13:36Z</time>
      </trkpt>
      <trkpt lat="44.38747" lon="6.83267">
        <ele>1886.38</ele>
        <time>2021-07-21T12:13:41Z</time>
      </trkpt>
      <trkpt lat="44.38745" lon="6.83265">
        <ele>1886.96</ele>
        <time>2021-07-21T12:13:44Z</time>
      </trkpt>
      <trkpt lat="44.38744" lon="6.83269">
        <ele>1885.63</ele>
        <time>2021-07-21T12:14:02Z</time>
      </trkpt>
      <trkpt lat="44.38746" lon="6.83266">
        <ele>1886.67</ele>
        <time>2021-07-21T12:14:26Z</time>
      </trkpt>
      <trkpt lat="44.38747" lon="6.83262">
        <ele>1888</ele>
        <time>2021-07-21T12:14:28Z</time>
      </trkpt>
      <trkpt lat="44.3875" lon="6.83256">
        <ele>1890.06</ele>
        <time>2021-07-21T12:14:31Z</time>
      </trkpt>
      <trkpt lat="44.38755" lon="6.8325">
        <ele>1892.18</ele>
        <time>2021-07-21T12:14:35Z</time>
      </trkpt>
      <trkpt lat="44.38759" lon="6.83243">
        <ele>1894.84</ele>
        <time>2021-07-21T12:14:39Z</time>
      </trkpt>
      <trkpt lat="44.38764" lon="6.83238">
        <ele>1897.05</ele>
        <time>2021-07-21T12:14:43Z</time>
      </trkpt>
      <trkpt lat="44.38769" lon="6.83235">
        <ele>1898.65</ele>
        <time>2021-07-21T12:14:47Z</time>
      </trkpt>
      <trkpt lat="44.38773" lon="6.83235">
        <ele>1899.03</ele>
        <time>2021-07-21T12:14:49Z</time>
      </trkpt>
      <trkpt lat="44.3878" lon="6.83234">
        <ele>1899.82</ele>
        <time>2021-07-21T12:14:52Z</time>
      </trkpt>
      <trkpt lat="44.38786" lon="6.83233">
        <ele>1899.98</ele>
        <time>2021-07-21T12:14:55Z</time>
      </trkpt>
      <trkpt lat="44.38794" lon="6.83232">
        <ele>1900.02</ele>
        <time>2021-07-21T12:14:57Z</time>
      </trkpt>
      <trkpt lat="44.388" lon="6.83231">
        <ele>1900.11</ele>
        <time>2021-07-21T12:14:59Z</time>
      </trkpt>
      <trkpt lat="44.38808" lon="6.8323">
        <ele>1900.19</ele>
        <time>2021-07-21T12:15:03Z</time>
      </trkpt>
      <trkpt lat="44.38816" lon="6.83228">
        <ele>1900.78</ele>
        <time>2021-07-21T12:15:05Z</time>
      </trkpt>
      <trkpt lat="44.38824" lon="6.83226">
        <ele>1901.25</ele>
        <time>2021-07-21T12:15:09Z</time>
      </trkpt>
      <trkpt lat="44.38831" lon="6.83223">
        <ele>1901.88</ele>
        <time>2021-07-21T12:15:11Z</time>
      </trkpt>
      <trkpt lat="44.38839" lon="6.83222">
        <ele>1902.49</ele>
        <time>2021-07-21T12:15:15Z</time>
      </trkpt>
      <trkpt lat="44.38846" lon="6.8322">
        <ele>1903.65</ele>
        <time>2021-07-21T12:15:18Z</time>
      </trkpt>
      <trkpt lat="44.38854" lon="6.83218">
        <ele>1904.63</ele>
        <time>2021-07-21T12:15:21Z</time>
      </trkpt>
      <trkpt lat="44.38863" lon="6.83218">
        <ele>1904.69</ele>
        <time>2021-07-21T12:15:24Z</time>
      </trkpt>
      <trkpt lat="44.3887" lon="6.83216">
        <ele>1904.24</ele>
        <time>2021-07-21T12:15:26Z</time>
      </trkpt>
      <trkpt lat="44.38878" lon="6.83214">
        <ele>1903.59</ele>
        <time>2021-07-21T12:15:29Z</time>
      </trkpt>
      <trkpt lat="44.38887" lon="6.83213">
        <ele>1902.58</ele>
        <time>2021-07-21T12:15:33Z</time>
      </trkpt>
      <trkpt lat="44.38892" lon="6.83214">
        <ele>1902.11</ele>
        <time>2021-07-21T12:15:35Z</time>
      </trkpt>
      <trkpt lat="44.38902" lon="6.83214">
        <ele>1901.85</ele>
        <time>2021-07-21T12:15:38Z</time>
      </trkpt>
      <trkpt lat="44.38912" lon="6.83212">
        <ele>1901.95</ele>
        <time>2021-07-21T12:15:41Z</time>
      </trkpt>
      <trkpt lat="44.38918" lon="6.8321">
        <ele>1902.32</ele>
        <time>2021-07-21T12:15:42Z</time>
      </trkpt>
      <trkpt lat="44.38924" lon="6.83209">
        <ele>1903.05</ele>
        <time>2021-07-21T12:15:44Z</time>
      </trkpt>
      <trkpt lat="44.38931" lon="6.83208">
        <ele>1903.84</ele>
        <time>2021-07-21T12:15:46Z</time>
      </trkpt>
      <trkpt lat="44.38938" lon="6.83208">
        <ele>1904.47</ele>
        <time>2021-07-21T12:15:49Z</time>
      </trkpt>
      <trkpt lat="44.38944" lon="6.83209">
        <ele>1904.86</ele>
        <time>2021-07-21T12:15:51Z</time>
      </trkpt>
      <trkpt lat="44.3895" lon="6.8321">
        <ele>1904.45</ele>
        <time>2021-07-21T12:15:53Z</time>
      </trkpt>
      <trkpt lat="44.38956" lon="6.8321">
        <ele>1904.11</ele>
        <time>2021-07-21T12:15:55Z</time>
      </trkpt>
      <trkpt lat="44.38963" lon="6.83209">
        <ele>1903.89</ele>
        <time>2021-07-21T12:15:57Z</time>
      </trkpt>
      <trkpt lat="44.38969" lon="6.83206">
        <ele>1904.08</ele>
        <time>2021-07-21T12:16:00Z</time>
      </trkpt>
      <trkpt lat="44.38976" lon="6.832">
        <ele>1904.54</ele>
        <time>2021-07-21T12:16:02Z</time>
      </trkpt>
      <trkpt lat="44.38982" lon="6.83194">
        <ele>1904.68</ele>
        <time>2021-07-21T12:16:05Z</time>
      </trkpt>
      <trkpt lat="44.38987" lon="6.83188">
        <ele>1905.28</ele>
        <time>2021-07-21T12:16:08Z</time>
      </trkpt>
      <trkpt lat="44.38994" lon="6.83182">
        <ele>1905.81</ele>
        <time>2021-07-21T12:16:10Z</time>
      </trkpt>
      <trkpt lat="44.38999" lon="6.83176">
        <ele>1906.74</ele>
        <time>2021-07-21T12:16:11Z</time>
      </trkpt>
      <trkpt lat="44.39004" lon="6.8317">
        <ele>1908.07</ele>
        <time>2021-07-21T12:16:14Z</time>
      </trkpt>
      <trkpt lat="44.3901" lon="6.83165">
        <ele>1908.84</ele>
        <time>2021-07-21T12:16:16Z</time>
      </trkpt>
      <trkpt lat="44.39017" lon="6.83158">
        <ele>1909.25</ele>
        <time>2021-07-21T12:16:19Z</time>
      </trkpt>
      <trkpt lat="44.39023" lon="6.83153">
        <ele>1909.33</ele>
        <time>2021-07-21T12:16:20Z</time>
      </trkpt>
      <trkpt lat="44.39031" lon="6.83146">
        <ele>1908.88</ele>
        <time>2021-07-21T12:16:24Z</time>
      </trkpt>
      <trkpt lat="44.39037" lon="6.83142">
        <ele>1908.26</ele>
        <time>2021-07-21T12:16:25Z</time>
      </trkpt>
      <trkpt lat="44.39042" lon="6.83137">
        <ele>1908.26</ele>
        <time>2021-07-21T12:16:27Z</time>
      </trkpt>
      <trkpt lat="44.39049" lon="6.83131">
        <ele>1908.45</ele>
        <time>2021-07-21T12:16:29Z</time>
      </trkpt>
      <trkpt lat="44.39054" lon="6.83126">
        <ele>1908.93</ele>
        <time>2021-07-21T12:16:31Z</time>
      </trkpt>
      <trkpt lat="44.39061" lon="6.8312">
        <ele>1907.92</ele>
        <time>2021-07-21T12:16:33Z</time>
      </trkpt>
      <trkpt lat="44.39068" lon="6.83116">
        <ele>1905.8</ele>
        <time>2021-07-21T12:16:35Z</time>
      </trkpt>
      <trkpt lat="44.39074" lon="6.83113">
        <ele>1903.76</ele>
        <time>2021-07-21T12:16:37Z</time>
      </trkpt>
      <trkpt lat="44.39083" lon="6.83109">
        <ele>1900.98</ele>
        <time>2021-07-21T12:16:40Z</time>
      </trkpt>
      <trkpt lat="44.39091" lon="6.83106">
        <ele>1901.17</ele>
        <time>2021-07-21T12:16:42Z</time>
      </trkpt>
      <trkpt lat="44.39098" lon="6.83106">
        <ele>1900.39</ele>
        <time>2021-07-21T12:16:43Z</time>
      </trkpt>
      <trkpt lat="44.39105" lon="6.83105">
        <ele>1899.83</ele>
        <time>2021-07-21T12:16:46Z</time>
      </trkpt>
      <trkpt lat="44.39113" lon="6.83103">
        <ele>1899.05</ele>
        <time>2021-07-21T12:16:48Z</time>
      </trkpt>
      <trkpt lat="44.39121" lon="6.831">
        <ele>1898.15</ele>
        <time>2021-07-21T12:16:51Z</time>
      </trkpt>
      <trkpt lat="44.39127" lon="6.83097">
        <ele>1898</ele>
        <time>2021-07-21T12:16:52Z</time>
      </trkpt>
      <trkpt lat="44.39133" lon="6.83095">
        <ele>1897.8</ele>
        <time>2021-07-21T12:16:54Z</time>
      </trkpt>
      <trkpt lat="44.39141" lon="6.83094">
        <ele>1897.19</ele>
        <time>2021-07-21T12:16:56Z</time>
      </trkpt>
      <trkpt lat="44.39152" lon="6.8309">
        <ele>1897.82</ele>
        <time>2021-07-21T12:17:00Z</time>
      </trkpt>
      <trkpt lat="44.39159" lon="6.83087">
        <ele>1898.34</ele>
        <time>2021-07-21T12:17:01Z</time>
      </trkpt>
      <trkpt lat="44.39165" lon="6.83084">
        <ele>1898.91</ele>
        <time>2021-07-21T12:17:04Z</time>
      </trkpt>
      <trkpt lat="44.39172" lon="6.83082">
        <ele>1898.93</ele>
        <time>2021-07-21T12:17:07Z</time>
      </trkpt>
      <trkpt lat="44.39179" lon="6.8308">
        <ele>1899.06</ele>
        <time>2021-07-21T12:17:10Z</time>
      </trkpt>
      <trkpt lat="44.39185" lon="6.83079">
        <ele>1898.85</ele>
        <time>2021-07-21T12:17:13Z</time>
      </trkpt>
      <trkpt lat="44.39192" lon="6.83079">
        <ele>1897.96</ele>
        <time>2021-07-21T12:17:15Z</time>
      </trkpt>
      <trkpt lat="44.392" lon="6.8308">
        <ele>1896.57</ele>
        <time>2021-07-21T12:17:19Z</time>
      </trkpt>
      <trkpt lat="44.39207" lon="6.83082">
        <ele>1894.85</ele>
        <time>2021-07-21T12:17:21Z</time>
      </trkpt>
      <trkpt lat="44.39213" lon="6.83082">
        <ele>1894.38</ele>
        <time>2021-07-21T12:17:24Z</time>
      </trkpt>
      <trkpt lat="44.39219" lon="6.83083">
        <ele>1893.4</ele>
        <time>2021-07-21T12:17:25Z</time>
      </trkpt>
      <trkpt lat="44.39226" lon="6.83083">
        <ele>1892.63</ele>
        <time>2021-07-21T12:17:28Z</time>
      </trkpt>
      <trkpt lat="44.39232" lon="6.83081">
        <ele>1892.8</ele>
        <time>2021-07-21T12:17:31Z</time>
      </trkpt>
      <trkpt lat="44.39234" lon="6.83078">
        <ele>1894.07</ele>
        <time>2021-07-21T12:17:39Z</time>
      </trkpt>
      <trkpt lat="44.39237" lon="6.83081">
        <ele>1892.09</ele>
        <time>2021-07-21T12:18:05Z</time>
      </trkpt>
      <trkpt lat="44.39241" lon="6.83081">
        <ele>1891.53</ele>
        <time>2021-07-21T12:18:06Z</time>
      </trkpt>
      <trkpt lat="44.39245" lon="6.83081">
        <ele>1890.96</ele>
        <time>2021-07-21T12:18:08Z</time>
      </trkpt>
      <trkpt lat="44.3925" lon="6.83079">
        <ele>1891.34</ele>
        <time>2021-07-21T12:18:09Z</time>
      </trkpt>
      <trkpt lat="44.39256" lon="6.83077">
        <ele>1891.62</ele>
        <time>2021-07-21T12:18:11Z</time>
      </trkpt>
      <trkpt lat="44.39265" lon="6.83071">
        <ele>1893.32</ele>
        <time>2021-07-21T12:18:14Z</time>
      </trkpt>
      <trkpt lat="44.39273" lon="6.83063">
        <ele>1895.68</ele>
        <time>2021-07-21T12:18:17Z</time>
      </trkpt>
      <trkpt lat="44.39278" lon="6.83058">
        <ele>1896.93</ele>
        <time>2021-07-21T12:18:18Z</time>
      </trkpt>
      <trkpt lat="44.39285" lon="6.83053">
        <ele>1898.58</ele>
        <time>2021-07-21T12:18:20Z</time>
      </trkpt>
      <trkpt lat="44.39291" lon="6.8305">
        <ele>1899.27</ele>
        <time>2021-07-21T12:18:23Z</time>
      </trkpt>
      <trkpt lat="44.393" lon="6.83044">
        <ele>1900.48</ele>
        <time>2021-07-21T12:18:26Z</time>
      </trkpt>
      <trkpt lat="44.39306" lon="6.8304">
        <ele>1900.89</ele>
        <time>2021-07-21T12:18:28Z</time>
      </trkpt>
      <trkpt lat="44.39314" lon="6.83037">
        <ele>1899.18</ele>
        <time>2021-07-21T12:18:31Z</time>
      </trkpt>
      <trkpt lat="44.3932" lon="6.83035">
        <ele>1897.84</ele>
        <time>2021-07-21T12:18:32Z</time>
      </trkpt>
      <trkpt lat="44.39327" lon="6.83033">
        <ele>1896.21</ele>
        <time>2021-07-21T12:18:35Z</time>
      </trkpt>
      <trkpt lat="44.39334" lon="6.8303">
        <ele>1895.02</ele>
        <time>2021-07-21T12:18:37Z</time>
      </trkpt>
      <trkpt lat="44.39343" lon="6.83028">
        <ele>1893.46</ele>
        <time>2021-07-21T12:18:41Z</time>
      </trkpt>
      <trkpt lat="44.39349" lon="6.83026">
        <ele>1892.66</ele>
        <time>2021-07-21T12:18:43Z</time>
      </trkpt>
      <trkpt lat="44.39355" lon="6.83024">
        <ele>1891.87</ele>
        <time>2021-07-21T12:18:45Z</time>
      </trkpt>
      <trkpt lat="44.39361" lon="6.83021">
        <ele>1891.47</ele>
        <time>2021-07-21T12:18:48Z</time>
      </trkpt>
      <trkpt lat="44.39368" lon="6.83018">
        <ele>1888.39</ele>
        <time>2021-07-21T12:18:51Z</time>
      </trkpt>
      <trkpt lat="44.39376" lon="6.83016">
        <ele>1884.36</ele>
        <time>2021-07-21T12:18:54Z</time>
      </trkpt>
      <trkpt lat="44.39384" lon="6.83013">
        <ele>1880.75</ele>
        <time>2021-07-21T12:18:57Z</time>
      </trkpt>
      <trkpt lat="44.39391" lon="6.83009">
        <ele>1879.06</ele>
        <time>2021-07-21T12:18:59Z</time>
      </trkpt>
      <trkpt lat="44.39397" lon="6.83006">
        <ele>1879.16</ele>
        <time>2021-07-21T12:19:02Z</time>
      </trkpt>
      <trkpt lat="44.39403" lon="6.83003">
        <ele>1879.27</ele>
        <time>2021-07-21T12:19:04Z</time>
      </trkpt>
      <trkpt lat="44.39411" lon="6.83001">
        <ele>1878.62</ele>
        <time>2021-07-21T12:19:07Z</time>
      </trkpt>
      <trkpt lat="44.39417" lon="6.83">
        <ele>1878.05</ele>
        <time>2021-07-21T12:19:09Z</time>
      </trkpt>
      <trkpt lat="44.39423" lon="6.82999">
        <ele>1879.31</ele>
        <time>2021-07-21T12:19:13Z</time>
      </trkpt>
      <trkpt lat="44.39427" lon="6.82999">
        <ele>1879.88</ele>
        <time>2021-07-21T12:19:59Z</time>
      </trkpt>
      <trkpt lat="44.39432" lon="6.82998">
        <ele>1881</ele>
        <time>2021-07-21T12:20:01Z</time>
      </trkpt>
      <trkpt lat="44.39439" lon="6.82997">
        <ele>1882.4</ele>
        <time>2021-07-21T12:20:04Z</time>
      </trkpt>
      <trkpt lat="44.39445" lon="6.82995">
        <ele>1883.87</ele>
        <time>2021-07-21T12:20:07Z</time>
      </trkpt>
      <trkpt lat="44.39452" lon="6.82993">
        <ele>1883.28</ele>
        <time>2021-07-21T12:20:09Z</time>
      </trkpt>
      <trkpt lat="44.3946" lon="6.82992">
        <ele>1882.13</ele>
        <time>2021-07-21T12:20:13Z</time>
      </trkpt>
      <trkpt lat="44.39466" lon="6.82989">
        <ele>1882.31</ele>
        <time>2021-07-21T12:20:15Z</time>
      </trkpt>
      <trkpt lat="44.39473" lon="6.82986">
        <ele>1882.56</ele>
        <time>2021-07-21T12:20:18Z</time>
      </trkpt>
      <trkpt lat="44.3948" lon="6.82983">
        <ele>1883.69</ele>
        <time>2021-07-21T12:20:21Z</time>
      </trkpt>
      <trkpt lat="44.39486" lon="6.82982">
        <ele>1883.72</ele>
        <time>2021-07-21T12:20:22Z</time>
      </trkpt>
      <trkpt lat="44.39493" lon="6.8298">
        <ele>1883.59</ele>
        <time>2021-07-21T12:20:25Z</time>
      </trkpt>
      <trkpt lat="44.39503" lon="6.82978">
        <ele>1882.69</ele>
        <time>2021-07-21T12:20:27Z</time>
      </trkpt>
      <trkpt lat="44.3951" lon="6.82976">
        <ele>1882.31</ele>
        <time>2021-07-21T12:20:29Z</time>
      </trkpt>
      <trkpt lat="44.39516" lon="6.82975">
        <ele>1882.19</ele>
        <time>2021-07-21T12:20:30Z</time>
      </trkpt>
      <trkpt lat="44.39523" lon="6.82975">
        <ele>1881.84</ele>
        <time>2021-07-21T12:20:32Z</time>
      </trkpt>
      <trkpt lat="44.39529" lon="6.82973">
        <ele>1882.3</ele>
        <time>2021-07-21T12:20:34Z</time>
      </trkpt>
      <trkpt lat="44.39537" lon="6.82968">
        <ele>1883.01</ele>
        <time>2021-07-21T12:20:36Z</time>
      </trkpt>
      <trkpt lat="44.39542" lon="6.82964">
        <ele>1884.01</ele>
        <time>2021-07-21T12:20:38Z</time>
      </trkpt>
      <trkpt lat="44.39548" lon="6.8296">
        <ele>1884.82</ele>
        <time>2021-07-21T12:20:40Z</time>
      </trkpt>
      <trkpt lat="44.39555" lon="6.82957">
        <ele>1884.9</ele>
        <time>2021-07-21T12:20:42Z</time>
      </trkpt>
      <trkpt lat="44.39562" lon="6.82952">
        <ele>1884.55</ele>
        <time>2021-07-21T12:20:43Z</time>
      </trkpt>
      <trkpt lat="44.39568" lon="6.82946">
        <ele>1884.53</ele>
        <time>2021-07-21T12:20:45Z</time>
      </trkpt>
      <trkpt lat="44.39575" lon="6.82937">
        <ele>1884.26</ele>
        <time>2021-07-21T12:20:47Z</time>
      </trkpt>
      <trkpt lat="44.39581" lon="6.82931">
        <ele>1884.19</ele>
        <time>2021-07-21T12:20:48Z</time>
      </trkpt>
      <trkpt lat="44.39588" lon="6.82925">
        <ele>1882.96</ele>
        <time>2021-07-21T12:20:49Z</time>
      </trkpt>
      <trkpt lat="44.39592" lon="6.82922">
        <ele>1881.3</ele>
        <time>2021-07-21T12:20:50Z</time>
      </trkpt>
      <trkpt lat="44.39597" lon="6.82919">
        <ele>1878.54</ele>
        <time>2021-07-21T12:20:51Z</time>
      </trkpt>
      <trkpt lat="44.39602" lon="6.82915">
        <ele>1875.72</ele>
        <time>2021-07-21T12:20:53Z</time>
      </trkpt>
      <trkpt lat="44.39609" lon="6.82912">
        <ele>1871.29</ele>
        <time>2021-07-21T12:20:54Z</time>
      </trkpt>
      <trkpt lat="44.39614" lon="6.82908">
        <ele>1870.09</ele>
        <time>2021-07-21T12:20:56Z</time>
      </trkpt>
      <trkpt lat="44.39622" lon="6.82902">
        <ele>1868.9</ele>
        <time>2021-07-21T12:20:58Z</time>
      </trkpt>
      <trkpt lat="44.39627" lon="6.82897">
        <ele>1868.07</ele>
        <time>2021-07-21T12:21:00Z</time>
      </trkpt>
      <trkpt lat="44.39637" lon="6.82889">
        <ele>1864.93</ele>
        <time>2021-07-21T12:21:02Z</time>
      </trkpt>
      <trkpt lat="44.39642" lon="6.82885">
        <ele>1864.33</ele>
        <time>2021-07-21T12:21:03Z</time>
      </trkpt>
      <trkpt lat="44.39649" lon="6.82876">
        <ele>1864.93</ele>
        <time>2021-07-21T12:21:06Z</time>
      </trkpt>
      <trkpt lat="44.39656" lon="6.82871">
        <ele>1864.07</ele>
        <time>2021-07-21T12:21:07Z</time>
      </trkpt>
      <trkpt lat="44.39663" lon="6.82867">
        <ele>1862.78</ele>
        <time>2021-07-21T12:21:08Z</time>
      </trkpt>
      <trkpt lat="44.3967" lon="6.82865">
        <ele>1861.28</ele>
        <time>2021-07-21T12:21:09Z</time>
      </trkpt>
      <trkpt lat="44.39675" lon="6.82863">
        <ele>1860.7</ele>
        <time>2021-07-21T12:21:11Z</time>
      </trkpt>
      <trkpt lat="44.39685" lon="6.82859">
        <ele>1859.83</ele>
        <time>2021-07-21T12:21:12Z</time>
      </trkpt>
      <trkpt lat="44.39691" lon="6.82855">
        <ele>1859.83</ele>
        <time>2021-07-21T12:21:13Z</time>
      </trkpt>
      <trkpt lat="44.39696" lon="6.82851">
        <ele>1860.08</ele>
        <time>2021-07-21T12:21:14Z</time>
      </trkpt>
      <trkpt lat="44.39702" lon="6.82848">
        <ele>1860.4</ele>
        <time>2021-07-21T12:21:15Z</time>
      </trkpt>
      <trkpt lat="44.39707" lon="6.82845">
        <ele>1861.01</ele>
        <time>2021-07-21T12:21:16Z</time>
      </trkpt>
      <trkpt lat="44.39713" lon="6.82841">
        <ele>1862.11</ele>
        <time>2021-07-21T12:21:17Z</time>
      </trkpt>
      <trkpt lat="44.39719" lon="6.82837">
        <ele>1863.46</ele>
        <time>2021-07-21T12:21:18Z</time>
      </trkpt>
      <trkpt lat="44.39724" lon="6.82833">
        <ele>1864.86</ele>
        <time>2021-07-21T12:21:19Z</time>
      </trkpt>
      <trkpt lat="44.39728" lon="6.82828">
        <ele>1866.05</ele>
        <time>2021-07-21T12:21:20Z</time>
      </trkpt>
      <trkpt lat="44.39733" lon="6.82824">
        <ele>1866.68</ele>
        <time>2021-07-21T12:21:21Z</time>
      </trkpt>
      <trkpt lat="44.39739" lon="6.8282">
        <ele>1867.09</ele>
        <time>2021-07-21T12:21:22Z</time>
      </trkpt>
      <trkpt lat="44.39745" lon="6.82816">
        <ele>1867.45</ele>
        <time>2021-07-21T12:21:24Z</time>
      </trkpt>
      <trkpt lat="44.39749" lon="6.82813">
        <ele>1867.76</ele>
        <time>2021-07-21T12:21:25Z</time>
      </trkpt>
      <trkpt lat="44.39755" lon="6.82811">
        <ele>1867.88</ele>
        <time>2021-07-21T12:21:27Z</time>
      </trkpt>
      <trkpt lat="44.39764" lon="6.82809">
        <ele>1867.88</ele>
        <time>2021-07-21T12:21:29Z</time>
      </trkpt>
      <trkpt lat="44.39771" lon="6.82806">
        <ele>1868.34</ele>
        <time>2021-07-21T12:21:31Z</time>
      </trkpt>
      <trkpt lat="44.39782" lon="6.82802">
        <ele>1867</ele>
        <time>2021-07-21T12:21:34Z</time>
      </trkpt>
      <trkpt lat="44.39792" lon="6.82799">
        <ele>1863.13</ele>
        <time>2021-07-21T12:21:37Z</time>
      </trkpt>
      <trkpt lat="44.398" lon="6.82794">
        <ele>1862.02</ele>
        <time>2021-07-21T12:21:40Z</time>
      </trkpt>
      <trkpt lat="44.39806" lon="6.82791">
        <ele>1861.3</ele>
        <time>2021-07-21T12:21:41Z</time>
      </trkpt>
      <trkpt lat="44.39813" lon="6.82788">
        <ele>1861.16</ele>
        <time>2021-07-21T12:21:44Z</time>
      </trkpt>
      <trkpt lat="44.39819" lon="6.82784">
        <ele>1861.83</ele>
        <time>2021-07-21T12:21:45Z</time>
      </trkpt>
      <trkpt lat="44.39825" lon="6.8278">
        <ele>1862.37</ele>
        <time>2021-07-21T12:21:47Z</time>
      </trkpt>
      <trkpt lat="44.39832" lon="6.82773">
        <ele>1864.52</ele>
        <time>2021-07-21T12:21:50Z</time>
      </trkpt>
      <trkpt lat="44.39837" lon="6.82768">
        <ele>1865.73</ele>
        <time>2021-07-21T12:21:51Z</time>
      </trkpt>
      <trkpt lat="44.39843" lon="6.82762">
        <ele>1866.31</ele>
        <time>2021-07-21T12:21:53Z</time>
      </trkpt>
      <trkpt lat="44.3985" lon="6.82754">
        <ele>1866.39</ele>
        <time>2021-07-21T12:21:55Z</time>
      </trkpt>
      <trkpt lat="44.39858" lon="6.8275">
        <ele>1863.02</ele>
        <time>2021-07-21T12:21:58Z</time>
      </trkpt>
      <trkpt lat="44.39866" lon="6.82747">
        <ele>1861.81</ele>
        <time>2021-07-21T12:22:01Z</time>
      </trkpt>
      <trkpt lat="44.39871" lon="6.82745">
        <ele>1861.85</ele>
        <time>2021-07-21T12:22:02Z</time>
      </trkpt>
      <trkpt lat="44.39877" lon="6.82743">
        <ele>1861.53</ele>
        <time>2021-07-21T12:22:04Z</time>
      </trkpt>
      <trkpt lat="44.39889" lon="6.82734">
        <ele>1863.02</ele>
        <time>2021-07-21T12:22:07Z</time>
      </trkpt>
      <trkpt lat="44.39894" lon="6.8273">
        <ele>1862.98</ele>
        <time>2021-07-21T12:22:08Z</time>
      </trkpt>
      <trkpt lat="44.39898" lon="6.82725">
        <ele>1863.73</ele>
        <time>2021-07-21T12:22:10Z</time>
      </trkpt>
      <trkpt lat="44.39904" lon="6.8272">
        <ele>1863.74</ele>
        <time>2021-07-21T12:22:12Z</time>
      </trkpt>
      <trkpt lat="44.3991" lon="6.82715">
        <ele>1864.38</ele>
        <time>2021-07-21T12:22:14Z</time>
      </trkpt>
      <trkpt lat="44.39916" lon="6.82712">
        <ele>1864.22</ele>
        <time>2021-07-21T12:22:16Z</time>
      </trkpt>
      <trkpt lat="44.39924" lon="6.8271">
        <ele>1861.15</ele>
        <time>2021-07-21T12:22:19Z</time>
      </trkpt>
      <trkpt lat="44.39932" lon="6.82707">
        <ele>1858.07</ele>
        <time>2021-07-21T12:22:21Z</time>
      </trkpt>
      <trkpt lat="44.39943" lon="6.82705">
        <ele>1852.11</ele>
        <time>2021-07-21T12:22:24Z</time>
      </trkpt>
      <trkpt lat="44.39949" lon="6.82703">
        <ele>1852.11</ele>
        <time>2021-07-21T12:22:25Z</time>
      </trkpt>
      <trkpt lat="44.39956" lon="6.82701">
        <ele>1853.3</ele>
        <time>2021-07-21T12:22:27Z</time>
      </trkpt>
      <trkpt lat="44.39963" lon="6.82698">
        <ele>1855.21</ele>
        <time>2021-07-21T12:22:28Z</time>
      </trkpt>
      <trkpt lat="44.3997" lon="6.82696">
        <ele>1856.89</ele>
        <time>2021-07-21T12:22:31Z</time>
      </trkpt>
      <trkpt lat="44.39978" lon="6.82692">
        <ele>1859.27</ele>
        <time>2021-07-21T12:22:33Z</time>
      </trkpt>
      <trkpt lat="44.39985" lon="6.8269">
        <ele>1860.19</ele>
        <time>2021-07-21T12:22:35Z</time>
      </trkpt>
      <trkpt lat="44.39992" lon="6.82687">
        <ele>1861.86</ele>
        <time>2021-07-21T12:22:37Z</time>
      </trkpt>
      <trkpt lat="44.39999" lon="6.82686">
        <ele>1862.14</ele>
        <time>2021-07-21T12:22:39Z</time>
      </trkpt>
      <trkpt lat="44.40008" lon="6.82685">
        <ele>1863.94</ele>
        <time>2021-07-21T12:22:41Z</time>
      </trkpt>
      <trkpt lat="44.40015" lon="6.82687">
        <ele>1863.73</ele>
        <time>2021-07-21T12:22:43Z</time>
      </trkpt>
      <trkpt lat="44.40021" lon="6.8269">
        <ele>1863.01</ele>
        <time>2021-07-21T12:22:45Z</time>
      </trkpt>
      <trkpt lat="44.40026" lon="6.82695">
        <ele>1861.3</ele>
        <time>2021-07-21T12:22:47Z</time>
      </trkpt>
      <trkpt lat="44.40032" lon="6.82701">
        <ele>1858.02</ele>
        <time>2021-07-21T12:22:49Z</time>
      </trkpt>
      <trkpt lat="44.4004" lon="6.82706">
        <ele>1855.31</ele>
        <time>2021-07-21T12:22:51Z</time>
      </trkpt>
      <trkpt lat="44.40046" lon="6.82708">
        <ele>1854.46</ele>
        <time>2021-07-21T12:22:53Z</time>
      </trkpt>
      <trkpt lat="44.40057" lon="6.82713">
        <ele>1853.02</ele>
        <time>2021-07-21T12:22:56Z</time>
      </trkpt>
      <trkpt lat="44.40067" lon="6.82717">
        <ele>1851.85</ele>
        <time>2021-07-21T12:22:58Z</time>
      </trkpt>
      <trkpt lat="44.40076" lon="6.82718">
        <ele>1851.59</ele>
        <time>2021-07-21T12:23:01Z</time>
      </trkpt>
      <trkpt lat="44.40089" lon="6.8272">
        <ele>1849.3</ele>
        <time>2021-07-21T12:23:04Z</time>
      </trkpt>
      <trkpt lat="44.40095" lon="6.82722">
        <ele>1846.74</ele>
        <time>2021-07-21T12:23:05Z</time>
      </trkpt>
      <trkpt lat="44.40104" lon="6.82723">
        <ele>1843.84</ele>
        <time>2021-07-21T12:23:08Z</time>
      </trkpt>
      <trkpt lat="44.40115" lon="6.82725">
        <ele>1840.84</ele>
        <time>2021-07-21T12:23:11Z</time>
      </trkpt>
      <trkpt lat="44.40125" lon="6.82725">
        <ele>1839.65</ele>
        <time>2021-07-21T12:23:14Z</time>
      </trkpt>
      <trkpt lat="44.40133" lon="6.82724">
        <ele>1839.04</ele>
        <time>2021-07-21T12:23:16Z</time>
      </trkpt>
      <trkpt lat="44.40143" lon="6.8272">
        <ele>1839.37</ele>
        <time>2021-07-21T12:23:19Z</time>
      </trkpt>
      <trkpt lat="44.4015" lon="6.82717">
        <ele>1839.76</ele>
        <time>2021-07-21T12:23:21Z</time>
      </trkpt>
      <trkpt lat="44.40162" lon="6.82713">
        <ele>1840.1</ele>
        <time>2021-07-21T12:23:23Z</time>
      </trkpt>
      <trkpt lat="44.40171" lon="6.82707">
        <ele>1841.23</ele>
        <time>2021-07-21T12:23:26Z</time>
      </trkpt>
      <trkpt lat="44.40178" lon="6.82706">
        <ele>1840.32</ele>
        <time>2021-07-21T12:23:27Z</time>
      </trkpt>
      <trkpt lat="44.40184" lon="6.82705">
        <ele>1839.55</ele>
        <time>2021-07-21T12:23:29Z</time>
      </trkpt>
      <trkpt lat="44.4019" lon="6.82703">
        <ele>1839.09</ele>
        <time>2021-07-21T12:23:31Z</time>
      </trkpt>
      <trkpt lat="44.40197" lon="6.82702">
        <ele>1838.34</ele>
        <time>2021-07-21T12:23:32Z</time>
      </trkpt>
      <trkpt lat="44.40205" lon="6.82701">
        <ele>1838.03</ele>
        <time>2021-07-21T12:23:34Z</time>
      </trkpt>
      <trkpt lat="44.40213" lon="6.82702">
        <ele>1837.03</ele>
        <time>2021-07-21T12:23:36Z</time>
      </trkpt>
      <trkpt lat="44.40223" lon="6.82705">
        <ele>1835.29</ele>
        <time>2021-07-21T12:23:39Z</time>
      </trkpt>
      <trkpt lat="44.40234" lon="6.8271">
        <ele>1834.96</ele>
        <time>2021-07-21T12:23:42Z</time>
      </trkpt>
      <trkpt lat="44.40239" lon="6.82714">
        <ele>1834.44</ele>
        <time>2021-07-21T12:23:43Z</time>
      </trkpt>
      <trkpt lat="44.40248" lon="6.82717">
        <ele>1835</ele>
        <time>2021-07-21T12:23:46Z</time>
      </trkpt>
      <trkpt lat="44.40255" lon="6.82718">
        <ele>1834.52</ele>
        <time>2021-07-21T12:23:49Z</time>
      </trkpt>
      <trkpt lat="44.40262" lon="6.82717">
        <ele>1834.02</ele>
        <time>2021-07-21T12:23:51Z</time>
      </trkpt>
      <trkpt lat="44.40268" lon="6.82715">
        <ele>1833.88</ele>
        <time>2021-07-21T12:23:53Z</time>
      </trkpt>
      <trkpt lat="44.40274" lon="6.8271">
        <ele>1834.49</ele>
        <time>2021-07-21T12:23:55Z</time>
      </trkpt>
      <trkpt lat="44.4028" lon="6.827">
        <ele>1836.31</ele>
        <time>2021-07-21T12:23:59Z</time>
      </trkpt>
      <trkpt lat="44.40286" lon="6.82694">
        <ele>1836.9</ele>
        <time>2021-07-21T12:24:01Z</time>
      </trkpt>
      <trkpt lat="44.40291" lon="6.82686">
        <ele>1837.76</ele>
        <time>2021-07-21T12:24:04Z</time>
      </trkpt>
      <trkpt lat="44.40295" lon="6.8268">
        <ele>1838.44</ele>
        <time>2021-07-21T12:24:06Z</time>
      </trkpt>
      <trkpt lat="44.40305" lon="6.82674">
        <ele>1838.48</ele>
        <time>2021-07-21T12:24:09Z</time>
      </trkpt>
      <trkpt lat="44.40315" lon="6.82674">
        <ele>1835.11</ele>
        <time>2021-07-21T12:24:11Z</time>
      </trkpt>
      <trkpt lat="44.40322" lon="6.82674">
        <ele>1832.65</ele>
        <time>2021-07-21T12:24:13Z</time>
      </trkpt>
      <trkpt lat="44.40328" lon="6.82675">
        <ele>1830.36</ele>
        <time>2021-07-21T12:24:15Z</time>
      </trkpt>
      <trkpt lat="44.40335" lon="6.82676">
        <ele>1828</ele>
        <time>2021-07-21T12:24:17Z</time>
      </trkpt>
      <trkpt lat="44.40342" lon="6.82676">
        <ele>1826.66</ele>
        <time>2021-07-21T12:24:19Z</time>
      </trkpt>
      <trkpt lat="44.40348" lon="6.82677">
        <ele>1825.36</ele>
        <time>2021-07-21T12:24:20Z</time>
      </trkpt>
      <trkpt lat="44.40358" lon="6.82677">
        <ele>1823.47</ele>
        <time>2021-07-21T12:24:23Z</time>
      </trkpt>
      <trkpt lat="44.40366" lon="6.82677">
        <ele>1820.88</ele>
        <time>2021-07-21T12:24:26Z</time>
      </trkpt>
      <trkpt lat="44.40372" lon="6.82676">
        <ele>1818.55</ele>
        <time>2021-07-21T12:24:29Z</time>
      </trkpt>
      <trkpt lat="44.4038" lon="6.82676">
        <ele>1815.28</ele>
        <time>2021-07-21T12:24:31Z</time>
      </trkpt>
      <trkpt lat="44.40388" lon="6.82674">
        <ele>1812.3</ele>
        <time>2021-07-21T12:24:34Z</time>
      </trkpt>
      <trkpt lat="44.40398" lon="6.82668">
        <ele>1810.56</ele>
        <time>2021-07-21T12:24:37Z</time>
      </trkpt>
      <trkpt lat="44.40403" lon="6.82662">
        <ele>1810.71</ele>
        <time>2021-07-21T12:24:39Z</time>
      </trkpt>
      <trkpt lat="44.40407" lon="6.82656">
        <ele>1811.37</ele>
        <time>2021-07-21T12:24:41Z</time>
      </trkpt>
      <trkpt lat="44.40412" lon="6.8265">
        <ele>1811.88</ele>
        <time>2021-07-21T12:24:43Z</time>
      </trkpt>
      <trkpt lat="44.40419" lon="6.82641">
        <ele>1813</ele>
        <time>2021-07-21T12:24:47Z</time>
      </trkpt>
      <trkpt lat="44.40424" lon="6.82636">
        <ele>1813.61</ele>
        <time>2021-07-21T12:24:50Z</time>
      </trkpt>
      <trkpt lat="44.40432" lon="6.82632">
        <ele>1813.17</ele>
        <time>2021-07-21T12:24:52Z</time>
      </trkpt>
      <trkpt lat="44.4044" lon="6.82627">
        <ele>1812.64</ele>
        <time>2021-07-21T12:24:55Z</time>
      </trkpt>
      <trkpt lat="44.40448" lon="6.82622">
        <ele>1812.62</ele>
        <time>2021-07-21T12:24:57Z</time>
      </trkpt>
      <trkpt lat="44.40455" lon="6.82616">
        <ele>1813.7</ele>
        <time>2021-07-21T12:24:59Z</time>
      </trkpt>
      <trkpt lat="44.40461" lon="6.82612">
        <ele>1814.25</ele>
        <time>2021-07-21T12:25:01Z</time>
      </trkpt>
      <trkpt lat="44.40467" lon="6.82608">
        <ele>1815.06</ele>
        <time>2021-07-21T12:25:04Z</time>
      </trkpt>
      <trkpt lat="44.40473" lon="6.82604">
        <ele>1815.59</ele>
        <time>2021-07-21T12:25:05Z</time>
      </trkpt>
      <trkpt lat="44.40477" lon="6.82599">
        <ele>1815.59</ele>
        <time>2021-07-21T12:25:07Z</time>
      </trkpt>
      <trkpt lat="44.40485" lon="6.8259">
        <ele>1814.22</ele>
        <time>2021-07-21T12:25:11Z</time>
      </trkpt>
      <trkpt lat="44.40492" lon="6.82583">
        <ele>1811.85</ele>
        <time>2021-07-21T12:25:13Z</time>
      </trkpt>
      <trkpt lat="44.40498" lon="6.82576">
        <ele>1811.31</ele>
        <time>2021-07-21T12:25:15Z</time>
      </trkpt>
      <trkpt lat="44.40506" lon="6.82567">
        <ele>1811.36</ele>
        <time>2021-07-21T12:25:19Z</time>
      </trkpt>
      <trkpt lat="44.40512" lon="6.8256">
        <ele>1811.15</ele>
        <time>2021-07-21T12:25:21Z</time>
      </trkpt>
      <trkpt lat="44.40516" lon="6.82552">
        <ele>1811.43</ele>
        <time>2021-07-21T12:25:23Z</time>
      </trkpt>
      <trkpt lat="44.40519" lon="6.82543">
        <ele>1812.19</ele>
        <time>2021-07-21T12:25:25Z</time>
      </trkpt>
      <trkpt lat="44.40521" lon="6.82535">
        <ele>1813.12</ele>
        <time>2021-07-21T12:25:27Z</time>
      </trkpt>
      <trkpt lat="44.40526" lon="6.82519">
        <ele>1813.36</ele>
        <time>2021-07-21T12:25:31Z</time>
      </trkpt>
      <trkpt lat="44.4053" lon="6.8251">
        <ele>1812.43</ele>
        <time>2021-07-21T12:25:33Z</time>
      </trkpt>
      <trkpt lat="44.40535" lon="6.82502">
        <ele>1811.01</ele>
        <time>2021-07-21T12:25:34Z</time>
      </trkpt>
      <trkpt lat="44.4054" lon="6.8249">
        <ele>1810.73</ele>
        <time>2021-07-21T12:25:37Z</time>
      </trkpt>
      <trkpt lat="44.40545" lon="6.8248">
        <ele>1809.54</ele>
        <time>2021-07-21T12:25:39Z</time>
      </trkpt>
      <trkpt lat="44.40551" lon="6.82467">
        <ele>1808.04</ele>
        <time>2021-07-21T12:25:42Z</time>
      </trkpt>
      <trkpt lat="44.40555" lon="6.82459">
        <ele>1807.65</ele>
        <time>2021-07-21T12:25:44Z</time>
      </trkpt>
      <trkpt lat="44.40559" lon="6.82452">
        <ele>1808.3</ele>
        <time>2021-07-21T12:25:45Z</time>
      </trkpt>
      <trkpt lat="44.40565" lon="6.82445">
        <ele>1808.49</ele>
        <time>2021-07-21T12:25:47Z</time>
      </trkpt>
      <trkpt lat="44.40572" lon="6.82438">
        <ele>1808.35</ele>
        <time>2021-07-21T12:25:50Z</time>
      </trkpt>
      <trkpt lat="44.40578" lon="6.82432">
        <ele>1807.65</ele>
        <time>2021-07-21T12:25:51Z</time>
      </trkpt>
      <trkpt lat="44.40584" lon="6.82427">
        <ele>1806.39</ele>
        <time>2021-07-21T12:25:54Z</time>
      </trkpt>
      <trkpt lat="44.40589" lon="6.82422">
        <ele>1806.13</ele>
        <time>2021-07-21T12:25:57Z</time>
      </trkpt>
      <trkpt lat="44.40595" lon="6.82418">
        <ele>1805.35</ele>
        <time>2021-07-21T12:25:59Z</time>
      </trkpt>
      <trkpt lat="44.40601" lon="6.82409">
        <ele>1805.14</ele>
        <time>2021-07-21T12:26:02Z</time>
      </trkpt>
      <trkpt lat="44.40608" lon="6.82402">
        <ele>1803.96</ele>
        <time>2021-07-21T12:26:05Z</time>
      </trkpt>
      <trkpt lat="44.40614" lon="6.82398">
        <ele>1802.72</ele>
        <time>2021-07-21T12:26:08Z</time>
      </trkpt>
      <trkpt lat="44.40621" lon="6.82395">
        <ele>1801.42</ele>
        <time>2021-07-21T12:26:10Z</time>
      </trkpt>
      <trkpt lat="44.40628" lon="6.82392">
        <ele>1800.13</ele>
        <time>2021-07-21T12:26:13Z</time>
      </trkpt>
      <trkpt lat="44.40634" lon="6.82387">
        <ele>1799.28</ele>
        <time>2021-07-21T12:26:14Z</time>
      </trkpt>
      <trkpt lat="44.40639" lon="6.82381">
        <ele>1798.84</ele>
        <time>2021-07-21T12:26:17Z</time>
      </trkpt>
      <trkpt lat="44.40644" lon="6.82375">
        <ele>1798.86</ele>
        <time>2021-07-21T12:26:19Z</time>
      </trkpt>
      <trkpt lat="44.40649" lon="6.82367">
        <ele>1798.99</ele>
        <time>2021-07-21T12:26:22Z</time>
      </trkpt>
      <trkpt lat="44.40653" lon="6.82359">
        <ele>1799.35</ele>
        <time>2021-07-21T12:26:25Z</time>
      </trkpt>
      <trkpt lat="44.40657" lon="6.82352">
        <ele>1799.93</ele>
        <time>2021-07-21T12:26:28Z</time>
      </trkpt>
      <trkpt lat="44.40662" lon="6.82344">
        <ele>1800.34</ele>
        <time>2021-07-21T12:26:33Z</time>
      </trkpt>
      <trkpt lat="44.40665" lon="6.82338">
        <ele>1800.67</ele>
        <time>2021-07-21T12:26:36Z</time>
      </trkpt>
      <trkpt lat="44.4067" lon="6.8233">
        <ele>1800.75</ele>
        <time>2021-07-21T12:26:39Z</time>
      </trkpt>
      <trkpt lat="44.40676" lon="6.82324">
        <ele>1800.22</ele>
        <time>2021-07-21T12:26:41Z</time>
      </trkpt>
      <trkpt lat="44.40683" lon="6.82315">
        <ele>1799.72</ele>
        <time>2021-07-21T12:26:45Z</time>
      </trkpt>
      <trkpt lat="44.40689" lon="6.82308">
        <ele>1799.09</ele>
        <time>2021-07-21T12:26:47Z</time>
      </trkpt>
      <trkpt lat="44.40693" lon="6.82302">
        <ele>1799.02</ele>
        <time>2021-07-21T12:26:49Z</time>
      </trkpt>
      <trkpt lat="44.40696" lon="6.82293">
        <ele>1800.02</ele>
        <time>2021-07-21T12:26:51Z</time>
      </trkpt>
      <trkpt lat="44.40701" lon="6.82285">
        <ele>1800.47</ele>
        <time>2021-07-21T12:26:53Z</time>
      </trkpt>
      <trkpt lat="44.40706" lon="6.82276">
        <ele>1800.71</ele>
        <time>2021-07-21T12:26:56Z</time>
      </trkpt>
      <trkpt lat="44.4071" lon="6.82268">
        <ele>1800.65</ele>
        <time>2021-07-21T12:26:58Z</time>
      </trkpt>
      <trkpt lat="44.40714" lon="6.82257">
        <ele>1800.71</ele>
        <time>2021-07-21T12:26:59Z</time>
      </trkpt>
      <trkpt lat="44.40719" lon="6.82245">
        <ele>1800.31</ele>
        <time>2021-07-21T12:27:01Z</time>
      </trkpt>
      <trkpt lat="44.40721" lon="6.82239">
        <ele>1800.16</ele>
        <time>2021-07-21T12:27:03Z</time>
      </trkpt>
      <trkpt lat="44.40725" lon="6.82227">
        <ele>1799.61</ele>
        <time>2021-07-21T12:27:04Z</time>
      </trkpt>
      <trkpt lat="44.40727" lon="6.8222">
        <ele>1799.19</ele>
        <time>2021-07-21T12:27:05Z</time>
      </trkpt>
      <trkpt lat="44.4073" lon="6.82214">
        <ele>1798.22</ele>
        <time>2021-07-21T12:27:06Z</time>
      </trkpt>
      <trkpt lat="44.40732" lon="6.82206">
        <ele>1797.71</ele>
        <time>2021-07-21T12:27:08Z</time>
      </trkpt>
      <trkpt lat="44.40736" lon="6.82195">
        <ele>1796.52</ele>
        <time>2021-07-21T12:27:10Z</time>
      </trkpt>
      <trkpt lat="44.40741" lon="6.82183">
        <ele>1795.52</ele>
        <time>2021-07-21T12:27:12Z</time>
      </trkpt>
      <trkpt lat="44.40744" lon="6.82174">
        <ele>1795.01</ele>
        <time>2021-07-21T12:27:13Z</time>
      </trkpt>
      <trkpt lat="44.40747" lon="6.82166">
        <ele>1794.35</ele>
        <time>2021-07-21T12:27:14Z</time>
      </trkpt>
      <trkpt lat="44.40749" lon="6.82161">
        <ele>1793.85</ele>
        <time>2021-07-21T12:27:15Z</time>
      </trkpt>
      <trkpt lat="44.40752" lon="6.82154">
        <ele>1793.45</ele>
        <time>2021-07-21T12:27:17Z</time>
      </trkpt>
      <trkpt lat="44.40758" lon="6.82144">
        <ele>1792.49</ele>
        <time>2021-07-21T12:27:19Z</time>
      </trkpt>
      <trkpt lat="44.40762" lon="6.8214">
        <ele>1791.52</ele>
        <time>2021-07-21T12:27:20Z</time>
      </trkpt>
      <trkpt lat="44.40769" lon="6.82131">
        <ele>1790.28</ele>
        <time>2021-07-21T12:27:22Z</time>
      </trkpt>
      <trkpt lat="44.40775" lon="6.82119">
        <ele>1789.38</ele>
        <time>2021-07-21T12:27:24Z</time>
      </trkpt>
      <trkpt lat="44.4078" lon="6.82111">
        <ele>1788.69</ele>
        <time>2021-07-21T12:27:25Z</time>
      </trkpt>
      <trkpt lat="44.40782" lon="6.82102">
        <ele>1789.28</ele>
        <time>2021-07-21T12:27:27Z</time>
      </trkpt>
      <trkpt lat="44.40788" lon="6.82093">
        <ele>1789</ele>
        <time>2021-07-21T12:27:28Z</time>
      </trkpt>
      <trkpt lat="44.40792" lon="6.82087">
        <ele>1788.67</ele>
        <time>2021-07-21T12:27:29Z</time>
      </trkpt>
      <trkpt lat="44.40796" lon="6.82082">
        <ele>1788.19</ele>
        <time>2021-07-21T12:27:30Z</time>
      </trkpt>
      <trkpt lat="44.40799" lon="6.82077">
        <ele>1787.98</ele>
        <time>2021-07-21T12:27:31Z</time>
      </trkpt>
      <trkpt lat="44.40803" lon="6.82072">
        <ele>1787.44</ele>
        <time>2021-07-21T12:27:32Z</time>
      </trkpt>
      <trkpt lat="44.40807" lon="6.82067">
        <ele>1786.97</ele>
        <time>2021-07-21T12:27:33Z</time>
      </trkpt>
      <trkpt lat="44.4081" lon="6.82062">
        <ele>1786.9</ele>
        <time>2021-07-21T12:27:34Z</time>
      </trkpt>
      <trkpt lat="44.40813" lon="6.82057">
        <ele>1786.82</ele>
        <time>2021-07-21T12:27:35Z</time>
      </trkpt>
      <trkpt lat="44.40816" lon="6.82052">
        <ele>1787.26</ele>
        <time>2021-07-21T12:27:37Z</time>
      </trkpt>
      <trkpt lat="44.40821" lon="6.82042">
        <ele>1788.7</ele>
        <time>2021-07-21T12:27:39Z</time>
      </trkpt>
      <trkpt lat="44.40824" lon="6.82033">
        <ele>1790.22</ele>
        <time>2021-07-21T12:27:41Z</time>
      </trkpt>
      <trkpt lat="44.40826" lon="6.82023">
        <ele>1791.93</ele>
        <time>2021-07-21T12:27:43Z</time>
      </trkpt>
      <trkpt lat="44.4083" lon="6.82016">
        <ele>1792.38</ele>
        <time>2021-07-21T12:27:45Z</time>
      </trkpt>
      <trkpt lat="44.40834" lon="6.82009">
        <ele>1792.53</ele>
        <time>2021-07-21T12:27:46Z</time>
      </trkpt>
      <trkpt lat="44.40838" lon="6.82002">
        <ele>1792.39</ele>
        <time>2021-07-21T12:27:48Z</time>
      </trkpt>
      <trkpt lat="44.40842" lon="6.81995">
        <ele>1792.58</ele>
        <time>2021-07-21T12:27:51Z</time>
      </trkpt>
      <trkpt lat="44.40847" lon="6.81988">
        <ele>1792.66</ele>
        <time>2021-07-21T12:27:53Z</time>
      </trkpt>
      <trkpt lat="44.40855" lon="6.8198">
        <ele>1792.08</ele>
        <time>2021-07-21T12:27:56Z</time>
      </trkpt>
      <trkpt lat="44.40862" lon="6.81977">
        <ele>1790.89</ele>
        <time>2021-07-21T12:27:57Z</time>
      </trkpt>
      <trkpt lat="44.40868" lon="6.81975">
        <ele>1790.73</ele>
        <time>2021-07-21T12:27:59Z</time>
      </trkpt>
      <trkpt lat="44.40875" lon="6.81974">
        <ele>1790.21</ele>
        <time>2021-07-21T12:28:01Z</time>
      </trkpt>
      <trkpt lat="44.40881" lon="6.81973">
        <ele>1789.74</ele>
        <time>2021-07-21T12:28:03Z</time>
      </trkpt>
      <trkpt lat="44.40888" lon="6.81971">
        <ele>1789.27</ele>
        <time>2021-07-21T12:28:06Z</time>
      </trkpt>
      <trkpt lat="44.40894" lon="6.81965">
        <ele>1789.76</ele>
        <time>2021-07-21T12:28:08Z</time>
      </trkpt>
      <trkpt lat="44.40898" lon="6.81959">
        <ele>1790.26</ele>
        <time>2021-07-21T12:28:11Z</time>
      </trkpt>
      <trkpt lat="44.409" lon="6.8195">
        <ele>1791.16</ele>
        <time>2021-07-21T12:28:14Z</time>
      </trkpt>
      <trkpt lat="44.409" lon="6.81941">
        <ele>1792.4</ele>
        <time>2021-07-21T12:28:16Z</time>
      </trkpt>
      <trkpt lat="44.40902" lon="6.8193">
        <ele>1793.97</ele>
        <time>2021-07-21T12:28:18Z</time>
      </trkpt>
      <trkpt lat="44.40907" lon="6.81926">
        <ele>1793.73</ele>
        <time>2021-07-21T12:28:20Z</time>
      </trkpt>
      <trkpt lat="44.40915" lon="6.81927">
        <ele>1792.18</ele>
        <time>2021-07-21T12:28:22Z</time>
      </trkpt>
      <trkpt lat="44.40922" lon="6.81926">
        <ele>1791.29</ele>
        <time>2021-07-21T12:28:24Z</time>
      </trkpt>
      <trkpt lat="44.40928" lon="6.81923">
        <ele>1790.91</ele>
        <time>2021-07-21T12:28:27Z</time>
      </trkpt>
      <trkpt lat="44.40933" lon="6.81915">
        <ele>1791.44</ele>
        <time>2021-07-21T12:28:30Z</time>
      </trkpt>
      <trkpt lat="44.40938" lon="6.81908">
        <ele>1791.7</ele>
        <time>2021-07-21T12:28:32Z</time>
      </trkpt>
      <trkpt lat="44.40942" lon="6.81898">
        <ele>1792.34</ele>
        <time>2021-07-21T12:28:36Z</time>
      </trkpt>
      <trkpt lat="44.40947" lon="6.81888">
        <ele>1792.81</ele>
        <time>2021-07-21T12:28:39Z</time>
      </trkpt>
      <trkpt lat="44.40952" lon="6.81882">
        <ele>1793.13</ele>
        <time>2021-07-21T12:28:40Z</time>
      </trkpt>
      <trkpt lat="44.40956" lon="6.81875">
        <ele>1793.5</ele>
        <time>2021-07-21T12:28:42Z</time>
      </trkpt>
      <trkpt lat="44.40961" lon="6.81869">
        <ele>1793.21</ele>
        <time>2021-07-21T12:28:45Z</time>
      </trkpt>
      <trkpt lat="44.40964" lon="6.81869">
        <ele>1792.46</ele>
        <time>2021-07-21T12:29:30Z</time>
      </trkpt>
      <trkpt lat="44.40967" lon="6.81865">
        <ele>1792.12</ele>
        <time>2021-07-21T12:29:32Z</time>
      </trkpt>
      <trkpt lat="44.40971" lon="6.81862">
        <ele>1791.28</ele>
        <time>2021-07-21T12:29:34Z</time>
      </trkpt>
      <trkpt lat="44.40974" lon="6.81859">
        <ele>1790.48</ele>
        <time>2021-07-21T12:29:36Z</time>
      </trkpt>
      <trkpt lat="44.40979" lon="6.81853">
        <ele>1788.98</ele>
        <time>2021-07-21T12:29:39Z</time>
      </trkpt>
      <trkpt lat="44.40983" lon="6.81849">
        <ele>1787.73</ele>
        <time>2021-07-21T12:29:40Z</time>
      </trkpt>
      <trkpt lat="44.4099" lon="6.81837">
        <ele>1785.32</ele>
        <time>2021-07-21T12:29:43Z</time>
      </trkpt>
      <trkpt lat="44.40998" lon="6.81823">
        <ele>1782.65</ele>
        <time>2021-07-21T12:29:45Z</time>
      </trkpt>
      <trkpt lat="44.41002" lon="6.81817">
        <ele>1781.93</ele>
        <time>2021-07-21T12:29:47Z</time>
      </trkpt>
      <trkpt lat="44.41006" lon="6.81809">
        <ele>1781.78</ele>
        <time>2021-07-21T12:29:48Z</time>
      </trkpt>
      <trkpt lat="44.41008" lon="6.81801">
        <ele>1781.88</ele>
        <time>2021-07-21T12:29:49Z</time>
      </trkpt>
      <trkpt lat="44.4101" lon="6.81794">
        <ele>1782.06</ele>
        <time>2021-07-21T12:29:50Z</time>
      </trkpt>
      <trkpt lat="44.41012" lon="6.81787">
        <ele>1782.24</ele>
        <time>2021-07-21T12:29:51Z</time>
      </trkpt>
      <trkpt lat="44.41015" lon="6.81781">
        <ele>1782.34</ele>
        <time>2021-07-21T12:29:52Z</time>
      </trkpt>
      <trkpt lat="44.41018" lon="6.81775">
        <ele>1782.49</ele>
        <time>2021-07-21T12:29:53Z</time>
      </trkpt>
      <trkpt lat="44.41021" lon="6.81769">
        <ele>1782.64</ele>
        <time>2021-07-21T12:29:54Z</time>
      </trkpt>
      <trkpt lat="44.41024" lon="6.81763">
        <ele>1782.74</ele>
        <time>2021-07-21T12:29:55Z</time>
      </trkpt>
      <trkpt lat="44.41026" lon="6.81757">
        <ele>1782.86</ele>
        <time>2021-07-21T12:29:57Z</time>
      </trkpt>
      <trkpt lat="44.4103" lon="6.81752">
        <ele>1782.68</ele>
        <time>2021-07-21T12:29:59Z</time>
      </trkpt>
      <trkpt lat="44.41033" lon="6.81747">
        <ele>1782.69</ele>
        <time>2021-07-21T12:30:01Z</time>
      </trkpt>
      <trkpt lat="44.4104" lon="6.81734">
        <ele>1783.34</ele>
        <time>2021-07-21T12:30:04Z</time>
      </trkpt>
      <trkpt lat="44.41046" lon="6.81721">
        <ele>1784.5</ele>
        <time>2021-07-21T12:30:07Z</time>
      </trkpt>
      <trkpt lat="44.41055" lon="6.8171">
        <ele>1785.77</ele>
        <time>2021-07-21T12:30:10Z</time>
      </trkpt>
      <trkpt lat="44.41061" lon="6.81703">
        <ele>1785.14</ele>
        <time>2021-07-21T12:30:12Z</time>
      </trkpt>
      <trkpt lat="44.41068" lon="6.81696">
        <ele>1784.17</ele>
        <time>2021-07-21T12:30:14Z</time>
      </trkpt>
      <trkpt lat="44.41077" lon="6.81689">
        <ele>1782.2</ele>
        <time>2021-07-21T12:30:17Z</time>
      </trkpt>
      <trkpt lat="44.41083" lon="6.81683">
        <ele>1780.53</ele>
        <time>2021-07-21T12:30:18Z</time>
      </trkpt>
      <trkpt lat="44.41089" lon="6.81673">
        <ele>1778.2</ele>
        <time>2021-07-21T12:30:21Z</time>
      </trkpt>
      <trkpt lat="44.41095" lon="6.81659">
        <ele>1777.48</ele>
        <time>2021-07-21T12:30:23Z</time>
      </trkpt>
      <trkpt lat="44.41097" lon="6.81653">
        <ele>1777.56</ele>
        <time>2021-07-21T12:30:24Z</time>
      </trkpt>
      <trkpt lat="44.411" lon="6.81646">
        <ele>1777.38</ele>
        <time>2021-07-21T12:30:25Z</time>
      </trkpt>
      <trkpt lat="44.41102" lon="6.8164">
        <ele>1777.45</ele>
        <time>2021-07-21T12:30:26Z</time>
      </trkpt>
      <trkpt lat="44.41105" lon="6.81634">
        <ele>1776.87</ele>
        <time>2021-07-21T12:30:27Z</time>
      </trkpt>
      <trkpt lat="44.41107" lon="6.81627">
        <ele>1776.79</ele>
        <time>2021-07-21T12:30:28Z</time>
      </trkpt>
      <trkpt lat="44.41109" lon="6.81621">
        <ele>1776.67</ele>
        <time>2021-07-21T12:30:29Z</time>
      </trkpt>
      <trkpt lat="44.41111" lon="6.81615">
        <ele>1776.62</ele>
        <time>2021-07-21T12:30:30Z</time>
      </trkpt>
      <trkpt lat="44.41114" lon="6.81608">
        <ele>1776.75</ele>
        <time>2021-07-21T12:30:32Z</time>
      </trkpt>
      <trkpt lat="44.41118" lon="6.81604">
        <ele>1776.47</ele>
        <time>2021-07-21T12:30:33Z</time>
      </trkpt>
      <trkpt lat="44.41122" lon="6.81598">
        <ele>1776.62</ele>
        <time>2021-07-21T12:30:35Z</time>
      </trkpt>
      <trkpt lat="44.41127" lon="6.81585">
        <ele>1778</ele>
        <time>2021-07-21T12:30:37Z</time>
      </trkpt>
      <trkpt lat="44.4113" lon="6.81573">
        <ele>1778.57</ele>
        <time>2021-07-21T12:30:39Z</time>
      </trkpt>
      <trkpt lat="44.41131" lon="6.81564">
        <ele>1778.94</ele>
        <time>2021-07-21T12:30:41Z</time>
      </trkpt>
      <trkpt lat="44.41135" lon="6.81551">
        <ele>1779.52</ele>
        <time>2021-07-21T12:30:43Z</time>
      </trkpt>
      <trkpt lat="44.4114" lon="6.81544">
        <ele>1779.93</ele>
        <time>2021-07-21T12:30:45Z</time>
      </trkpt>
      <trkpt lat="44.41145" lon="6.81536">
        <ele>1780.46</ele>
        <time>2021-07-21T12:30:47Z</time>
      </trkpt>
      <trkpt lat="44.41151" lon="6.81529">
        <ele>1780.24</ele>
        <time>2021-07-21T12:30:48Z</time>
      </trkpt>
      <trkpt lat="44.41157" lon="6.81518">
        <ele>1780.27</ele>
        <time>2021-07-21T12:30:51Z</time>
      </trkpt>
      <trkpt lat="44.41162" lon="6.81513">
        <ele>1779.69</ele>
        <time>2021-07-21T12:30:54Z</time>
      </trkpt>
      <trkpt lat="44.41168" lon="6.81504">
        <ele>1778.96</ele>
        <time>2021-07-21T12:30:57Z</time>
      </trkpt>
      <trkpt lat="44.41172" lon="6.81497">
        <ele>1778.24</ele>
        <time>2021-07-21T12:30:58Z</time>
      </trkpt>
      <trkpt lat="44.41178" lon="6.81489">
        <ele>1777.31</ele>
        <time>2021-07-21T12:31:00Z</time>
      </trkpt>
      <trkpt lat="44.41183" lon="6.81485">
        <ele>1775.82</ele>
        <time>2021-07-21T12:31:01Z</time>
      </trkpt>
      <trkpt lat="44.41187" lon="6.81478">
        <ele>1775.45</ele>
        <time>2021-07-21T12:31:02Z</time>
      </trkpt>
      <trkpt lat="44.41195" lon="6.81466">
        <ele>1773.8</ele>
        <time>2021-07-21T12:31:04Z</time>
      </trkpt>
      <trkpt lat="44.412" lon="6.81459">
        <ele>1772.28</ele>
        <time>2021-07-21T12:31:06Z</time>
      </trkpt>
      <trkpt lat="44.41203" lon="6.81452">
        <ele>1771.94</ele>
        <time>2021-07-21T12:31:08Z</time>
      </trkpt>
      <trkpt lat="44.41209" lon="6.81444">
        <ele>1770.23</ele>
        <time>2021-07-21T12:31:10Z</time>
      </trkpt>
      <trkpt lat="44.41214" lon="6.81436">
        <ele>1768.93</ele>
        <time>2021-07-21T12:31:12Z</time>
      </trkpt>
      <trkpt lat="44.41217" lon="6.81419">
        <ele>1770</ele>
        <time>2021-07-21T12:31:15Z</time>
      </trkpt>
      <trkpt lat="44.41223" lon="6.81409">
        <ele>1768.01</ele>
        <time>2021-07-21T12:31:16Z</time>
      </trkpt>
      <trkpt lat="44.41227" lon="6.81403">
        <ele>1766.97</ele>
        <time>2021-07-21T12:31:17Z</time>
      </trkpt>
      <trkpt lat="44.4123" lon="6.81397">
        <ele>1766.19</ele>
        <time>2021-07-21T12:31:18Z</time>
      </trkpt>
      <trkpt lat="44.41233" lon="6.81391">
        <ele>1765.17</ele>
        <time>2021-07-21T12:31:19Z</time>
      </trkpt>
      <trkpt lat="44.41236" lon="6.81385">
        <ele>1764.06</ele>
        <time>2021-07-21T12:31:20Z</time>
      </trkpt>
      <trkpt lat="44.41239" lon="6.81381">
        <ele>1762.81</ele>
        <time>2021-07-21T12:31:21Z</time>
      </trkpt>
      <trkpt lat="44.41243" lon="6.81376">
        <ele>1761.25</ele>
        <time>2021-07-21T12:31:23Z</time>
      </trkpt>
      <trkpt lat="44.41247" lon="6.81373">
        <ele>1759.51</ele>
        <time>2021-07-21T12:31:24Z</time>
      </trkpt>
      <trkpt lat="44.41254" lon="6.81364">
        <ele>1757.75</ele>
        <time>2021-07-21T12:31:26Z</time>
      </trkpt>
      <trkpt lat="44.41258" lon="6.81351">
        <ele>1757.85</ele>
        <time>2021-07-21T12:31:29Z</time>
      </trkpt>
      <trkpt lat="44.41263" lon="6.81338">
        <ele>1757.66</ele>
        <time>2021-07-21T12:31:31Z</time>
      </trkpt>
      <trkpt lat="44.41268" lon="6.81326">
        <ele>1756.88</ele>
        <time>2021-07-21T12:31:35Z</time>
      </trkpt>
      <trkpt lat="44.41272" lon="6.81318">
        <ele>1755.75</ele>
        <time>2021-07-21T12:31:37Z</time>
      </trkpt>
      <trkpt lat="44.41275" lon="6.8131">
        <ele>1754.92</ele>
        <time>2021-07-21T12:31:39Z</time>
      </trkpt>
      <trkpt lat="44.41278" lon="6.81299">
        <ele>1755.29</ele>
        <time>2021-07-21T12:31:42Z</time>
      </trkpt>
      <trkpt lat="44.41279" lon="6.8129">
        <ele>1756.65</ele>
        <time>2021-07-21T12:31:45Z</time>
      </trkpt>
      <trkpt lat="44.41281" lon="6.8128">
        <ele>1757.57</ele>
        <time>2021-07-21T12:31:47Z</time>
      </trkpt>
      <trkpt lat="44.41286" lon="6.81268">
        <ele>1755.53</ele>
        <time>2021-07-21T12:31:50Z</time>
      </trkpt>
      <trkpt lat="44.4129" lon="6.81255">
        <ele>1754.06</ele>
        <time>2021-07-21T12:31:52Z</time>
      </trkpt>
      <trkpt lat="44.41291" lon="6.81245">
        <ele>1754.49</ele>
        <time>2021-07-21T12:31:54Z</time>
      </trkpt>
      <trkpt lat="44.41294" lon="6.81233">
        <ele>1754.43</ele>
        <time>2021-07-21T12:31:55Z</time>
      </trkpt>
      <trkpt lat="44.41297" lon="6.81227">
        <ele>1753.68</ele>
        <time>2021-07-21T12:31:57Z</time>
      </trkpt>
      <trkpt lat="44.41302" lon="6.81219">
        <ele>1752.86</ele>
        <time>2021-07-21T12:31:59Z</time>
      </trkpt>
      <trkpt lat="44.41306" lon="6.81213">
        <ele>1753.2</ele>
        <time>2021-07-21T12:32:00Z</time>
      </trkpt>
      <trkpt lat="44.41308" lon="6.812">
        <ele>1757.37</ele>
        <time>2021-07-21T12:32:03Z</time>
      </trkpt>
      <trkpt lat="44.41305" lon="6.81186">
        <ele>1762.58</ele>
        <time>2021-07-21T12:32:06Z</time>
      </trkpt>
      <trkpt lat="44.41303" lon="6.81178">
        <ele>1765.36</ele>
        <time>2021-07-21T12:32:08Z</time>
      </trkpt>
      <trkpt lat="44.41301" lon="6.81168">
        <ele>1768.62</ele>
        <time>2021-07-21T12:32:10Z</time>
      </trkpt>
      <trkpt lat="44.41298" lon="6.81159">
        <ele>1771.84</ele>
        <time>2021-07-21T12:32:12Z</time>
      </trkpt>
      <trkpt lat="44.41297" lon="6.81146">
        <ele>1775.8</ele>
        <time>2021-07-21T12:32:15Z</time>
      </trkpt>
      <trkpt lat="44.41297" lon="6.81137">
        <ele>1778.21</ele>
        <time>2021-07-21T12:32:18Z</time>
      </trkpt>
      <trkpt lat="44.413" lon="6.81129">
        <ele>1779.05</ele>
        <time>2021-07-21T12:32:21Z</time>
      </trkpt>
      <trkpt lat="44.41306" lon="6.81122">
        <ele>1778.85</ele>
        <time>2021-07-21T12:32:24Z</time>
      </trkpt>
      <trkpt lat="44.41316" lon="6.81121">
        <ele>1774.71</ele>
        <time>2021-07-21T12:32:28Z</time>
      </trkpt>
      <trkpt lat="44.41328" lon="6.81119">
        <ele>1769.88</ele>
        <time>2021-07-21T12:32:31Z</time>
      </trkpt>
      <trkpt lat="44.41336" lon="6.81114">
        <ele>1767.32</ele>
        <time>2021-07-21T12:32:33Z</time>
      </trkpt>
      <trkpt lat="44.41341" lon="6.81106">
        <ele>1767.26</ele>
        <time>2021-07-21T12:32:35Z</time>
      </trkpt>
      <trkpt lat="44.41343" lon="6.81091">
        <ele>1771.12</ele>
        <time>2021-07-21T12:32:37Z</time>
      </trkpt>
      <trkpt lat="44.41343" lon="6.81083">
        <ele>1773.68</ele>
        <time>2021-07-21T12:32:39Z</time>
      </trkpt>
      <trkpt lat="44.41346" lon="6.81073">
        <ele>1777.45</ele>
        <time>2021-07-21T12:32:41Z</time>
      </trkpt>
      <trkpt lat="44.41358" lon="6.81074">
        <ele>1772.79</ele>
        <time>2021-07-21T12:32:43Z</time>
      </trkpt>
      <trkpt lat="44.41363" lon="6.81074">
        <ele>1770.75</ele>
        <time>2021-07-21T12:32:44Z</time>
      </trkpt>
      <trkpt lat="44.41368" lon="6.81074">
        <ele>1768.23</ele>
        <time>2021-07-21T12:32:45Z</time>
      </trkpt>
      <trkpt lat="44.41374" lon="6.81074">
        <ele>1765.2</ele>
        <time>2021-07-21T12:32:46Z</time>
      </trkpt>
      <trkpt lat="44.41378" lon="6.81073">
        <ele>1763.63</ele>
        <time>2021-07-21T12:32:47Z</time>
      </trkpt>
      <trkpt lat="44.41383" lon="6.8107">
        <ele>1762.34</ele>
        <time>2021-07-21T12:32:49Z</time>
      </trkpt>
      <trkpt lat="44.41389" lon="6.81067">
        <ele>1760.39</ele>
        <time>2021-07-21T12:32:50Z</time>
      </trkpt>
      <trkpt lat="44.41395" lon="6.8106">
        <ele>1758.24</ele>
        <time>2021-07-21T12:32:52Z</time>
      </trkpt>
      <trkpt lat="44.41401" lon="6.81054">
        <ele>1755.03</ele>
        <time>2021-07-21T12:32:53Z</time>
      </trkpt>
      <trkpt lat="44.41406" lon="6.81048">
        <ele>1752.37</ele>
        <time>2021-07-21T12:32:55Z</time>
      </trkpt>
      <trkpt lat="44.41412" lon="6.8104">
        <ele>1748.86</ele>
        <time>2021-07-21T12:32:58Z</time>
      </trkpt>
      <trkpt lat="44.41416" lon="6.81034">
        <ele>1746.33</ele>
        <time>2021-07-21T12:33:00Z</time>
      </trkpt>
      <trkpt lat="44.41423" lon="6.81025">
        <ele>1745.82</ele>
        <time>2021-07-21T12:33:03Z</time>
      </trkpt>
      <trkpt lat="44.41429" lon="6.81019">
        <ele>1746.94</ele>
        <time>2021-07-21T12:33:05Z</time>
      </trkpt>
      <trkpt lat="44.41436" lon="6.81006">
        <ele>1751.56</ele>
        <time>2021-07-21T12:33:08Z</time>
      </trkpt>
      <trkpt lat="44.41442" lon="6.80997">
        <ele>1753.39</ele>
        <time>2021-07-21T12:33:10Z</time>
      </trkpt>
      <trkpt lat="44.41448" lon="6.80985">
        <ele>1756.94</ele>
        <time>2021-07-21T12:33:13Z</time>
      </trkpt>
      <trkpt lat="44.41452" lon="6.80977">
        <ele>1757.73</ele>
        <time>2021-07-21T12:33:15Z</time>
      </trkpt>
      <trkpt lat="44.41456" lon="6.80968">
        <ele>1756.73</ele>
        <time>2021-07-21T12:33:17Z</time>
      </trkpt>
      <trkpt lat="44.41462" lon="6.80955">
        <ele>1753.9</ele>
        <time>2021-07-21T12:33:20Z</time>
      </trkpt>
      <trkpt lat="44.41468" lon="6.80945">
        <ele>1753.17</ele>
        <time>2021-07-21T12:33:23Z</time>
      </trkpt>
      <trkpt lat="44.41474" lon="6.80939">
        <ele>1751.79</ele>
        <time>2021-07-21T12:33:25Z</time>
      </trkpt>
      <trkpt lat="44.4148" lon="6.8093">
        <ele>1752.57</ele>
        <time>2021-07-21T12:33:28Z</time>
      </trkpt>
      <trkpt lat="44.41485" lon="6.80924">
        <ele>1752.7</ele>
        <time>2021-07-21T12:33:30Z</time>
      </trkpt>
      <trkpt lat="44.4149" lon="6.80916">
        <ele>1754.42</ele>
        <time>2021-07-21T12:33:32Z</time>
      </trkpt>
      <trkpt lat="44.41494" lon="6.80908">
        <ele>1754.52</ele>
        <time>2021-07-21T12:33:35Z</time>
      </trkpt>
      <trkpt lat="44.41499" lon="6.809">
        <ele>1754.75</ele>
        <time>2021-07-21T12:33:37Z</time>
      </trkpt>
      <trkpt lat="44.41503" lon="6.80893">
        <ele>1756.06</ele>
        <time>2021-07-21T12:33:39Z</time>
      </trkpt>
      <trkpt lat="44.41509" lon="6.80885">
        <ele>1756.74</ele>
        <time>2021-07-21T12:33:41Z</time>
      </trkpt>
      <trkpt lat="44.41513" lon="6.80879">
        <ele>1756.81</ele>
        <time>2021-07-21T12:33:43Z</time>
      </trkpt>
      <trkpt lat="44.4152" lon="6.80872">
        <ele>1756.06</ele>
        <time>2021-07-21T12:33:46Z</time>
      </trkpt>
      <trkpt lat="44.41527" lon="6.80866">
        <ele>1755.05</ele>
        <time>2021-07-21T12:33:48Z</time>
      </trkpt>
      <trkpt lat="44.41532" lon="6.8086">
        <ele>1754.09</ele>
        <time>2021-07-21T12:33:50Z</time>
      </trkpt>
      <trkpt lat="44.41537" lon="6.80848">
        <ele>1752.78</ele>
        <time>2021-07-21T12:33:53Z</time>
      </trkpt>
      <trkpt lat="44.41541" lon="6.80839">
        <ele>1752.12</ele>
        <time>2021-07-21T12:33:55Z</time>
      </trkpt>
      <trkpt lat="44.41543" lon="6.80831">
        <ele>1752.15</ele>
        <time>2021-07-21T12:33:57Z</time>
      </trkpt>
      <trkpt lat="44.41546" lon="6.80823">
        <ele>1751.47</ele>
        <time>2021-07-21T12:33:58Z</time>
      </trkpt>
      <trkpt lat="44.41548" lon="6.80812">
        <ele>1751.22</ele>
        <time>2021-07-21T12:34:01Z</time>
      </trkpt>
      <trkpt lat="44.41551" lon="6.80801">
        <ele>1750.5</ele>
        <time>2021-07-21T12:34:03Z</time>
      </trkpt>
      <trkpt lat="44.41554" lon="6.80791">
        <ele>1749.19</ele>
        <time>2021-07-21T12:34:05Z</time>
      </trkpt>
      <trkpt lat="44.41557" lon="6.80783">
        <ele>1748.1</ele>
        <time>2021-07-21T12:34:06Z</time>
      </trkpt>
      <trkpt lat="44.41561" lon="6.8077">
        <ele>1748.51</ele>
        <time>2021-07-21T12:34:09Z</time>
      </trkpt>
      <trkpt lat="44.41566" lon="6.80759">
        <ele>1748.94</ele>
        <time>2021-07-21T12:34:11Z</time>
      </trkpt>
      <trkpt lat="44.41569" lon="6.80752">
        <ele>1748.95</ele>
        <time>2021-07-21T12:34:13Z</time>
      </trkpt>
      <trkpt lat="44.41578" lon="6.80742">
        <ele>1747.77</ele>
        <time>2021-07-21T12:34:15Z</time>
      </trkpt>
      <trkpt lat="44.41584" lon="6.80737">
        <ele>1746.36</ele>
        <time>2021-07-21T12:34:17Z</time>
      </trkpt>
      <trkpt lat="44.41589" lon="6.80733">
        <ele>1745.67</ele>
        <time>2021-07-21T12:34:18Z</time>
      </trkpt>
      <trkpt lat="44.41593" lon="6.80728">
        <ele>1745.12</ele>
        <time>2021-07-21T12:34:19Z</time>
      </trkpt>
      <trkpt lat="44.41599" lon="6.80724">
        <ele>1744.15</ele>
        <time>2021-07-21T12:34:21Z</time>
      </trkpt>
      <trkpt lat="44.41604" lon="6.80719">
        <ele>1743.54</ele>
        <time>2021-07-21T12:34:23Z</time>
      </trkpt>
      <trkpt lat="44.4161" lon="6.80714">
        <ele>1742.56</ele>
        <time>2021-07-21T12:34:26Z</time>
      </trkpt>
      <trkpt lat="44.41616" lon="6.8071">
        <ele>1742.54</ele>
        <time>2021-07-21T12:34:28Z</time>
      </trkpt>
      <trkpt lat="44.41623" lon="6.80706">
        <ele>1742.76</ele>
        <time>2021-07-21T12:34:30Z</time>
      </trkpt>
      <trkpt lat="44.41629" lon="6.80701">
        <ele>1742.92</ele>
        <time>2021-07-21T12:34:32Z</time>
      </trkpt>
      <trkpt lat="44.41636" lon="6.80695">
        <ele>1743</ele>
        <time>2021-07-21T12:34:35Z</time>
      </trkpt>
      <trkpt lat="44.41642" lon="6.80688">
        <ele>1744.22</ele>
        <time>2021-07-21T12:34:38Z</time>
      </trkpt>
      <trkpt lat="44.41649" lon="6.80676">
        <ele>1746.2</ele>
        <time>2021-07-21T12:34:42Z</time>
      </trkpt>
      <trkpt lat="44.41653" lon="6.80668">
        <ele>1747.3</ele>
        <time>2021-07-21T12:34:44Z</time>
      </trkpt>
      <trkpt lat="44.41657" lon="6.80657">
        <ele>1748.42</ele>
        <time>2021-07-21T12:34:47Z</time>
      </trkpt>
      <trkpt lat="44.41659" lon="6.80646">
        <ele>1749.25</ele>
        <time>2021-07-21T12:34:50Z</time>
      </trkpt>
      <trkpt lat="44.41662" lon="6.80637">
        <ele>1749.44</ele>
        <time>2021-07-21T12:34:51Z</time>
      </trkpt>
      <trkpt lat="44.41667" lon="6.80626">
        <ele>1749.28</ele>
        <time>2021-07-21T12:34:52Z</time>
      </trkpt>
      <trkpt lat="44.4167" lon="6.80619">
        <ele>1748.93</ele>
        <time>2021-07-21T12:34:53Z</time>
      </trkpt>
      <trkpt lat="44.41673" lon="6.80612">
        <ele>1748.42</ele>
        <time>2021-07-21T12:34:55Z</time>
      </trkpt>
      <trkpt lat="44.41676" lon="6.80599">
        <ele>1748.75</ele>
        <time>2021-07-21T12:34:57Z</time>
      </trkpt>
      <trkpt lat="44.41679" lon="6.80589">
        <ele>1748.33</ele>
        <time>2021-07-21T12:34:59Z</time>
      </trkpt>
      <trkpt lat="44.41682" lon="6.8058">
        <ele>1747.41</ele>
        <time>2021-07-21T12:35:00Z</time>
      </trkpt>
      <trkpt lat="44.41683" lon="6.80569">
        <ele>1747.62</ele>
        <time>2021-07-21T12:35:01Z</time>
      </trkpt>
      <trkpt lat="44.41685" lon="6.80562">
        <ele>1746.98</ele>
        <time>2021-07-21T12:35:02Z</time>
      </trkpt>
      <trkpt lat="44.41687" lon="6.80555">
        <ele>1746.3</ele>
        <time>2021-07-21T12:35:03Z</time>
      </trkpt>
      <trkpt lat="44.41689" lon="6.80548">
        <ele>1745.3</ele>
        <time>2021-07-21T12:35:05Z</time>
      </trkpt>
      <trkpt lat="44.41692" lon="6.80536">
        <ele>1743.99</ele>
        <time>2021-07-21T12:35:06Z</time>
      </trkpt>
      <trkpt lat="44.41693" lon="6.8053">
        <ele>1743.66</ele>
        <time>2021-07-21T12:35:07Z</time>
      </trkpt>
      <trkpt lat="44.41694" lon="6.80522">
        <ele>1742.81</ele>
        <time>2021-07-21T12:35:08Z</time>
      </trkpt>
      <trkpt lat="44.41695" lon="6.80515">
        <ele>1741.81</ele>
        <time>2021-07-21T12:35:09Z</time>
      </trkpt>
      <trkpt lat="44.41695" lon="6.80509">
        <ele>1741.4</ele>
        <time>2021-07-21T12:35:10Z</time>
      </trkpt>
      <trkpt lat="44.41695" lon="6.80504">
        <ele>1741.05</ele>
        <time>2021-07-21T12:35:12Z</time>
      </trkpt>
      <trkpt lat="44.41693" lon="6.80492">
        <ele>1742.97</ele>
        <time>2021-07-21T12:35:15Z</time>
      </trkpt>
      <trkpt lat="44.41694" lon="6.80477">
        <ele>1744.55</ele>
        <time>2021-07-21T12:35:17Z</time>
      </trkpt>
      <trkpt lat="44.41696" lon="6.80465">
        <ele>1745.38</ele>
        <time>2021-07-21T12:35:19Z</time>
      </trkpt>
      <trkpt lat="44.41697" lon="6.80449">
        <ele>1747.32</ele>
        <time>2021-07-21T12:35:20Z</time>
      </trkpt>
      <trkpt lat="44.41698" lon="6.80441">
        <ele>1748.01</ele>
        <time>2021-07-21T12:35:21Z</time>
      </trkpt>
      <trkpt lat="44.41698" lon="6.80433">
        <ele>1748.99</ele>
        <time>2021-07-21T12:35:22Z</time>
      </trkpt>
      <trkpt lat="44.41699" lon="6.80426">
        <ele>1749.51</ele>
        <time>2021-07-21T12:35:23Z</time>
      </trkpt>
      <trkpt lat="44.417" lon="6.80419">
        <ele>1750.1</ele>
        <time>2021-07-21T12:35:24Z</time>
      </trkpt>
      <trkpt lat="44.417" lon="6.80411">
        <ele>1750.16</ele>
        <time>2021-07-21T12:35:26Z</time>
      </trkpt>
      <trkpt lat="44.41699" lon="6.80404">
        <ele>1750.16</ele>
        <time>2021-07-21T12:35:28Z</time>
      </trkpt>
      <trkpt lat="44.41701" lon="6.80393">
        <ele>1749.06</ele>
        <time>2021-07-21T12:35:30Z</time>
      </trkpt>
      <trkpt lat="44.41703" lon="6.80385">
        <ele>1748.32</ele>
        <time>2021-07-21T12:35:32Z</time>
      </trkpt>
      <trkpt lat="44.41704" lon="6.80367">
        <ele>1748.42</ele>
        <time>2021-07-21T12:35:37Z</time>
      </trkpt>
      <trkpt lat="44.41708" lon="6.80353">
        <ele>1748.16</ele>
        <time>2021-07-21T12:35:42Z</time>
      </trkpt>
      <trkpt lat="44.41713" lon="6.80345">
        <ele>1746.86</ele>
        <time>2021-07-21T12:35:45Z</time>
      </trkpt>
      <trkpt lat="44.41718" lon="6.80335">
        <ele>1745.17</ele>
        <time>2021-07-21T12:35:48Z</time>
      </trkpt>
      <trkpt lat="44.41723" lon="6.80327">
        <ele>1743.06</ele>
        <time>2021-07-21T12:35:50Z</time>
      </trkpt>
      <trkpt lat="44.41726" lon="6.8032">
        <ele>1742.66</ele>
        <time>2021-07-21T12:35:52Z</time>
      </trkpt>
      <trkpt lat="44.41728" lon="6.80312">
        <ele>1742.52</ele>
        <time>2021-07-21T12:35:54Z</time>
      </trkpt>
      <trkpt lat="44.41728" lon="6.80295">
        <ele>1743.88</ele>
        <time>2021-07-21T12:35:57Z</time>
      </trkpt>
      <trkpt lat="44.41728" lon="6.80282">
        <ele>1745.26</ele>
        <time>2021-07-21T12:36:00Z</time>
      </trkpt>
      <trkpt lat="44.4173" lon="6.80264">
        <ele>1745</ele>
        <time>2021-07-21T12:36:05Z</time>
      </trkpt>
      <trkpt lat="44.41729" lon="6.80249">
        <ele>1745.58</ele>
        <time>2021-07-21T12:36:08Z</time>
      </trkpt>
      <trkpt lat="44.41727" lon="6.80237">
        <ele>1746.59</ele>
        <time>2021-07-21T12:36:10Z</time>
      </trkpt>
      <trkpt lat="44.41725" lon="6.80224">
        <ele>1747.6</ele>
        <time>2021-07-21T12:36:12Z</time>
      </trkpt>
      <trkpt lat="44.41724" lon="6.80214">
        <ele>1748.12</ele>
        <time>2021-07-21T12:36:14Z</time>
      </trkpt>
      <trkpt lat="44.41721" lon="6.80198">
        <ele>1749.96</ele>
        <time>2021-07-21T12:36:17Z</time>
      </trkpt>
      <trkpt lat="44.41719" lon="6.80186">
        <ele>1753.13</ele>
        <time>2021-07-21T12:36:19Z</time>
      </trkpt>
      <trkpt lat="44.41718" lon="6.80172">
        <ele>1756.33</ele>
        <time>2021-07-21T12:36:21Z</time>
      </trkpt>
      <trkpt lat="44.41717" lon="6.80159">
        <ele>1757.61</ele>
        <time>2021-07-21T12:36:24Z</time>
      </trkpt>
      <trkpt lat="44.41715" lon="6.80148">
        <ele>1758.2</ele>
        <time>2021-07-21T12:36:27Z</time>
      </trkpt>
      <trkpt lat="44.41712" lon="6.80135">
        <ele>1758.75</ele>
        <time>2021-07-21T12:36:31Z</time>
      </trkpt>
      <trkpt lat="44.41707" lon="6.80127">
        <ele>1760.49</ele>
        <time>2021-07-21T12:36:35Z</time>
      </trkpt>
      <trkpt lat="44.41704" lon="6.80116">
        <ele>1761.62</ele>
        <time>2021-07-21T12:36:37Z</time>
      </trkpt>
      <trkpt lat="44.41706" lon="6.80105">
        <ele>1758.91</ele>
        <time>2021-07-21T12:36:39Z</time>
      </trkpt>
      <trkpt lat="44.41709" lon="6.80095">
        <ele>1755.22</ele>
        <time>2021-07-21T12:36:42Z</time>
      </trkpt>
      <trkpt lat="44.41715" lon="6.80089">
        <ele>1751.53</ele>
        <time>2021-07-21T12:36:45Z</time>
      </trkpt>
      <trkpt lat="44.4172" lon="6.80079">
        <ele>1748.91</ele>
        <time>2021-07-21T12:36:47Z</time>
      </trkpt>
      <trkpt lat="44.41724" lon="6.80069">
        <ele>1748.16</ele>
        <time>2021-07-21T12:36:49Z</time>
      </trkpt>
      <trkpt lat="44.41727" lon="6.80052">
        <ele>1747.78</ele>
        <time>2021-07-21T12:36:53Z</time>
      </trkpt>
      <trkpt lat="44.4173" lon="6.80036">
        <ele>1746.5</ele>
        <time>2021-07-21T12:36:56Z</time>
      </trkpt>
      <trkpt lat="44.41732" lon="6.80026">
        <ele>1745.9</ele>
        <time>2021-07-21T12:36:58Z</time>
      </trkpt>
      <trkpt lat="44.41734" lon="6.80013">
        <ele>1745.42</ele>
        <time>2021-07-21T12:37:02Z</time>
      </trkpt>
      <trkpt lat="44.41734" lon="6.80002">
        <ele>1745.19</ele>
        <time>2021-07-21T12:37:05Z</time>
      </trkpt>
      <trkpt lat="44.41733" lon="6.79994">
        <ele>1745.01</ele>
        <time>2021-07-21T12:37:07Z</time>
      </trkpt>
      <trkpt lat="44.41733" lon="6.79986">
        <ele>1744.72</ele>
        <time>2021-07-21T12:37:09Z</time>
      </trkpt>
      <trkpt lat="44.41734" lon="6.79976">
        <ele>1744.29</ele>
        <time>2021-07-21T12:37:11Z</time>
      </trkpt>
      <trkpt lat="44.41733" lon="6.79961">
        <ele>1743.91</ele>
        <time>2021-07-21T12:37:14Z</time>
      </trkpt>
      <trkpt lat="44.41731" lon="6.79946">
        <ele>1743.77</ele>
        <time>2021-07-21T12:37:17Z</time>
      </trkpt>
      <trkpt lat="44.41727" lon="6.79932">
        <ele>1743.63</ele>
        <time>2021-07-21T12:37:20Z</time>
      </trkpt>
      <trkpt lat="44.41722" lon="6.79921">
        <ele>1744.26</ele>
        <time>2021-07-21T12:37:23Z</time>
      </trkpt>
      <trkpt lat="44.41716" lon="6.79911">
        <ele>1746.8</ele>
        <time>2021-07-21T12:37:25Z</time>
      </trkpt>
      <trkpt lat="44.41711" lon="6.799">
        <ele>1749.14</ele>
        <time>2021-07-21T12:37:29Z</time>
      </trkpt>
      <trkpt lat="44.41704" lon="6.79889">
        <ele>1752.84</ele>
        <time>2021-07-21T12:37:31Z</time>
      </trkpt>
      <trkpt lat="44.417" lon="6.79882">
        <ele>1754.55</ele>
        <time>2021-07-21T12:37:33Z</time>
      </trkpt>
      <trkpt lat="44.41699" lon="6.79865">
        <ele>1753.96</ele>
        <time>2021-07-21T12:37:35Z</time>
      </trkpt>
      <trkpt lat="44.417" lon="6.79857">
        <ele>1752.96</ele>
        <time>2021-07-21T12:37:36Z</time>
      </trkpt>
      <trkpt lat="44.41701" lon="6.79849">
        <ele>1752.03</ele>
        <time>2021-07-21T12:37:37Z</time>
      </trkpt>
      <trkpt lat="44.41703" lon="6.7984">
        <ele>1750.64</ele>
        <time>2021-07-21T12:37:38Z</time>
      </trkpt>
      <trkpt lat="44.41703" lon="6.79833">
        <ele>1750.28</ele>
        <time>2021-07-21T12:37:39Z</time>
      </trkpt>
      <trkpt lat="44.41703" lon="6.79826">
        <ele>1749.84</ele>
        <time>2021-07-21T12:37:40Z</time>
      </trkpt>
      <trkpt lat="44.41704" lon="6.7982">
        <ele>1749.09</ele>
        <time>2021-07-21T12:37:41Z</time>
      </trkpt>
      <trkpt lat="44.41704" lon="6.79813">
        <ele>1748.68</ele>
        <time>2021-07-21T12:37:42Z</time>
      </trkpt>
      <trkpt lat="44.41706" lon="6.79807">
        <ele>1747.74</ele>
        <time>2021-07-21T12:37:44Z</time>
      </trkpt>
      <trkpt lat="44.41705" lon="6.79799">
        <ele>1747.46</ele>
        <time>2021-07-21T12:37:46Z</time>
      </trkpt>
      <trkpt lat="44.41705" lon="6.79787">
        <ele>1746.56</ele>
        <time>2021-07-21T12:37:48Z</time>
      </trkpt>
      <trkpt lat="44.41706" lon="6.79774">
        <ele>1745.94</ele>
        <time>2021-07-21T12:37:51Z</time>
      </trkpt>
      <trkpt lat="44.41706" lon="6.79763">
        <ele>1746.51</ele>
        <time>2021-07-21T12:37:53Z</time>
      </trkpt>
      <trkpt lat="44.41706" lon="6.79754">
        <ele>1746.96</ele>
        <time>2021-07-21T12:37:55Z</time>
      </trkpt>
      <trkpt lat="44.41705" lon="6.79743">
        <ele>1747.8</ele>
        <time>2021-07-21T12:37:57Z</time>
      </trkpt>
      <trkpt lat="44.41706" lon="6.79733">
        <ele>1748.49</ele>
        <time>2021-07-21T12:37:58Z</time>
      </trkpt>
      <trkpt lat="44.41706" lon="6.79721">
        <ele>1749.36</ele>
        <time>2021-07-21T12:38:01Z</time>
      </trkpt>
      <trkpt lat="44.41708" lon="6.79713">
        <ele>1749.22</ele>
        <time>2021-07-21T12:38:02Z</time>
      </trkpt>
      <trkpt lat="44.41711" lon="6.797">
        <ele>1748.94</ele>
        <time>2021-07-21T12:38:04Z</time>
      </trkpt>
      <trkpt lat="44.41714" lon="6.79689">
        <ele>1748.54</ele>
        <time>2021-07-21T12:38:07Z</time>
      </trkpt>
      <trkpt lat="44.41719" lon="6.79677">
        <ele>1747.65</ele>
        <time>2021-07-21T12:38:10Z</time>
      </trkpt>
      <trkpt lat="44.41723" lon="6.79669">
        <ele>1746.67</ele>
        <time>2021-07-21T12:38:14Z</time>
      </trkpt>
      <trkpt lat="44.41728" lon="6.79658">
        <ele>1744.37</ele>
        <time>2021-07-21T12:38:18Z</time>
      </trkpt>
      <trkpt lat="44.41732" lon="6.7965">
        <ele>1742.35</ele>
        <time>2021-07-21T12:38:20Z</time>
      </trkpt>
      <trkpt lat="44.41735" lon="6.7964">
        <ele>1740.6</ele>
        <time>2021-07-21T12:38:22Z</time>
      </trkpt>
      <trkpt lat="44.41738" lon="6.79632">
        <ele>1738.94</ele>
        <time>2021-07-21T12:38:23Z</time>
      </trkpt>
      <trkpt lat="44.41739" lon="6.79623">
        <ele>1738.32</ele>
        <time>2021-07-21T12:38:25Z</time>
      </trkpt>
      <trkpt lat="44.41743" lon="6.79614">
        <ele>1736.3</ele>
        <time>2021-07-21T12:38:26Z</time>
      </trkpt>
      <trkpt lat="44.41745" lon="6.79603">
        <ele>1737.01</ele>
        <time>2021-07-21T12:38:28Z</time>
      </trkpt>
      <trkpt lat="44.41748" lon="6.79596">
        <ele>1736.81</ele>
        <time>2021-07-21T12:38:30Z</time>
      </trkpt>
      <trkpt lat="44.4175" lon="6.79587">
        <ele>1737.34</ele>
        <time>2021-07-21T12:38:31Z</time>
      </trkpt>
      <trkpt lat="44.41751" lon="6.79577">
        <ele>1738.75</ele>
        <time>2021-07-21T12:38:32Z</time>
      </trkpt>
      <trkpt lat="44.41752" lon="6.79569">
        <ele>1739.88</ele>
        <time>2021-07-21T12:38:33Z</time>
      </trkpt>
      <trkpt lat="44.41753" lon="6.79561">
        <ele>1740.97</ele>
        <time>2021-07-21T12:38:34Z</time>
      </trkpt>
      <trkpt lat="44.41753" lon="6.79553">
        <ele>1742.23</ele>
        <time>2021-07-21T12:38:35Z</time>
      </trkpt>
      <trkpt lat="44.41752" lon="6.79545">
        <ele>1742.63</ele>
        <time>2021-07-21T12:38:36Z</time>
      </trkpt>
      <trkpt lat="44.41752" lon="6.79537">
        <ele>1742.21</ele>
        <time>2021-07-21T12:38:37Z</time>
      </trkpt>
      <trkpt lat="44.41752" lon="6.7953">
        <ele>1741.83</ele>
        <time>2021-07-21T12:38:38Z</time>
      </trkpt>
      <trkpt lat="44.41751" lon="6.79525">
        <ele>1741.86</ele>
        <time>2021-07-21T12:38:39Z</time>
      </trkpt>
      <trkpt lat="44.4175" lon="6.79518">
        <ele>1742</ele>
        <time>2021-07-21T12:38:40Z</time>
      </trkpt>
      <trkpt lat="44.41748" lon="6.79511">
        <ele>1743.27</ele>
        <time>2021-07-21T12:38:41Z</time>
      </trkpt>
      <trkpt lat="44.41745" lon="6.79504">
        <ele>1745.21</ele>
        <time>2021-07-21T12:38:42Z</time>
      </trkpt>
      <trkpt lat="44.41742" lon="6.79496">
        <ele>1747.94</ele>
        <time>2021-07-21T12:38:43Z</time>
      </trkpt>
      <trkpt lat="44.4174" lon="6.7949">
        <ele>1750.04</ele>
        <time>2021-07-21T12:38:44Z</time>
      </trkpt>
      <trkpt lat="44.41737" lon="6.79483">
        <ele>1752.21</ele>
        <time>2021-07-21T12:38:46Z</time>
      </trkpt>
      <trkpt lat="44.41735" lon="6.7947">
        <ele>1753.14</ele>
        <time>2021-07-21T12:38:47Z</time>
      </trkpt>
      <trkpt lat="44.41732" lon="6.79462">
        <ele>1751.66</ele>
        <time>2021-07-21T12:38:48Z</time>
      </trkpt>
      <trkpt lat="44.4173" lon="6.79455">
        <ele>1750.26</ele>
        <time>2021-07-21T12:38:49Z</time>
      </trkpt>
      <trkpt lat="44.41729" lon="6.79446">
        <ele>1748.17</ele>
        <time>2021-07-21T12:38:50Z</time>
      </trkpt>
      <trkpt lat="44.41728" lon="6.79437">
        <ele>1746.99</ele>
        <time>2021-07-21T12:38:51Z</time>
      </trkpt>
      <trkpt lat="44.41727" lon="6.7943">
        <ele>1746.31</ele>
        <time>2021-07-21T12:38:52Z</time>
      </trkpt>
      <trkpt lat="44.41726" lon="6.79423">
        <ele>1745.69</ele>
        <time>2021-07-21T12:38:53Z</time>
      </trkpt>
      <trkpt lat="44.41725" lon="6.79415">
        <ele>1745.1</ele>
        <time>2021-07-21T12:38:54Z</time>
      </trkpt>
      <trkpt lat="44.41725" lon="6.79407">
        <ele>1744.61</ele>
        <time>2021-07-21T12:38:55Z</time>
      </trkpt>
      <trkpt lat="44.41725" lon="6.79399">
        <ele>1744.12</ele>
        <time>2021-07-21T12:38:56Z</time>
      </trkpt>
      <trkpt lat="44.41724" lon="6.79392">
        <ele>1744.2</ele>
        <time>2021-07-21T12:38:57Z</time>
      </trkpt>
      <trkpt lat="44.41723" lon="6.79383">
        <ele>1743.94</ele>
        <time>2021-07-21T12:38:58Z</time>
      </trkpt>
      <trkpt lat="44.41722" lon="6.79375">
        <ele>1743.61</ele>
        <time>2021-07-21T12:38:59Z</time>
      </trkpt>
      <trkpt lat="44.41721" lon="6.79367">
        <ele>1743.28</ele>
        <time>2021-07-21T12:39:00Z</time>
      </trkpt>
      <trkpt lat="44.4172" lon="6.79359">
        <ele>1742.81</ele>
        <time>2021-07-21T12:39:01Z</time>
      </trkpt>
      <trkpt lat="44.41719" lon="6.7935">
        <ele>1741.69</ele>
        <time>2021-07-21T12:39:02Z</time>
      </trkpt>
      <trkpt lat="44.41718" lon="6.79342">
        <ele>1740.74</ele>
        <time>2021-07-21T12:39:03Z</time>
      </trkpt>
      <trkpt lat="44.41717" lon="6.79333">
        <ele>1739.59</ele>
        <time>2021-07-21T12:39:04Z</time>
      </trkpt>
      <trkpt lat="44.41716" lon="6.79326">
        <ele>1739.32</ele>
        <time>2021-07-21T12:39:05Z</time>
      </trkpt>
      <trkpt lat="44.41714" lon="6.7932">
        <ele>1739.79</ele>
        <time>2021-07-21T12:39:06Z</time>
      </trkpt>
      <trkpt lat="44.41712" lon="6.79313">
        <ele>1740.3</ele>
        <time>2021-07-21T12:39:07Z</time>
      </trkpt>
      <trkpt lat="44.4171" lon="6.79307">
        <ele>1741.04</ele>
        <time>2021-07-21T12:39:08Z</time>
      </trkpt>
      <trkpt lat="44.41708" lon="6.79301">
        <ele>1741.64</ele>
        <time>2021-07-21T12:39:09Z</time>
      </trkpt>
      <trkpt lat="44.41707" lon="6.79294">
        <ele>1741.39</ele>
        <time>2021-07-21T12:39:10Z</time>
      </trkpt>
      <trkpt lat="44.41705" lon="6.79286">
        <ele>1741.61</ele>
        <time>2021-07-21T12:39:11Z</time>
      </trkpt>
      <trkpt lat="44.41704" lon="6.7928">
        <ele>1741.44</ele>
        <time>2021-07-21T12:39:12Z</time>
      </trkpt>
      <trkpt lat="44.41702" lon="6.79273">
        <ele>1742</ele>
        <time>2021-07-21T12:39:13Z</time>
      </trkpt>
      <trkpt lat="44.41701" lon="6.79266">
        <ele>1742.02</ele>
        <time>2021-07-21T12:39:14Z</time>
      </trkpt>
      <trkpt lat="44.41699" lon="6.79259">
        <ele>1742.52</ele>
        <time>2021-07-21T12:39:15Z</time>
      </trkpt>
      <trkpt lat="44.41697" lon="6.79253">
        <ele>1743.01</ele>
        <time>2021-07-21T12:39:16Z</time>
      </trkpt>
      <trkpt lat="44.41695" lon="6.79247">
        <ele>1743.3</ele>
        <time>2021-07-21T12:39:17Z</time>
      </trkpt>
      <trkpt lat="44.41693" lon="6.79242">
        <ele>1743.67</ele>
        <time>2021-07-21T12:39:18Z</time>
      </trkpt>
      <trkpt lat="44.41691" lon="6.79237">
        <ele>1744.05</ele>
        <time>2021-07-21T12:39:19Z</time>
      </trkpt>
      <trkpt lat="44.41689" lon="6.7923">
        <ele>1744.11</ele>
        <time>2021-07-21T12:39:20Z</time>
      </trkpt>
      <trkpt lat="44.41688" lon="6.79222">
        <ele>1743.46</ele>
        <time>2021-07-21T12:39:21Z</time>
      </trkpt>
      <trkpt lat="44.41687" lon="6.79217">
        <ele>1743.49</ele>
        <time>2021-07-21T12:39:22Z</time>
      </trkpt>
      <trkpt lat="44.41684" lon="6.79213">
        <ele>1744.6</ele>
        <time>2021-07-21T12:39:23Z</time>
      </trkpt>
      <trkpt lat="44.41683" lon="6.79207">
        <ele>1744.41</ele>
        <time>2021-07-21T12:39:26Z</time>
      </trkpt>
      <trkpt lat="44.41683" lon="6.79198">
        <ele>1743.36</ele>
        <time>2021-07-21T12:39:28Z</time>
      </trkpt>
      <trkpt lat="44.41681" lon="6.79187">
        <ele>1742.07</ele>
        <time>2021-07-21T12:39:29Z</time>
      </trkpt>
      <trkpt lat="44.4168" lon="6.79177">
        <ele>1740.15</ele>
        <time>2021-07-21T12:39:31Z</time>
      </trkpt>
      <trkpt lat="44.41679" lon="6.79159">
        <ele>1736</ele>
        <time>2021-07-21T12:39:33Z</time>
      </trkpt>
      <trkpt lat="44.41674" lon="6.79141">
        <ele>1732.51</ele>
        <time>2021-07-21T12:39:36Z</time>
      </trkpt>
      <trkpt lat="44.41672" lon="6.79129">
        <ele>1731.33</ele>
        <time>2021-07-21T12:39:38Z</time>
      </trkpt>
      <trkpt lat="44.41663" lon="6.79121">
        <ele>1733.71</ele>
        <time>2021-07-21T12:39:40Z</time>
      </trkpt>
      <trkpt lat="44.41658" lon="6.79114">
        <ele>1734.87</ele>
        <time>2021-07-21T12:39:42Z</time>
      </trkpt>
      <trkpt lat="44.41656" lon="6.791">
        <ele>1734.61</ele>
        <time>2021-07-21T12:39:45Z</time>
      </trkpt>
      <trkpt lat="44.41652" lon="6.79083">
        <ele>1734.7</ele>
        <time>2021-07-21T12:39:48Z</time>
      </trkpt>
      <trkpt lat="44.41647" lon="6.79072">
        <ele>1735.79</ele>
        <time>2021-07-21T12:39:50Z</time>
      </trkpt>
      <trkpt lat="44.41639" lon="6.79052">
        <ele>1736.98</ele>
        <time>2021-07-21T12:39:53Z</time>
      </trkpt>
      <trkpt lat="44.41639" lon="6.79042">
        <ele>1736.98</ele>
        <time>2021-07-21T12:39:54Z</time>
      </trkpt>
      <trkpt lat="44.41636" lon="6.79029">
        <ele>1737.73</ele>
        <time>2021-07-21T12:39:57Z</time>
      </trkpt>
      <trkpt lat="44.41633" lon="6.7902">
        <ele>1737.64</ele>
        <time>2021-07-21T12:39:59Z</time>
      </trkpt>
      <trkpt lat="44.41633" lon="6.79011">
        <ele>1736.67</ele>
        <time>2021-07-21T12:40:01Z</time>
      </trkpt>
      <trkpt lat="44.41632" lon="6.79002">
        <ele>1735.95</ele>
        <time>2021-07-21T12:40:04Z</time>
      </trkpt>
      <trkpt lat="44.41633" lon="6.78988">
        <ele>1734.1</ele>
        <time>2021-07-21T12:40:07Z</time>
      </trkpt>
      <trkpt lat="44.41633" lon="6.78974">
        <ele>1732.48</ele>
        <time>2021-07-21T12:40:09Z</time>
      </trkpt>
      <trkpt lat="44.41632" lon="6.7896">
        <ele>1730.18</ele>
        <time>2021-07-21T12:40:13Z</time>
      </trkpt>
      <trkpt lat="44.41631" lon="6.78951">
        <ele>1728.67</ele>
        <time>2021-07-21T12:40:15Z</time>
      </trkpt>
      <trkpt lat="44.4163" lon="6.78941">
        <ele>1727.1</ele>
        <time>2021-07-21T12:40:17Z</time>
      </trkpt>
      <trkpt lat="44.41629" lon="6.78932">
        <ele>1725.99</ele>
        <time>2021-07-21T12:40:19Z</time>
      </trkpt>
      <trkpt lat="44.41628" lon="6.78922">
        <ele>1724.73</ele>
        <time>2021-07-21T12:40:21Z</time>
      </trkpt>
      <trkpt lat="44.41628" lon="6.78914">
        <ele>1723.86</ele>
        <time>2021-07-21T12:40:22Z</time>
      </trkpt>
      <trkpt lat="44.41628" lon="6.78905">
        <ele>1723.54</ele>
        <time>2021-07-21T12:40:24Z</time>
      </trkpt>
      <trkpt lat="44.41627" lon="6.7889">
        <ele>1723.18</ele>
        <time>2021-07-21T12:40:26Z</time>
      </trkpt>
      <trkpt lat="44.41626" lon="6.78882">
        <ele>1722.82</ele>
        <time>2021-07-21T12:40:28Z</time>
      </trkpt>
      <trkpt lat="44.41621" lon="6.78867">
        <ele>1722.64</ele>
        <time>2021-07-21T12:40:30Z</time>
      </trkpt>
      <trkpt lat="44.41618" lon="6.7886">
        <ele>1722.83</ele>
        <time>2021-07-21T12:40:31Z</time>
      </trkpt>
      <trkpt lat="44.41614" lon="6.78853">
        <ele>1723.86</ele>
        <time>2021-07-21T12:40:33Z</time>
      </trkpt>
      <trkpt lat="44.41609" lon="6.78847">
        <ele>1725.3</ele>
        <time>2021-07-21T12:40:34Z</time>
      </trkpt>
      <trkpt lat="44.41603" lon="6.78839">
        <ele>1727.6</ele>
        <time>2021-07-21T12:40:36Z</time>
      </trkpt>
      <trkpt lat="44.41597" lon="6.78826">
        <ele>1729.43</ele>
        <time>2021-07-21T12:40:38Z</time>
      </trkpt>
      <trkpt lat="44.41593" lon="6.78815">
        <ele>1730.24</ele>
        <time>2021-07-21T12:40:41Z</time>
      </trkpt>
      <trkpt lat="44.41591" lon="6.78798">
        <ele>1729.68</ele>
        <time>2021-07-21T12:40:43Z</time>
      </trkpt>
      <trkpt lat="44.41589" lon="6.78785">
        <ele>1728.86</ele>
        <time>2021-07-21T12:40:44Z</time>
      </trkpt>
      <trkpt lat="44.41588" lon="6.78778">
        <ele>1728.35</ele>
        <time>2021-07-21T12:40:45Z</time>
      </trkpt>
      <trkpt lat="44.41586" lon="6.7877">
        <ele>1727.22</ele>
        <time>2021-07-21T12:40:47Z</time>
      </trkpt>
      <trkpt lat="44.41585" lon="6.78761">
        <ele>1725.74</ele>
        <time>2021-07-21T12:40:49Z</time>
      </trkpt>
      <trkpt lat="44.41584" lon="6.78749">
        <ele>1723.62</ele>
        <time>2021-07-21T12:40:51Z</time>
      </trkpt>
      <trkpt lat="44.41584" lon="6.78742">
        <ele>1721.6</ele>
        <time>2021-07-21T12:40:52Z</time>
      </trkpt>
      <trkpt lat="44.41584" lon="6.78733">
        <ele>1719.01</ele>
        <time>2021-07-21T12:40:53Z</time>
      </trkpt>
      <trkpt lat="44.41585" lon="6.78725">
        <ele>1716.56</ele>
        <time>2021-07-21T12:40:54Z</time>
      </trkpt>
      <trkpt lat="44.41586" lon="6.78719">
        <ele>1714.91</ele>
        <time>2021-07-21T12:40:55Z</time>
      </trkpt>
      <trkpt lat="44.41587" lon="6.78711">
        <ele>1712.99</ele>
        <time>2021-07-21T12:40:56Z</time>
      </trkpt>
      <trkpt lat="44.41588" lon="6.78704">
        <ele>1711.28</ele>
        <time>2021-07-21T12:40:57Z</time>
      </trkpt>
      <trkpt lat="44.41589" lon="6.78697">
        <ele>1709.55</ele>
        <time>2021-07-21T12:40:58Z</time>
      </trkpt>
      <trkpt lat="44.4159" lon="6.78687">
        <ele>1707.93</ele>
        <time>2021-07-21T12:41:00Z</time>
      </trkpt>
      <trkpt lat="44.41591" lon="6.78677">
        <ele>1706.56</ele>
        <time>2021-07-21T12:41:01Z</time>
      </trkpt>
      <trkpt lat="44.41592" lon="6.78668">
        <ele>1705.29</ele>
        <time>2021-07-21T12:41:03Z</time>
      </trkpt>
      <trkpt lat="44.41592" lon="6.78659">
        <ele>1703.94</ele>
        <time>2021-07-21T12:41:05Z</time>
      </trkpt>
      <trkpt lat="44.4159" lon="6.78651">
        <ele>1703.17</ele>
        <time>2021-07-21T12:41:07Z</time>
      </trkpt>
      <trkpt lat="44.41585" lon="6.78643">
        <ele>1703.18</ele>
        <time>2021-07-21T12:41:08Z</time>
      </trkpt>
      <trkpt lat="44.41578" lon="6.78637">
        <ele>1703.35</ele>
        <time>2021-07-21T12:41:09Z</time>
      </trkpt>
      <trkpt lat="44.41573" lon="6.78633">
        <ele>1703.32</ele>
        <time>2021-07-21T12:41:11Z</time>
      </trkpt>
      <trkpt lat="44.41566" lon="6.78624">
        <ele>1702.6</ele>
        <time>2021-07-21T12:41:12Z</time>
      </trkpt>
      <trkpt lat="44.41561" lon="6.7862">
        <ele>1702.28</ele>
        <time>2021-07-21T12:41:14Z</time>
      </trkpt>
      <trkpt lat="44.41557" lon="6.78616">
        <ele>1701.81</ele>
        <time>2021-07-21T12:41:15Z</time>
      </trkpt>
      <trkpt lat="44.41553" lon="6.7861">
        <ele>1700.84</ele>
        <time>2021-07-21T12:41:17Z</time>
      </trkpt>
      <trkpt lat="44.4155" lon="6.78604">
        <ele>1700.03</ele>
        <time>2021-07-21T12:41:19Z</time>
      </trkpt>
      <trkpt lat="44.41549" lon="6.78594">
        <ele>1698.68</ele>
        <time>2021-07-21T12:41:23Z</time>
      </trkpt>
      <trkpt lat="44.41545" lon="6.78587">
        <ele>1697.86</ele>
        <time>2021-07-21T12:41:26Z</time>
      </trkpt>
      <trkpt lat="44.41541" lon="6.78579">
        <ele>1697.13</ele>
        <time>2021-07-21T12:41:28Z</time>
      </trkpt>
      <trkpt lat="44.41536" lon="6.7857">
        <ele>1696.41</ele>
        <time>2021-07-21T12:41:31Z</time>
      </trkpt>
      <trkpt lat="44.41532" lon="6.78563">
        <ele>1695.76</ele>
        <time>2021-07-21T12:41:33Z</time>
      </trkpt>
      <trkpt lat="44.41527" lon="6.78559">
        <ele>1695.46</ele>
        <time>2021-07-21T12:41:34Z</time>
      </trkpt>
      <trkpt lat="44.4152" lon="6.78555">
        <ele>1695.75</ele>
        <time>2021-07-21T12:41:37Z</time>
      </trkpt>
      <trkpt lat="44.41513" lon="6.78554">
        <ele>1696.35</ele>
        <time>2021-07-21T12:41:39Z</time>
      </trkpt>
      <trkpt lat="44.41506" lon="6.78552">
        <ele>1696.81</ele>
        <time>2021-07-21T12:41:41Z</time>
      </trkpt>
      <trkpt lat="44.41494" lon="6.78549">
        <ele>1698.42</ele>
        <time>2021-07-21T12:41:44Z</time>
      </trkpt>
      <trkpt lat="44.41487" lon="6.78547">
        <ele>1699.61</ele>
        <time>2021-07-21T12:41:45Z</time>
      </trkpt>
      <trkpt lat="44.4148" lon="6.78545">
        <ele>1700.7</ele>
        <time>2021-07-21T12:41:47Z</time>
      </trkpt>
      <trkpt lat="44.41474" lon="6.78544">
        <ele>1701.72</ele>
        <time>2021-07-21T12:41:48Z</time>
      </trkpt>
      <trkpt lat="44.41464" lon="6.78544">
        <ele>1702.98</ele>
        <time>2021-07-21T12:41:52Z</time>
      </trkpt>
      <trkpt lat="44.41456" lon="6.78539">
        <ele>1702.58</ele>
        <time>2021-07-21T12:41:55Z</time>
      </trkpt>
      <trkpt lat="44.4145" lon="6.78528">
        <ele>1700.46</ele>
        <time>2021-07-21T12:41:58Z</time>
      </trkpt>
      <trkpt lat="44.41447" lon="6.78521">
        <ele>1699.26</ele>
        <time>2021-07-21T12:42:01Z</time>
      </trkpt>
      <trkpt lat="44.4144" lon="6.78513">
        <ele>1698.21</ele>
        <time>2021-07-21T12:42:05Z</time>
      </trkpt>
      <trkpt lat="44.41433" lon="6.78507">
        <ele>1697.64</ele>
        <time>2021-07-21T12:42:07Z</time>
      </trkpt>
      <trkpt lat="44.41425" lon="6.78499">
        <ele>1696.92</ele>
        <time>2021-07-21T12:42:10Z</time>
      </trkpt>
      <trkpt lat="44.41419" lon="6.78493">
        <ele>1696.49</ele>
        <time>2021-07-21T12:42:12Z</time>
      </trkpt>
      <trkpt lat="44.41412" lon="6.78487">
        <ele>1695.4</ele>
        <time>2021-07-21T12:42:13Z</time>
      </trkpt>
      <trkpt lat="44.41405" lon="6.78484">
        <ele>1694.52</ele>
        <time>2021-07-21T12:42:15Z</time>
      </trkpt>
      <trkpt lat="44.41399" lon="6.7848">
        <ele>1693.59</ele>
        <time>2021-07-21T12:42:16Z</time>
      </trkpt>
      <trkpt lat="44.41388" lon="6.78473">
        <ele>1692.11</ele>
        <time>2021-07-21T12:42:17Z</time>
      </trkpt>
      <trkpt lat="44.41384" lon="6.7847">
        <ele>1691.59</ele>
        <time>2021-07-21T12:42:18Z</time>
      </trkpt>
      <trkpt lat="44.41381" lon="6.78466">
        <ele>1690.82</ele>
        <time>2021-07-21T12:42:19Z</time>
      </trkpt>
      <trkpt lat="44.41376" lon="6.78462">
        <ele>1689.99</ele>
        <time>2021-07-21T12:42:21Z</time>
      </trkpt>
      <trkpt lat="44.41372" lon="6.78458">
        <ele>1689.13</ele>
        <time>2021-07-21T12:42:22Z</time>
      </trkpt>
      <trkpt lat="44.41367" lon="6.78453">
        <ele>1687.99</ele>
        <time>2021-07-21T12:42:24Z</time>
      </trkpt>
      <trkpt lat="44.4136" lon="6.78444">
        <ele>1685.89</ele>
        <time>2021-07-21T12:42:27Z</time>
      </trkpt>
      <trkpt lat="44.41352" lon="6.78437">
        <ele>1684.04</ele>
        <time>2021-07-21T12:42:30Z</time>
      </trkpt>
      <trkpt lat="44.41345" lon="6.78434">
        <ele>1683.15</ele>
        <time>2021-07-21T12:42:32Z</time>
      </trkpt>
      <trkpt lat="44.41337" lon="6.78431">
        <ele>1682.19</ele>
        <time>2021-07-21T12:42:34Z</time>
      </trkpt>
      <trkpt lat="44.41332" lon="6.78427">
        <ele>1680.97</ele>
        <time>2021-07-21T12:42:35Z</time>
      </trkpt>
      <trkpt lat="44.41325" lon="6.78423">
        <ele>1679.92</ele>
        <time>2021-07-21T12:42:37Z</time>
      </trkpt>
      <trkpt lat="44.41318" lon="6.78421">
        <ele>1679.54</ele>
        <time>2021-07-21T12:42:39Z</time>
      </trkpt>
      <trkpt lat="44.41312" lon="6.7842">
        <ele>1679.45</ele>
        <time>2021-07-21T12:42:41Z</time>
      </trkpt>
      <trkpt lat="44.41306" lon="6.7842">
        <ele>1679.59</ele>
        <time>2021-07-21T12:42:42Z</time>
      </trkpt>
      <trkpt lat="44.41301" lon="6.78423">
        <ele>1681.27</ele>
        <time>2021-07-21T12:42:44Z</time>
      </trkpt>
      <trkpt lat="44.41295" lon="6.78429">
        <ele>1684.17</ele>
        <time>2021-07-21T12:42:46Z</time>
      </trkpt>
      <trkpt lat="44.41288" lon="6.78431">
        <ele>1686.68</ele>
        <time>2021-07-21T12:42:51Z</time>
      </trkpt>
      <trkpt lat="44.41282" lon="6.78422">
        <ele>1685.7</ele>
        <time>2021-07-21T12:42:55Z</time>
      </trkpt>
      <trkpt lat="44.41282" lon="6.78412">
        <ele>1683.79</ele>
        <time>2021-07-21T12:42:58Z</time>
      </trkpt>
      <trkpt lat="44.41284" lon="6.78401">
        <ele>1682.46</ele>
        <time>2021-07-21T12:43:00Z</time>
      </trkpt>
      <trkpt lat="44.41286" lon="6.78392">
        <ele>1681.02</ele>
        <time>2021-07-21T12:43:02Z</time>
      </trkpt>
      <trkpt lat="44.41287" lon="6.7838">
        <ele>1678.64</ele>
        <time>2021-07-21T12:43:05Z</time>
      </trkpt>
      <trkpt lat="44.41286" lon="6.78368">
        <ele>1676.76</ele>
        <time>2021-07-21T12:43:08Z</time>
      </trkpt>
      <trkpt lat="44.41286" lon="6.78356">
        <ele>1675.45</ele>
        <time>2021-07-21T12:43:11Z</time>
      </trkpt>
      <trkpt lat="44.41286" lon="6.78346">
        <ele>1675.45</ele>
        <time>2021-07-21T12:43:12Z</time>
      </trkpt>
      <trkpt lat="44.41286" lon="6.78332">
        <ele>1675.59</ele>
        <time>2021-07-21T12:43:15Z</time>
      </trkpt>
      <trkpt lat="44.41289" lon="6.78318">
        <ele>1675.81</ele>
        <time>2021-07-21T12:43:17Z</time>
      </trkpt>
      <trkpt lat="44.41293" lon="6.78305">
        <ele>1675.63</ele>
        <time>2021-07-21T12:43:20Z</time>
      </trkpt>
      <trkpt lat="44.41301" lon="6.78299">
        <ele>1674.49</ele>
        <time>2021-07-21T12:43:22Z</time>
      </trkpt>
      <trkpt lat="44.41311" lon="6.78297">
        <ele>1671.38</ele>
        <time>2021-07-21T12:43:26Z</time>
      </trkpt>
      <trkpt lat="44.41318" lon="6.78295">
        <ele>1669.47</ele>
        <time>2021-07-21T12:43:28Z</time>
      </trkpt>
      <trkpt lat="44.41324" lon="6.78293">
        <ele>1667.8</ele>
        <time>2021-07-21T12:43:29Z</time>
      </trkpt>
      <trkpt lat="44.41332" lon="6.78286">
        <ele>1666.5</ele>
        <time>2021-07-21T12:43:33Z</time>
      </trkpt>
      <trkpt lat="44.4134" lon="6.78277">
        <ele>1664.77</ele>
        <time>2021-07-21T12:43:36Z</time>
      </trkpt>
      <trkpt lat="44.41346" lon="6.78269">
        <ele>1663.05</ele>
        <time>2021-07-21T12:43:38Z</time>
      </trkpt>
      <trkpt lat="44.41352" lon="6.78262">
        <ele>1661.05</ele>
        <time>2021-07-21T12:43:41Z</time>
      </trkpt>
      <trkpt lat="44.41357" lon="6.78255">
        <ele>1659.47</ele>
        <time>2021-07-21T12:43:45Z</time>
      </trkpt>
      <trkpt lat="44.41363" lon="6.78249">
        <ele>1657.66</ele>
        <time>2021-07-21T12:43:47Z</time>
      </trkpt>
      <trkpt lat="44.41369" lon="6.78244">
        <ele>1656.54</ele>
        <time>2021-07-21T12:43:49Z</time>
      </trkpt>
      <trkpt lat="44.41376" lon="6.78237">
        <ele>1654.97</ele>
        <time>2021-07-21T12:43:53Z</time>
      </trkpt>
      <trkpt lat="44.41382" lon="6.78232">
        <ele>1653.32</ele>
        <time>2021-07-21T12:43:55Z</time>
      </trkpt>
      <trkpt lat="44.41389" lon="6.78224">
        <ele>1651.03</ele>
        <time>2021-07-21T12:43:57Z</time>
      </trkpt>
      <trkpt lat="44.41396" lon="6.78218">
        <ele>1650.02</ele>
        <time>2021-07-21T12:43:59Z</time>
      </trkpt>
      <trkpt lat="44.414" lon="6.7821">
        <ele>1650.88</ele>
        <time>2021-07-21T12:44:03Z</time>
      </trkpt>
      <trkpt lat="44.41403" lon="6.78202">
        <ele>1652.03</ele>
        <time>2021-07-21T12:44:05Z</time>
      </trkpt>
      <trkpt lat="44.41401" lon="6.78193">
        <ele>1654.74</ele>
        <time>2021-07-21T12:44:07Z</time>
      </trkpt>
      <trkpt lat="44.41398" lon="6.78186">
        <ele>1656.91</ele>
        <time>2021-07-21T12:44:09Z</time>
      </trkpt>
      <trkpt lat="44.41393" lon="6.7818">
        <ele>1659.99</ele>
        <time>2021-07-21T12:44:11Z</time>
      </trkpt>
      <trkpt lat="44.41389" lon="6.78174">
        <ele>1663.1</ele>
        <time>2021-07-21T12:44:13Z</time>
      </trkpt>
      <trkpt lat="44.41383" lon="6.78167">
        <ele>1665.56</ele>
        <time>2021-07-21T12:44:15Z</time>
      </trkpt>
      <trkpt lat="44.41378" lon="6.78158">
        <ele>1666.04</ele>
        <time>2021-07-21T12:44:17Z</time>
      </trkpt>
      <trkpt lat="44.41375" lon="6.78144">
        <ele>1666.5</ele>
        <time>2021-07-21T12:44:21Z</time>
      </trkpt>
      <trkpt lat="44.41373" lon="6.78131">
        <ele>1666.19</ele>
        <time>2021-07-21T12:44:24Z</time>
      </trkpt>
      <trkpt lat="44.41371" lon="6.78124">
        <ele>1666.05</ele>
        <time>2021-07-21T12:44:26Z</time>
      </trkpt>
      <trkpt lat="44.41369" lon="6.78109">
        <ele>1665.3</ele>
        <time>2021-07-21T12:44:28Z</time>
      </trkpt>
      <trkpt lat="44.41368" lon="6.78098">
        <ele>1664.94</ele>
        <time>2021-07-21T12:44:31Z</time>
      </trkpt>
      <trkpt lat="44.41364" lon="6.78086">
        <ele>1665.88</ele>
        <time>2021-07-21T12:44:33Z</time>
      </trkpt>
      <trkpt lat="44.41359" lon="6.78075">
        <ele>1667.09</ele>
        <time>2021-07-21T12:44:35Z</time>
      </trkpt>
      <trkpt lat="44.41354" lon="6.78067">
        <ele>1668.56</ele>
        <time>2021-07-21T12:44:36Z</time>
      </trkpt>
      <trkpt lat="44.41349" lon="6.7806">
        <ele>1670.15</ele>
        <time>2021-07-21T12:44:38Z</time>
      </trkpt>
      <trkpt lat="44.41345" lon="6.78052">
        <ele>1671.49</ele>
        <time>2021-07-21T12:44:40Z</time>
      </trkpt>
      <trkpt lat="44.41341" lon="6.78045">
        <ele>1673.31</ele>
        <time>2021-07-21T12:44:42Z</time>
      </trkpt>
      <trkpt lat="44.4134" lon="6.78035">
        <ele>1673.7</ele>
        <time>2021-07-21T12:44:44Z</time>
      </trkpt>
      <trkpt lat="44.41343" lon="6.78024">
        <ele>1672.41</ele>
        <time>2021-07-21T12:44:46Z</time>
      </trkpt>
      <trkpt lat="44.41348" lon="6.78019">
        <ele>1670.42</ele>
        <time>2021-07-21T12:44:50Z</time>
      </trkpt>
      <trkpt lat="44.41354" lon="6.78015">
        <ele>1668.07</ele>
        <time>2021-07-21T12:44:54Z</time>
      </trkpt>
      <trkpt lat="44.4136" lon="6.7801">
        <ele>1666.04</ele>
        <time>2021-07-21T12:44:57Z</time>
      </trkpt>
      <trkpt lat="44.41366" lon="6.78004">
        <ele>1663.93</ele>
        <time>2021-07-21T12:45:00Z</time>
      </trkpt>
      <trkpt lat="44.41371" lon="6.77999">
        <ele>1662.21</ele>
        <time>2021-07-21T12:45:02Z</time>
      </trkpt>
      <trkpt lat="44.41376" lon="6.77993">
        <ele>1660.89</ele>
        <time>2021-07-21T12:45:05Z</time>
      </trkpt>
      <trkpt lat="44.41382" lon="6.77987">
        <ele>1659.16</ele>
        <time>2021-07-21T12:45:08Z</time>
      </trkpt>
      <trkpt lat="44.41388" lon="6.77983">
        <ele>1657.1</ele>
        <time>2021-07-21T12:45:11Z</time>
      </trkpt>
      <trkpt lat="44.41394" lon="6.77979">
        <ele>1654.13</ele>
        <time>2021-07-21T12:45:14Z</time>
      </trkpt>
      <trkpt lat="44.41401" lon="6.77973">
        <ele>1650.96</ele>
        <time>2021-07-21T12:45:17Z</time>
      </trkpt>
      <trkpt lat="44.41407" lon="6.7797">
        <ele>1647.72</ele>
        <time>2021-07-21T12:45:19Z</time>
      </trkpt>
      <trkpt lat="44.41414" lon="6.77966">
        <ele>1644.05</ele>
        <time>2021-07-21T12:45:21Z</time>
      </trkpt>
      <trkpt lat="44.41421" lon="6.77963">
        <ele>1640.86</ele>
        <time>2021-07-21T12:45:23Z</time>
      </trkpt>
      <trkpt lat="44.41429" lon="6.77957">
        <ele>1638.32</ele>
        <time>2021-07-21T12:45:26Z</time>
      </trkpt>
      <trkpt lat="44.41436" lon="6.77951">
        <ele>1636.37</ele>
        <time>2021-07-21T12:45:28Z</time>
      </trkpt>
      <trkpt lat="44.41446" lon="6.77942">
        <ele>1633.47</ele>
        <time>2021-07-21T12:45:29Z</time>
      </trkpt>
      <trkpt lat="44.41449" lon="6.77936">
        <ele>1632.81</ele>
        <time>2021-07-21T12:45:31Z</time>
      </trkpt>
      <trkpt lat="44.41453" lon="6.77928">
        <ele>1632.06</ele>
        <time>2021-07-21T12:45:33Z</time>
      </trkpt>
      <trkpt lat="44.41457" lon="6.77921">
        <ele>1631.24</ele>
        <time>2021-07-21T12:45:34Z</time>
      </trkpt>
      <trkpt lat="44.4146" lon="6.77912">
        <ele>1630.37</ele>
        <time>2021-07-21T12:45:36Z</time>
      </trkpt>
      <trkpt lat="44.41463" lon="6.77903">
        <ele>1628.15</ele>
        <time>2021-07-21T12:45:38Z</time>
      </trkpt>
      <trkpt lat="44.41464" lon="6.77894">
        <ele>1627.12</ele>
        <time>2021-07-21T12:45:40Z</time>
      </trkpt>
      <trkpt lat="44.41465" lon="6.77882">
        <ele>1627.06</ele>
        <time>2021-07-21T12:45:44Z</time>
      </trkpt>
      <trkpt lat="44.41467" lon="6.77873">
        <ele>1626.83</ele>
        <time>2021-07-21T12:45:47Z</time>
      </trkpt>
      <trkpt lat="44.41469" lon="6.77865">
        <ele>1626.56</ele>
        <time>2021-07-21T12:45:49Z</time>
      </trkpt>
      <trkpt lat="44.41475" lon="6.77856">
        <ele>1624.57</ele>
        <time>2021-07-21T12:45:51Z</time>
      </trkpt>
      <trkpt lat="44.4148" lon="6.77846">
        <ele>1623.71</ele>
        <time>2021-07-21T12:45:53Z</time>
      </trkpt>
      <trkpt lat="44.41485" lon="6.77837">
        <ele>1622.71</ele>
        <time>2021-07-21T12:45:56Z</time>
      </trkpt>
      <trkpt lat="44.41488" lon="6.77829">
        <ele>1621</ele>
        <time>2021-07-21T12:45:58Z</time>
      </trkpt>
      <trkpt lat="44.4149" lon="6.77821">
        <ele>1618.57</ele>
        <time>2021-07-21T12:46:00Z</time>
      </trkpt>
      <trkpt lat="44.41488" lon="6.77806">
        <ele>1615.56</ele>
        <time>2021-07-21T12:46:04Z</time>
      </trkpt>
      <trkpt lat="44.41483" lon="6.77797">
        <ele>1614.55</ele>
        <time>2021-07-21T12:46:07Z</time>
      </trkpt>
      <trkpt lat="44.41477" lon="6.7779">
        <ele>1614.24</ele>
        <time>2021-07-21T12:46:09Z</time>
      </trkpt>
      <trkpt lat="44.41472" lon="6.77784">
        <ele>1613.88</ele>
        <time>2021-07-21T12:46:10Z</time>
      </trkpt>
      <trkpt lat="44.41466" lon="6.77778">
        <ele>1614.75</ele>
        <time>2021-07-21T12:46:12Z</time>
      </trkpt>
      <trkpt lat="44.4146" lon="6.77771">
        <ele>1615.6</ele>
        <time>2021-07-21T12:46:15Z</time>
      </trkpt>
      <trkpt lat="44.41456" lon="6.77764">
        <ele>1615.45</ele>
        <time>2021-07-21T12:46:18Z</time>
      </trkpt>
      <trkpt lat="44.41451" lon="6.77758">
        <ele>1615.81</ele>
        <time>2021-07-21T12:46:21Z</time>
      </trkpt>
      <trkpt lat="44.41446" lon="6.77754">
        <ele>1616.58</ele>
        <time>2021-07-21T12:46:23Z</time>
      </trkpt>
      <trkpt lat="44.41436" lon="6.77739">
        <ele>1616.39</ele>
        <time>2021-07-21T12:46:25Z</time>
      </trkpt>
      <trkpt lat="44.41428" lon="6.7773">
        <ele>1617.31</ele>
        <time>2021-07-21T12:46:27Z</time>
      </trkpt>
      <trkpt lat="44.41423" lon="6.77722">
        <ele>1617.46</ele>
        <time>2021-07-21T12:46:29Z</time>
      </trkpt>
      <trkpt lat="44.4142" lon="6.77714">
        <ele>1617.53</ele>
        <time>2021-07-21T12:46:30Z</time>
      </trkpt>
      <trkpt lat="44.41419" lon="6.77697">
        <ele>1615.52</ele>
        <time>2021-07-21T12:46:34Z</time>
      </trkpt>
      <trkpt lat="44.41422" lon="6.77687">
        <ele>1613.6</ele>
        <time>2021-07-21T12:46:36Z</time>
      </trkpt>
      <trkpt lat="44.41428" lon="6.7768">
        <ele>1611.09</ele>
        <time>2021-07-21T12:46:38Z</time>
      </trkpt>
      <trkpt lat="44.41436" lon="6.77674">
        <ele>1608.08</ele>
        <time>2021-07-21T12:46:41Z</time>
      </trkpt>
      <trkpt lat="44.41446" lon="6.77671">
        <ele>1604.7</ele>
        <time>2021-07-21T12:46:44Z</time>
      </trkpt>
      <trkpt lat="44.41454" lon="6.77669">
        <ele>1602.3</ele>
        <time>2021-07-21T12:46:47Z</time>
      </trkpt>
      <trkpt lat="44.4146" lon="6.77668">
        <ele>1600.54</ele>
        <time>2021-07-21T12:46:49Z</time>
      </trkpt>
      <trkpt lat="44.41469" lon="6.77666">
        <ele>1597.97</ele>
        <time>2021-07-21T12:46:52Z</time>
      </trkpt>
      <trkpt lat="44.41475" lon="6.77664">
        <ele>1596.37</ele>
        <time>2021-07-21T12:46:54Z</time>
      </trkpt>
      <trkpt lat="44.41484" lon="6.77661">
        <ele>1593.84</ele>
        <time>2021-07-21T12:46:58Z</time>
      </trkpt>
      <trkpt lat="44.41492" lon="6.77659">
        <ele>1591.46</ele>
        <time>2021-07-21T12:47:00Z</time>
      </trkpt>
      <trkpt lat="44.41499" lon="6.77659">
        <ele>1589.31</ele>
        <time>2021-07-21T12:47:03Z</time>
      </trkpt>
      <trkpt lat="44.41505" lon="6.77657">
        <ele>1587.32</ele>
        <time>2021-07-21T12:47:06Z</time>
      </trkpt>
      <trkpt lat="44.41511" lon="6.77653">
        <ele>1585.24</ele>
        <time>2021-07-21T12:47:09Z</time>
      </trkpt>
      <trkpt lat="44.41512" lon="6.77649">
        <ele>1584.84</ele>
        <time>2021-07-21T12:47:18Z</time>
      </trkpt>
      <trkpt lat="44.41515" lon="6.77648">
        <ele>1583.78</ele>
        <time>2021-07-21T12:49:05Z</time>
      </trkpt>
      <trkpt lat="44.41515" lon="6.77644">
        <ele>1583.7</ele>
        <time>2021-07-21T12:50:31Z</time>
      </trkpt>
      <trkpt lat="44.41516" lon="6.77641">
        <ele>1583.28</ele>
        <time>2021-07-21T12:50:40Z</time>
      </trkpt>
      <trkpt lat="44.41518" lon="6.77637">
        <ele>1582.36</ele>
        <time>2021-07-21T12:55:11Z</time>
      </trkpt>
      <trkpt lat="44.41518" lon="6.77633">
        <ele>1582.03</ele>
        <time>2021-07-21T12:55:12Z</time>
      </trkpt>
      <trkpt lat="44.41519" lon="6.7763">
        <ele>1581.4</ele>
        <time>2021-07-21T12:55:27Z</time>
      </trkpt>
      <trkpt lat="44.41518" lon="6.77627">
        <ele>1581.54</ele>
        <time>2021-07-21T12:55:49Z</time>
      </trkpt>
      <trkpt lat="44.41516" lon="6.77623">
        <ele>1582.01</ele>
        <time>2021-07-21T12:55:51Z</time>
      </trkpt>
      <trkpt lat="44.41514" lon="6.77619">
        <ele>1582.52</ele>
        <time>2021-07-21T12:55:54Z</time>
      </trkpt>
      <trkpt lat="44.41513" lon="6.77615">
        <ele>1582.66</ele>
        <time>2021-07-21T12:55:56Z</time>
      </trkpt>
      <trkpt lat="44.41511" lon="6.77612">
        <ele>1583.31</ele>
        <time>2021-07-21T12:55:58Z</time>
      </trkpt>
      <trkpt lat="44.4151" lon="6.77608">
        <ele>1583.12</ele>
        <time>2021-07-21T12:56:01Z</time>
      </trkpt>
      <trkpt lat="44.4151" lon="6.77603">
        <ele>1582.22</ele>
        <time>2021-07-21T12:56:04Z</time>
      </trkpt>
      <trkpt lat="44.41511" lon="6.77598">
        <ele>1580.89</ele>
        <time>2021-07-21T12:56:05Z</time>
      </trkpt>
      <trkpt lat="44.41511" lon="6.77594">
        <ele>1580.17</ele>
        <time>2021-07-21T12:56:08Z</time>
      </trkpt>
      <trkpt lat="44.41511" lon="6.77589">
        <ele>1579.27</ele>
        <time>2021-07-21T12:56:11Z</time>
      </trkpt>
      <trkpt lat="44.4151" lon="6.77585">
        <ele>1578.98</ele>
        <time>2021-07-21T12:56:14Z</time>
      </trkpt>
      <trkpt lat="44.41506" lon="6.77583">
        <ele>1580.36</ele>
        <time>2021-07-21T12:56:17Z</time>
      </trkpt>
      <trkpt lat="44.41503" lon="6.77582">
        <ele>1581.51</ele>
        <time>2021-07-21T12:56:19Z</time>
      </trkpt>
      <trkpt lat="44.415" lon="6.77583">
        <ele>1582.95</ele>
        <time>2021-07-21T12:56:20Z</time>
      </trkpt>
      <trkpt lat="44.41496" lon="6.77583">
        <ele>1584.68</ele>
        <time>2021-07-21T12:56:22Z</time>
      </trkpt>
      <trkpt lat="44.41493" lon="6.77583">
        <ele>1585.98</ele>
        <time>2021-07-21T12:56:23Z</time>
      </trkpt>
      <trkpt lat="44.41489" lon="6.77581">
        <ele>1587.45</ele>
        <time>2021-07-21T12:56:25Z</time>
      </trkpt>
      <trkpt lat="44.41487" lon="6.77573">
        <ele>1587.3</ele>
        <time>2021-07-21T12:56:28Z</time>
      </trkpt>
      <trkpt lat="44.41485" lon="6.77563">
        <ele>1586.95</ele>
        <time>2021-07-21T12:56:31Z</time>
      </trkpt>
      <trkpt lat="44.41482" lon="6.77551">
        <ele>1586.83</ele>
        <time>2021-07-21T12:56:36Z</time>
      </trkpt>
      <trkpt lat="44.41478" lon="6.77541">
        <ele>1587.11</ele>
        <time>2021-07-21T12:56:40Z</time>
      </trkpt>
      <trkpt lat="44.41474" lon="6.77534">
        <ele>1587.49</ele>
        <time>2021-07-21T12:56:43Z</time>
      </trkpt>
      <trkpt lat="44.41471" lon="6.7753">
        <ele>1587.92</ele>
        <time>2021-07-21T12:56:47Z</time>
      </trkpt>
      <trkpt lat="44.41468" lon="6.77528">
        <ele>1588.86</ele>
        <time>2021-07-21T12:56:51Z</time>
      </trkpt>
      <trkpt lat="44.41465" lon="6.77526">
        <ele>1589.81</ele>
        <time>2021-07-21T12:56:53Z</time>
      </trkpt>
      <trkpt lat="44.4146" lon="6.77522">
        <ele>1591.17</ele>
        <time>2021-07-21T12:56:59Z</time>
      </trkpt>
      <trkpt lat="44.41458" lon="6.77519">
        <ele>1591.39</ele>
        <time>2021-07-21T12:57:02Z</time>
      </trkpt>
      <trkpt lat="44.41455" lon="6.77517">
        <ele>1592.17</ele>
        <time>2021-07-21T12:57:06Z</time>
      </trkpt>
      <trkpt lat="44.41453" lon="6.77514">
        <ele>1592.29</ele>
        <time>2021-07-21T12:57:08Z</time>
      </trkpt>
      <trkpt lat="44.41452" lon="6.7751">
        <ele>1591.78</ele>
        <time>2021-07-21T12:57:11Z</time>
      </trkpt>
      <trkpt lat="44.41452" lon="6.77506">
        <ele>1590.89</ele>
        <time>2021-07-21T12:57:17Z</time>
      </trkpt>
      <trkpt lat="44.41452" lon="6.77499">
        <ele>1589.44</ele>
        <time>2021-07-21T12:57:21Z</time>
      </trkpt>
      <trkpt lat="44.41452" lon="6.77492">
        <ele>1588.64</ele>
        <time>2021-07-21T12:57:22Z</time>
      </trkpt>
      <trkpt lat="44.41453" lon="6.77482">
        <ele>1587.23</ele>
        <time>2021-07-21T12:57:25Z</time>
      </trkpt>
      <trkpt lat="44.41453" lon="6.77469">
        <ele>1586.04</ele>
        <time>2021-07-21T12:57:27Z</time>
      </trkpt>
      <trkpt lat="44.41453" lon="6.77461">
        <ele>1585.75</ele>
        <time>2021-07-21T12:57:29Z</time>
      </trkpt>
      <trkpt lat="44.41452" lon="6.7745">
        <ele>1585.57</ele>
        <time>2021-07-21T12:57:32Z</time>
      </trkpt>
      <trkpt lat="44.41453" lon="6.77439">
        <ele>1584.96</ele>
        <time>2021-07-21T12:57:34Z</time>
      </trkpt>
      <trkpt lat="44.41455" lon="6.77425">
        <ele>1584.02</ele>
        <time>2021-07-21T12:57:37Z</time>
      </trkpt>
      <trkpt lat="44.41456" lon="6.77417">
        <ele>1583.52</ele>
        <time>2021-07-21T12:57:39Z</time>
      </trkpt>
      <trkpt lat="44.41458" lon="6.77409">
        <ele>1582.94</ele>
        <time>2021-07-21T12:57:40Z</time>
      </trkpt>
      <trkpt lat="44.41461" lon="6.77398">
        <ele>1582.02</ele>
        <time>2021-07-21T12:57:43Z</time>
      </trkpt>
      <trkpt lat="44.41463" lon="6.77384">
        <ele>1580.68</ele>
        <time>2021-07-21T12:57:46Z</time>
      </trkpt>
      <trkpt lat="44.41464" lon="6.77375">
        <ele>1579.22</ele>
        <time>2021-07-21T12:57:48Z</time>
      </trkpt>
      <trkpt lat="44.41464" lon="6.77365">
        <ele>1577.89</ele>
        <time>2021-07-21T12:57:52Z</time>
      </trkpt>
      <trkpt lat="44.41465" lon="6.77355">
        <ele>1576.42</ele>
        <time>2021-07-21T12:57:54Z</time>
      </trkpt>
      <trkpt lat="44.41466" lon="6.77347">
        <ele>1575.27</ele>
        <time>2021-07-21T12:57:59Z</time>
      </trkpt>
      <trkpt lat="44.41467" lon="6.77344">
        <ele>1574.66</ele>
        <time>2021-07-21T12:58:13Z</time>
      </trkpt>
      <trkpt lat="44.41469" lon="6.77341">
        <ele>1573.76</ele>
        <time>2021-07-21T12:58:30Z</time>
      </trkpt>
      <trkpt lat="44.41471" lon="6.77337">
        <ele>1572.75</ele>
        <time>2021-07-21T12:58:40Z</time>
      </trkpt>
      <trkpt lat="44.41473" lon="6.77335">
        <ele>1571.92</ele>
        <time>2021-07-21T12:58:44Z</time>
      </trkpt>
      <trkpt lat="44.41473" lon="6.77331">
        <ele>1571.42</ele>
        <time>2021-07-21T12:59:03Z</time>
      </trkpt>
      <trkpt lat="44.41473" lon="6.77327">
        <ele>1570.85</ele>
        <time>2021-07-21T12:59:23Z</time>
      </trkpt>
      <trkpt lat="44.41476" lon="6.77325">
        <ele>1569.66</ele>
        <time>2021-07-21T12:59:33Z</time>
      </trkpt>
      <trkpt lat="44.41477" lon="6.77321">
        <ele>1568.83</ele>
        <time>2021-07-21T12:59:41Z</time>
      </trkpt>
      <trkpt lat="44.41477" lon="6.77317">
        <ele>1568.3</ele>
        <time>2021-07-21T12:59:44Z</time>
      </trkpt>
      <trkpt lat="44.41476" lon="6.77308">
        <ele>1567.38</ele>
        <time>2021-07-21T12:59:47Z</time>
      </trkpt>
      <trkpt lat="44.41475" lon="6.773">
        <ele>1566.9</ele>
        <time>2021-07-21T12:59:49Z</time>
      </trkpt>
      <trkpt lat="44.41473" lon="6.77292">
        <ele>1566.83</ele>
        <time>2021-07-21T12:59:51Z</time>
      </trkpt>
      <trkpt lat="44.4147" lon="6.7728">
        <ele>1566.81</ele>
        <time>2021-07-21T12:59:54Z</time>
      </trkpt>
      <trkpt lat="44.41466" lon="6.77273">
        <ele>1567.28</ele>
        <time>2021-07-21T12:59:58Z</time>
      </trkpt>
      <trkpt lat="44.41464" lon="6.77271">
        <ele>1567.64</ele>
        <time>2021-07-21T13:00:17Z</time>
      </trkpt>
      <trkpt lat="44.41466" lon="6.77267">
        <ele>1566.63</ele>
        <time>2021-07-21T13:00:24Z</time>
      </trkpt>
      <trkpt lat="44.41468" lon="6.77265">
        <ele>1565.84</ele>
        <time>2021-07-21T13:00:30Z</time>
      </trkpt>
      <trkpt lat="44.4147" lon="6.77262">
        <ele>1564.94</ele>
        <time>2021-07-21T13:00:36Z</time>
      </trkpt>
      <trkpt lat="44.41472" lon="6.77258">
        <ele>1563.93</ele>
        <time>2021-07-21T13:00:39Z</time>
      </trkpt>
      <trkpt lat="44.41474" lon="6.77255">
        <ele>1563.04</ele>
        <time>2021-07-21T13:00:46Z</time>
      </trkpt>
      <trkpt lat="44.41472" lon="6.7725">
        <ele>1563.06</ele>
        <time>2021-07-21T13:01:11Z</time>
      </trkpt>
      <trkpt lat="44.4147" lon="6.77246">
        <ele>1563.5</ele>
        <time>2021-07-21T13:01:14Z</time>
      </trkpt>
      <trkpt lat="44.41469" lon="6.77238">
        <ele>1563.5</ele>
        <time>2021-07-21T13:01:17Z</time>
      </trkpt>
      <trkpt lat="44.41467" lon="6.77228">
        <ele>1563.71</ele>
        <time>2021-07-21T13:01:20Z</time>
      </trkpt>
      <trkpt lat="44.41464" lon="6.77219">
        <ele>1564.18</ele>
        <time>2021-07-21T13:01:22Z</time>
      </trkpt>
      <trkpt lat="44.41462" lon="6.77208">
        <ele>1564.06</ele>
        <time>2021-07-21T13:01:25Z</time>
      </trkpt>
      <trkpt lat="44.41462" lon="6.77198">
        <ele>1563.43</ele>
        <time>2021-07-21T13:01:27Z</time>
      </trkpt>
      <trkpt lat="44.41463" lon="6.77185">
        <ele>1562.88</ele>
        <time>2021-07-21T13:01:32Z</time>
      </trkpt>
      <trkpt lat="44.41466" lon="6.77175">
        <ele>1561.96</ele>
        <time>2021-07-21T13:01:34Z</time>
      </trkpt>
      <trkpt lat="44.41469" lon="6.77167">
        <ele>1560.94</ele>
        <time>2021-07-21T13:01:37Z</time>
      </trkpt>
      <trkpt lat="44.41473" lon="6.7716">
        <ele>1559.53</ele>
        <time>2021-07-21T13:01:39Z</time>
      </trkpt>
      <trkpt lat="44.41479" lon="6.77152">
        <ele>1557.39</ele>
        <time>2021-07-21T13:01:43Z</time>
      </trkpt>
      <trkpt lat="44.41483" lon="6.77145">
        <ele>1555.81</ele>
        <time>2021-07-21T13:01:46Z</time>
      </trkpt>
      <trkpt lat="44.41487" lon="6.77137">
        <ele>1554</ele>
        <time>2021-07-21T13:01:49Z</time>
      </trkpt>
      <trkpt lat="44.4149" lon="6.7713">
        <ele>1552.19</ele>
        <time>2021-07-21T13:01:51Z</time>
      </trkpt>
      <trkpt lat="44.41493" lon="6.77122">
        <ele>1550.14</ele>
        <time>2021-07-21T13:01:54Z</time>
      </trkpt>
      <trkpt lat="44.41495" lon="6.77111">
        <ele>1547.98</ele>
        <time>2021-07-21T13:01:57Z</time>
      </trkpt>
      <trkpt lat="44.41495" lon="6.77102">
        <ele>1547.59</ele>
        <time>2021-07-21T13:02:01Z</time>
      </trkpt>
      <trkpt lat="44.41493" lon="6.77094">
        <ele>1548</ele>
        <time>2021-07-21T13:02:05Z</time>
      </trkpt>
      <trkpt lat="44.4149" lon="6.77084">
        <ele>1548.63</ele>
        <time>2021-07-21T13:02:08Z</time>
      </trkpt>
      <trkpt lat="44.41486" lon="6.77078">
        <ele>1549.85</ele>
        <time>2021-07-21T13:02:10Z</time>
      </trkpt>
      <trkpt lat="44.41483" lon="6.7707">
        <ele>1550.64</ele>
        <time>2021-07-21T13:02:12Z</time>
      </trkpt>
      <trkpt lat="44.4148" lon="6.7706">
        <ele>1551.36</ele>
        <time>2021-07-21T13:02:14Z</time>
      </trkpt>
      <trkpt lat="44.41477" lon="6.7705">
        <ele>1551.91</ele>
        <time>2021-07-21T13:02:18Z</time>
      </trkpt>
      <trkpt lat="44.41477" lon="6.77041">
        <ele>1551.32</ele>
        <time>2021-07-21T13:02:21Z</time>
      </trkpt>
      <trkpt lat="44.41476" lon="6.77028">
        <ele>1550.79</ele>
        <time>2021-07-21T13:02:25Z</time>
      </trkpt>
      <trkpt lat="44.41472" lon="6.77018">
        <ele>1551.06</ele>
        <time>2021-07-21T13:02:28Z</time>
      </trkpt>
      <trkpt lat="44.41469" lon="6.77007">
        <ele>1551.32</ele>
        <time>2021-07-21T13:02:31Z</time>
      </trkpt>
      <trkpt lat="44.41466" lon="6.76999">
        <ele>1551.7</ele>
        <time>2021-07-21T13:02:33Z</time>
      </trkpt>
      <trkpt lat="44.41464" lon="6.76989">
        <ele>1550.47</ele>
        <time>2021-07-21T13:02:35Z</time>
      </trkpt>
      <trkpt lat="44.41463" lon="6.76977">
        <ele>1548.35</ele>
        <time>2021-07-21T13:02:37Z</time>
      </trkpt>
      <trkpt lat="44.41461" lon="6.76969">
        <ele>1547.3</ele>
        <time>2021-07-21T13:02:39Z</time>
      </trkpt>
      <trkpt lat="44.41461" lon="6.76961">
        <ele>1544.93</ele>
        <time>2021-07-21T13:02:41Z</time>
      </trkpt>
      <trkpt lat="44.41459" lon="6.76951">
        <ele>1542.75</ele>
        <time>2021-07-21T13:02:43Z</time>
      </trkpt>
      <trkpt lat="44.41458" lon="6.76939">
        <ele>1539.76</ele>
        <time>2021-07-21T13:02:46Z</time>
      </trkpt>
      <trkpt lat="44.41457" lon="6.76931">
        <ele>1538.18</ele>
        <time>2021-07-21T13:02:49Z</time>
      </trkpt>
      <trkpt lat="44.41453" lon="6.76921">
        <ele>1537.66</ele>
        <time>2021-07-21T13:02:52Z</time>
      </trkpt>
      <trkpt lat="44.41447" lon="6.76913">
        <ele>1538.42</ele>
        <time>2021-07-21T13:02:54Z</time>
      </trkpt>
      <trkpt lat="44.41442" lon="6.76905">
        <ele>1538</ele>
        <time>2021-07-21T13:02:57Z</time>
      </trkpt>
      <trkpt lat="44.41436" lon="6.76898">
        <ele>1538.75</ele>
        <time>2021-07-21T13:03:00Z</time>
      </trkpt>
      <trkpt lat="44.4143" lon="6.76892">
        <ele>1540.21</ele>
        <time>2021-07-21T13:03:02Z</time>
      </trkpt>
      <trkpt lat="44.41424" lon="6.76886">
        <ele>1542.18</ele>
        <time>2021-07-21T13:03:06Z</time>
      </trkpt>
      <trkpt lat="44.4142" lon="6.7688">
        <ele>1543.2</ele>
        <time>2021-07-21T13:03:10Z</time>
      </trkpt>
      <trkpt lat="44.41413" lon="6.7687">
        <ele>1545.3</ele>
        <time>2021-07-21T13:03:14Z</time>
      </trkpt>
      <trkpt lat="44.41408" lon="6.76861">
        <ele>1546.89</ele>
        <time>2021-07-21T13:03:17Z</time>
      </trkpt>
      <trkpt lat="44.41405" lon="6.76854">
        <ele>1546.89</ele>
        <time>2021-07-21T13:03:21Z</time>
      </trkpt>
      <trkpt lat="44.41401" lon="6.76847">
        <ele>1547.72</ele>
        <time>2021-07-21T13:03:25Z</time>
      </trkpt>
      <trkpt lat="44.41399" lon="6.76836">
        <ele>1546.1</ele>
        <time>2021-07-21T13:03:29Z</time>
      </trkpt>
      <trkpt lat="44.414" lon="6.76826">
        <ele>1542.75</ele>
        <time>2021-07-21T13:03:32Z</time>
      </trkpt>
      <trkpt lat="44.41398" lon="6.76815">
        <ele>1541.25</ele>
        <time>2021-07-21T13:03:35Z</time>
      </trkpt>
      <trkpt lat="44.41395" lon="6.76803">
        <ele>1539.76</ele>
        <time>2021-07-21T13:03:40Z</time>
      </trkpt>
      <trkpt lat="44.41391" lon="6.76795">
        <ele>1539.77</ele>
        <time>2021-07-21T13:03:42Z</time>
      </trkpt>
      <trkpt lat="44.41388" lon="6.76787">
        <ele>1539.36</ele>
        <time>2021-07-21T13:03:44Z</time>
      </trkpt>
      <trkpt lat="44.41382" lon="6.76776">
        <ele>1541.3</ele>
        <time>2021-07-21T13:03:47Z</time>
      </trkpt>
      <trkpt lat="44.41378" lon="6.7677">
        <ele>1543.23</ele>
        <time>2021-07-21T13:03:48Z</time>
      </trkpt>
      <trkpt lat="44.41374" lon="6.76763">
        <ele>1544.85</ele>
        <time>2021-07-21T13:03:50Z</time>
      </trkpt>
      <trkpt lat="44.41371" lon="6.76755">
        <ele>1545.36</ele>
        <time>2021-07-21T13:03:52Z</time>
      </trkpt>
      <trkpt lat="44.41365" lon="6.7674">
        <ele>1545.98</ele>
        <time>2021-07-21T13:03:56Z</time>
      </trkpt>
      <trkpt lat="44.41361" lon="6.7673">
        <ele>1545.55</ele>
        <time>2021-07-21T13:03:58Z</time>
      </trkpt>
      <trkpt lat="44.41359" lon="6.76721">
        <ele>1543.35</ele>
        <time>2021-07-21T13:04:00Z</time>
      </trkpt>
      <trkpt lat="44.41356" lon="6.7671">
        <ele>1541.91</ele>
        <time>2021-07-21T13:04:03Z</time>
      </trkpt>
      <trkpt lat="44.41352" lon="6.76697">
        <ele>1540.47</ele>
        <time>2021-07-21T13:04:06Z</time>
      </trkpt>
      <trkpt lat="44.41347" lon="6.7669">
        <ele>1540.69</ele>
        <time>2021-07-21T13:04:08Z</time>
      </trkpt>
      <trkpt lat="44.41344" lon="6.76682">
        <ele>1540.03</ele>
        <time>2021-07-21T13:04:10Z</time>
      </trkpt>
      <trkpt lat="44.4134" lon="6.76674">
        <ele>1539.6</ele>
        <time>2021-07-21T13:04:12Z</time>
      </trkpt>
      <trkpt lat="44.41339" lon="6.76664">
        <ele>1537.72</ele>
        <time>2021-07-21T13:04:15Z</time>
      </trkpt>
      <trkpt lat="44.41343" lon="6.76656">
        <ele>1534.66</ele>
        <time>2021-07-21T13:04:17Z</time>
      </trkpt>
      <trkpt lat="44.41349" lon="6.76655">
        <ele>1532.78</ele>
        <time>2021-07-21T13:04:19Z</time>
      </trkpt>
      <trkpt lat="44.41353" lon="6.76663">
        <ele>1533.51</ele>
        <time>2021-07-21T13:04:22Z</time>
      </trkpt>
      <trkpt lat="44.41354" lon="6.76674">
        <ele>1535.44</ele>
        <time>2021-07-21T13:04:25Z</time>
      </trkpt>
      <trkpt lat="44.41356" lon="6.76682">
        <ele>1536.33</ele>
        <time>2021-07-21T13:04:27Z</time>
      </trkpt>
      <trkpt lat="44.41359" lon="6.7669">
        <ele>1536.87</ele>
        <time>2021-07-21T13:04:29Z</time>
      </trkpt>
      <trkpt lat="44.41363" lon="6.767">
        <ele>1537.28</ele>
        <time>2021-07-21T13:04:33Z</time>
      </trkpt>
      <trkpt lat="44.41366" lon="6.76709">
        <ele>1537.58</ele>
        <time>2021-07-21T13:04:36Z</time>
      </trkpt>
      <trkpt lat="44.4137" lon="6.76717">
        <ele>1536.93</ele>
        <time>2021-07-21T13:04:38Z</time>
      </trkpt>
      <trkpt lat="44.41377" lon="6.76729">
        <ele>1535.21</ele>
        <time>2021-07-21T13:04:41Z</time>
      </trkpt>
      <trkpt lat="44.41384" lon="6.76735">
        <ele>1531.68</ele>
        <time>2021-07-21T13:04:43Z</time>
      </trkpt>
      <trkpt lat="44.41391" lon="6.7674">
        <ele>1527.78</ele>
        <time>2021-07-21T13:04:45Z</time>
      </trkpt>
      <trkpt lat="44.41397" lon="6.76743">
        <ele>1524.86</ele>
        <time>2021-07-21T13:04:48Z</time>
      </trkpt>
      <trkpt lat="44.41403" lon="6.76744">
        <ele>1521.73</ele>
        <time>2021-07-21T13:04:51Z</time>
      </trkpt>
      <trkpt lat="44.41409" lon="6.76744">
        <ele>1518.49</ele>
        <time>2021-07-21T13:04:53Z</time>
      </trkpt>
      <trkpt lat="44.41415" lon="6.76746">
        <ele>1515.47</ele>
        <time>2021-07-21T13:04:56Z</time>
      </trkpt>
      <trkpt lat="44.41423" lon="6.76749">
        <ele>1511.72</ele>
        <time>2021-07-21T13:05:01Z</time>
      </trkpt>
      <trkpt lat="44.4143" lon="6.76754">
        <ele>1509.01</ele>
        <time>2021-07-21T13:05:04Z</time>
      </trkpt>
      <trkpt lat="44.41436" lon="6.76759">
        <ele>1506.75</ele>
        <time>2021-07-21T13:05:06Z</time>
      </trkpt>
      <trkpt lat="44.41441" lon="6.76765">
        <ele>1505.03</ele>
        <time>2021-07-21T13:05:08Z</time>
      </trkpt>
      <trkpt lat="44.41448" lon="6.76775">
        <ele>1503.86</ele>
        <time>2021-07-21T13:05:11Z</time>
      </trkpt>
      <trkpt lat="44.41454" lon="6.76786">
        <ele>1504.41</ele>
        <time>2021-07-21T13:05:14Z</time>
      </trkpt>
      <trkpt lat="44.41461" lon="6.76797">
        <ele>1504.34</ele>
        <time>2021-07-21T13:05:17Z</time>
      </trkpt>
      <trkpt lat="44.41466" lon="6.76803">
        <ele>1503.68</ele>
        <time>2021-07-21T13:05:18Z</time>
      </trkpt>
      <trkpt lat="44.41472" lon="6.76808">
        <ele>1502.51</ele>
        <time>2021-07-21T13:05:20Z</time>
      </trkpt>
      <trkpt lat="44.41477" lon="6.76812">
        <ele>1501.92</ele>
        <time>2021-07-21T13:05:22Z</time>
      </trkpt>
      <trkpt lat="44.41484" lon="6.76817">
        <ele>1500.92</ele>
        <time>2021-07-21T13:05:24Z</time>
      </trkpt>
      <trkpt lat="44.41492" lon="6.76821">
        <ele>1499.4</ele>
        <time>2021-07-21T13:05:27Z</time>
      </trkpt>
      <trkpt lat="44.41498" lon="6.76825">
        <ele>1498.35</ele>
        <time>2021-07-21T13:05:29Z</time>
      </trkpt>
      <trkpt lat="44.41505" lon="6.7683">
        <ele>1498.14</ele>
        <time>2021-07-21T13:05:31Z</time>
      </trkpt>
      <trkpt lat="44.41513" lon="6.76836">
        <ele>1498.45</ele>
        <time>2021-07-21T13:05:34Z</time>
      </trkpt>
      <trkpt lat="44.41519" lon="6.76841">
        <ele>1498.74</ele>
        <time>2021-07-21T13:05:36Z</time>
      </trkpt>
      <trkpt lat="44.41525" lon="6.76846">
        <ele>1499.02</ele>
        <time>2021-07-21T13:05:39Z</time>
      </trkpt>
      <trkpt lat="44.41531" lon="6.76851">
        <ele>1499</ele>
        <time>2021-07-21T13:05:42Z</time>
      </trkpt>
      <trkpt lat="44.41536" lon="6.76857">
        <ele>1499.14</ele>
        <time>2021-07-21T13:05:46Z</time>
      </trkpt>
      <trkpt lat="44.41542" lon="6.76862">
        <ele>1499.08</ele>
        <time>2021-07-21T13:05:48Z</time>
      </trkpt>
      <trkpt lat="44.41548" lon="6.76865">
        <ele>1498.65</ele>
        <time>2021-07-21T13:05:50Z</time>
      </trkpt>
      <trkpt lat="44.41555" lon="6.76866">
        <ele>1497.78</ele>
        <time>2021-07-21T13:05:53Z</time>
      </trkpt>
      <trkpt lat="44.41563" lon="6.76865">
        <ele>1495.99</ele>
        <time>2021-07-21T13:05:55Z</time>
      </trkpt>
      <trkpt lat="44.41571" lon="6.76866">
        <ele>1494.47</ele>
        <time>2021-07-21T13:05:59Z</time>
      </trkpt>
      <trkpt lat="44.41579" lon="6.76872">
        <ele>1493.83</ele>
        <time>2021-07-21T13:06:02Z</time>
      </trkpt>
      <trkpt lat="44.41584" lon="6.7688">
        <ele>1494.22</ele>
        <time>2021-07-21T13:06:04Z</time>
      </trkpt>
      <trkpt lat="44.41587" lon="6.76888">
        <ele>1494.91</ele>
        <time>2021-07-21T13:06:06Z</time>
      </trkpt>
      <trkpt lat="44.41589" lon="6.76897">
        <ele>1496.79</ele>
        <time>2021-07-21T13:06:08Z</time>
      </trkpt>
      <trkpt lat="44.41593" lon="6.76906">
        <ele>1498.52</ele>
        <time>2021-07-21T13:06:10Z</time>
      </trkpt>
      <trkpt lat="44.41596" lon="6.76919">
        <ele>1501.85</ele>
        <time>2021-07-21T13:06:13Z</time>
      </trkpt>
      <trkpt lat="44.41602" lon="6.76931">
        <ele>1504.44</ele>
        <time>2021-07-21T13:06:16Z</time>
      </trkpt>
      <trkpt lat="44.41606" lon="6.76937">
        <ele>1505.59</ele>
        <time>2021-07-21T13:06:17Z</time>
      </trkpt>
      <trkpt lat="44.41611" lon="6.76943">
        <ele>1506.6</ele>
        <time>2021-07-21T13:06:19Z</time>
      </trkpt>
      <trkpt lat="44.41615" lon="6.76949">
        <ele>1505.65</ele>
        <time>2021-07-21T13:06:21Z</time>
      </trkpt>
      <trkpt lat="44.41621" lon="6.76957">
        <ele>1503.57</ele>
        <time>2021-07-21T13:06:24Z</time>
      </trkpt>
      <trkpt lat="44.41623" lon="6.76966">
        <ele>1503.43</ele>
        <time>2021-07-21T13:06:26Z</time>
      </trkpt>
      <trkpt lat="44.41626" lon="6.76981">
        <ele>1502.79</ele>
        <time>2021-07-21T13:06:28Z</time>
      </trkpt>
      <trkpt lat="44.4163" lon="6.76995">
        <ele>1501</ele>
        <time>2021-07-21T13:06:31Z</time>
      </trkpt>
      <trkpt lat="44.41633" lon="6.77009">
        <ele>1499</ele>
        <time>2021-07-21T13:06:33Z</time>
      </trkpt>
      <trkpt lat="44.41634" lon="6.77018">
        <ele>1498.05</ele>
        <time>2021-07-21T13:06:35Z</time>
      </trkpt>
      <trkpt lat="44.41634" lon="6.77027">
        <ele>1497.67</ele>
        <time>2021-07-21T13:06:36Z</time>
      </trkpt>
      <trkpt lat="44.41635" lon="6.77036">
        <ele>1497.1</ele>
        <time>2021-07-21T13:06:38Z</time>
      </trkpt>
      <trkpt lat="44.41636" lon="6.77047">
        <ele>1496.56</ele>
        <time>2021-07-21T13:06:40Z</time>
      </trkpt>
      <trkpt lat="44.41639" lon="6.77061">
        <ele>1495.55</ele>
        <time>2021-07-21T13:06:43Z</time>
      </trkpt>
      <trkpt lat="44.41642" lon="6.77071">
        <ele>1495.55</ele>
        <time>2021-07-21T13:06:45Z</time>
      </trkpt>
      <trkpt lat="44.41643" lon="6.77087">
        <ele>1497.03</ele>
        <time>2021-07-21T13:06:48Z</time>
      </trkpt>
      <trkpt lat="44.41643" lon="6.77098">
        <ele>1498.55</ele>
        <time>2021-07-21T13:06:50Z</time>
      </trkpt>
      <trkpt lat="44.41647" lon="6.77108">
        <ele>1498.37</ele>
        <time>2021-07-21T13:06:55Z</time>
      </trkpt>
      <trkpt lat="44.41654" lon="6.77099">
        <ele>1494.51</ele>
        <time>2021-07-21T13:06:59Z</time>
      </trkpt>
      <trkpt lat="44.41654" lon="6.77088">
        <ele>1493.14</ele>
        <time>2021-07-21T13:07:00Z</time>
      </trkpt>
      <trkpt lat="44.41653" lon="6.77078">
        <ele>1492.34</ele>
        <time>2021-07-21T13:07:02Z</time>
      </trkpt>
      <trkpt lat="44.41653" lon="6.77061">
        <ele>1490.51</ele>
        <time>2021-07-21T13:07:05Z</time>
      </trkpt>
      <trkpt lat="44.41654" lon="6.77052">
        <ele>1489.28</ele>
        <time>2021-07-21T13:07:07Z</time>
      </trkpt>
      <trkpt lat="44.41654" lon="6.77044">
        <ele>1488.65</ele>
        <time>2021-07-21T13:07:08Z</time>
      </trkpt>
      <trkpt lat="44.41654" lon="6.77033">
        <ele>1487.79</ele>
        <time>2021-07-21T13:07:11Z</time>
      </trkpt>
      <trkpt lat="44.41653" lon="6.77019">
        <ele>1487.72</ele>
        <time>2021-07-21T13:07:14Z</time>
      </trkpt>
      <trkpt lat="44.41656" lon="6.77005">
        <ele>1485.68</ele>
        <time>2021-07-21T13:07:17Z</time>
      </trkpt>
      <trkpt lat="44.41659" lon="6.76995">
        <ele>1483.56</ele>
        <time>2021-07-21T13:07:18Z</time>
      </trkpt>
      <trkpt lat="44.41661" lon="6.76986">
        <ele>1482.07</ele>
        <time>2021-07-21T13:07:21Z</time>
      </trkpt>
      <trkpt lat="44.41661" lon="6.76977">
        <ele>1481.81</ele>
        <time>2021-07-21T13:07:22Z</time>
      </trkpt>
      <trkpt lat="44.4166" lon="6.76966">
        <ele>1482.21</ele>
        <time>2021-07-21T13:07:25Z</time>
      </trkpt>
      <trkpt lat="44.41657" lon="6.7695">
        <ele>1483.71</ele>
        <time>2021-07-21T13:07:28Z</time>
      </trkpt>
      <trkpt lat="44.41654" lon="6.76943">
        <ele>1485.2</ele>
        <time>2021-07-21T13:07:29Z</time>
      </trkpt>
      <trkpt lat="44.41649" lon="6.76934">
        <ele>1487.32</ele>
        <time>2021-07-21T13:07:31Z</time>
      </trkpt>
      <trkpt lat="44.41645" lon="6.76924">
        <ele>1488.6</ele>
        <time>2021-07-21T13:07:33Z</time>
      </trkpt>
      <trkpt lat="44.41643" lon="6.76914">
        <ele>1488.12</ele>
        <time>2021-07-21T13:07:35Z</time>
      </trkpt>
      <trkpt lat="44.41637" lon="6.76899">
        <ele>1485.78</ele>
        <time>2021-07-21T13:07:38Z</time>
      </trkpt>
      <trkpt lat="44.41633" lon="6.76885">
        <ele>1482.39</ele>
        <time>2021-07-21T13:07:40Z</time>
      </trkpt>
      <trkpt lat="44.41632" lon="6.76876">
        <ele>1480.14</ele>
        <time>2021-07-21T13:07:41Z</time>
      </trkpt>
      <trkpt lat="44.41631" lon="6.76866">
        <ele>1477.63</ele>
        <time>2021-07-21T13:07:43Z</time>
      </trkpt>
      <trkpt lat="44.4163" lon="6.76855">
        <ele>1475.39</ele>
        <time>2021-07-21T13:07:46Z</time>
      </trkpt>
      <trkpt lat="44.41627" lon="6.76845">
        <ele>1474.28</ele>
        <time>2021-07-21T13:07:48Z</time>
      </trkpt>
      <trkpt lat="44.41623" lon="6.76832">
        <ele>1472.67</ele>
        <time>2021-07-21T13:07:51Z</time>
      </trkpt>
      <trkpt lat="44.41618" lon="6.76824">
        <ele>1472.08</ele>
        <time>2021-07-21T13:07:53Z</time>
      </trkpt>
      <trkpt lat="44.41613" lon="6.76812">
        <ele>1470.81</ele>
        <time>2021-07-21T13:07:56Z</time>
      </trkpt>
      <trkpt lat="44.41611" lon="6.76803">
        <ele>1469.67</ele>
        <time>2021-07-21T13:07:58Z</time>
      </trkpt>
      <trkpt lat="44.41609" lon="6.76792">
        <ele>1468.88</ele>
        <time>2021-07-21T13:08:00Z</time>
      </trkpt>
      <trkpt lat="44.41609" lon="6.76784">
        <ele>1467.77</ele>
        <time>2021-07-21T13:08:01Z</time>
      </trkpt>
      <trkpt lat="44.41608" lon="6.76769">
        <ele>1467.8</ele>
        <time>2021-07-21T13:08:04Z</time>
      </trkpt>
      <trkpt lat="44.41606" lon="6.76761">
        <ele>1468.86</ele>
        <time>2021-07-21T13:08:06Z</time>
      </trkpt>
      <trkpt lat="44.41605" lon="6.76752">
        <ele>1469.48</ele>
        <time>2021-07-21T13:08:08Z</time>
      </trkpt>
      <trkpt lat="44.41602" lon="6.76743">
        <ele>1470.13</ele>
        <time>2021-07-21T13:08:10Z</time>
      </trkpt>
      <trkpt lat="44.41599" lon="6.76734">
        <ele>1470.55</ele>
        <time>2021-07-21T13:08:12Z</time>
      </trkpt>
      <trkpt lat="44.41597" lon="6.76725">
        <ele>1470.64</ele>
        <time>2021-07-21T13:08:14Z</time>
      </trkpt>
      <trkpt lat="44.41594" lon="6.7671">
        <ele>1469.15</ele>
        <time>2021-07-21T13:08:17Z</time>
      </trkpt>
      <trkpt lat="44.41593" lon="6.76696">
        <ele>1467.16</ele>
        <time>2021-07-21T13:08:19Z</time>
      </trkpt>
      <trkpt lat="44.41591" lon="6.76685">
        <ele>1466.42</ele>
        <time>2021-07-21T13:08:21Z</time>
      </trkpt>
      <trkpt lat="44.41589" lon="6.76673">
        <ele>1465.62</ele>
        <time>2021-07-21T13:08:24Z</time>
      </trkpt>
      <trkpt lat="44.41587" lon="6.76659">
        <ele>1464.27</ele>
        <time>2021-07-21T13:08:27Z</time>
      </trkpt>
      <trkpt lat="44.41581" lon="6.76649">
        <ele>1463.56</ele>
        <time>2021-07-21T13:08:30Z</time>
      </trkpt>
      <trkpt lat="44.41572" lon="6.76642">
        <ele>1463.17</ele>
        <time>2021-07-21T13:08:33Z</time>
      </trkpt>
      <trkpt lat="44.41565" lon="6.76634">
        <ele>1462.62</ele>
        <time>2021-07-21T13:08:36Z</time>
      </trkpt>
      <trkpt lat="44.41561" lon="6.76628">
        <ele>1462.04</ele>
        <time>2021-07-21T13:08:38Z</time>
      </trkpt>
      <trkpt lat="44.41557" lon="6.76621">
        <ele>1461.32</ele>
        <time>2021-07-21T13:08:40Z</time>
      </trkpt>
      <trkpt lat="44.41555" lon="6.76609">
        <ele>1459.64</ele>
        <time>2021-07-21T13:08:43Z</time>
      </trkpt>
      <trkpt lat="44.41557" lon="6.766">
        <ele>1457.9</ele>
        <time>2021-07-21T13:08:45Z</time>
      </trkpt>
      <trkpt lat="44.4156" lon="6.76589">
        <ele>1455.7</ele>
        <time>2021-07-21T13:08:47Z</time>
      </trkpt>
      <trkpt lat="44.41563" lon="6.76582">
        <ele>1454.28</ele>
        <time>2021-07-21T13:08:49Z</time>
      </trkpt>
      <trkpt lat="44.41567" lon="6.76569">
        <ele>1452.32</ele>
        <time>2021-07-21T13:08:52Z</time>
      </trkpt>
      <trkpt lat="44.4157" lon="6.76562">
        <ele>1451.29</ele>
        <time>2021-07-21T13:08:53Z</time>
      </trkpt>
      <trkpt lat="44.41573" lon="6.76546">
        <ele>1449</ele>
        <time>2021-07-21T13:08:57Z</time>
      </trkpt>
      <trkpt lat="44.41574" lon="6.76532">
        <ele>1446.94</ele>
        <time>2021-07-21T13:09:00Z</time>
      </trkpt>
      <trkpt lat="44.41571" lon="6.76523">
        <ele>1445.26</ele>
        <time>2021-07-21T13:09:02Z</time>
      </trkpt>
      <trkpt lat="44.41566" lon="6.76515">
        <ele>1443.29</ele>
        <time>2021-07-21T13:09:04Z</time>
      </trkpt>
      <trkpt lat="44.4156" lon="6.7651">
        <ele>1441.92</ele>
        <time>2021-07-21T13:09:05Z</time>
      </trkpt>
      <trkpt lat="44.41552" lon="6.76506">
        <ele>1440.96</ele>
        <time>2021-07-21T13:09:08Z</time>
      </trkpt>
      <trkpt lat="44.41543" lon="6.76504">
        <ele>1440.99</ele>
        <time>2021-07-21T13:09:10Z</time>
      </trkpt>
      <trkpt lat="44.41536" lon="6.76504">
        <ele>1441.46</ele>
        <time>2021-07-21T13:09:13Z</time>
      </trkpt>
      <trkpt lat="44.4153" lon="6.76503">
        <ele>1441.6</ele>
        <time>2021-07-21T13:09:15Z</time>
      </trkpt>
      <trkpt lat="44.41523" lon="6.76499">
        <ele>1441.1</ele>
        <time>2021-07-21T13:09:18Z</time>
      </trkpt>
      <trkpt lat="44.41518" lon="6.76492">
        <ele>1439.79</ele>
        <time>2021-07-21T13:09:21Z</time>
      </trkpt>
      <trkpt lat="44.41514" lon="6.76485">
        <ele>1438.48</ele>
        <time>2021-07-21T13:09:23Z</time>
      </trkpt>
      <trkpt lat="44.41509" lon="6.76479">
        <ele>1437.57</ele>
        <time>2021-07-21T13:09:26Z</time>
      </trkpt>
      <trkpt lat="44.41502" lon="6.76471">
        <ele>1436.56</ele>
        <time>2021-07-21T13:09:29Z</time>
      </trkpt>
      <trkpt lat="44.41496" lon="6.76468">
        <ele>1436.34</ele>
        <time>2021-07-21T13:09:31Z</time>
      </trkpt>
      <trkpt lat="44.4149" lon="6.76465">
        <ele>1435.87</ele>
        <time>2021-07-21T13:09:33Z</time>
      </trkpt>
      <trkpt lat="44.41482" lon="6.76462">
        <ele>1435.33</ele>
        <time>2021-07-21T13:09:36Z</time>
      </trkpt>
      <trkpt lat="44.41476" lon="6.7646">
        <ele>1434.9</ele>
        <time>2021-07-21T13:09:38Z</time>
      </trkpt>
      <trkpt lat="44.4147" lon="6.76456">
        <ele>1434.39</ele>
        <time>2021-07-21T13:09:40Z</time>
      </trkpt>
      <trkpt lat="44.41464" lon="6.76446">
        <ele>1433.17</ele>
        <time>2021-07-21T13:09:44Z</time>
      </trkpt>
      <trkpt lat="44.41461" lon="6.76436">
        <ele>1432.33</ele>
        <time>2021-07-21T13:09:45Z</time>
      </trkpt>
      <trkpt lat="44.41461" lon="6.76426">
        <ele>1431.04</ele>
        <time>2021-07-21T13:09:48Z</time>
      </trkpt>
      <trkpt lat="44.41462" lon="6.76416">
        <ele>1429.57</ele>
        <time>2021-07-21T13:09:50Z</time>
      </trkpt>
      <trkpt lat="44.41464" lon="6.76407">
        <ele>1429.11</ele>
        <time>2021-07-21T13:09:52Z</time>
      </trkpt>
      <trkpt lat="44.41465" lon="6.76394">
        <ele>1429</ele>
        <time>2021-07-21T13:09:55Z</time>
      </trkpt>
      <trkpt lat="44.41462" lon="6.76382">
        <ele>1429.38</ele>
        <time>2021-07-21T13:09:58Z</time>
      </trkpt>
      <trkpt lat="44.41459" lon="6.76374">
        <ele>1429.65</ele>
        <time>2021-07-21T13:09:59Z</time>
      </trkpt>
      <trkpt lat="44.41457" lon="6.76365">
        <ele>1429.72</ele>
        <time>2021-07-21T13:10:02Z</time>
      </trkpt>
      <trkpt lat="44.4145" lon="6.76354">
        <ele>1430.09</ele>
        <time>2021-07-21T13:10:05Z</time>
      </trkpt>
      <trkpt lat="44.41445" lon="6.76347">
        <ele>1430.42</ele>
        <time>2021-07-21T13:10:07Z</time>
      </trkpt>
      <trkpt lat="44.41441" lon="6.76341">
        <ele>1431.09</ele>
        <time>2021-07-21T13:10:08Z</time>
      </trkpt>
      <trkpt lat="44.41439" lon="6.76333">
        <ele>1431.14</ele>
        <time>2021-07-21T13:10:09Z</time>
      </trkpt>
      <trkpt lat="44.41434" lon="6.76317">
        <ele>1430.05</ele>
        <time>2021-07-21T13:10:12Z</time>
      </trkpt>
      <trkpt lat="44.4143" lon="6.76309">
        <ele>1429.58</ele>
        <time>2021-07-21T13:10:13Z</time>
      </trkpt>
      <trkpt lat="44.41426" lon="6.76297">
        <ele>1428.12</ele>
        <time>2021-07-21T13:10:16Z</time>
      </trkpt>
      <trkpt lat="44.41423" lon="6.7629">
        <ele>1427.29</ele>
        <time>2021-07-21T13:10:17Z</time>
      </trkpt>
      <trkpt lat="44.4142" lon="6.76282">
        <ele>1426.28</ele>
        <time>2021-07-21T13:10:19Z</time>
      </trkpt>
      <trkpt lat="44.41413" lon="6.76272">
        <ele>1425.26</ele>
        <time>2021-07-21T13:10:22Z</time>
      </trkpt>
      <trkpt lat="44.41409" lon="6.76266">
        <ele>1424.65</ele>
        <time>2021-07-21T13:10:23Z</time>
      </trkpt>
      <trkpt lat="44.41404" lon="6.76257">
        <ele>1423.73</ele>
        <time>2021-07-21T13:10:25Z</time>
      </trkpt>
      <trkpt lat="44.41401" lon="6.76249">
        <ele>1422.8</ele>
        <time>2021-07-21T13:10:26Z</time>
      </trkpt>
      <trkpt lat="44.41398" lon="6.76241">
        <ele>1422.41</ele>
        <time>2021-07-21T13:10:27Z</time>
      </trkpt>
      <trkpt lat="44.41396" lon="6.76231">
        <ele>1421.47</ele>
        <time>2021-07-21T13:10:30Z</time>
      </trkpt>
      <trkpt lat="44.41395" lon="6.76215">
        <ele>1420</ele>
        <time>2021-07-21T13:10:32Z</time>
      </trkpt>
      <trkpt lat="44.41395" lon="6.76204">
        <ele>1419.29</ele>
        <time>2021-07-21T13:10:34Z</time>
      </trkpt>
      <trkpt lat="44.41397" lon="6.76194">
        <ele>1418.2</ele>
        <time>2021-07-21T13:10:36Z</time>
      </trkpt>
      <trkpt lat="44.41399" lon="6.76184">
        <ele>1416.82</ele>
        <time>2021-07-21T13:10:38Z</time>
      </trkpt>
      <trkpt lat="44.41406" lon="6.76171">
        <ele>1414.29</ele>
        <time>2021-07-21T13:10:41Z</time>
      </trkpt>
      <trkpt lat="44.41411" lon="6.76162">
        <ele>1412.58</ele>
        <time>2021-07-21T13:10:42Z</time>
      </trkpt>
      <trkpt lat="44.41416" lon="6.76156">
        <ele>1410.99</ele>
        <time>2021-07-21T13:10:45Z</time>
      </trkpt>
      <trkpt lat="44.4142" lon="6.76148">
        <ele>1409.58</ele>
        <time>2021-07-21T13:10:46Z</time>
      </trkpt>
      <trkpt lat="44.41428" lon="6.76136">
        <ele>1407.55</ele>
        <time>2021-07-21T13:10:49Z</time>
      </trkpt>
      <trkpt lat="44.41433" lon="6.76124">
        <ele>1406.26</ele>
        <time>2021-07-21T13:10:51Z</time>
      </trkpt>
      <trkpt lat="44.41439" lon="6.76115">
        <ele>1405.39</ele>
        <time>2021-07-21T13:10:53Z</time>
      </trkpt>
      <trkpt lat="44.41443" lon="6.76105">
        <ele>1405.04</ele>
        <time>2021-07-21T13:10:55Z</time>
      </trkpt>
      <trkpt lat="44.41446" lon="6.76096">
        <ele>1404.63</ele>
        <time>2021-07-21T13:10:57Z</time>
      </trkpt>
      <trkpt lat="44.41448" lon="6.76081">
        <ele>1404.11</ele>
        <time>2021-07-21T13:10:59Z</time>
      </trkpt>
      <trkpt lat="44.41447" lon="6.7607">
        <ele>1404.4</ele>
        <time>2021-07-21T13:11:01Z</time>
      </trkpt>
      <trkpt lat="44.41446" lon="6.76062">
        <ele>1404.65</ele>
        <time>2021-07-21T13:11:03Z</time>
      </trkpt>
      <trkpt lat="44.41444" lon="6.76053">
        <ele>1405</ele>
        <time>2021-07-21T13:11:05Z</time>
      </trkpt>
      <trkpt lat="44.41442" lon="6.76044">
        <ele>1404.96</ele>
        <time>2021-07-21T13:11:07Z</time>
      </trkpt>
      <trkpt lat="44.41442" lon="6.76034">
        <ele>1404.93</ele>
        <time>2021-07-21T13:11:09Z</time>
      </trkpt>
      <trkpt lat="44.41441" lon="6.76025">
        <ele>1404.68</ele>
        <time>2021-07-21T13:11:11Z</time>
      </trkpt>
      <trkpt lat="44.41443" lon="6.76015">
        <ele>1404.03</ele>
        <time>2021-07-21T13:11:13Z</time>
      </trkpt>
      <trkpt lat="44.41445" lon="6.76006">
        <ele>1403.36</ele>
        <time>2021-07-21T13:11:16Z</time>
      </trkpt>
      <trkpt lat="44.41448" lon="6.75995">
        <ele>1402.1</ele>
        <time>2021-07-21T13:11:20Z</time>
      </trkpt>
      <trkpt lat="44.41449" lon="6.75987">
        <ele>1401.18</ele>
        <time>2021-07-21T13:11:23Z</time>
      </trkpt>
      <trkpt lat="44.4145" lon="6.75975">
        <ele>1399.88</ele>
        <time>2021-07-21T13:11:27Z</time>
      </trkpt>
      <trkpt lat="44.41447" lon="6.75968">
        <ele>1398.88</ele>
        <time>2021-07-21T13:11:30Z</time>
      </trkpt>
      <trkpt lat="44.41444" lon="6.7596">
        <ele>1397.38</ele>
        <time>2021-07-21T13:11:33Z</time>
      </trkpt>
      <trkpt lat="44.41441" lon="6.75946">
        <ele>1394.69</ele>
        <time>2021-07-21T13:11:35Z</time>
      </trkpt>
      <trkpt lat="44.41438" lon="6.75938">
        <ele>1392.82</ele>
        <time>2021-07-21T13:11:37Z</time>
      </trkpt>
      <trkpt lat="44.41434" lon="6.7593">
        <ele>1391.23</ele>
        <time>2021-07-21T13:11:39Z</time>
      </trkpt>
      <trkpt lat="44.41424" lon="6.75916">
        <ele>1389.98</ele>
        <time>2021-07-21T13:11:42Z</time>
      </trkpt>
      <trkpt lat="44.41418" lon="6.75914">
        <ele>1390.99</ele>
        <time>2021-07-21T13:11:44Z</time>
      </trkpt>
      <trkpt lat="44.41414" lon="6.75908">
        <ele>1389.97</ele>
        <time>2021-07-21T13:11:46Z</time>
      </trkpt>
      <trkpt lat="44.4141" lon="6.75904">
        <ele>1389.27</ele>
        <time>2021-07-21T13:11:47Z</time>
      </trkpt>
      <trkpt lat="44.41401" lon="6.75899">
        <ele>1388.83</ele>
        <time>2021-07-21T13:11:48Z</time>
      </trkpt>
      <trkpt lat="44.41395" lon="6.75898">
        <ele>1389.12</ele>
        <time>2021-07-21T13:11:49Z</time>
      </trkpt>
      <trkpt lat="44.41389" lon="6.75898">
        <ele>1389.63</ele>
        <time>2021-07-21T13:11:51Z</time>
      </trkpt>
      <trkpt lat="44.41385" lon="6.75898">
        <ele>1390.25</ele>
        <time>2021-07-21T13:11:52Z</time>
      </trkpt>
      <trkpt lat="44.41378" lon="6.75896">
        <ele>1391.04</ele>
        <time>2021-07-21T13:11:55Z</time>
      </trkpt>
      <trkpt lat="44.4137" lon="6.75887">
        <ele>1391.04</ele>
        <time>2021-07-21T13:11:59Z</time>
      </trkpt>
      <trkpt lat="44.41366" lon="6.75878">
        <ele>1390.09</ele>
        <time>2021-07-21T13:12:02Z</time>
      </trkpt>
      <trkpt lat="44.4136" lon="6.75872">
        <ele>1390.09</ele>
        <time>2021-07-21T13:12:05Z</time>
      </trkpt>
      <trkpt lat="44.41356" lon="6.75867">
        <ele>1389.72</ele>
        <time>2021-07-21T13:12:09Z</time>
      </trkpt>
      <trkpt lat="44.41348" lon="6.75865">
        <ele>1390.46</ele>
        <time>2021-07-21T13:12:11Z</time>
      </trkpt>
      <trkpt lat="44.4134" lon="6.75862">
        <ele>1391.15</ele>
        <time>2021-07-21T13:12:15Z</time>
      </trkpt>
      <trkpt lat="44.41334" lon="6.75859">
        <ele>1391.52</ele>
        <time>2021-07-21T13:12:19Z</time>
      </trkpt>
      <trkpt lat="44.4133" lon="6.75856">
        <ele>1391</ele>
        <time>2021-07-21T13:14:09Z</time>
      </trkpt>
      <trkpt lat="44.41327" lon="6.75854">
        <ele>1390.61</ele>
        <time>2021-07-21T13:14:11Z</time>
      </trkpt>
      <trkpt lat="44.41324" lon="6.75853">
        <ele>1390.4</ele>
        <time>2021-07-21T13:14:12Z</time>
      </trkpt>
      <trkpt lat="44.41319" lon="6.75851">
        <ele>1390.04</ele>
        <time>2021-07-21T13:14:13Z</time>
      </trkpt>
      <trkpt lat="44.41316" lon="6.75849">
        <ele>1389.74</ele>
        <time>2021-07-21T13:14:14Z</time>
      </trkpt>
      <trkpt lat="44.41311" lon="6.75846">
        <ele>1389.35</ele>
        <time>2021-07-21T13:14:16Z</time>
      </trkpt>
      <trkpt lat="44.41307" lon="6.75842">
        <ele>1388.92</ele>
        <time>2021-07-21T13:14:16Z</time>
      </trkpt>
      <trkpt lat="44.41303" lon="6.75837">
        <ele>1388.21</ele>
        <time>2021-07-21T13:14:18Z</time>
      </trkpt>
      <trkpt lat="44.41296" lon="6.75827">
        <ele>1386.25</ele>
        <time>2021-07-21T13:14:19Z</time>
      </trkpt>
      <trkpt lat="44.41292" lon="6.75823">
        <ele>1385.35</ele>
        <time>2021-07-21T13:14:20Z</time>
      </trkpt>
      <trkpt lat="44.41289" lon="6.75819">
        <ele>1384.54</ele>
        <time>2021-07-21T13:14:22Z</time>
      </trkpt>
      <trkpt lat="44.41282" lon="6.75813">
        <ele>1383.26</ele>
        <time>2021-07-21T13:14:24Z</time>
      </trkpt>
      <trkpt lat="44.41275" lon="6.75807">
        <ele>1381.91</ele>
        <time>2021-07-21T13:14:26Z</time>
      </trkpt>
      <trkpt lat="44.41267" lon="6.75803">
        <ele>1380.39</ele>
        <time>2021-07-21T13:14:28Z</time>
      </trkpt>
      <trkpt lat="44.41261" lon="6.75799">
        <ele>1379.2</ele>
        <time>2021-07-21T13:14:30Z</time>
      </trkpt>
      <trkpt lat="44.41255" lon="6.75792">
        <ele>1377.81</ele>
        <time>2021-07-21T13:14:32Z</time>
      </trkpt>
      <trkpt lat="44.4125" lon="6.75787">
        <ele>1377</ele>
        <time>2021-07-21T13:14:34Z</time>
      </trkpt>
      <trkpt lat="44.41243" lon="6.75781">
        <ele>1376.6</ele>
        <time>2021-07-21T13:14:37Z</time>
      </trkpt>
      <trkpt lat="44.41237" lon="6.75775">
        <ele>1376.17</ele>
        <time>2021-07-21T13:14:38Z</time>
      </trkpt>
      <trkpt lat="44.4123" lon="6.75769">
        <ele>1375.77</ele>
        <time>2021-07-21T13:14:40Z</time>
      </trkpt>
      <trkpt lat="44.41224" lon="6.75762">
        <ele>1375.23</ele>
        <time>2021-07-21T13:14:42Z</time>
      </trkpt>
      <trkpt lat="44.41219" lon="6.75755">
        <ele>1375.31</ele>
        <time>2021-07-21T13:14:44Z</time>
      </trkpt>
      <trkpt lat="44.41215" lon="6.75747">
        <ele>1375.55</ele>
        <time>2021-07-21T13:14:46Z</time>
      </trkpt>
      <trkpt lat="44.41212" lon="6.75739">
        <ele>1375.68</ele>
        <time>2021-07-21T13:14:47Z</time>
      </trkpt>
      <trkpt lat="44.41211" lon="6.7573">
        <ele>1375.25</ele>
        <time>2021-07-21T13:14:50Z</time>
      </trkpt>
      <trkpt lat="44.41212" lon="6.75722">
        <ele>1374.31</ele>
        <time>2021-07-21T13:14:52Z</time>
      </trkpt>
      <trkpt lat="44.41214" lon="6.75714">
        <ele>1373.46</ele>
        <time>2021-07-21T13:14:54Z</time>
      </trkpt>
      <trkpt lat="44.41217" lon="6.75705">
        <ele>1372.19</ele>
        <time>2021-07-21T13:14:57Z</time>
      </trkpt>
      <trkpt lat="44.41222" lon="6.75698">
        <ele>1370.21</ele>
        <time>2021-07-21T13:15:01Z</time>
      </trkpt>
      <trkpt lat="44.41225" lon="6.75698">
        <ele>1370.04</ele>
        <time>2021-07-21T13:16:35Z</time>
      </trkpt>
      <trkpt lat="44.41226" lon="6.75695">
        <ele>1369.89</ele>
        <time>2021-07-21T13:16:36Z</time>
      </trkpt>
      <trkpt lat="44.41228" lon="6.75691">
        <ele>1369.84</ele>
        <time>2021-07-21T13:16:37Z</time>
      </trkpt>
      <trkpt lat="44.41228" lon="6.75686">
        <ele>1369.91</ele>
        <time>2021-07-21T13:16:39Z</time>
      </trkpt>
      <trkpt lat="44.4123" lon="6.75675">
        <ele>1369.83</ele>
        <time>2021-07-21T13:16:42Z</time>
      </trkpt>
      <trkpt lat="44.41231" lon="6.75666">
        <ele>1369.74</ele>
        <time>2021-07-21T13:16:43Z</time>
      </trkpt>
      <trkpt lat="44.4123" lon="6.75656">
        <ele>1370.05</ele>
        <time>2021-07-21T13:16:46Z</time>
      </trkpt>
      <trkpt lat="44.41228" lon="6.75646">
        <ele>1370.6</ele>
        <time>2021-07-21T13:16:48Z</time>
      </trkpt>
      <trkpt lat="44.41226" lon="6.75635">
        <ele>1371.18</ele>
        <time>2021-07-21T13:16:51Z</time>
      </trkpt>
      <trkpt lat="44.41223" lon="6.75627">
        <ele>1371.83</ele>
        <time>2021-07-21T13:16:53Z</time>
      </trkpt>
      <trkpt lat="44.41221" lon="6.75615">
        <ele>1372.23</ele>
        <time>2021-07-21T13:16:55Z</time>
      </trkpt>
      <trkpt lat="44.41222" lon="6.75607">
        <ele>1371.89</ele>
        <time>2021-07-21T13:16:57Z</time>
      </trkpt>
      <trkpt lat="44.41224" lon="6.75599">
        <ele>1371.21</ele>
        <time>2021-07-21T13:16:59Z</time>
      </trkpt>
      <trkpt lat="44.41227" lon="6.75591">
        <ele>1370.37</ele>
        <time>2021-07-21T13:17:01Z</time>
      </trkpt>
      <trkpt lat="44.41232" lon="6.75585">
        <ele>1369.28</ele>
        <time>2021-07-21T13:17:03Z</time>
      </trkpt>
      <trkpt lat="44.41239" lon="6.75583">
        <ele>1368.01</ele>
        <time>2021-07-21T13:17:05Z</time>
      </trkpt>
      <trkpt lat="44.41244" lon="6.75585">
        <ele>1367.09</ele>
        <time>2021-07-21T13:17:07Z</time>
      </trkpt>
      <trkpt lat="44.4125" lon="6.75592">
        <ele>1366</ele>
        <time>2021-07-21T13:17:10Z</time>
      </trkpt>
      <trkpt lat="44.41254" lon="6.756">
        <ele>1365.8</ele>
        <time>2021-07-21T13:17:12Z</time>
      </trkpt>
      <trkpt lat="44.41258" lon="6.75608">
        <ele>1365.68</ele>
        <time>2021-07-21T13:17:15Z</time>
      </trkpt>
      <trkpt lat="44.41264" lon="6.75613">
        <ele>1365.6</ele>
        <time>2021-07-21T13:17:19Z</time>
      </trkpt>
      <trkpt lat="44.4127" lon="6.75609">
        <ele>1365.23</ele>
        <time>2021-07-21T13:17:24Z</time>
      </trkpt>
      <trkpt lat="44.41273" lon="6.75603">
        <ele>1364.93</ele>
        <time>2021-07-21T13:17:27Z</time>
      </trkpt>
      <trkpt lat="44.41272" lon="6.75607">
        <ele>1365.09</ele>
        <time>2021-07-21T13:18:35Z</time>
      </trkpt>
      <trkpt lat="44.41275" lon="6.75604">
        <ele>1364.87</ele>
        <time>2021-07-21T13:19:28Z</time>
      </trkpt>
      <trkpt lat="44.41278" lon="6.75601">
        <ele>1364.61</ele>
        <time>2021-07-21T13:19:29Z</time>
      </trkpt>
      <trkpt lat="44.4128" lon="6.75597">
        <ele>1364.25</ele>
        <time>2021-07-21T13:19:30Z</time>
      </trkpt>
      <trkpt lat="44.41283" lon="6.75594">
        <ele>1363.78</ele>
        <time>2021-07-21T13:19:31Z</time>
      </trkpt>
      <trkpt lat="44.41286" lon="6.7559">
        <ele>1363.2</ele>
        <time>2021-07-21T13:19:33Z</time>
      </trkpt>
      <trkpt lat="44.41292" lon="6.75582">
        <ele>1361.88</ele>
        <time>2021-07-21T13:19:34Z</time>
      </trkpt>
      <trkpt lat="44.41295" lon="6.75572">
        <ele>1360.86</ele>
        <time>2021-07-21T13:19:35Z</time>
      </trkpt>
      <trkpt lat="44.41298" lon="6.75566">
        <ele>1360.01</ele>
        <time>2021-07-21T13:19:36Z</time>
      </trkpt>
      <trkpt lat="44.413" lon="6.75561">
        <ele>1359.35</ele>
        <time>2021-07-21T13:19:38Z</time>
      </trkpt>
      <trkpt lat="44.41304" lon="6.75547">
        <ele>1357.75</ele>
        <time>2021-07-21T13:19:39Z</time>
      </trkpt>
      <trkpt lat="44.41305" lon="6.7554">
        <ele>1357.04</ele>
        <time>2021-07-21T13:19:40Z</time>
      </trkpt>
      <trkpt lat="44.41307" lon="6.75533">
        <ele>1355.96</ele>
        <time>2021-07-21T13:19:41Z</time>
      </trkpt>
      <trkpt lat="44.41308" lon="6.75526">
        <ele>1355.23</ele>
        <time>2021-07-21T13:19:42Z</time>
      </trkpt>
      <trkpt lat="44.41309" lon="6.75518">
        <ele>1354.61</ele>
        <time>2021-07-21T13:19:44Z</time>
      </trkpt>
      <trkpt lat="44.4131" lon="6.75506">
        <ele>1353.81</ele>
        <time>2021-07-21T13:19:45Z</time>
      </trkpt>
      <trkpt lat="44.4131" lon="6.75499">
        <ele>1353.52</ele>
        <time>2021-07-21T13:19:46Z</time>
      </trkpt>
      <trkpt lat="44.41309" lon="6.75493">
        <ele>1353.63</ele>
        <time>2021-07-21T13:19:47Z</time>
      </trkpt>
      <trkpt lat="44.41307" lon="6.75486">
        <ele>1354.03</ele>
        <time>2021-07-21T13:19:48Z</time>
      </trkpt>
      <trkpt lat="44.41306" lon="6.75479">
        <ele>1354.1</ele>
        <time>2021-07-21T13:19:49Z</time>
      </trkpt>
      <trkpt lat="44.41304" lon="6.75473">
        <ele>1354.64</ele>
        <time>2021-07-21T13:19:50Z</time>
      </trkpt>
      <trkpt lat="44.41302" lon="6.75466">
        <ele>1354.9</ele>
        <time>2021-07-21T13:19:51Z</time>
      </trkpt>
      <trkpt lat="44.41299" lon="6.75459">
        <ele>1355.42</ele>
        <time>2021-07-21T13:19:52Z</time>
      </trkpt>
      <trkpt lat="44.41297" lon="6.75453">
        <ele>1355.58</ele>
        <time>2021-07-21T13:19:53Z</time>
      </trkpt>
      <trkpt lat="44.41295" lon="6.75446">
        <ele>1355.57</ele>
        <time>2021-07-21T13:19:54Z</time>
      </trkpt>
      <trkpt lat="44.41293" lon="6.75439">
        <ele>1355.66</ele>
        <time>2021-07-21T13:19:55Z</time>
      </trkpt>
      <trkpt lat="44.41292" lon="6.75432">
        <ele>1355.49</ele>
        <time>2021-07-21T13:19:56Z</time>
      </trkpt>
      <trkpt lat="44.41289" lon="6.75426">
        <ele>1356.16</ele>
        <time>2021-07-21T13:19:57Z</time>
      </trkpt>
      <trkpt lat="44.41287" lon="6.7542">
        <ele>1356.55</ele>
        <time>2021-07-21T13:19:58Z</time>
      </trkpt>
      <trkpt lat="44.41285" lon="6.75414">
        <ele>1356.85</ele>
        <time>2021-07-21T13:19:59Z</time>
      </trkpt>
      <trkpt lat="44.41282" lon="6.75408">
        <ele>1357.39</ele>
        <time>2021-07-21T13:20:00Z</time>
      </trkpt>
      <trkpt lat="44.41281" lon="6.75401">
        <ele>1357.03</ele>
        <time>2021-07-21T13:20:01Z</time>
      </trkpt>
      <trkpt lat="44.41279" lon="6.75394">
        <ele>1357.07</ele>
        <time>2021-07-21T13:20:02Z</time>
      </trkpt>
      <trkpt lat="44.41276" lon="6.75388">
        <ele>1357.57</ele>
        <time>2021-07-21T13:20:03Z</time>
      </trkpt>
      <trkpt lat="44.41274" lon="6.7538">
        <ele>1358.18</ele>
        <time>2021-07-21T13:20:04Z</time>
      </trkpt>
      <trkpt lat="44.41272" lon="6.75374">
        <ele>1358.76</ele>
        <time>2021-07-21T13:20:05Z</time>
      </trkpt>
      <trkpt lat="44.4127" lon="6.75367">
        <ele>1359.3</ele>
        <time>2021-07-21T13:20:06Z</time>
      </trkpt>
      <trkpt lat="44.41267" lon="6.75361">
        <ele>1360.1</ele>
        <time>2021-07-21T13:20:07Z</time>
      </trkpt>
      <trkpt lat="44.41263" lon="6.75356">
        <ele>1360.89</ele>
        <time>2021-07-21T13:20:08Z</time>
      </trkpt>
      <trkpt lat="44.41261" lon="6.7535">
        <ele>1361.03</ele>
        <time>2021-07-21T13:20:09Z</time>
      </trkpt>
      <trkpt lat="44.41258" lon="6.75345">
        <ele>1361.54</ele>
        <time>2021-07-21T13:20:10Z</time>
      </trkpt>
      <trkpt lat="44.41255" lon="6.7534">
        <ele>1362.04</ele>
        <time>2021-07-21T13:20:11Z</time>
      </trkpt>
      <trkpt lat="44.41251" lon="6.75332">
        <ele>1362.47</ele>
        <time>2021-07-21T13:20:12Z</time>
      </trkpt>
      <trkpt lat="44.41248" lon="6.75326">
        <ele>1362.2</ele>
        <time>2021-07-21T13:20:13Z</time>
      </trkpt>
      <trkpt lat="44.41245" lon="6.75321">
        <ele>1362.12</ele>
        <time>2021-07-21T13:20:14Z</time>
      </trkpt>
      <trkpt lat="44.41242" lon="6.75315">
        <ele>1361.91</ele>
        <time>2021-07-21T13:20:15Z</time>
      </trkpt>
      <trkpt lat="44.41241" lon="6.75309">
        <ele>1361.17</ele>
        <time>2021-07-21T13:20:16Z</time>
      </trkpt>
      <trkpt lat="44.41241" lon="6.75302">
        <ele>1359.44</ele>
        <time>2021-07-21T13:20:17Z</time>
      </trkpt>
      <trkpt lat="44.41242" lon="6.75293">
        <ele>1356.24</ele>
        <time>2021-07-21T13:20:18Z</time>
      </trkpt>
      <trkpt lat="44.41246" lon="6.75287">
        <ele>1353.14</ele>
        <time>2021-07-21T13:20:19Z</time>
      </trkpt>
      <trkpt lat="44.4125" lon="6.75283">
        <ele>1350.69</ele>
        <time>2021-07-21T13:20:20Z</time>
      </trkpt>
      <trkpt lat="44.41255" lon="6.75282">
        <ele>1349.23</ele>
        <time>2021-07-21T13:20:21Z</time>
      </trkpt>
      <trkpt lat="44.4126" lon="6.75283">
        <ele>1348.4</ele>
        <time>2021-07-21T13:20:22Z</time>
      </trkpt>
      <trkpt lat="44.41264" lon="6.75287">
        <ele>1348.63</ele>
        <time>2021-07-21T13:20:23Z</time>
      </trkpt>
      <trkpt lat="44.41267" lon="6.75291">
        <ele>1349.03</ele>
        <time>2021-07-21T13:20:24Z</time>
      </trkpt>
      <trkpt lat="44.41271" lon="6.75296">
        <ele>1349.38</ele>
        <time>2021-07-21T13:20:25Z</time>
      </trkpt>
      <trkpt lat="44.41274" lon="6.753">
        <ele>1349.63</ele>
        <time>2021-07-21T13:20:26Z</time>
      </trkpt>
      <trkpt lat="44.41278" lon="6.75305">
        <ele>1349.79</ele>
        <time>2021-07-21T13:20:27Z</time>
      </trkpt>
      <trkpt lat="44.41281" lon="6.75309">
        <ele>1349.53</ele>
        <time>2021-07-21T13:20:28Z</time>
      </trkpt>
      <trkpt lat="44.41285" lon="6.75313">
        <ele>1348.79</ele>
        <time>2021-07-21T13:20:29Z</time>
      </trkpt>
      <trkpt lat="44.41288" lon="6.75318">
        <ele>1348.43</ele>
        <time>2021-07-21T13:20:30Z</time>
      </trkpt>
      <trkpt lat="44.41292" lon="6.75322">
        <ele>1347.44</ele>
        <time>2021-07-21T13:20:31Z</time>
      </trkpt>
      <trkpt lat="44.41295" lon="6.75327">
        <ele>1346.84</ele>
        <time>2021-07-21T13:20:32Z</time>
      </trkpt>
      <trkpt lat="44.41299" lon="6.75332">
        <ele>1345.7</ele>
        <time>2021-07-21T13:20:33Z</time>
      </trkpt>
      <trkpt lat="44.41303" lon="6.75338">
        <ele>1344.29</ele>
        <time>2021-07-21T13:20:34Z</time>
      </trkpt>
      <trkpt lat="44.41306" lon="6.75342">
        <ele>1343.14</ele>
        <time>2021-07-21T13:20:35Z</time>
      </trkpt>
      <trkpt lat="44.41309" lon="6.75347">
        <ele>1342.19</ele>
        <time>2021-07-21T13:20:36Z</time>
      </trkpt>
      <trkpt lat="44.41312" lon="6.75352">
        <ele>1341.28</ele>
        <time>2021-07-21T13:20:37Z</time>
      </trkpt>
      <trkpt lat="44.41315" lon="6.75357">
        <ele>1340.4</ele>
        <time>2021-07-21T13:20:38Z</time>
      </trkpt>
      <trkpt lat="44.41318" lon="6.75363">
        <ele>1339.72</ele>
        <time>2021-07-21T13:20:39Z</time>
      </trkpt>
      <trkpt lat="44.41322" lon="6.75368">
        <ele>1338.87</ele>
        <time>2021-07-21T13:20:40Z</time>
      </trkpt>
      <trkpt lat="44.41325" lon="6.75373">
        <ele>1338.46</ele>
        <time>2021-07-21T13:20:41Z</time>
      </trkpt>
      <trkpt lat="44.41328" lon="6.75379">
        <ele>1338.25</ele>
        <time>2021-07-21T13:20:42Z</time>
      </trkpt>
      <trkpt lat="44.41331" lon="6.75384">
        <ele>1338</ele>
        <time>2021-07-21T13:20:43Z</time>
      </trkpt>
      <trkpt lat="44.41334" lon="6.75391">
        <ele>1338.18</ele>
        <time>2021-07-21T13:20:44Z</time>
      </trkpt>
      <trkpt lat="44.41336" lon="6.75396">
        <ele>1338.55</ele>
        <time>2021-07-21T13:20:45Z</time>
      </trkpt>
      <trkpt lat="44.41339" lon="6.75402">
        <ele>1338.91</ele>
        <time>2021-07-21T13:20:46Z</time>
      </trkpt>
      <trkpt lat="44.41342" lon="6.75406">
        <ele>1339.03</ele>
        <time>2021-07-21T13:20:47Z</time>
      </trkpt>
      <trkpt lat="44.41345" lon="6.75409">
        <ele>1339.03</ele>
        <time>2021-07-21T13:20:48Z</time>
      </trkpt>
      <trkpt lat="44.41349" lon="6.75412">
        <ele>1338.9</ele>
        <time>2021-07-21T13:20:49Z</time>
      </trkpt>
      <trkpt lat="44.41353" lon="6.75413">
        <ele>1338.57</ele>
        <time>2021-07-21T13:20:50Z</time>
      </trkpt>
      <trkpt lat="44.41356" lon="6.75413">
        <ele>1338.26</ele>
        <time>2021-07-21T13:20:51Z</time>
      </trkpt>
      <trkpt lat="44.41359" lon="6.75412">
        <ele>1337.88</ele>
        <time>2021-07-21T13:20:52Z</time>
      </trkpt>
      <trkpt lat="44.41363" lon="6.75411">
        <ele>1337.08</ele>
        <time>2021-07-21T13:20:53Z</time>
      </trkpt>
      <trkpt lat="44.41366" lon="6.75409">
        <ele>1336.14</ele>
        <time>2021-07-21T13:20:54Z</time>
      </trkpt>
      <trkpt lat="44.41367" lon="6.75405">
        <ele>1335.64</ele>
        <time>2021-07-21T13:20:55Z</time>
      </trkpt>
      <trkpt lat="44.41368" lon="6.754">
        <ele>1335.11</ele>
        <time>2021-07-21T13:20:56Z</time>
      </trkpt>
      <trkpt lat="44.41368" lon="6.75394">
        <ele>1334.79</ele>
        <time>2021-07-21T13:20:57Z</time>
      </trkpt>
      <trkpt lat="44.41367" lon="6.75387">
        <ele>1334.55</ele>
        <time>2021-07-21T13:20:58Z</time>
      </trkpt>
      <trkpt lat="44.41367" lon="6.7538">
        <ele>1333.9</ele>
        <time>2021-07-21T13:20:59Z</time>
      </trkpt>
      <trkpt lat="44.41366" lon="6.75373">
        <ele>1333.43</ele>
        <time>2021-07-21T13:21:00Z</time>
      </trkpt>
      <trkpt lat="44.41366" lon="6.75366">
        <ele>1332.76</ele>
        <time>2021-07-21T13:21:01Z</time>
      </trkpt>
      <trkpt lat="44.41366" lon="6.7536">
        <ele>1332.18</ele>
        <time>2021-07-21T13:21:02Z</time>
      </trkpt>
      <trkpt lat="44.41366" lon="6.75354">
        <ele>1331.53</ele>
        <time>2021-07-21T13:21:03Z</time>
      </trkpt>
      <trkpt lat="44.41366" lon="6.75348">
        <ele>1330.88</ele>
        <time>2021-07-21T13:21:04Z</time>
      </trkpt>
      <trkpt lat="44.41366" lon="6.75341">
        <ele>1330.12</ele>
        <time>2021-07-21T13:21:05Z</time>
      </trkpt>
      <trkpt lat="44.41365" lon="6.75334">
        <ele>1329.51</ele>
        <time>2021-07-21T13:21:06Z</time>
      </trkpt>
      <trkpt lat="44.41365" lon="6.75328">
        <ele>1328.84</ele>
        <time>2021-07-21T13:21:07Z</time>
      </trkpt>
      <trkpt lat="44.41364" lon="6.75321">
        <ele>1328.21</ele>
        <time>2021-07-21T13:21:08Z</time>
      </trkpt>
      <trkpt lat="44.41364" lon="6.75312">
        <ele>1327.2</ele>
        <time>2021-07-21T13:21:10Z</time>
      </trkpt>
      <trkpt lat="44.41361" lon="6.75307">
        <ele>1327.17</ele>
        <time>2021-07-21T13:21:11Z</time>
      </trkpt>
      <trkpt lat="44.41359" lon="6.75299">
        <ele>1327.05</ele>
        <time>2021-07-21T13:21:13Z</time>
      </trkpt>
      <trkpt lat="44.41352" lon="6.7529">
        <ele>1327.57</ele>
        <time>2021-07-21T13:21:14Z</time>
      </trkpt>
      <trkpt lat="44.41349" lon="6.75284">
        <ele>1327.63</ele>
        <time>2021-07-21T13:21:15Z</time>
      </trkpt>
      <trkpt lat="44.41346" lon="6.75279">
        <ele>1327.7</ele>
        <time>2021-07-21T13:21:16Z</time>
      </trkpt>
      <trkpt lat="44.41343" lon="6.75274">
        <ele>1327.55</ele>
        <time>2021-07-21T13:21:17Z</time>
      </trkpt>
      <trkpt lat="44.41339" lon="6.75268">
        <ele>1327.33</ele>
        <time>2021-07-21T13:21:18Z</time>
      </trkpt>
      <trkpt lat="44.41336" lon="6.75263">
        <ele>1327.12</ele>
        <time>2021-07-21T13:21:19Z</time>
      </trkpt>
      <trkpt lat="44.41335" lon="6.75256">
        <ele>1326.47</ele>
        <time>2021-07-21T13:21:20Z</time>
      </trkpt>
      <trkpt lat="44.41334" lon="6.75248">
        <ele>1325.57</ele>
        <time>2021-07-21T13:21:21Z</time>
      </trkpt>
      <trkpt lat="44.41333" lon="6.7524">
        <ele>1324.26</ele>
        <time>2021-07-21T13:21:22Z</time>
      </trkpt>
      <trkpt lat="44.41332" lon="6.75232">
        <ele>1322.97</ele>
        <time>2021-07-21T13:21:23Z</time>
      </trkpt>
      <trkpt lat="44.41331" lon="6.75226">
        <ele>1322.03</ele>
        <time>2021-07-21T13:21:24Z</time>
      </trkpt>
      <trkpt lat="44.4133" lon="6.75219">
        <ele>1321.13</ele>
        <time>2021-07-21T13:21:25Z</time>
      </trkpt>
      <trkpt lat="44.41329" lon="6.75212">
        <ele>1320.52</ele>
        <time>2021-07-21T13:21:26Z</time>
      </trkpt>
      <trkpt lat="44.41328" lon="6.75205">
        <ele>1319.91</ele>
        <time>2021-07-21T13:21:27Z</time>
      </trkpt>
      <trkpt lat="44.41326" lon="6.75198">
        <ele>1319.44</ele>
        <time>2021-07-21T13:21:28Z</time>
      </trkpt>
      <trkpt lat="44.41325" lon="6.75191">
        <ele>1318.41</ele>
        <time>2021-07-21T13:21:29Z</time>
      </trkpt>
      <trkpt lat="44.41322" lon="6.75185">
        <ele>1317.53</ele>
        <time>2021-07-21T13:21:30Z</time>
      </trkpt>
      <trkpt lat="44.4132" lon="6.7518">
        <ele>1316.78</ele>
        <time>2021-07-21T13:21:31Z</time>
      </trkpt>
      <trkpt lat="44.41317" lon="6.75172">
        <ele>1315.65</ele>
        <time>2021-07-21T13:21:32Z</time>
      </trkpt>
      <trkpt lat="44.41313" lon="6.75165">
        <ele>1314.87</ele>
        <time>2021-07-21T13:21:33Z</time>
      </trkpt>
      <trkpt lat="44.4131" lon="6.7516">
        <ele>1313.92</ele>
        <time>2021-07-21T13:21:34Z</time>
      </trkpt>
      <trkpt lat="44.41306" lon="6.75155">
        <ele>1313.13</ele>
        <time>2021-07-21T13:21:35Z</time>
      </trkpt>
      <trkpt lat="44.41303" lon="6.75152">
        <ele>1312.39</ele>
        <time>2021-07-21T13:21:36Z</time>
      </trkpt>
      <trkpt lat="44.413" lon="6.75149">
        <ele>1311.66</ele>
        <time>2021-07-21T13:21:37Z</time>
      </trkpt>
      <trkpt lat="44.41297" lon="6.75148">
        <ele>1311.57</ele>
        <time>2021-07-21T13:21:38Z</time>
      </trkpt>
      <trkpt lat="44.41292" lon="6.75146">
        <ele>1311.39</ele>
        <time>2021-07-21T13:21:39Z</time>
      </trkpt>
      <trkpt lat="44.41288" lon="6.75144">
        <ele>1311.2</ele>
        <time>2021-07-21T13:21:40Z</time>
      </trkpt>
      <trkpt lat="44.41282" lon="6.75142">
        <ele>1311.27</ele>
        <time>2021-07-21T13:21:42Z</time>
      </trkpt>
      <trkpt lat="44.41277" lon="6.75139">
        <ele>1311.25</ele>
        <time>2021-07-21T13:21:43Z</time>
      </trkpt>
      <trkpt lat="44.41274" lon="6.75133">
        <ele>1311.02</ele>
        <time>2021-07-21T13:21:45Z</time>
      </trkpt>
      <trkpt lat="44.41279" lon="6.75122">
        <ele>1307.17</ele>
        <time>2021-07-21T13:21:46Z</time>
      </trkpt>
      <trkpt lat="44.41284" lon="6.7512">
        <ele>1305.94</ele>
        <time>2021-07-21T13:21:47Z</time>
      </trkpt>
      <trkpt lat="44.41289" lon="6.75119">
        <ele>1304.91</ele>
        <time>2021-07-21T13:21:49Z</time>
      </trkpt>
      <trkpt lat="44.41295" lon="6.75122">
        <ele>1304.74</ele>
        <time>2021-07-21T13:21:50Z</time>
      </trkpt>
      <trkpt lat="44.41301" lon="6.75124">
        <ele>1304.38</ele>
        <time>2021-07-21T13:21:51Z</time>
      </trkpt>
      <trkpt lat="44.41305" lon="6.75127">
        <ele>1304.65</ele>
        <time>2021-07-21T13:21:52Z</time>
      </trkpt>
      <trkpt lat="44.4131" lon="6.75129">
        <ele>1304.47</ele>
        <time>2021-07-21T13:21:53Z</time>
      </trkpt>
      <trkpt lat="44.41314" lon="6.75131">
        <ele>1304.38</ele>
        <time>2021-07-21T13:21:54Z</time>
      </trkpt>
      <trkpt lat="44.41319" lon="6.75134">
        <ele>1304.34</ele>
        <time>2021-07-21T13:21:55Z</time>
      </trkpt>
      <trkpt lat="44.41323" lon="6.75136">
        <ele>1304.16</ele>
        <time>2021-07-21T13:21:56Z</time>
      </trkpt>
      <trkpt lat="44.41328" lon="6.75139">
        <ele>1303.99</ele>
        <time>2021-07-21T13:21:58Z</time>
      </trkpt>
      <trkpt lat="44.41337" lon="6.75144">
        <ele>1303.79</ele>
        <time>2021-07-21T13:21:59Z</time>
      </trkpt>
      <trkpt lat="44.41342" lon="6.75147">
        <ele>1303.68</ele>
        <time>2021-07-21T13:22:00Z</time>
      </trkpt>
      <trkpt lat="44.41347" lon="6.7515">
        <ele>1303.54</ele>
        <time>2021-07-21T13:22:01Z</time>
      </trkpt>
      <trkpt lat="44.41352" lon="6.75153">
        <ele>1303.36</ele>
        <time>2021-07-21T13:22:02Z</time>
      </trkpt>
      <trkpt lat="44.41357" lon="6.75156">
        <ele>1303.14</ele>
        <time>2021-07-21T13:22:03Z</time>
      </trkpt>
      <trkpt lat="44.41363" lon="6.7516">
        <ele>1303.08</ele>
        <time>2021-07-21T13:22:04Z</time>
      </trkpt>
      <trkpt lat="44.41368" lon="6.75163">
        <ele>1303.15</ele>
        <time>2021-07-21T13:22:05Z</time>
      </trkpt>
      <trkpt lat="44.41373" lon="6.75166">
        <ele>1303.14</ele>
        <time>2021-07-21T13:22:06Z</time>
      </trkpt>
      <trkpt lat="44.41377" lon="6.75169">
        <ele>1303.28</ele>
        <time>2021-07-21T13:22:07Z</time>
      </trkpt>
      <trkpt lat="44.41382" lon="6.75172">
        <ele>1303.14</ele>
        <time>2021-07-21T13:22:08Z</time>
      </trkpt>
      <trkpt lat="44.41386" lon="6.75175">
        <ele>1303.04</ele>
        <time>2021-07-21T13:22:09Z</time>
      </trkpt>
      <trkpt lat="44.41391" lon="6.75179">
        <ele>1302.98</ele>
        <time>2021-07-21T13:22:10Z</time>
      </trkpt>
      <trkpt lat="44.41396" lon="6.75182">
        <ele>1303.02</ele>
        <time>2021-07-21T13:22:11Z</time>
      </trkpt>
      <trkpt lat="44.414" lon="6.75184">
        <ele>1303.02</ele>
        <time>2021-07-21T13:22:12Z</time>
      </trkpt>
      <trkpt lat="44.41405" lon="6.75187">
        <ele>1303.19</ele>
        <time>2021-07-21T13:22:13Z</time>
      </trkpt>
      <trkpt lat="44.4141" lon="6.75191">
        <ele>1303.67</ele>
        <time>2021-07-21T13:22:14Z</time>
      </trkpt>
      <trkpt lat="44.41415" lon="6.75195">
        <ele>1304.22</ele>
        <time>2021-07-21T13:22:15Z</time>
      </trkpt>
      <trkpt lat="44.41419" lon="6.75197">
        <ele>1303.98</ele>
        <time>2021-07-21T13:22:16Z</time>
      </trkpt>
      <trkpt lat="44.41424" lon="6.752">
        <ele>1303.57</ele>
        <time>2021-07-21T13:22:17Z</time>
      </trkpt>
      <trkpt lat="44.41428" lon="6.75204">
        <ele>1303.69</ele>
        <time>2021-07-21T13:22:18Z</time>
      </trkpt>
      <trkpt lat="44.41433" lon="6.75208">
        <ele>1303.77</ele>
        <time>2021-07-21T13:22:19Z</time>
      </trkpt>
      <trkpt lat="44.41436" lon="6.75212">
        <ele>1304.3</ele>
        <time>2021-07-21T13:22:20Z</time>
      </trkpt>
      <trkpt lat="44.4144" lon="6.75216">
        <ele>1304.8</ele>
        <time>2021-07-21T13:22:21Z</time>
      </trkpt>
      <trkpt lat="44.41445" lon="6.75221">
        <ele>1305.45</ele>
        <time>2021-07-21T13:22:22Z</time>
      </trkpt>
      <trkpt lat="44.41448" lon="6.75227">
        <ele>1304.91</ele>
        <time>2021-07-21T13:22:23Z</time>
      </trkpt>
      <trkpt lat="44.41452" lon="6.75232">
        <ele>1303.73</ele>
        <time>2021-07-21T13:22:24Z</time>
      </trkpt>
      <trkpt lat="44.41454" lon="6.75238">
        <ele>1303.32</ele>
        <time>2021-07-21T13:22:25Z</time>
      </trkpt>
      <trkpt lat="44.41457" lon="6.75244">
        <ele>1302.62</ele>
        <time>2021-07-21T13:22:26Z</time>
      </trkpt>
      <trkpt lat="44.4146" lon="6.7525">
        <ele>1301.96</ele>
        <time>2021-07-21T13:22:27Z</time>
      </trkpt>
      <trkpt lat="44.41463" lon="6.75255">
        <ele>1301.59</ele>
        <time>2021-07-21T13:22:28Z</time>
      </trkpt>
      <trkpt lat="44.41465" lon="6.75259">
        <ele>1301.47</ele>
        <time>2021-07-21T13:22:29Z</time>
      </trkpt>
      <trkpt lat="44.41469" lon="6.75265">
        <ele>1301.08</ele>
        <time>2021-07-21T13:22:30Z</time>
      </trkpt>
      <trkpt lat="44.41472" lon="6.75271">
        <ele>1301.08</ele>
        <time>2021-07-21T13:22:31Z</time>
      </trkpt>
      <trkpt lat="44.41474" lon="6.75274">
        <ele>1300.88</ele>
        <time>2021-07-21T13:22:32Z</time>
      </trkpt>
      <trkpt lat="44.41477" lon="6.75278">
        <ele>1300.49</ele>
        <time>2021-07-21T13:22:33Z</time>
      </trkpt>
      <trkpt lat="44.41481" lon="6.75282">
        <ele>1299.81</ele>
        <time>2021-07-21T13:22:34Z</time>
      </trkpt>
      <trkpt lat="44.41486" lon="6.75283">
        <ele>1298.38</ele>
        <time>2021-07-21T13:22:35Z</time>
      </trkpt>
      <trkpt lat="44.41489" lon="6.75284">
        <ele>1297.6</ele>
        <time>2021-07-21T13:22:36Z</time>
      </trkpt>
      <trkpt lat="44.41494" lon="6.75283">
        <ele>1295.84</ele>
        <time>2021-07-21T13:22:37Z</time>
      </trkpt>
      <trkpt lat="44.41498" lon="6.7528">
        <ele>1294.04</ele>
        <time>2021-07-21T13:22:38Z</time>
      </trkpt>
      <trkpt lat="44.41502" lon="6.75276">
        <ele>1292.6</ele>
        <time>2021-07-21T13:22:39Z</time>
      </trkpt>
      <trkpt lat="44.41503" lon="6.7527">
        <ele>1291.66</ele>
        <time>2021-07-21T13:22:40Z</time>
      </trkpt>
      <trkpt lat="44.41503" lon="6.75266">
        <ele>1291.09</ele>
        <time>2021-07-21T13:22:42Z</time>
      </trkpt>
      <trkpt lat="44.41501" lon="6.75253">
        <ele>1289.36</ele>
        <time>2021-07-21T13:22:43Z</time>
      </trkpt>
      <trkpt lat="44.41498" lon="6.75246">
        <ele>1289.23</ele>
        <time>2021-07-21T13:22:44Z</time>
      </trkpt>
      <trkpt lat="44.41495" lon="6.75241">
        <ele>1289.71</ele>
        <time>2021-07-21T13:22:45Z</time>
      </trkpt>
      <trkpt lat="44.41492" lon="6.75234">
        <ele>1290.03</ele>
        <time>2021-07-21T13:22:46Z</time>
      </trkpt>
      <trkpt lat="44.41489" lon="6.75229">
        <ele>1290.6</ele>
        <time>2021-07-21T13:22:47Z</time>
      </trkpt>
      <trkpt lat="44.41486" lon="6.75223">
        <ele>1291.11</ele>
        <time>2021-07-21T13:22:48Z</time>
      </trkpt>
      <trkpt lat="44.41483" lon="6.75217">
        <ele>1291.28</ele>
        <time>2021-07-21T13:22:49Z</time>
      </trkpt>
      <trkpt lat="44.41479" lon="6.75212">
        <ele>1291.71</ele>
        <time>2021-07-21T13:22:50Z</time>
      </trkpt>
      <trkpt lat="44.41476" lon="6.75207">
        <ele>1291.65</ele>
        <time>2021-07-21T13:22:51Z</time>
      </trkpt>
      <trkpt lat="44.41472" lon="6.752">
        <ele>1291.27</ele>
        <time>2021-07-21T13:22:52Z</time>
      </trkpt>
      <trkpt lat="44.41469" lon="6.75194">
        <ele>1290.86</ele>
        <time>2021-07-21T13:22:53Z</time>
      </trkpt>
      <trkpt lat="44.41465" lon="6.75187">
        <ele>1290.8</ele>
        <time>2021-07-21T13:22:54Z</time>
      </trkpt>
      <trkpt lat="44.41463" lon="6.7518">
        <ele>1290.06</ele>
        <time>2021-07-21T13:22:55Z</time>
      </trkpt>
      <trkpt lat="44.41462" lon="6.75173">
        <ele>1289</ele>
        <time>2021-07-21T13:22:56Z</time>
      </trkpt>
      <trkpt lat="44.41462" lon="6.75167">
        <ele>1287.9</ele>
        <time>2021-07-21T13:22:57Z</time>
      </trkpt>
      <trkpt lat="44.41464" lon="6.75159">
        <ele>1285.74</ele>
        <time>2021-07-21T13:22:58Z</time>
      </trkpt>
      <trkpt lat="44.41468" lon="6.75152">
        <ele>1283.51</ele>
        <time>2021-07-21T13:22:59Z</time>
      </trkpt>
      <trkpt lat="44.41472" lon="6.75148">
        <ele>1282</ele>
        <time>2021-07-21T13:23:00Z</time>
      </trkpt>
      <trkpt lat="44.41475" lon="6.75146">
        <ele>1281.53</ele>
        <time>2021-07-21T13:23:01Z</time>
      </trkpt>
      <trkpt lat="44.4148" lon="6.75144">
        <ele>1281.18</ele>
        <time>2021-07-21T13:23:02Z</time>
      </trkpt>
      <trkpt lat="44.41486" lon="6.75143">
        <ele>1281.09</ele>
        <time>2021-07-21T13:23:03Z</time>
      </trkpt>
      <trkpt lat="44.41491" lon="6.75141">
        <ele>1280.93</ele>
        <time>2021-07-21T13:23:04Z</time>
      </trkpt>
      <trkpt lat="44.41496" lon="6.7514">
        <ele>1280.96</ele>
        <time>2021-07-21T13:23:05Z</time>
      </trkpt>
      <trkpt lat="44.41501" lon="6.75139">
        <ele>1280.97</ele>
        <time>2021-07-21T13:23:06Z</time>
      </trkpt>
      <trkpt lat="44.41506" lon="6.75137">
        <ele>1280.61</ele>
        <time>2021-07-21T13:23:07Z</time>
      </trkpt>
      <trkpt lat="44.41511" lon="6.75135">
        <ele>1280.29</ele>
        <time>2021-07-21T13:23:08Z</time>
      </trkpt>
      <trkpt lat="44.41516" lon="6.75132">
        <ele>1279.97</ele>
        <time>2021-07-21T13:23:09Z</time>
      </trkpt>
      <trkpt lat="44.41521" lon="6.75128">
        <ele>1279.66</ele>
        <time>2021-07-21T13:23:10Z</time>
      </trkpt>
      <trkpt lat="44.41525" lon="6.75124">
        <ele>1279.46</ele>
        <time>2021-07-21T13:23:11Z</time>
      </trkpt>
      <trkpt lat="44.4153" lon="6.7512">
        <ele>1280.09</ele>
        <time>2021-07-21T13:23:12Z</time>
      </trkpt>
      <trkpt lat="44.41534" lon="6.75116">
        <ele>1281.38</ele>
        <time>2021-07-21T13:23:13Z</time>
      </trkpt>
      <trkpt lat="44.41538" lon="6.75112">
        <ele>1282.7</ele>
        <time>2021-07-21T13:23:14Z</time>
      </trkpt>
      <trkpt lat="44.41543" lon="6.75109">
        <ele>1284.44</ele>
        <time>2021-07-21T13:23:15Z</time>
      </trkpt>
      <trkpt lat="44.41547" lon="6.75105">
        <ele>1285.77</ele>
        <time>2021-07-21T13:23:16Z</time>
      </trkpt>
      <trkpt lat="44.4155" lon="6.75101">
        <ele>1286.71</ele>
        <time>2021-07-21T13:23:17Z</time>
      </trkpt>
      <trkpt lat="44.41553" lon="6.75096">
        <ele>1287.59</ele>
        <time>2021-07-21T13:23:18Z</time>
      </trkpt>
      <trkpt lat="44.41554" lon="6.75089">
        <ele>1287.69</ele>
        <time>2021-07-21T13:23:19Z</time>
      </trkpt>
      <trkpt lat="44.41554" lon="6.75082">
        <ele>1287.41</ele>
        <time>2021-07-21T13:23:20Z</time>
      </trkpt>
      <trkpt lat="44.41553" lon="6.75076">
        <ele>1286.72</ele>
        <time>2021-07-21T13:23:21Z</time>
      </trkpt>
      <trkpt lat="44.41551" lon="6.75068">
        <ele>1285.69</ele>
        <time>2021-07-21T13:23:22Z</time>
      </trkpt>
      <trkpt lat="44.41549" lon="6.75062">
        <ele>1284.88</ele>
        <time>2021-07-21T13:23:23Z</time>
      </trkpt>
      <trkpt lat="44.41545" lon="6.75056">
        <ele>1283.73</ele>
        <time>2021-07-21T13:23:24Z</time>
      </trkpt>
      <trkpt lat="44.41541" lon="6.75051">
        <ele>1282.69</ele>
        <time>2021-07-21T13:23:25Z</time>
      </trkpt>
      <trkpt lat="44.41538" lon="6.75046">
        <ele>1281.86</ele>
        <time>2021-07-21T13:23:26Z</time>
      </trkpt>
      <trkpt lat="44.41534" lon="6.75041">
        <ele>1280.82</ele>
        <time>2021-07-21T13:23:27Z</time>
      </trkpt>
      <trkpt lat="44.41531" lon="6.75036">
        <ele>1279.99</ele>
        <time>2021-07-21T13:23:28Z</time>
      </trkpt>
      <trkpt lat="44.41529" lon="6.75031">
        <ele>1279.38</ele>
        <time>2021-07-21T13:23:29Z</time>
      </trkpt>
      <trkpt lat="44.41527" lon="6.75026">
        <ele>1278.83</ele>
        <time>2021-07-21T13:23:30Z</time>
      </trkpt>
      <trkpt lat="44.41525" lon="6.7502">
        <ele>1278.38</ele>
        <time>2021-07-21T13:23:31Z</time>
      </trkpt>
      <trkpt lat="44.41523" lon="6.75014">
        <ele>1277.99</ele>
        <time>2021-07-21T13:23:32Z</time>
      </trkpt>
      <trkpt lat="44.41521" lon="6.75008">
        <ele>1277.66</ele>
        <time>2021-07-21T13:23:33Z</time>
      </trkpt>
      <trkpt lat="44.41519" lon="6.75003">
        <ele>1277.41</ele>
        <time>2021-07-21T13:23:34Z</time>
      </trkpt>
      <trkpt lat="44.41517" lon="6.74999">
        <ele>1277.14</ele>
        <time>2021-07-21T13:23:35Z</time>
      </trkpt>
      <trkpt lat="44.41515" lon="6.74995">
        <ele>1276.71</ele>
        <time>2021-07-21T13:23:36Z</time>
      </trkpt>
      <trkpt lat="44.41513" lon="6.74991">
        <ele>1276.31</ele>
        <time>2021-07-21T13:23:37Z</time>
      </trkpt>
      <trkpt lat="44.4151" lon="6.74987">
        <ele>1275.92</ele>
        <time>2021-07-21T13:23:38Z</time>
      </trkpt>
      <trkpt lat="44.41508" lon="6.74979">
        <ele>1275.38</ele>
        <time>2021-07-21T13:23:40Z</time>
      </trkpt>
      <trkpt lat="44.41504" lon="6.74971">
        <ele>1274.92</ele>
        <time>2021-07-21T13:23:41Z</time>
      </trkpt>
      <trkpt lat="44.41501" lon="6.74963">
        <ele>1274.35</ele>
        <time>2021-07-21T13:23:43Z</time>
      </trkpt>
      <trkpt lat="44.41497" lon="6.74953">
        <ele>1273.55</ele>
        <time>2021-07-21T13:23:44Z</time>
      </trkpt>
      <trkpt lat="44.41494" lon="6.74948">
        <ele>1273.2</ele>
        <time>2021-07-21T13:23:45Z</time>
      </trkpt>
      <trkpt lat="44.41491" lon="6.74943">
        <ele>1272.93</ele>
        <time>2021-07-21T13:23:46Z</time>
      </trkpt>
      <trkpt lat="44.41487" lon="6.74938">
        <ele>1272.75</ele>
        <time>2021-07-21T13:23:47Z</time>
      </trkpt>
      <trkpt lat="44.41483" lon="6.74931">
        <ele>1272.62</ele>
        <time>2021-07-21T13:23:48Z</time>
      </trkpt>
      <trkpt lat="44.4148" lon="6.74925">
        <ele>1272.61</ele>
        <time>2021-07-21T13:23:49Z</time>
      </trkpt>
      <trkpt lat="44.41476" lon="6.74917">
        <ele>1272.73</ele>
        <time>2021-07-21T13:23:50Z</time>
      </trkpt>
      <trkpt lat="44.41472" lon="6.7491">
        <ele>1272.52</ele>
        <time>2021-07-21T13:23:51Z</time>
      </trkpt>
      <trkpt lat="44.41469" lon="6.74903">
        <ele>1272.07</ele>
        <time>2021-07-21T13:23:52Z</time>
      </trkpt>
      <trkpt lat="44.41466" lon="6.74894">
        <ele>1271.55</ele>
        <time>2021-07-21T13:23:53Z</time>
      </trkpt>
      <trkpt lat="44.41464" lon="6.74886">
        <ele>1271.05</ele>
        <time>2021-07-21T13:23:54Z</time>
      </trkpt>
      <trkpt lat="44.41462" lon="6.74879">
        <ele>1270.56</ele>
        <time>2021-07-21T13:23:55Z</time>
      </trkpt>
      <trkpt lat="44.4146" lon="6.74873">
        <ele>1270.23</ele>
        <time>2021-07-21T13:23:56Z</time>
      </trkpt>
      <trkpt lat="44.41458" lon="6.74865">
        <ele>1269.81</ele>
        <time>2021-07-21T13:23:57Z</time>
      </trkpt>
      <trkpt lat="44.41457" lon="6.74856">
        <ele>1269.01</ele>
        <time>2021-07-21T13:23:58Z</time>
      </trkpt>
      <trkpt lat="44.41457" lon="6.74848">
        <ele>1268.01</ele>
        <time>2021-07-21T13:23:59Z</time>
      </trkpt>
      <trkpt lat="44.41457" lon="6.7484">
        <ele>1267.02</ele>
        <time>2021-07-21T13:24:00Z</time>
      </trkpt>
      <trkpt lat="44.41458" lon="6.74831">
        <ele>1265.76</ele>
        <time>2021-07-21T13:24:01Z</time>
      </trkpt>
      <trkpt lat="44.4146" lon="6.74823">
        <ele>1264.44</ele>
        <time>2021-07-21T13:24:02Z</time>
      </trkpt>
      <trkpt lat="44.41462" lon="6.74814">
        <ele>1262.94</ele>
        <time>2021-07-21T13:24:03Z</time>
      </trkpt>
      <trkpt lat="44.41464" lon="6.74807">
        <ele>1261.67</ele>
        <time>2021-07-21T13:24:04Z</time>
      </trkpt>
      <trkpt lat="44.41468" lon="6.74798">
        <ele>1260.17</ele>
        <time>2021-07-21T13:24:05Z</time>
      </trkpt>
      <trkpt lat="44.41471" lon="6.7479">
        <ele>1259.08</ele>
        <time>2021-07-21T13:24:06Z</time>
      </trkpt>
      <trkpt lat="44.41473" lon="6.74783">
        <ele>1258.29</ele>
        <time>2021-07-21T13:24:07Z</time>
      </trkpt>
      <trkpt lat="44.41476" lon="6.74775">
        <ele>1257.49</ele>
        <time>2021-07-21T13:24:08Z</time>
      </trkpt>
      <trkpt lat="44.41478" lon="6.74767">
        <ele>1256.99</ele>
        <time>2021-07-21T13:24:09Z</time>
      </trkpt>
      <trkpt lat="44.4148" lon="6.74761">
        <ele>1256.56</ele>
        <time>2021-07-21T13:24:10Z</time>
      </trkpt>
      <trkpt lat="44.41482" lon="6.74753">
        <ele>1256.05</ele>
        <time>2021-07-21T13:24:11Z</time>
      </trkpt>
      <trkpt lat="44.41483" lon="6.74746">
        <ele>1255.8</ele>
        <time>2021-07-21T13:24:12Z</time>
      </trkpt>
      <trkpt lat="44.41485" lon="6.74738">
        <ele>1255.59</ele>
        <time>2021-07-21T13:24:13Z</time>
      </trkpt>
      <trkpt lat="44.41486" lon="6.74731">
        <ele>1255.51</ele>
        <time>2021-07-21T13:24:14Z</time>
      </trkpt>
      <trkpt lat="44.41487" lon="6.74723">
        <ele>1255.47</ele>
        <time>2021-07-21T13:24:15Z</time>
      </trkpt>
      <trkpt lat="44.41488" lon="6.74715">
        <ele>1255.58</ele>
        <time>2021-07-21T13:24:16Z</time>
      </trkpt>
      <trkpt lat="44.41489" lon="6.74707">
        <ele>1255.73</ele>
        <time>2021-07-21T13:24:17Z</time>
      </trkpt>
      <trkpt lat="44.4149" lon="6.74699">
        <ele>1255.9</ele>
        <time>2021-07-21T13:24:18Z</time>
      </trkpt>
      <trkpt lat="44.41491" lon="6.74692">
        <ele>1255.88</ele>
        <time>2021-07-21T13:24:19Z</time>
      </trkpt>
      <trkpt lat="44.41493" lon="6.74684">
        <ele>1255.53</ele>
        <time>2021-07-21T13:24:20Z</time>
      </trkpt>
      <trkpt lat="44.41495" lon="6.74676">
        <ele>1255.22</ele>
        <time>2021-07-21T13:24:21Z</time>
      </trkpt>
      <trkpt lat="44.41497" lon="6.74669">
        <ele>1254.99</ele>
        <time>2021-07-21T13:24:22Z</time>
      </trkpt>
      <trkpt lat="44.415" lon="6.74661">
        <ele>1254.59</ele>
        <time>2021-07-21T13:24:23Z</time>
      </trkpt>
      <trkpt lat="44.41502" lon="6.74654">
        <ele>1254.19</ele>
        <time>2021-07-21T13:24:24Z</time>
      </trkpt>
      <trkpt lat="44.41504" lon="6.74648">
        <ele>1253.9</ele>
        <time>2021-07-21T13:24:25Z</time>
      </trkpt>
      <trkpt lat="44.41506" lon="6.74642">
        <ele>1253.63</ele>
        <time>2021-07-21T13:24:26Z</time>
      </trkpt>
      <trkpt lat="44.41507" lon="6.74638">
        <ele>1253.46</ele>
        <time>2021-07-21T13:24:27Z</time>
      </trkpt>
      <trkpt lat="44.41509" lon="6.74634">
        <ele>1253.41</ele>
        <time>2021-07-21T13:24:28Z</time>
      </trkpt>
      <trkpt lat="44.41511" lon="6.74628">
        <ele>1253.32</ele>
        <time>2021-07-21T13:24:29Z</time>
      </trkpt>
      <trkpt lat="44.41513" lon="6.74621">
        <ele>1253.25</ele>
        <time>2021-07-21T13:24:30Z</time>
      </trkpt>
      <trkpt lat="44.41515" lon="6.74613">
        <ele>1253.22</ele>
        <time>2021-07-21T13:24:31Z</time>
      </trkpt>
      <trkpt lat="44.41517" lon="6.74606">
        <ele>1253.08</ele>
        <time>2021-07-21T13:24:32Z</time>
      </trkpt>
      <trkpt lat="44.41519" lon="6.74599">
        <ele>1252.86</ele>
        <time>2021-07-21T13:24:33Z</time>
      </trkpt>
      <trkpt lat="44.4152" lon="6.74592">
        <ele>1252.5</ele>
        <time>2021-07-21T13:24:34Z</time>
      </trkpt>
      <trkpt lat="44.41521" lon="6.74584">
        <ele>1252.07</ele>
        <time>2021-07-21T13:24:35Z</time>
      </trkpt>
      <trkpt lat="44.41522" lon="6.74576">
        <ele>1251.22</ele>
        <time>2021-07-21T13:24:36Z</time>
      </trkpt>
      <trkpt lat="44.41522" lon="6.74568">
        <ele>1250.19</ele>
        <time>2021-07-21T13:24:37Z</time>
      </trkpt>
      <trkpt lat="44.41522" lon="6.74561">
        <ele>1249.29</ele>
        <time>2021-07-21T13:24:38Z</time>
      </trkpt>
      <trkpt lat="44.41523" lon="6.74554">
        <ele>1248.46</ele>
        <time>2021-07-21T13:24:39Z</time>
      </trkpt>
      <trkpt lat="44.41523" lon="6.74546">
        <ele>1247.46</ele>
        <time>2021-07-21T13:24:40Z</time>
      </trkpt>
      <trkpt lat="44.41523" lon="6.74538">
        <ele>1246.45</ele>
        <time>2021-07-21T13:24:41Z</time>
      </trkpt>
      <trkpt lat="44.41523" lon="6.74531">
        <ele>1245.58</ele>
        <time>2021-07-21T13:24:42Z</time>
      </trkpt>
      <trkpt lat="44.41523" lon="6.74523">
        <ele>1244.69</ele>
        <time>2021-07-21T13:24:43Z</time>
      </trkpt>
      <trkpt lat="44.41524" lon="6.74515">
        <ele>1243.82</ele>
        <time>2021-07-21T13:24:44Z</time>
      </trkpt>
      <trkpt lat="44.41525" lon="6.74507">
        <ele>1242.93</ele>
        <time>2021-07-21T13:24:45Z</time>
      </trkpt>
      <trkpt lat="44.41527" lon="6.74499">
        <ele>1241.98</ele>
        <time>2021-07-21T13:24:46Z</time>
      </trkpt>
      <trkpt lat="44.41529" lon="6.74492">
        <ele>1241.57</ele>
        <time>2021-07-21T13:24:47Z</time>
      </trkpt>
      <trkpt lat="44.41531" lon="6.74484">
        <ele>1241.18</ele>
        <time>2021-07-21T13:24:48Z</time>
      </trkpt>
      <trkpt lat="44.41534" lon="6.74476">
        <ele>1240.78</ele>
        <time>2021-07-21T13:24:49Z</time>
      </trkpt>
      <trkpt lat="44.41536" lon="6.74469">
        <ele>1240.49</ele>
        <time>2021-07-21T13:24:50Z</time>
      </trkpt>
      <trkpt lat="44.41539" lon="6.74462">
        <ele>1240.36</ele>
        <time>2021-07-21T13:24:51Z</time>
      </trkpt>
      <trkpt lat="44.41542" lon="6.74455">
        <ele>1240.07</ele>
        <time>2021-07-21T13:24:52Z</time>
      </trkpt>
      <trkpt lat="44.41544" lon="6.74448">
        <ele>1239.64</ele>
        <time>2021-07-21T13:24:53Z</time>
      </trkpt>
      <trkpt lat="44.41545" lon="6.74444">
        <ele>1239.36</ele>
        <time>2021-07-21T13:24:54Z</time>
      </trkpt>
      <trkpt lat="44.41548" lon="6.74438">
        <ele>1239.04</ele>
        <time>2021-07-21T13:24:55Z</time>
      </trkpt>
      <trkpt lat="44.4155" lon="6.74431">
        <ele>1238.72</ele>
        <time>2021-07-21T13:24:56Z</time>
      </trkpt>
      <trkpt lat="44.41553" lon="6.74425">
        <ele>1238.39</ele>
        <time>2021-07-21T13:24:57Z</time>
      </trkpt>
      <trkpt lat="44.41555" lon="6.74419">
        <ele>1238.1</ele>
        <time>2021-07-21T13:24:58Z</time>
      </trkpt>
      <trkpt lat="44.41558" lon="6.74412">
        <ele>1237.91</ele>
        <time>2021-07-21T13:24:59Z</time>
      </trkpt>
      <trkpt lat="44.4156" lon="6.74405">
        <ele>1237.67</ele>
        <time>2021-07-21T13:25:00Z</time>
      </trkpt>
      <trkpt lat="44.41563" lon="6.74398">
        <ele>1237.42</ele>
        <time>2021-07-21T13:25:01Z</time>
      </trkpt>
      <trkpt lat="44.41565" lon="6.7439">
        <ele>1237.05</ele>
        <time>2021-07-21T13:25:02Z</time>
      </trkpt>
      <trkpt lat="44.41568" lon="6.74384">
        <ele>1236.82</ele>
        <time>2021-07-21T13:25:03Z</time>
      </trkpt>
      <trkpt lat="44.4157" lon="6.74377">
        <ele>1236.57</ele>
        <time>2021-07-21T13:25:04Z</time>
      </trkpt>
      <trkpt lat="44.41573" lon="6.74372">
        <ele>1236.39</ele>
        <time>2021-07-21T13:25:05Z</time>
      </trkpt>
      <trkpt lat="44.41575" lon="6.74366">
        <ele>1236.18</ele>
        <time>2021-07-21T13:25:06Z</time>
      </trkpt>
      <trkpt lat="44.41578" lon="6.74362">
        <ele>1236.03</ele>
        <time>2021-07-21T13:25:07Z</time>
      </trkpt>
      <trkpt lat="44.4158" lon="6.74358">
        <ele>1235.99</ele>
        <time>2021-07-21T13:25:08Z</time>
      </trkpt>
      <trkpt lat="44.41582" lon="6.74354">
        <ele>1235.99</ele>
        <time>2021-07-21T13:25:09Z</time>
      </trkpt>
      <trkpt lat="44.41584" lon="6.7435">
        <ele>1236</ele>
        <time>2021-07-21T13:25:10Z</time>
      </trkpt>
      <trkpt lat="44.41586" lon="6.74346">
        <ele>1235.99</ele>
        <time>2021-07-21T13:25:11Z</time>
      </trkpt>
      <trkpt lat="44.41588" lon="6.74343">
        <ele>1235.95</ele>
        <time>2021-07-21T13:25:12Z</time>
      </trkpt>
      <trkpt lat="44.41592" lon="6.74341">
        <ele>1235.86</ele>
        <time>2021-07-21T13:25:15Z</time>
      </trkpt>
      <trkpt lat="44.41593" lon="6.74334">
        <ele>1235.67</ele>
        <time>2021-07-21T13:25:16Z</time>
      </trkpt>
      <trkpt lat="44.4159" lon="6.74326">
        <ele>1235.82</ele>
        <time>2021-07-21T13:25:18Z</time>
      </trkpt>
      <trkpt lat="44.41587" lon="6.74318">
        <ele>1235.94</ele>
        <time>2021-07-21T13:25:19Z</time>
      </trkpt>
      <trkpt lat="44.41584" lon="6.74311">
        <ele>1236</ele>
        <time>2021-07-21T13:25:21Z</time>
      </trkpt>
      <trkpt lat="44.41581" lon="6.74304">
        <ele>1235.92</ele>
        <time>2021-07-21T13:25:23Z</time>
      </trkpt>
      <trkpt lat="44.41578" lon="6.74294">
        <ele>1235.89</ele>
        <time>2021-07-21T13:25:26Z</time>
      </trkpt>
      <trkpt lat="44.41576" lon="6.74285">
        <ele>1235.93</ele>
        <time>2021-07-21T13:25:28Z</time>
      </trkpt>
      <trkpt lat="44.41575" lon="6.74272">
        <ele>1236</ele>
        <time>2021-07-21T13:25:32Z</time>
      </trkpt>
      <trkpt lat="44.41573" lon="6.74265">
        <ele>1236</ele>
        <time>2021-07-21T13:25:33Z</time>
      </trkpt>
      <trkpt lat="44.41572" lon="6.74259">
        <ele>1236</ele>
        <time>2021-07-21T13:25:34Z</time>
      </trkpt>
      <trkpt lat="44.41571" lon="6.74255">
        <ele>1236</ele>
        <time>2021-07-21T13:25:35Z</time>
      </trkpt>
      <trkpt lat="44.4157" lon="6.74251">
        <ele>1236</ele>
        <time>2021-07-21T13:25:36Z</time>
      </trkpt>
      <trkpt lat="44.41567" lon="6.74245">
        <ele>1235.82</ele>
        <time>2021-07-21T13:25:39Z</time>
      </trkpt>
      <trkpt lat="44.41563" lon="6.74242">
        <ele>1235.71</ele>
        <time>2021-07-21T13:25:42Z</time>
      </trkpt>
      <trkpt lat="44.41559" lon="6.74239">
        <ele>1235.6</ele>
        <time>2021-07-21T13:25:43Z</time>
      </trkpt>
      <trkpt lat="44.41553" lon="6.74235">
        <ele>1235.55</ele>
        <time>2021-07-21T13:25:44Z</time>
      </trkpt>
      <trkpt lat="44.41544" lon="6.74229">
        <ele>1235.66</ele>
        <time>2021-07-21T13:25:47Z</time>
      </trkpt>
      <trkpt lat="44.41534" lon="6.74222">
        <ele>1235.78</ele>
        <time>2021-07-21T13:25:49Z</time>
      </trkpt>
      <trkpt lat="44.41528" lon="6.74219">
        <ele>1235.99</ele>
        <time>2021-07-21T13:25:51Z</time>
      </trkpt>
      <trkpt lat="44.41521" lon="6.74216">
        <ele>1236.68</ele>
        <time>2021-07-21T13:25:54Z</time>
      </trkpt>
      <trkpt lat="44.41515" lon="6.74213">
        <ele>1237.23</ele>
        <time>2021-07-21T13:25:56Z</time>
      </trkpt>
      <trkpt lat="44.41508" lon="6.7421">
        <ele>1237.82</ele>
        <time>2021-07-21T13:25:58Z</time>
      </trkpt>
      <trkpt lat="44.41502" lon="6.74207">
        <ele>1238.28</ele>
        <time>2021-07-21T13:26:00Z</time>
      </trkpt>
      <trkpt lat="44.41496" lon="6.74205">
        <ele>1238.81</ele>
        <time>2021-07-21T13:26:02Z</time>
      </trkpt>
      <trkpt lat="44.41489" lon="6.74201">
        <ele>1239.42</ele>
        <time>2021-07-21T13:26:07Z</time>
      </trkpt>
      <trkpt lat="44.41483" lon="6.74196">
        <ele>1239.89</ele>
        <time>2021-07-21T13:26:10Z</time>
      </trkpt>
      <trkpt lat="44.41476" lon="6.74194">
        <ele>1240.56</ele>
        <time>2021-07-21T13:26:14Z</time>
      </trkpt>
      <trkpt lat="44.41471" lon="6.74195">
        <ele>1241.02</ele>
        <time>2021-07-21T13:26:18Z</time>
      </trkpt>
      <trkpt lat="44.4147" lon="6.7419">
        <ele>1240.71</ele>
        <time>2021-07-21T13:26:55Z</time>
      </trkpt>
      <trkpt lat="44.41471" lon="6.74185">
        <ele>1240.35</ele>
        <time>2021-07-21T13:26:57Z</time>
      </trkpt>
      <trkpt lat="44.41473" lon="6.7418">
        <ele>1239.86</ele>
        <time>2021-07-21T13:26:59Z</time>
      </trkpt>
      <trkpt lat="44.41475" lon="6.74174">
        <ele>1239.15</ele>
        <time>2021-07-21T13:27:01Z</time>
      </trkpt>
      <trkpt lat="44.41476" lon="6.74169">
        <ele>1238.64</ele>
        <time>2021-07-21T13:27:03Z</time>
      </trkpt>
      <trkpt lat="44.41478" lon="6.74159">
        <ele>1237.89</ele>
        <time>2021-07-21T13:27:05Z</time>
      </trkpt>
      <trkpt lat="44.41478" lon="6.74148">
        <ele>1237.5</ele>
        <time>2021-07-21T13:27:08Z</time>
      </trkpt>
      <trkpt lat="44.41477" lon="6.74138">
        <ele>1237.24</ele>
        <time>2021-07-21T13:27:12Z</time>
      </trkpt>
      <trkpt lat="44.41477" lon="6.74128">
        <ele>1236.39</ele>
        <time>2021-07-21T13:27:16Z</time>
      </trkpt>
      <trkpt lat="44.41477" lon="6.74119">
        <ele>1235.63</ele>
        <time>2021-07-21T13:27:20Z</time>
      </trkpt>
      <trkpt lat="44.41477" lon="6.74111">
        <ele>1234.96</ele>
        <time>2021-07-21T13:27:23Z</time>
      </trkpt>
      <trkpt lat="44.41477" lon="6.74101">
        <ele>1234.24</ele>
        <time>2021-07-21T13:27:26Z</time>
      </trkpt>
      <trkpt lat="44.41477" lon="6.74095">
        <ele>1233.81</ele>
        <time>2021-07-21T13:27:28Z</time>
      </trkpt>
      <trkpt lat="44.41477" lon="6.74089">
        <ele>1233.38</ele>
        <time>2021-07-21T13:27:30Z</time>
      </trkpt>
      <trkpt lat="44.41478" lon="6.74082">
        <ele>1232.74</ele>
        <time>2021-07-21T13:27:32Z</time>
      </trkpt>
      <trkpt lat="44.41479" lon="6.74075">
        <ele>1232.46</ele>
        <time>2021-07-21T13:27:34Z</time>
      </trkpt>
      <trkpt lat="44.41479" lon="6.74071">
        <ele>1232.43</ele>
        <time>2021-07-21T13:27:35Z</time>
      </trkpt>
      <trkpt lat="44.41481" lon="6.74064">
        <ele>1231.88</ele>
        <time>2021-07-21T13:27:37Z</time>
      </trkpt>
      <trkpt lat="44.41482" lon="6.7406">
        <ele>1231.59</ele>
        <time>2021-07-21T13:27:38Z</time>
      </trkpt>
      <trkpt lat="44.41483" lon="6.74056">
        <ele>1231.29</ele>
        <time>2021-07-21T13:27:40Z</time>
      </trkpt>
      <trkpt lat="44.41485" lon="6.74049">
        <ele>1230.89</ele>
        <time>2021-07-21T13:27:41Z</time>
      </trkpt>
      <trkpt lat="44.41487" lon="6.74041">
        <ele>1230.55</ele>
        <time>2021-07-21T13:27:43Z</time>
      </trkpt>
      <trkpt lat="44.41488" lon="6.74032">
        <ele>1230.51</ele>
        <time>2021-07-21T13:27:45Z</time>
      </trkpt>
      <trkpt lat="44.4149" lon="6.74022">
        <ele>1230.22</ele>
        <time>2021-07-21T13:27:48Z</time>
      </trkpt>
      <trkpt lat="44.41491" lon="6.74013">
        <ele>1230.13</ele>
        <time>2021-07-21T13:27:49Z</time>
      </trkpt>
      <trkpt lat="44.41493" lon="6.74003">
        <ele>1229.95</ele>
        <time>2021-07-21T13:27:52Z</time>
      </trkpt>
      <trkpt lat="44.41494" lon="6.73994">
        <ele>1230.08</ele>
        <time>2021-07-21T13:27:54Z</time>
      </trkpt>
      <trkpt lat="44.41496" lon="6.73986">
        <ele>1230.08</ele>
        <time>2021-07-21T13:27:56Z</time>
      </trkpt>
      <trkpt lat="44.41499" lon="6.73975">
        <ele>1230.04</ele>
        <time>2021-07-21T13:27:59Z</time>
      </trkpt>
      <trkpt lat="44.41505" lon="6.73969">
        <ele>1229.52</ele>
        <time>2021-07-21T13:28:01Z</time>
      </trkpt>
      <trkpt lat="44.41511" lon="6.73965">
        <ele>1228.95</ele>
        <time>2021-07-21T13:28:03Z</time>
      </trkpt>
      <trkpt lat="44.41513" lon="6.73963">
        <ele>1228.73</ele>
        <time>2021-07-21T13:28:04Z</time>
      </trkpt>
      <trkpt lat="44.41516" lon="6.73961">
        <ele>1228.44</ele>
        <time>2021-07-21T13:28:05Z</time>
      </trkpt>
      <trkpt lat="44.41519" lon="6.73958">
        <ele>1228.12</ele>
        <time>2021-07-21T13:28:07Z</time>
      </trkpt>
      <trkpt lat="44.41524" lon="6.73954">
        <ele>1227.62</ele>
        <time>2021-07-21T13:28:08Z</time>
      </trkpt>
      <trkpt lat="44.41528" lon="6.73951">
        <ele>1227.25</ele>
        <time>2021-07-21T13:28:09Z</time>
      </trkpt>
      <trkpt lat="44.41531" lon="6.73948">
        <ele>1227.43</ele>
        <time>2021-07-21T13:28:10Z</time>
      </trkpt>
      <trkpt lat="44.41533" lon="6.73946">
        <ele>1227.59</ele>
        <time>2021-07-21T13:28:11Z</time>
      </trkpt>
      <trkpt lat="44.41536" lon="6.73943">
        <ele>1227.85</ele>
        <time>2021-07-21T13:28:12Z</time>
      </trkpt>
      <trkpt lat="44.41538" lon="6.7394">
        <ele>1228</ele>
        <time>2021-07-21T13:28:13Z</time>
      </trkpt>
      <trkpt lat="44.4154" lon="6.73937">
        <ele>1228.17</ele>
        <time>2021-07-21T13:28:14Z</time>
      </trkpt>
      <trkpt lat="44.41542" lon="6.73934">
        <ele>1228.35</ele>
        <time>2021-07-21T13:28:15Z</time>
      </trkpt>
      <trkpt lat="44.41545" lon="6.73932">
        <ele>1228.69</ele>
        <time>2021-07-21T13:28:16Z</time>
      </trkpt>
      <trkpt lat="44.41547" lon="6.73928">
        <ele>1228.89</ele>
        <time>2021-07-21T13:28:17Z</time>
      </trkpt>
      <trkpt lat="44.41549" lon="6.73925">
        <ele>1229.13</ele>
        <time>2021-07-21T13:28:18Z</time>
      </trkpt>
      <trkpt lat="44.41551" lon="6.73922">
        <ele>1229.38</ele>
        <time>2021-07-21T13:28:19Z</time>
      </trkpt>
      <trkpt lat="44.41553" lon="6.73917">
        <ele>1229.63</ele>
        <time>2021-07-21T13:28:21Z</time>
      </trkpt>
      <trkpt lat="44.41557" lon="6.73912">
        <ele>1229.68</ele>
        <time>2021-07-21T13:28:22Z</time>
      </trkpt>
      <trkpt lat="44.4156" lon="6.73905">
        <ele>1229.1</ele>
        <time>2021-07-21T13:28:24Z</time>
      </trkpt>
      <trkpt lat="44.41563" lon="6.73898">
        <ele>1228.52</ele>
        <time>2021-07-21T13:28:26Z</time>
      </trkpt>
      <trkpt lat="44.41566" lon="6.73891">
        <ele>1227.95</ele>
        <time>2021-07-21T13:28:28Z</time>
      </trkpt>
      <trkpt lat="44.41568" lon="6.73885">
        <ele>1227.24</ele>
        <time>2021-07-21T13:28:30Z</time>
      </trkpt>
      <trkpt lat="44.41569" lon="6.73881">
        <ele>1226.7</ele>
        <time>2021-07-21T13:28:31Z</time>
      </trkpt>
      <trkpt lat="44.4157" lon="6.73877">
        <ele>1226.16</ele>
        <time>2021-07-21T13:28:32Z</time>
      </trkpt>
      <trkpt lat="44.41572" lon="6.73874">
        <ele>1225.62</ele>
        <time>2021-07-21T13:28:33Z</time>
      </trkpt>
      <trkpt lat="44.41573" lon="6.7387">
        <ele>1225.08</ele>
        <time>2021-07-21T13:28:34Z</time>
      </trkpt>
      <trkpt lat="44.41574" lon="6.73866">
        <ele>1224.54</ele>
        <time>2021-07-21T13:28:35Z</time>
      </trkpt>
      <trkpt lat="44.41576" lon="6.73862">
        <ele>1223.89</ele>
        <time>2021-07-21T13:28:36Z</time>
      </trkpt>
      <trkpt lat="44.41578" lon="6.73858">
        <ele>1223.37</ele>
        <time>2021-07-21T13:28:37Z</time>
      </trkpt>
      <trkpt lat="44.41581" lon="6.73853">
        <ele>1222.69</ele>
        <time>2021-07-21T13:28:38Z</time>
      </trkpt>
      <trkpt lat="44.41583" lon="6.73849">
        <ele>1222.17</ele>
        <time>2021-07-21T13:28:39Z</time>
      </trkpt>
      <trkpt lat="44.41585" lon="6.73844">
        <ele>1221.68</ele>
        <time>2021-07-21T13:28:41Z</time>
      </trkpt>
      <trkpt lat="44.41589" lon="6.73836">
        <ele>1220.97</ele>
        <time>2021-07-21T13:28:42Z</time>
      </trkpt>
      <trkpt lat="44.41591" lon="6.7383">
        <ele>1220.88</ele>
        <time>2021-07-21T13:28:43Z</time>
      </trkpt>
      <trkpt lat="44.41593" lon="6.73826">
        <ele>1221.01</ele>
        <time>2021-07-21T13:28:44Z</time>
      </trkpt>
      <trkpt lat="44.41596" lon="6.73821">
        <ele>1221.19</ele>
        <time>2021-07-21T13:28:46Z</time>
      </trkpt>
      <trkpt lat="44.41599" lon="6.73815">
        <ele>1221.47</ele>
        <time>2021-07-21T13:28:47Z</time>
      </trkpt>
      <trkpt lat="44.41602" lon="6.7381">
        <ele>1221.73</ele>
        <time>2021-07-21T13:28:49Z</time>
      </trkpt>
      <trkpt lat="44.41609" lon="6.73797">
        <ele>1222.64</ele>
        <time>2021-07-21T13:28:52Z</time>
      </trkpt>
      <trkpt lat="44.41618" lon="6.73786">
        <ele>1223.41</ele>
        <time>2021-07-21T13:28:55Z</time>
      </trkpt>
      <trkpt lat="44.41626" lon="6.73781">
        <ele>1223.77</ele>
        <time>2021-07-21T13:28:57Z</time>
      </trkpt>
      <trkpt lat="44.41634" lon="6.73776">
        <ele>1223.94</ele>
        <time>2021-07-21T13:28:59Z</time>
      </trkpt>
      <trkpt lat="44.41641" lon="6.73772">
        <ele>1223.62</ele>
        <time>2021-07-21T13:29:00Z</time>
      </trkpt>
      <trkpt lat="44.41649" lon="6.73766">
        <ele>1222.69</ele>
        <time>2021-07-21T13:29:02Z</time>
      </trkpt>
      <trkpt lat="44.41658" lon="6.73759">
        <ele>1221.48</ele>
        <time>2021-07-21T13:29:04Z</time>
      </trkpt>
      <trkpt lat="44.41662" lon="6.73756">
        <ele>1220.9</ele>
        <time>2021-07-21T13:29:05Z</time>
      </trkpt>
      <trkpt lat="44.41665" lon="6.73749">
        <ele>1220.18</ele>
        <time>2021-07-21T13:29:07Z</time>
      </trkpt>
      <trkpt lat="44.41669" lon="6.73743">
        <ele>1219.71</ele>
        <time>2021-07-21T13:29:08Z</time>
      </trkpt>
      <trkpt lat="44.41675" lon="6.73739">
        <ele>1218.86</ele>
        <time>2021-07-21T13:29:10Z</time>
      </trkpt>
      <trkpt lat="44.41682" lon="6.73734">
        <ele>1217.71</ele>
        <time>2021-07-21T13:29:12Z</time>
      </trkpt>
      <trkpt lat="44.41688" lon="6.73729">
        <ele>1216.53</ele>
        <time>2021-07-21T13:29:15Z</time>
      </trkpt>
      <trkpt lat="44.41694" lon="6.73724">
        <ele>1215.21</ele>
        <time>2021-07-21T13:29:16Z</time>
      </trkpt>
      <trkpt lat="44.41701" lon="6.73718">
        <ele>1215.15</ele>
        <time>2021-07-21T13:29:19Z</time>
      </trkpt>
      <trkpt lat="44.41708" lon="6.73711">
        <ele>1215.4</ele>
        <time>2021-07-21T13:29:21Z</time>
      </trkpt>
      <trkpt lat="44.41717" lon="6.73703">
        <ele>1215.69</ele>
        <time>2021-07-21T13:29:23Z</time>
      </trkpt>
      <trkpt lat="44.41723" lon="6.73698">
        <ele>1215.98</ele>
        <time>2021-07-21T13:29:25Z</time>
      </trkpt>
      <trkpt lat="44.4173" lon="6.73692">
        <ele>1217.45</ele>
        <time>2021-07-21T13:29:28Z</time>
      </trkpt>
      <trkpt lat="44.41736" lon="6.73687">
        <ele>1218.92</ele>
        <time>2021-07-21T13:29:29Z</time>
      </trkpt>
      <trkpt lat="44.41742" lon="6.73682">
        <ele>1220.32</ele>
        <time>2021-07-21T13:29:31Z</time>
      </trkpt>
      <trkpt lat="44.41749" lon="6.73679">
        <ele>1221.54</ele>
        <time>2021-07-21T13:29:34Z</time>
      </trkpt>
      <trkpt lat="44.41753" lon="6.73685">
        <ele>1221.77</ele>
        <time>2021-07-21T13:29:36Z</time>
      </trkpt>
      <trkpt lat="44.41755" lon="6.73694">
        <ele>1221.48</ele>
        <time>2021-07-21T13:29:39Z</time>
      </trkpt>
      <trkpt lat="44.41758" lon="6.73704">
        <ele>1221.57</ele>
        <time>2021-07-21T13:29:43Z</time>
      </trkpt>
      <trkpt lat="44.41762" lon="6.7371">
        <ele>1222.5</ele>
        <time>2021-07-21T13:29:46Z</time>
      </trkpt>
      <trkpt lat="44.41768" lon="6.73719">
        <ele>1224.25</ele>
        <time>2021-07-21T13:29:49Z</time>
      </trkpt>
      <trkpt lat="44.4177" lon="6.73729">
        <ele>1224.71</ele>
        <time>2021-07-21T13:29:51Z</time>
      </trkpt>
      <trkpt lat="44.41772" lon="6.73739">
        <ele>1225.01</ele>
        <time>2021-07-21T13:29:54Z</time>
      </trkpt>
      <trkpt lat="44.41775" lon="6.73751">
        <ele>1225.31</ele>
        <time>2021-07-21T13:29:57Z</time>
      </trkpt>
      <trkpt lat="44.41778" lon="6.73759">
        <ele>1226.05</ele>
        <time>2021-07-21T13:29:58Z</time>
      </trkpt>
      <trkpt lat="44.41782" lon="6.73768">
        <ele>1226.82</ele>
        <time>2021-07-21T13:30:00Z</time>
      </trkpt>
      <trkpt lat="44.41786" lon="6.73782">
        <ele>1226.84</ele>
        <time>2021-07-21T13:30:04Z</time>
      </trkpt>
      <trkpt lat="44.4179" lon="6.73789">
        <ele>1226.77</ele>
        <time>2021-07-21T13:30:05Z</time>
      </trkpt>
      <trkpt lat="44.41796" lon="6.73801">
        <ele>1226.4</ele>
        <time>2021-07-21T13:30:08Z</time>
      </trkpt>
      <trkpt lat="44.41799" lon="6.73807">
        <ele>1226.16</ele>
        <time>2021-07-21T13:30:10Z</time>
      </trkpt>
      <trkpt lat="44.41801" lon="6.73812">
        <ele>1225.89</ele>
        <time>2021-07-21T13:30:10Z</time>
      </trkpt>
      <trkpt lat="44.41804" lon="6.73816">
        <ele>1225.75</ele>
        <time>2021-07-21T13:30:11Z</time>
      </trkpt>
      <trkpt lat="44.41806" lon="6.7382">
        <ele>1225.53</ele>
        <time>2021-07-21T13:30:12Z</time>
      </trkpt>
      <trkpt lat="44.41809" lon="6.73825">
        <ele>1225.56</ele>
        <time>2021-07-21T13:30:13Z</time>
      </trkpt>
      <trkpt lat="44.41812" lon="6.73828">
        <ele>1225.78</ele>
        <time>2021-07-21T13:30:14Z</time>
      </trkpt>
      <trkpt lat="44.41816" lon="6.73831">
        <ele>1226.16</ele>
        <time>2021-07-21T13:30:16Z</time>
      </trkpt>
      <trkpt lat="44.41819" lon="6.73835">
        <ele>1226.27</ele>
        <time>2021-07-21T13:30:16Z</time>
      </trkpt>
      <trkpt lat="44.41822" lon="6.7384">
        <ele>1226.29</ele>
        <time>2021-07-21T13:30:17Z</time>
      </trkpt>
      <trkpt lat="44.41827" lon="6.73844">
        <ele>1226.59</ele>
        <time>2021-07-21T13:30:18Z</time>
      </trkpt>
      <trkpt lat="44.41831" lon="6.73848">
        <ele>1226.6</ele>
        <time>2021-07-21T13:30:20Z</time>
      </trkpt>
      <trkpt lat="44.41838" lon="6.73852">
        <ele>1227.43</ele>
        <time>2021-07-21T13:30:22Z</time>
      </trkpt>
      <trkpt lat="44.41844" lon="6.73859">
        <ele>1227.67</ele>
        <time>2021-07-21T13:30:24Z</time>
      </trkpt>
      <trkpt lat="44.41849" lon="6.73865">
        <ele>1228.09</ele>
        <time>2021-07-21T13:30:26Z</time>
      </trkpt>
      <trkpt lat="44.41855" lon="6.73872">
        <ele>1228.68</ele>
        <time>2021-07-21T13:30:27Z</time>
      </trkpt>
      <trkpt lat="44.41861" lon="6.7388">
        <ele>1228.94</ele>
        <time>2021-07-21T13:30:29Z</time>
      </trkpt>
      <trkpt lat="44.41868" lon="6.73889">
        <ele>1227.99</ele>
        <time>2021-07-21T13:30:32Z</time>
      </trkpt>
      <trkpt lat="44.41878" lon="6.739">
        <ele>1227.77</ele>
        <time>2021-07-21T13:30:35Z</time>
      </trkpt>
      <trkpt lat="44.41885" lon="6.73908">
        <ele>1228.3</ele>
        <time>2021-07-21T13:30:37Z</time>
      </trkpt>
      <trkpt lat="44.41891" lon="6.73915">
        <ele>1229.26</ele>
        <time>2021-07-21T13:30:38Z</time>
      </trkpt>
      <trkpt lat="44.41897" lon="6.73922">
        <ele>1229.86</ele>
        <time>2021-07-21T13:30:40Z</time>
      </trkpt>
      <trkpt lat="44.41902" lon="6.73927">
        <ele>1230.16</ele>
        <time>2021-07-21T13:30:42Z</time>
      </trkpt>
      <trkpt lat="44.41906" lon="6.73932">
        <ele>1230.23</ele>
        <time>2021-07-21T13:30:44Z</time>
      </trkpt>
      <trkpt lat="44.41913" lon="6.73938">
        <ele>1230.37</ele>
        <time>2021-07-21T13:30:45Z</time>
      </trkpt>
      <trkpt lat="44.41921" lon="6.73946">
        <ele>1228.8</ele>
        <time>2021-07-21T13:30:47Z</time>
      </trkpt>
      <trkpt lat="44.41925" lon="6.73952">
        <ele>1227</ele>
        <time>2021-07-21T13:30:49Z</time>
      </trkpt>
      <trkpt lat="44.41934" lon="6.73961">
        <ele>1224.02</ele>
        <time>2021-07-21T13:30:52Z</time>
      </trkpt>
      <trkpt lat="44.4194" lon="6.73968">
        <ele>1222.14</ele>
        <time>2021-07-21T13:30:54Z</time>
      </trkpt>
      <trkpt lat="44.41947" lon="6.73976">
        <ele>1220.35</ele>
        <time>2021-07-21T13:30:56Z</time>
      </trkpt>
      <trkpt lat="44.41951" lon="6.73986">
        <ele>1219.16</ele>
        <time>2021-07-21T13:30:59Z</time>
      </trkpt>
      <trkpt lat="44.41953" lon="6.73993">
        <ele>1218.52</ele>
        <time>2021-07-21T13:31:02Z</time>
      </trkpt>
      <trkpt lat="44.41959" lon="6.73993">
        <ele>1218.36</ele>
        <time>2021-07-21T13:31:21Z</time>
      </trkpt>
      <trkpt lat="44.41962" lon="6.73992">
        <ele>1218.32</ele>
        <time>2021-07-21T13:31:22Z</time>
      </trkpt>
      <trkpt lat="44.41968" lon="6.7399">
        <ele>1218.16</ele>
        <time>2021-07-21T13:31:23Z</time>
      </trkpt>
      <trkpt lat="44.41973" lon="6.73987">
        <ele>1217.99</ele>
        <time>2021-07-21T13:31:24Z</time>
      </trkpt>
      <trkpt lat="44.41979" lon="6.73979">
        <ele>1217.69</ele>
        <time>2021-07-21T13:31:25Z</time>
      </trkpt>
      <trkpt lat="44.41983" lon="6.73974">
        <ele>1217.3</ele>
        <time>2021-07-21T13:31:26Z</time>
      </trkpt>
      <trkpt lat="44.41987" lon="6.73969">
        <ele>1216.76</ele>
        <time>2021-07-21T13:31:27Z</time>
      </trkpt>
      <trkpt lat="44.4199" lon="6.73965">
        <ele>1216.29</ele>
        <time>2021-07-21T13:31:28Z</time>
      </trkpt>
      <trkpt lat="44.41993" lon="6.7396">
        <ele>1215.73</ele>
        <time>2021-07-21T13:31:29Z</time>
      </trkpt>
      <trkpt lat="44.41996" lon="6.73954">
        <ele>1215.07</ele>
        <time>2021-07-21T13:31:30Z</time>
      </trkpt>
      <trkpt lat="44.41998" lon="6.73949">
        <ele>1214.53</ele>
        <time>2021-07-21T13:31:32Z</time>
      </trkpt>
      <trkpt lat="44.42002" lon="6.73938">
        <ele>1214.27</ele>
        <time>2021-07-21T13:31:33Z</time>
      </trkpt>
      <trkpt lat="44.42004" lon="6.73931">
        <ele>1214.52</ele>
        <time>2021-07-21T13:31:34Z</time>
      </trkpt>
      <trkpt lat="44.42005" lon="6.73924">
        <ele>1214.52</ele>
        <time>2021-07-21T13:31:36Z</time>
      </trkpt>
      <trkpt lat="44.42007" lon="6.73915">
        <ele>1214.69</ele>
        <time>2021-07-21T13:31:37Z</time>
      </trkpt>
      <trkpt lat="44.42008" lon="6.73908">
        <ele>1214.57</ele>
        <time>2021-07-21T13:31:38Z</time>
      </trkpt>
      <trkpt lat="44.42009" lon="6.73901">
        <ele>1214.35</ele>
        <time>2021-07-21T13:31:39Z</time>
      </trkpt>
      <trkpt lat="44.4201" lon="6.73895">
        <ele>1214.12</ele>
        <time>2021-07-21T13:31:40Z</time>
      </trkpt>
      <trkpt lat="44.4201" lon="6.7389">
        <ele>1213.79</ele>
        <time>2021-07-21T13:31:42Z</time>
      </trkpt>
      <trkpt lat="44.42012" lon="6.73879">
        <ele>1213.86</ele>
        <time>2021-07-21T13:31:43Z</time>
      </trkpt>
      <trkpt lat="44.42013" lon="6.73872">
        <ele>1213.94</ele>
        <time>2021-07-21T13:31:44Z</time>
      </trkpt>
      <trkpt lat="44.42014" lon="6.73863">
        <ele>1214.01</ele>
        <time>2021-07-21T13:31:46Z</time>
      </trkpt>
      <trkpt lat="44.42016" lon="6.73854">
        <ele>1214.88</ele>
        <time>2021-07-21T13:31:47Z</time>
      </trkpt>
      <trkpt lat="44.42017" lon="6.73848">
        <ele>1215.53</ele>
        <time>2021-07-21T13:31:48Z</time>
      </trkpt>
      <trkpt lat="44.42018" lon="6.7384">
        <ele>1216.35</ele>
        <time>2021-07-21T13:31:50Z</time>
      </trkpt>
      <trkpt lat="44.42019" lon="6.73831">
        <ele>1217.14</ele>
        <time>2021-07-21T13:31:51Z</time>
      </trkpt>
      <trkpt lat="44.4202" lon="6.73823">
        <ele>1217.58</ele>
        <time>2021-07-21T13:31:53Z</time>
      </trkpt>
      <trkpt lat="44.42022" lon="6.73811">
        <ele>1218.14</ele>
        <time>2021-07-21T13:31:54Z</time>
      </trkpt>
      <trkpt lat="44.42023" lon="6.73804">
        <ele>1218.36</ele>
        <time>2021-07-21T13:31:55Z</time>
      </trkpt>
      <trkpt lat="44.42023" lon="6.73797">
        <ele>1218.45</ele>
        <time>2021-07-21T13:31:56Z</time>
      </trkpt>
      <trkpt lat="44.42024" lon="6.7379">
        <ele>1218.42</ele>
        <time>2021-07-21T13:31:57Z</time>
      </trkpt>
      <trkpt lat="44.42026" lon="6.73783">
        <ele>1218.23</ele>
        <time>2021-07-21T13:31:58Z</time>
      </trkpt>
      <trkpt lat="44.42027" lon="6.73775">
        <ele>1218.01</ele>
        <time>2021-07-21T13:31:59Z</time>
      </trkpt>
      <trkpt lat="44.42028" lon="6.73768">
        <ele>1217.64</ele>
        <time>2021-07-21T13:32:00Z</time>
      </trkpt>
      <trkpt lat="44.42029" lon="6.73761">
        <ele>1217.34</ele>
        <time>2021-07-21T13:32:01Z</time>
      </trkpt>
      <trkpt lat="44.42031" lon="6.73753">
        <ele>1216.9</ele>
        <time>2021-07-21T13:32:02Z</time>
      </trkpt>
      <trkpt lat="44.42033" lon="6.73746">
        <ele>1216.39</ele>
        <time>2021-07-21T13:32:03Z</time>
      </trkpt>
      <trkpt lat="44.42035" lon="6.73738">
        <ele>1215.84</ele>
        <time>2021-07-21T13:32:04Z</time>
      </trkpt>
      <trkpt lat="44.42038" lon="6.7373">
        <ele>1215.35</ele>
        <time>2021-07-21T13:32:05Z</time>
      </trkpt>
      <trkpt lat="44.4204" lon="6.73722">
        <ele>1215.01</ele>
        <time>2021-07-21T13:32:06Z</time>
      </trkpt>
      <trkpt lat="44.42042" lon="6.73715">
        <ele>1215.27</ele>
        <time>2021-07-21T13:32:07Z</time>
      </trkpt>
      <trkpt lat="44.42044" lon="6.73711">
        <ele>1215.47</ele>
        <time>2021-07-21T13:32:08Z</time>
      </trkpt>
      <trkpt lat="44.42046" lon="6.73704">
        <ele>1215.86</ele>
        <time>2021-07-21T13:32:09Z</time>
      </trkpt>
      <trkpt lat="44.42048" lon="6.737">
        <ele>1216.16</ele>
        <time>2021-07-21T13:32:10Z</time>
      </trkpt>
      <trkpt lat="44.4205" lon="6.73695">
        <ele>1216.57</ele>
        <time>2021-07-21T13:32:11Z</time>
      </trkpt>
      <trkpt lat="44.42053" lon="6.73689">
        <ele>1217.55</ele>
        <time>2021-07-21T13:32:12Z</time>
      </trkpt>
      <trkpt lat="44.42055" lon="6.73685">
        <ele>1218.3</ele>
        <time>2021-07-21T13:32:13Z</time>
      </trkpt>
      <trkpt lat="44.42058" lon="6.73682">
        <ele>1218.93</ele>
        <time>2021-07-21T13:32:14Z</time>
      </trkpt>
      <trkpt lat="44.4206" lon="6.73679">
        <ele>1219.46</ele>
        <time>2021-07-21T13:32:15Z</time>
      </trkpt>
      <trkpt lat="44.42064" lon="6.73676">
        <ele>1220.06</ele>
        <time>2021-07-21T13:32:17Z</time>
      </trkpt>
      <trkpt lat="44.4207" lon="6.73676">
        <ele>1220.35</ele>
        <time>2021-07-21T13:32:19Z</time>
      </trkpt>
      <trkpt lat="44.42077" lon="6.73676">
        <ele>1220.69</ele>
        <time>2021-07-21T13:32:20Z</time>
      </trkpt>
      <trkpt lat="44.42084" lon="6.73677">
        <ele>1220.83</ele>
        <time>2021-07-21T13:32:22Z</time>
      </trkpt>
      <trkpt lat="44.42091" lon="6.7368">
        <ele>1219.88</ele>
        <time>2021-07-21T13:32:23Z</time>
      </trkpt>
      <trkpt lat="44.42097" lon="6.73684">
        <ele>1218.84</ele>
        <time>2021-07-21T13:32:25Z</time>
      </trkpt>
      <trkpt lat="44.42105" lon="6.73688">
        <ele>1217.54</ele>
        <time>2021-07-21T13:32:26Z</time>
      </trkpt>
      <trkpt lat="44.4211" lon="6.73691">
        <ele>1216.61</ele>
        <time>2021-07-21T13:32:28Z</time>
      </trkpt>
      <trkpt lat="44.42116" lon="6.73693">
        <ele>1215.67</ele>
        <time>2021-07-21T13:32:29Z</time>
      </trkpt>
      <trkpt lat="44.42121" lon="6.73694">
        <ele>1214.99</ele>
        <time>2021-07-21T13:32:31Z</time>
      </trkpt>
      <trkpt lat="44.4213" lon="6.73698">
        <ele>1213.62</ele>
        <time>2021-07-21T13:32:32Z</time>
      </trkpt>
      <trkpt lat="44.42134" lon="6.737">
        <ele>1212.96</ele>
        <time>2021-07-21T13:32:33Z</time>
      </trkpt>
      <trkpt lat="44.42139" lon="6.73701">
        <ele>1212.29</ele>
        <time>2021-07-21T13:32:34Z</time>
      </trkpt>
      <trkpt lat="44.42143" lon="6.73703">
        <ele>1212.12</ele>
        <time>2021-07-21T13:32:35Z</time>
      </trkpt>
      <trkpt lat="44.42148" lon="6.73705">
        <ele>1211.98</ele>
        <time>2021-07-21T13:32:36Z</time>
      </trkpt>
      <trkpt lat="44.42153" lon="6.73706">
        <ele>1211.96</ele>
        <time>2021-07-21T13:32:37Z</time>
      </trkpt>
      <trkpt lat="44.42157" lon="6.73708">
        <ele>1211.85</ele>
        <time>2021-07-21T13:32:38Z</time>
      </trkpt>
      <trkpt lat="44.42162" lon="6.73709">
        <ele>1211.86</ele>
        <time>2021-07-21T13:32:39Z</time>
      </trkpt>
      <trkpt lat="44.42167" lon="6.73711">
        <ele>1211.78</ele>
        <time>2021-07-21T13:32:40Z</time>
      </trkpt>
      <trkpt lat="44.42172" lon="6.73712">
        <ele>1211.28</ele>
        <time>2021-07-21T13:32:41Z</time>
      </trkpt>
      <trkpt lat="44.42177" lon="6.73714">
        <ele>1210.74</ele>
        <time>2021-07-21T13:32:42Z</time>
      </trkpt>
      <trkpt lat="44.42182" lon="6.73715">
        <ele>1210.27</ele>
        <time>2021-07-21T13:32:43Z</time>
      </trkpt>
      <trkpt lat="44.42187" lon="6.73717">
        <ele>1209.77</ele>
        <time>2021-07-21T13:32:44Z</time>
      </trkpt>
      <trkpt lat="44.42192" lon="6.73717">
        <ele>1209.38</ele>
        <time>2021-07-21T13:32:45Z</time>
      </trkpt>
      <trkpt lat="44.42197" lon="6.73718">
        <ele>1208.59</ele>
        <time>2021-07-21T13:32:46Z</time>
      </trkpt>
      <trkpt lat="44.42202" lon="6.7372">
        <ele>1207.31</ele>
        <time>2021-07-21T13:32:47Z</time>
      </trkpt>
      <trkpt lat="44.42207" lon="6.73721">
        <ele>1206</ele>
        <time>2021-07-21T13:32:48Z</time>
      </trkpt>
      <trkpt lat="44.42211" lon="6.73722">
        <ele>1204.86</ele>
        <time>2021-07-21T13:32:49Z</time>
      </trkpt>
      <trkpt lat="44.42217" lon="6.73723">
        <ele>1203.35</ele>
        <time>2021-07-21T13:32:50Z</time>
      </trkpt>
      <trkpt lat="44.42221" lon="6.73723">
        <ele>1202.36</ele>
        <time>2021-07-21T13:32:51Z</time>
      </trkpt>
      <trkpt lat="44.42226" lon="6.73724">
        <ele>1203.61</ele>
        <time>2021-07-21T13:32:52Z</time>
      </trkpt>
      <trkpt lat="44.42232" lon="6.73724">
        <ele>1205.95</ele>
        <time>2021-07-21T13:32:53Z</time>
      </trkpt>
      <trkpt lat="44.42237" lon="6.73724">
        <ele>1207.91</ele>
        <time>2021-07-21T13:32:54Z</time>
      </trkpt>
      <trkpt lat="44.42242" lon="6.73725">
        <ele>1209.89</ele>
        <time>2021-07-21T13:32:55Z</time>
      </trkpt>
      <trkpt lat="44.42246" lon="6.73725">
        <ele>1211.44</ele>
        <time>2021-07-21T13:32:56Z</time>
      </trkpt>
      <trkpt lat="44.42251" lon="6.73725">
        <ele>1213.22</ele>
        <time>2021-07-21T13:32:57Z</time>
      </trkpt>
      <trkpt lat="44.42256" lon="6.73724">
        <ele>1214.31</ele>
        <time>2021-07-21T13:32:58Z</time>
      </trkpt>
      <trkpt lat="44.42261" lon="6.73724">
        <ele>1215.4</ele>
        <time>2021-07-21T13:32:59Z</time>
      </trkpt>
      <trkpt lat="44.42265" lon="6.73724">
        <ele>1216.27</ele>
        <time>2021-07-21T13:33:00Z</time>
      </trkpt>
      <trkpt lat="44.4227" lon="6.73724">
        <ele>1217.37</ele>
        <time>2021-07-21T13:33:01Z</time>
      </trkpt>
      <trkpt lat="44.42275" lon="6.73724">
        <ele>1218.46</ele>
        <time>2021-07-21T13:33:02Z</time>
      </trkpt>
      <trkpt lat="44.4228" lon="6.73723">
        <ele>1219.27</ele>
        <time>2021-07-21T13:33:03Z</time>
      </trkpt>
      <trkpt lat="44.42285" lon="6.73723">
        <ele>1219.81</ele>
        <time>2021-07-21T13:33:04Z</time>
      </trkpt>
      <trkpt lat="44.4229" lon="6.73723">
        <ele>1220.35</ele>
        <time>2021-07-21T13:33:05Z</time>
      </trkpt>
      <trkpt lat="44.42295" lon="6.73722">
        <ele>1220.87</ele>
        <time>2021-07-21T13:33:06Z</time>
      </trkpt>
      <trkpt lat="44.423" lon="6.73722">
        <ele>1221.41</ele>
        <time>2021-07-21T13:33:07Z</time>
      </trkpt>
      <trkpt lat="44.42305" lon="6.73721">
        <ele>1222.03</ele>
        <time>2021-07-21T13:33:08Z</time>
      </trkpt>
      <trkpt lat="44.42309" lon="6.7372">
        <ele>1222.28</ele>
        <time>2021-07-21T13:33:09Z</time>
      </trkpt>
      <trkpt lat="44.42314" lon="6.73719">
        <ele>1222.54</ele>
        <time>2021-07-21T13:33:10Z</time>
      </trkpt>
      <trkpt lat="44.42317" lon="6.73718">
        <ele>1222.72</ele>
        <time>2021-07-21T13:33:11Z</time>
      </trkpt>
      <trkpt lat="44.42323" lon="6.73717">
        <ele>1223</ele>
        <time>2021-07-21T13:33:12Z</time>
      </trkpt>
      <trkpt lat="44.42328" lon="6.73717">
        <ele>1223.18</ele>
        <time>2021-07-21T13:33:13Z</time>
      </trkpt>
      <trkpt lat="44.42332" lon="6.73716">
        <ele>1223.4</ele>
        <time>2021-07-21T13:33:14Z</time>
      </trkpt>
      <trkpt lat="44.42336" lon="6.73716">
        <ele>1223.43</ele>
        <time>2021-07-21T13:33:15Z</time>
      </trkpt>
      <trkpt lat="44.42339" lon="6.73715">
        <ele>1223.47</ele>
        <time>2021-07-21T13:33:17Z</time>
      </trkpt>
      <trkpt lat="44.4234" lon="6.73706">
        <ele>1224.03</ele>
        <time>2021-07-21T13:33:19Z</time>
      </trkpt>
      <trkpt lat="44.42341" lon="6.73696">
        <ele>1224.63</ele>
        <time>2021-07-21T13:33:21Z</time>
      </trkpt>
      <trkpt lat="44.4234" lon="6.73684">
        <ele>1226.08</ele>
        <time>2021-07-21T13:33:23Z</time>
      </trkpt>
      <trkpt lat="44.42339" lon="6.73673">
        <ele>1227.57</ele>
        <time>2021-07-21T13:33:26Z</time>
      </trkpt>
      <trkpt lat="44.42338" lon="6.73664">
        <ele>1228.86</ele>
        <time>2021-07-21T13:33:28Z</time>
      </trkpt>
      <trkpt lat="44.42336" lon="6.73654">
        <ele>1230.49</ele>
        <time>2021-07-21T13:33:31Z</time>
      </trkpt>
      <trkpt lat="44.42333" lon="6.73643">
        <ele>1232.44</ele>
        <time>2021-07-21T13:33:33Z</time>
      </trkpt>
      <trkpt lat="44.42332" lon="6.73635">
        <ele>1233.55</ele>
        <time>2021-07-21T13:33:35Z</time>
      </trkpt>
      <trkpt lat="44.42329" lon="6.73622">
        <ele>1235.1</ele>
        <time>2021-07-21T13:33:39Z</time>
      </trkpt>
      <trkpt lat="44.42326" lon="6.73614">
        <ele>1236.01</ele>
        <time>2021-07-21T13:33:41Z</time>
      </trkpt>
      <trkpt lat="44.42324" lon="6.73603">
        <ele>1236.53</ele>
        <time>2021-07-21T13:33:44Z</time>
      </trkpt>
      <trkpt lat="44.42322" lon="6.7359">
        <ele>1236.86</ele>
        <time>2021-07-21T13:33:47Z</time>
      </trkpt>
      <trkpt lat="44.4232" lon="6.73575">
        <ele>1237.16</ele>
        <time>2021-07-21T13:33:50Z</time>
      </trkpt>
      <trkpt lat="44.42319" lon="6.73565">
        <ele>1237.32</ele>
        <time>2021-07-21T13:33:52Z</time>
      </trkpt>
      <trkpt lat="44.42319" lon="6.73554">
        <ele>1237.51</ele>
        <time>2021-07-21T13:33:55Z</time>
      </trkpt>
      <trkpt lat="44.42319" lon="6.73542">
        <ele>1237.72</ele>
        <time>2021-07-21T13:33:58Z</time>
      </trkpt>
      <trkpt lat="44.42321" lon="6.7353">
        <ele>1238.07</ele>
        <time>2021-07-21T13:34:01Z</time>
      </trkpt>
      <trkpt lat="44.42322" lon="6.73518">
        <ele>1239.38</ele>
        <time>2021-07-21T13:34:04Z</time>
      </trkpt>
      <trkpt lat="44.4232" lon="6.73507">
        <ele>1240.64</ele>
        <time>2021-07-21T13:34:07Z</time>
      </trkpt>
      <trkpt lat="44.42316" lon="6.735">
        <ele>1241.38</ele>
        <time>2021-07-21T13:34:08Z</time>
      </trkpt>
      <trkpt lat="44.42311" lon="6.73494">
        <ele>1242.49</ele>
        <time>2021-07-21T13:34:10Z</time>
      </trkpt>
      <trkpt lat="44.42306" lon="6.73489">
        <ele>1243.39</ele>
        <time>2021-07-21T13:34:12Z</time>
      </trkpt>
      <trkpt lat="44.423" lon="6.73486">
        <ele>1243.42</ele>
        <time>2021-07-21T13:34:14Z</time>
      </trkpt>
      <trkpt lat="44.42293" lon="6.73482">
        <ele>1243.53</ele>
        <time>2021-07-21T13:34:16Z</time>
      </trkpt>
      <trkpt lat="44.42289" lon="6.73474">
        <ele>1244.83</ele>
        <time>2021-07-21T13:34:18Z</time>
      </trkpt>
      <trkpt lat="44.42289" lon="6.73465">
        <ele>1247.5</ele>
        <time>2021-07-21T13:34:21Z</time>
      </trkpt>
      <trkpt lat="44.42301" lon="6.73459">
        <ele>1250.07</ele>
        <time>2021-07-21T13:34:24Z</time>
      </trkpt>
      <trkpt lat="44.42308" lon="6.73459">
        <ele>1250.38</ele>
        <time>2021-07-21T13:34:26Z</time>
      </trkpt>
      <trkpt lat="44.42314" lon="6.7346">
        <ele>1250.25</ele>
        <time>2021-07-21T13:34:28Z</time>
      </trkpt>
      <trkpt lat="44.42322" lon="6.73456">
        <ele>1251.33</ele>
        <time>2021-07-21T13:34:30Z</time>
      </trkpt>
      <trkpt lat="44.42323" lon="6.73445">
        <ele>1253.87</ele>
        <time>2021-07-21T13:34:33Z</time>
      </trkpt>
      <trkpt lat="44.42318" lon="6.73434">
        <ele>1255.58</ele>
        <time>2021-07-21T13:34:36Z</time>
      </trkpt>
      <trkpt lat="44.42312" lon="6.73429">
        <ele>1256.82</ele>
        <time>2021-07-21T13:34:38Z</time>
      </trkpt>
      <trkpt lat="44.42306" lon="6.73424">
        <ele>1258.37</ele>
        <time>2021-07-21T13:34:40Z</time>
      </trkpt>
      <trkpt lat="44.423" lon="6.73414">
        <ele>1260.67</ele>
        <time>2021-07-21T13:34:43Z</time>
      </trkpt>
      <trkpt lat="44.423" lon="6.73401">
        <ele>1261.98</ele>
        <time>2021-07-21T13:34:46Z</time>
      </trkpt>
      <trkpt lat="44.42302" lon="6.73393">
        <ele>1262.7</ele>
        <time>2021-07-21T13:34:48Z</time>
      </trkpt>
      <trkpt lat="44.42303" lon="6.73384">
        <ele>1263.3</ele>
        <time>2021-07-21T13:34:50Z</time>
      </trkpt>
      <trkpt lat="44.42302" lon="6.73374">
        <ele>1263.8</ele>
        <time>2021-07-21T13:34:53Z</time>
      </trkpt>
      <trkpt lat="44.42297" lon="6.73363">
        <ele>1264.81</ele>
        <time>2021-07-21T13:34:56Z</time>
      </trkpt>
      <trkpt lat="44.42291" lon="6.73358">
        <ele>1265.96</ele>
        <time>2021-07-21T13:34:58Z</time>
      </trkpt>
      <trkpt lat="44.42285" lon="6.73354">
        <ele>1267.05</ele>
        <time>2021-07-21T13:35:00Z</time>
      </trkpt>
      <trkpt lat="44.42278" lon="6.73351">
        <ele>1268.07</ele>
        <time>2021-07-21T13:35:02Z</time>
      </trkpt>
      <trkpt lat="44.42272" lon="6.73347">
        <ele>1268.73</ele>
        <time>2021-07-21T13:35:04Z</time>
      </trkpt>
      <trkpt lat="44.42264" lon="6.73342">
        <ele>1269.56</ele>
        <time>2021-07-21T13:35:08Z</time>
      </trkpt>
      <trkpt lat="44.42258" lon="6.73337">
        <ele>1270.32</ele>
        <time>2021-07-21T13:35:10Z</time>
      </trkpt>
      <trkpt lat="44.42251" lon="6.73332">
        <ele>1271.11</ele>
        <time>2021-07-21T13:35:12Z</time>
      </trkpt>
      <trkpt lat="44.42245" lon="6.73328">
        <ele>1272.08</ele>
        <time>2021-07-21T13:35:14Z</time>
      </trkpt>
      <trkpt lat="44.42239" lon="6.73326">
        <ele>1272.88</ele>
        <time>2021-07-21T13:35:16Z</time>
      </trkpt>
      <trkpt lat="44.42232" lon="6.73326">
        <ele>1273.56</ele>
        <time>2021-07-21T13:35:18Z</time>
      </trkpt>
      <trkpt lat="44.42225" lon="6.73328">
        <ele>1274.1</ele>
        <time>2021-07-21T13:35:20Z</time>
      </trkpt>
      <trkpt lat="44.42219" lon="6.73332">
        <ele>1275.25</ele>
        <time>2021-07-21T13:35:22Z</time>
      </trkpt>
      <trkpt lat="44.42212" lon="6.73338">
        <ele>1277.11</ele>
        <time>2021-07-21T13:35:24Z</time>
      </trkpt>
      <trkpt lat="44.42205" lon="6.73348">
        <ele>1278.29</ele>
        <time>2021-07-21T13:35:28Z</time>
      </trkpt>
      <trkpt lat="44.42199" lon="6.73361">
        <ele>1278.54</ele>
        <time>2021-07-21T13:35:31Z</time>
      </trkpt>
      <trkpt lat="44.42194" lon="6.73373">
        <ele>1277.96</ele>
        <time>2021-07-21T13:35:34Z</time>
      </trkpt>
      <trkpt lat="44.4219" lon="6.73385">
        <ele>1276.66</ele>
        <time>2021-07-21T13:35:37Z</time>
      </trkpt>
      <trkpt lat="44.42185" lon="6.73395">
        <ele>1275.43</ele>
        <time>2021-07-21T13:35:39Z</time>
      </trkpt>
      <trkpt lat="44.42179" lon="6.73402">
        <ele>1274.77</ele>
        <time>2021-07-21T13:35:42Z</time>
      </trkpt>
      <trkpt lat="44.42172" lon="6.73403">
        <ele>1275.88</ele>
        <time>2021-07-21T13:35:44Z</time>
      </trkpt>
      <trkpt lat="44.42165" lon="6.73402">
        <ele>1277.53</ele>
        <time>2021-07-21T13:35:47Z</time>
      </trkpt>
      <trkpt lat="44.42158" lon="6.73402">
        <ele>1278.8</ele>
        <time>2021-07-21T13:35:50Z</time>
      </trkpt>
      <trkpt lat="44.42149" lon="6.734">
        <ele>1281.11</ele>
        <time>2021-07-21T13:35:54Z</time>
      </trkpt>
      <trkpt lat="44.42139" lon="6.734">
        <ele>1282.98</ele>
        <time>2021-07-21T13:35:58Z</time>
      </trkpt>
      <trkpt lat="44.42131" lon="6.734">
        <ele>1283.97</ele>
        <time>2021-07-21T13:36:01Z</time>
      </trkpt>
      <trkpt lat="44.42141" lon="6.73395">
        <ele>1284.38</ele>
        <time>2021-07-21T13:36:09Z</time>
      </trkpt>
      <trkpt lat="44.42146" lon="6.73388">
        <ele>1285.65</ele>
        <time>2021-07-21T13:36:11Z</time>
      </trkpt>
      <trkpt lat="44.42155" lon="6.73384">
        <ele>1284.47</ele>
        <time>2021-07-21T13:36:14Z</time>
      </trkpt>
      <trkpt lat="44.42165" lon="6.73381">
        <ele>1282.8</ele>
        <time>2021-07-21T13:36:17Z</time>
      </trkpt>
      <trkpt lat="44.42172" lon="6.73372">
        <ele>1282.89</ele>
        <time>2021-07-21T13:36:20Z</time>
      </trkpt>
      <trkpt lat="44.42176" lon="6.73358">
        <ele>1284.36</ele>
        <time>2021-07-21T13:36:23Z</time>
      </trkpt>
      <trkpt lat="44.42178" lon="6.73345">
        <ele>1285.53</ele>
        <time>2021-07-21T13:36:26Z</time>
      </trkpt>
      <trkpt lat="44.42178" lon="6.73335">
        <ele>1286.76</ele>
        <time>2021-07-21T13:36:28Z</time>
      </trkpt>
      <trkpt lat="44.42177" lon="6.73324">
        <ele>1287.48</ele>
        <time>2021-07-21T13:36:31Z</time>
      </trkpt>
      <trkpt lat="44.42178" lon="6.73315">
        <ele>1287.62</ele>
        <time>2021-07-21T13:36:34Z</time>
      </trkpt>
      <trkpt lat="44.42178" lon="6.73304">
        <ele>1288.02</ele>
        <time>2021-07-21T13:36:36Z</time>
      </trkpt>
      <trkpt lat="44.42177" lon="6.73295">
        <ele>1288.52</ele>
        <time>2021-07-21T13:36:38Z</time>
      </trkpt>
      <trkpt lat="44.42173" lon="6.73284">
        <ele>1289.64</ele>
        <time>2021-07-21T13:36:41Z</time>
      </trkpt>
      <trkpt lat="44.42169" lon="6.73275">
        <ele>1290.77</ele>
        <time>2021-07-21T13:36:43Z</time>
      </trkpt>
      <trkpt lat="44.42166" lon="6.73268">
        <ele>1291.76</ele>
        <time>2021-07-21T13:36:45Z</time>
      </trkpt>
      <trkpt lat="44.42163" lon="6.73261">
        <ele>1292.34</ele>
        <time>2021-07-21T13:36:47Z</time>
      </trkpt>
      <trkpt lat="44.42159" lon="6.73254">
        <ele>1292.63</ele>
        <time>2021-07-21T13:36:50Z</time>
      </trkpt>
      <trkpt lat="44.42153" lon="6.73246">
        <ele>1292.01</ele>
        <time>2021-07-21T13:36:52Z</time>
      </trkpt>
      <trkpt lat="44.4215" lon="6.73235">
        <ele>1290.24</ele>
        <time>2021-07-21T13:36:55Z</time>
      </trkpt>
      <trkpt lat="44.42149" lon="6.73226">
        <ele>1288.75</ele>
        <time>2021-07-21T13:36:57Z</time>
      </trkpt>
      <trkpt lat="44.42151" lon="6.73217">
        <ele>1288.43</ele>
        <time>2021-07-21T13:36:59Z</time>
      </trkpt>
      <trkpt lat="44.42148" lon="6.73216">
        <ele>1287.74</ele>
        <time>2021-07-21T13:37:52Z</time>
      </trkpt>
      <trkpt lat="44.42146" lon="6.73213">
        <ele>1287.2</ele>
        <time>2021-07-21T13:38:12Z</time>
      </trkpt>
      <trkpt lat="44.42145" lon="6.7321">
        <ele>1286.88</ele>
        <time>2021-07-21T13:38:16Z</time>
      </trkpt>
      <trkpt lat="44.42143" lon="6.73208">
        <ele>1286.38</ele>
        <time>2021-07-21T13:39:03Z</time>
      </trkpt>
      <trkpt lat="44.42142" lon="6.73204">
        <ele>1286.02</ele>
        <time>2021-07-21T13:46:42Z</time>
      </trkpt>
      <trkpt lat="44.42144" lon="6.73202">
        <ele>1286.38</ele>
        <time>2021-07-21T13:46:59Z</time>
      </trkpt>
      <trkpt lat="44.42145" lon="6.73206">
        <ele>1286.74</ele>
        <time>2021-07-21T13:47:35Z</time>
      </trkpt>
      <trkpt lat="44.42144" lon="6.73211">
        <ele>1286.7</ele>
        <time>2021-07-21T13:48:05Z</time>
      </trkpt>
      <trkpt lat="44.42144" lon="6.73215">
        <ele>1286.84</ele>
        <time>2021-07-21T13:48:08Z</time>
      </trkpt>
      <trkpt lat="44.42145" lon="6.73221">
        <ele>1287.28</ele>
        <time>2021-07-21T13:48:10Z</time>
      </trkpt>
      <trkpt lat="44.42147" lon="6.73229">
        <ele>1288.86</ele>
        <time>2021-07-21T13:48:13Z</time>
      </trkpt>
      <trkpt lat="44.42152" lon="6.73235">
        <ele>1290.51</ele>
        <time>2021-07-21T13:48:15Z</time>
      </trkpt>
      <trkpt lat="44.42157" lon="6.73243">
        <ele>1291.96</ele>
        <time>2021-07-21T13:48:21Z</time>
      </trkpt>
      <trkpt lat="44.42162" lon="6.73249">
        <ele>1292.77</ele>
        <time>2021-07-21T13:48:23Z</time>
      </trkpt>
      <trkpt lat="44.42167" lon="6.73255">
        <ele>1292.57</ele>
        <time>2021-07-21T13:48:26Z</time>
      </trkpt>
      <trkpt lat="44.42171" lon="6.73266">
        <ele>1291</ele>
        <time>2021-07-21T13:48:30Z</time>
      </trkpt>
      <trkpt lat="44.42176" lon="6.73275">
        <ele>1289.49</ele>
        <time>2021-07-21T13:48:33Z</time>
      </trkpt>
      <trkpt lat="44.42178" lon="6.73285">
        <ele>1288.7</ele>
        <time>2021-07-21T13:48:36Z</time>
      </trkpt>
      <trkpt lat="44.42178" lon="6.73296">
        <ele>1288.3</ele>
        <time>2021-07-21T13:48:39Z</time>
      </trkpt>
      <trkpt lat="44.42178" lon="6.73308">
        <ele>1287.87</ele>
        <time>2021-07-21T13:48:42Z</time>
      </trkpt>
      <trkpt lat="44.42176" lon="6.73317">
        <ele>1287.91</ele>
        <time>2021-07-21T13:48:44Z</time>
      </trkpt>
      <trkpt lat="44.42174" lon="6.73327">
        <ele>1287.91</ele>
        <time>2021-07-21T13:48:47Z</time>
      </trkpt>
      <trkpt lat="44.42172" lon="6.73336">
        <ele>1287.73</ele>
        <time>2021-07-21T13:48:49Z</time>
      </trkpt>
      <trkpt lat="44.42169" lon="6.7335">
        <ele>1286.73</ele>
        <time>2021-07-21T13:48:52Z</time>
      </trkpt>
      <trkpt lat="44.42165" lon="6.73363">
        <ele>1286.08</ele>
        <time>2021-07-21T13:48:54Z</time>
      </trkpt>
      <trkpt lat="44.42161" lon="6.73371">
        <ele>1285.58</ele>
        <time>2021-07-21T13:48:56Z</time>
      </trkpt>
      <trkpt lat="44.42156" lon="6.73375">
        <ele>1286</ele>
        <time>2021-07-21T13:48:57Z</time>
      </trkpt>
      <trkpt lat="44.4215" lon="6.73379">
        <ele>1286.59</ele>
        <time>2021-07-21T13:48:58Z</time>
      </trkpt>
      <trkpt lat="44.42143" lon="6.73381">
        <ele>1287.77</ele>
        <time>2021-07-21T13:49:00Z</time>
      </trkpt>
      <trkpt lat="44.42137" lon="6.73383">
        <ele>1288.46</ele>
        <time>2021-07-21T13:49:02Z</time>
      </trkpt>
      <trkpt lat="44.42129" lon="6.73388">
        <ele>1288.25</ele>
        <time>2021-07-21T13:49:05Z</time>
      </trkpt>
      <trkpt lat="44.42126" lon="6.73396">
        <ele>1285.95</ele>
        <time>2021-07-21T13:49:08Z</time>
      </trkpt>
      <trkpt lat="44.42128" lon="6.73399">
        <ele>1284.68</ele>
        <time>2021-07-21T13:49:15Z</time>
      </trkpt>
      <trkpt lat="44.42129" lon="6.73402">
        <ele>1283.52</ele>
        <time>2021-07-21T13:49:35Z</time>
      </trkpt>
      <trkpt lat="44.42126" lon="6.73403">
        <ele>1283.55</ele>
        <time>2021-07-21T13:50:30Z</time>
      </trkpt>
      <trkpt lat="44.42124" lon="6.734">
        <ele>1284.82</ele>
        <time>2021-07-21T13:50:37Z</time>
      </trkpt>
      <trkpt lat="44.42121" lon="6.734">
        <ele>1285.19</ele>
        <time>2021-07-21T13:50:41Z</time>
      </trkpt>
      <trkpt lat="44.42119" lon="6.734">
        <ele>1285.43</ele>
        <time>2021-07-21T13:50:43Z</time>
      </trkpt>
      <trkpt lat="44.42115" lon="6.734">
        <ele>1285.92</ele>
        <time>2021-07-21T13:50:51Z</time>
      </trkpt>
      <trkpt lat="44.42112" lon="6.73401">
        <ele>1285.97</ele>
        <time>2021-07-21T13:50:53Z</time>
      </trkpt>
      <trkpt lat="44.42109" lon="6.73402">
        <ele>1285.34</ele>
        <time>2021-07-21T13:50:59Z</time>
      </trkpt>
      <trkpt lat="44.42106" lon="6.73401">
        <ele>1285.08</ele>
        <time>2021-07-21T13:51:05Z</time>
      </trkpt>
      <trkpt lat="44.42103" lon="6.734">
        <ele>1284.82</ele>
        <time>2021-07-21T13:51:08Z</time>
      </trkpt>
      <trkpt lat="44.42099" lon="6.73399">
        <ele>1284.39</ele>
        <time>2021-07-21T13:51:11Z</time>
      </trkpt>
      <trkpt lat="44.42097" lon="6.73398">
        <ele>1284.34</ele>
        <time>2021-07-21T13:51:13Z</time>
      </trkpt>
      <trkpt lat="44.42094" lon="6.73398">
        <ele>1283.77</ele>
        <time>2021-07-21T13:51:16Z</time>
      </trkpt>
      <trkpt lat="44.42091" lon="6.73398">
        <ele>1283.19</ele>
        <time>2021-07-21T13:51:19Z</time>
      </trkpt>
      <trkpt lat="44.42088" lon="6.73396">
        <ele>1283.32</ele>
        <time>2021-07-21T13:51:23Z</time>
      </trkpt>
      <trkpt lat="44.42085" lon="6.73396">
        <ele>1282.76</ele>
        <time>2021-07-21T13:51:26Z</time>
      </trkpt>
      <trkpt lat="44.42082" lon="6.73395">
        <ele>1282.02</ele>
        <time>2021-07-21T13:51:29Z</time>
      </trkpt>
      <trkpt lat="44.42079" lon="6.73393">
        <ele>1280.94</ele>
        <time>2021-07-21T13:51:32Z</time>
      </trkpt>
      <trkpt lat="44.42076" lon="6.73391">
        <ele>1279.81</ele>
        <time>2021-07-21T13:51:35Z</time>
      </trkpt>
      <trkpt lat="44.42073" lon="6.73389">
        <ele>1278.64</ele>
        <time>2021-07-21T13:51:38Z</time>
      </trkpt>
      <trkpt lat="44.42071" lon="6.73387">
        <ele>1277.53</ele>
        <time>2021-07-21T13:51:41Z</time>
      </trkpt>
      <trkpt lat="44.42068" lon="6.73385">
        <ele>1275.74</ele>
        <time>2021-07-21T13:51:45Z</time>
      </trkpt>
      <trkpt lat="44.42065" lon="6.73384">
        <ele>1273.9</ele>
        <time>2021-07-21T13:51:49Z</time>
      </trkpt>
      <trkpt lat="44.42062" lon="6.73383">
        <ele>1272.04</ele>
        <time>2021-07-21T13:52:25Z</time>
      </trkpt>
      <trkpt lat="44.42059" lon="6.73383">
        <ele>1270.16</ele>
        <time>2021-07-21T13:52:35Z</time>
      </trkpt>
      <trkpt lat="44.42058" lon="6.73379">
        <ele>1269.56</ele>
        <time>2021-07-21T13:52:50Z</time>
      </trkpt>
      <trkpt lat="44.42056" lon="6.73377">
        <ele>1268.29</ele>
        <time>2021-07-21T13:53:17Z</time>
      </trkpt>
      <trkpt lat="44.42058" lon="6.73375">
        <ele>1269.58</ele>
        <time>2021-07-21T14:00:21Z</time>
      </trkpt>
      <trkpt lat="44.4206" lon="6.73371">
        <ele>1270.93</ele>
        <time>2021-07-21T14:00:30Z</time>
      </trkpt>
      <trkpt lat="44.42062" lon="6.73368">
        <ele>1272.29</ele>
        <time>2021-07-21T14:00:36Z</time>
      </trkpt>
      <trkpt lat="44.42065" lon="6.7337">
        <ele>1274.24</ele>
        <time>2021-07-21T14:00:40Z</time>
      </trkpt>
      <trkpt lat="44.42067" lon="6.73374">
        <ele>1275.45</ele>
        <time>2021-07-21T14:00:43Z</time>
      </trkpt>
      <trkpt lat="44.42068" lon="6.73377">
        <ele>1276</ele>
        <time>2021-07-21T14:00:45Z</time>
      </trkpt>
      <trkpt lat="44.4207" lon="6.7338">
        <ele>1277.17</ele>
        <time>2021-07-21T14:00:47Z</time>
      </trkpt>
      <trkpt lat="44.42072" lon="6.73384">
        <ele>1278.27</ele>
        <time>2021-07-21T14:00:50Z</time>
      </trkpt>
      <trkpt lat="44.42074" lon="6.73387">
        <ele>1279.38</ele>
        <time>2021-07-21T14:00:54Z</time>
      </trkpt>
      <trkpt lat="44.42077" lon="6.73389">
        <ele>1281.09</ele>
        <time>2021-07-21T14:00:56Z</time>
      </trkpt>
      <trkpt lat="44.42079" lon="6.73391">
        <ele>1281.62</ele>
        <time>2021-07-21T14:01:00Z</time>
      </trkpt>
      <trkpt lat="44.42082" lon="6.73392">
        <ele>1283.08</ele>
        <time>2021-07-21T14:01:02Z</time>
      </trkpt>
      <trkpt lat="44.42086" lon="6.73393">
        <ele>1284.01</ele>
        <time>2021-07-21T14:01:06Z</time>
      </trkpt>
      <trkpt lat="44.42089" lon="6.73395">
        <ele>1283.86</ele>
        <time>2021-07-21T14:01:09Z</time>
      </trkpt>
      <trkpt lat="44.42093" lon="6.73396">
        <ele>1284.27</ele>
        <time>2021-07-21T14:01:11Z</time>
      </trkpt>
      <trkpt lat="44.42096" lon="6.73397">
        <ele>1284.49</ele>
        <time>2021-07-21T14:01:14Z</time>
      </trkpt>
      <trkpt lat="44.42099" lon="6.73398">
        <ele>1284.72</ele>
        <time>2021-07-21T14:01:16Z</time>
      </trkpt>
      <trkpt lat="44.42102" lon="6.73399">
        <ele>1284.96</ele>
        <time>2021-07-21T14:01:18Z</time>
      </trkpt>
      <trkpt lat="44.42105" lon="6.73399">
        <ele>1285.54</ele>
        <time>2021-07-21T14:01:20Z</time>
      </trkpt>
      <trkpt lat="44.42108" lon="6.73399">
        <ele>1286.12</ele>
        <time>2021-07-21T14:01:23Z</time>
      </trkpt>
      <trkpt lat="44.42112" lon="6.73398">
        <ele>1286.94</ele>
        <time>2021-07-21T14:01:27Z</time>
      </trkpt>
      <trkpt lat="44.42114" lon="6.73399">
        <ele>1286.37</ele>
        <time>2021-07-21T14:01:30Z</time>
      </trkpt>
      <trkpt lat="44.42117" lon="6.73399">
        <ele>1286.01</ele>
        <time>2021-07-21T14:01:34Z</time>
      </trkpt>
      <trkpt lat="44.42121" lon="6.73399">
        <ele>1285.53</ele>
        <time>2021-07-21T14:01:39Z</time>
      </trkpt>
      <trkpt lat="44.42124" lon="6.73398">
        <ele>1285.5</ele>
        <time>2021-07-21T14:01:43Z</time>
      </trkpt>
      <trkpt lat="44.42126" lon="6.73398">
        <ele>1285.26</ele>
        <time>2021-07-21T14:01:45Z</time>
      </trkpt>
      <trkpt lat="44.42127" lon="6.73401">
        <ele>1284.11</ele>
        <time>2021-07-21T14:02:13Z</time>
      </trkpt>
      <trkpt lat="44.42129" lon="6.73403">
        <ele>1283.17</ele>
        <time>2021-07-21T14:10:20Z</time>
      </trkpt>
      <trkpt lat="44.42133" lon="6.73404">
        <ele>1282.31</ele>
        <time>2021-07-21T14:10:47Z</time>
      </trkpt>
      <trkpt lat="44.42137" lon="6.73403">
        <ele>1282.16</ele>
        <time>2021-07-21T14:10:49Z</time>
      </trkpt>
      <trkpt lat="44.42141" lon="6.73402">
        <ele>1281.9</ele>
        <time>2021-07-21T14:10:51Z</time>
      </trkpt>
      <trkpt lat="44.42145" lon="6.73402">
        <ele>1281.17</ele>
        <time>2021-07-21T14:10:53Z</time>
      </trkpt>
      <trkpt lat="44.42151" lon="6.73402">
        <ele>1280.08</ele>
        <time>2021-07-21T14:10:56Z</time>
      </trkpt>
      <trkpt lat="44.42161" lon="6.73404">
        <ele>1277.65</ele>
        <time>2021-07-21T14:10:59Z</time>
      </trkpt>
      <trkpt lat="44.42168" lon="6.73405">
        <ele>1276.1</ele>
        <time>2021-07-21T14:11:01Z</time>
      </trkpt>
      <trkpt lat="44.42178" lon="6.73405">
        <ele>1274.15</ele>
        <time>2021-07-21T14:11:03Z</time>
      </trkpt>
      <trkpt lat="44.42183" lon="6.73403">
        <ele>1273.71</ele>
        <time>2021-07-21T14:11:05Z</time>
      </trkpt>
      <trkpt lat="44.42189" lon="6.73398">
        <ele>1273.82</ele>
        <time>2021-07-21T14:11:07Z</time>
      </trkpt>
      <trkpt lat="44.42192" lon="6.73389">
        <ele>1275.5</ele>
        <time>2021-07-21T14:11:09Z</time>
      </trkpt>
      <trkpt lat="44.42198" lon="6.73376">
        <ele>1276.24</ele>
        <time>2021-07-21T14:11:11Z</time>
      </trkpt>
      <trkpt lat="44.422" lon="6.73368">
        <ele>1277.01</ele>
        <time>2021-07-21T14:11:13Z</time>
      </trkpt>
      <trkpt lat="44.42205" lon="6.73354">
        <ele>1277.51</ele>
        <time>2021-07-21T14:11:16Z</time>
      </trkpt>
      <trkpt lat="44.42209" lon="6.73346">
        <ele>1277.17</ele>
        <time>2021-07-21T14:11:18Z</time>
      </trkpt>
      <trkpt lat="44.42216" lon="6.73337">
        <ele>1275.81</ele>
        <time>2021-07-21T14:11:20Z</time>
      </trkpt>
      <trkpt lat="44.42223" lon="6.73334">
        <ele>1273.84</ele>
        <time>2021-07-21T14:11:22Z</time>
      </trkpt>
      <trkpt lat="44.42231" lon="6.73335">
        <ele>1272.87</ele>
        <time>2021-07-21T14:11:24Z</time>
      </trkpt>
      <trkpt lat="44.42237" lon="6.73332">
        <ele>1272.53</ele>
        <time>2021-07-21T14:11:25Z</time>
      </trkpt>
      <trkpt lat="44.42246" lon="6.73332">
        <ele>1271.57</ele>
        <time>2021-07-21T14:11:28Z</time>
      </trkpt>
      <trkpt lat="44.42254" lon="6.73335">
        <ele>1270.68</ele>
        <time>2021-07-21T14:11:30Z</time>
      </trkpt>
      <trkpt lat="44.42261" lon="6.73339">
        <ele>1269.99</ele>
        <time>2021-07-21T14:11:32Z</time>
      </trkpt>
      <trkpt lat="44.42268" lon="6.73344">
        <ele>1269.2</ele>
        <time>2021-07-21T14:11:34Z</time>
      </trkpt>
      <trkpt lat="44.42276" lon="6.73349">
        <ele>1268.37</ele>
        <time>2021-07-21T14:11:37Z</time>
      </trkpt>
      <trkpt lat="44.42282" lon="6.73355">
        <ele>1267.24</ele>
        <time>2021-07-21T14:11:39Z</time>
      </trkpt>
      <trkpt lat="44.42288" lon="6.73358">
        <ele>1266.27</ele>
        <time>2021-07-21T14:11:41Z</time>
      </trkpt>
      <trkpt lat="44.42294" lon="6.73364">
        <ele>1265.06</ele>
        <time>2021-07-21T14:11:43Z</time>
      </trkpt>
      <trkpt lat="44.42298" lon="6.7337">
        <ele>1264.32</ele>
        <time>2021-07-21T14:11:45Z</time>
      </trkpt>
      <trkpt lat="44.42302" lon="6.73379">
        <ele>1263.58</ele>
        <time>2021-07-21T14:11:47Z</time>
      </trkpt>
      <trkpt lat="44.42302" lon="6.7339">
        <ele>1263.01</ele>
        <time>2021-07-21T14:11:49Z</time>
      </trkpt>
      <trkpt lat="44.42299" lon="6.73401">
        <ele>1262.03</ele>
        <time>2021-07-21T14:11:51Z</time>
      </trkpt>
      <trkpt lat="44.42298" lon="6.7341">
        <ele>1261.2</ele>
        <time>2021-07-21T14:11:52Z</time>
      </trkpt>
      <trkpt lat="44.423" lon="6.73423">
        <ele>1258.94</ele>
        <time>2021-07-21T14:11:55Z</time>
      </trkpt>
      <trkpt lat="44.42303" lon="6.73432">
        <ele>1256.77</ele>
        <time>2021-07-21T14:11:57Z</time>
      </trkpt>
      <trkpt lat="44.42308" lon="6.73436">
        <ele>1255.72</ele>
        <time>2021-07-21T14:11:58Z</time>
      </trkpt>
      <trkpt lat="44.42314" lon="6.7344">
        <ele>1254.77</ele>
        <time>2021-07-21T14:12:00Z</time>
      </trkpt>
      <trkpt lat="44.42319" lon="6.7345">
        <ele>1252.7</ele>
        <time>2021-07-21T14:12:03Z</time>
      </trkpt>
      <trkpt lat="44.42305" lon="6.73454">
        <ele>1251.57</ele>
        <time>2021-07-21T14:12:05Z</time>
      </trkpt>
      <trkpt lat="44.42299" lon="6.73454">
        <ele>1251.35</ele>
        <time>2021-07-21T14:12:06Z</time>
      </trkpt>
      <trkpt lat="44.42293" lon="6.73454">
        <ele>1251.13</ele>
        <time>2021-07-21T14:12:08Z</time>
      </trkpt>
      <trkpt lat="44.42288" lon="6.73459">
        <ele>1249.34</ele>
        <time>2021-07-21T14:12:09Z</time>
      </trkpt>
      <trkpt lat="44.42286" lon="6.73466">
        <ele>1246.93</ele>
        <time>2021-07-21T14:12:11Z</time>
      </trkpt>
      <trkpt lat="44.42289" lon="6.73477">
        <ele>1244.18</ele>
        <time>2021-07-21T14:12:13Z</time>
      </trkpt>
      <trkpt lat="44.42298" lon="6.73484">
        <ele>1243.64</ele>
        <time>2021-07-21T14:12:15Z</time>
      </trkpt>
      <trkpt lat="44.42303" lon="6.73488">
        <ele>1243.32</ele>
        <time>2021-07-21T14:12:16Z</time>
      </trkpt>
      <trkpt lat="44.42308" lon="6.73492">
        <ele>1242.82</ele>
        <time>2021-07-21T14:12:18Z</time>
      </trkpt>
      <trkpt lat="44.42314" lon="6.73497">
        <ele>1241.95</ele>
        <time>2021-07-21T14:12:19Z</time>
      </trkpt>
      <trkpt lat="44.42318" lon="6.73503">
        <ele>1241.06</ele>
        <time>2021-07-21T14:12:21Z</time>
      </trkpt>
      <trkpt lat="44.42317" lon="6.73519">
        <ele>1238.96</ele>
        <time>2021-07-21T14:12:23Z</time>
      </trkpt>
      <trkpt lat="44.42316" lon="6.73526">
        <ele>1237.98</ele>
        <time>2021-07-21T14:12:24Z</time>
      </trkpt>
      <trkpt lat="44.42315" lon="6.73533">
        <ele>1237.62</ele>
        <time>2021-07-21T14:12:25Z</time>
      </trkpt>
      <trkpt lat="44.42315" lon="6.73539">
        <ele>1237.54</ele>
        <time>2021-07-21T14:12:26Z</time>
      </trkpt>
      <trkpt lat="44.42315" lon="6.73546">
        <ele>1237.46</ele>
        <time>2021-07-21T14:12:27Z</time>
      </trkpt>
      <trkpt lat="44.42315" lon="6.73554">
        <ele>1237.36</ele>
        <time>2021-07-21T14:12:28Z</time>
      </trkpt>
      <trkpt lat="44.42315" lon="6.73561">
        <ele>1237.27</ele>
        <time>2021-07-21T14:12:29Z</time>
      </trkpt>
      <trkpt lat="44.42316" lon="6.73567">
        <ele>1237.22</ele>
        <time>2021-07-21T14:12:30Z</time>
      </trkpt>
      <trkpt lat="44.42317" lon="6.73573">
        <ele>1237.15</ele>
        <time>2021-07-21T14:12:31Z</time>
      </trkpt>
      <trkpt lat="44.42319" lon="6.73579">
        <ele>1237.08</ele>
        <time>2021-07-21T14:12:32Z</time>
      </trkpt>
      <trkpt lat="44.42319" lon="6.73585">
        <ele>1236.97</ele>
        <time>2021-07-21T14:12:33Z</time>
      </trkpt>
      <trkpt lat="44.4232" lon="6.7359">
        <ele>1236.88</ele>
        <time>2021-07-21T14:12:34Z</time>
      </trkpt>
      <trkpt lat="44.42321" lon="6.73596">
        <ele>1236.75</ele>
        <time>2021-07-21T14:12:35Z</time>
      </trkpt>
      <trkpt lat="44.42322" lon="6.73603">
        <ele>1236.58</ele>
        <time>2021-07-21T14:12:36Z</time>
      </trkpt>
      <trkpt lat="44.42323" lon="6.73609">
        <ele>1236.42</ele>
        <time>2021-07-21T14:12:37Z</time>
      </trkpt>
      <trkpt lat="44.42324" lon="6.73614">
        <ele>1236.09</ele>
        <time>2021-07-21T14:12:38Z</time>
      </trkpt>
      <trkpt lat="44.42327" lon="6.73622">
        <ele>1235.23</ele>
        <time>2021-07-21T14:12:40Z</time>
      </trkpt>
      <trkpt lat="44.42329" lon="6.73627">
        <ele>1234.62</ele>
        <time>2021-07-21T14:12:41Z</time>
      </trkpt>
      <trkpt lat="44.42331" lon="6.7364">
        <ele>1233.08</ele>
        <time>2021-07-21T14:12:43Z</time>
      </trkpt>
      <trkpt lat="44.42332" lon="6.73651">
        <ele>1231.34</ele>
        <time>2021-07-21T14:12:45Z</time>
      </trkpt>
      <trkpt lat="44.42333" lon="6.73659">
        <ele>1230.11</ele>
        <time>2021-07-21T14:12:47Z</time>
      </trkpt>
      <trkpt lat="44.42336" lon="6.7367">
        <ele>1228.26</ele>
        <time>2021-07-21T14:12:49Z</time>
      </trkpt>
      <trkpt lat="44.42338" lon="6.73681">
        <ele>1226.61</ele>
        <time>2021-07-21T14:12:51Z</time>
      </trkpt>
      <trkpt lat="44.4234" lon="6.73692">
        <ele>1225.07</ele>
        <time>2021-07-21T14:12:53Z</time>
      </trkpt>
      <trkpt lat="44.42341" lon="6.73703">
        <ele>1224.19</ele>
        <time>2021-07-21T14:12:55Z</time>
      </trkpt>
      <trkpt lat="44.4234" lon="6.73708">
        <ele>1223.9</ele>
        <time>2021-07-21T14:13:04Z</time>
      </trkpt>
      <trkpt lat="44.42337" lon="6.73709">
        <ele>1223.89</ele>
        <time>2021-07-21T14:14:20Z</time>
      </trkpt>
      <trkpt lat="44.42331" lon="6.73711">
        <ele>1223.72</ele>
        <time>2021-07-21T14:14:21Z</time>
      </trkpt>
      <trkpt lat="44.42327" lon="6.73712">
        <ele>1223.51</ele>
        <time>2021-07-21T14:14:22Z</time>
      </trkpt>
      <trkpt lat="44.42324" lon="6.73712">
        <ele>1223.4</ele>
        <time>2021-07-21T14:14:23Z</time>
      </trkpt>
      <trkpt lat="44.4232" lon="6.73712">
        <ele>1223.26</ele>
        <time>2021-07-21T14:14:25Z</time>
      </trkpt>
      <trkpt lat="44.42313" lon="6.73713">
        <ele>1222.93</ele>
        <time>2021-07-21T14:14:26Z</time>
      </trkpt>
      <trkpt lat="44.42307" lon="6.73713">
        <ele>1222.72</ele>
        <time>2021-07-21T14:14:28Z</time>
      </trkpt>
      <trkpt lat="44.423" lon="6.73714">
        <ele>1221.87</ele>
        <time>2021-07-21T14:14:29Z</time>
      </trkpt>
      <trkpt lat="44.42294" lon="6.73715">
        <ele>1221.06</ele>
        <time>2021-07-21T14:14:31Z</time>
      </trkpt>
      <trkpt lat="44.42285" lon="6.73716">
        <ele>1219.9</ele>
        <time>2021-07-21T14:14:32Z</time>
      </trkpt>
      <trkpt lat="44.4228" lon="6.73716">
        <ele>1219.28</ele>
        <time>2021-07-21T14:14:33Z</time>
      </trkpt>
      <trkpt lat="44.42274" lon="6.73717">
        <ele>1218.18</ele>
        <time>2021-07-21T14:14:34Z</time>
      </trkpt>
      <trkpt lat="44.42269" lon="6.73717">
        <ele>1217.1</ele>
        <time>2021-07-21T14:14:35Z</time>
      </trkpt>
      <trkpt lat="44.42263" lon="6.73717">
        <ele>1215.81</ele>
        <time>2021-07-21T14:14:36Z</time>
      </trkpt>
      <trkpt lat="44.42257" lon="6.73717">
        <ele>1214.51</ele>
        <time>2021-07-21T14:14:37Z</time>
      </trkpt>
      <trkpt lat="44.42252" lon="6.73718">
        <ele>1213.43</ele>
        <time>2021-07-21T14:14:38Z</time>
      </trkpt>
      <trkpt lat="44.42245" lon="6.73718">
        <ele>1211.21</ele>
        <time>2021-07-21T14:14:39Z</time>
      </trkpt>
      <trkpt lat="44.42239" lon="6.73718">
        <ele>1209.07</ele>
        <time>2021-07-21T14:14:40Z</time>
      </trkpt>
      <trkpt lat="44.42233" lon="6.73717">
        <ele>1207.07</ele>
        <time>2021-07-21T14:14:41Z</time>
      </trkpt>
      <trkpt lat="44.42227" lon="6.73717">
        <ele>1204.98</ele>
        <time>2021-07-21T14:14:42Z</time>
      </trkpt>
      <trkpt lat="44.42221" lon="6.73716">
        <ele>1203.82</ele>
        <time>2021-07-21T14:14:43Z</time>
      </trkpt>
      <trkpt lat="44.42214" lon="6.73716">
        <ele>1205.24</ele>
        <time>2021-07-21T14:14:44Z</time>
      </trkpt>
      <trkpt lat="44.42208" lon="6.73715">
        <ele>1206.61</ele>
        <time>2021-07-21T14:14:45Z</time>
      </trkpt>
      <trkpt lat="44.42202" lon="6.73713">
        <ele>1207.97</ele>
        <time>2021-07-21T14:14:46Z</time>
      </trkpt>
      <trkpt lat="44.42196" lon="6.73712">
        <ele>1209.1</ele>
        <time>2021-07-21T14:14:47Z</time>
      </trkpt>
      <trkpt lat="44.42189" lon="6.73711">
        <ele>1209.88</ele>
        <time>2021-07-21T14:14:48Z</time>
      </trkpt>
      <trkpt lat="44.42183" lon="6.7371">
        <ele>1210.45</ele>
        <time>2021-07-21T14:14:49Z</time>
      </trkpt>
      <trkpt lat="44.42177" lon="6.73708">
        <ele>1211.09</ele>
        <time>2021-07-21T14:14:50Z</time>
      </trkpt>
      <trkpt lat="44.42171" lon="6.73707">
        <ele>1211.7</ele>
        <time>2021-07-21T14:14:51Z</time>
      </trkpt>
      <trkpt lat="44.42165" lon="6.73705">
        <ele>1212.22</ele>
        <time>2021-07-21T14:14:52Z</time>
      </trkpt>
      <trkpt lat="44.42159" lon="6.73703">
        <ele>1212.3</ele>
        <time>2021-07-21T14:14:53Z</time>
      </trkpt>
      <trkpt lat="44.42153" lon="6.73701">
        <ele>1212.41</ele>
        <time>2021-07-21T14:14:54Z</time>
      </trkpt>
      <trkpt lat="44.42147" lon="6.73699">
        <ele>1212.56</ele>
        <time>2021-07-21T14:14:55Z</time>
      </trkpt>
      <trkpt lat="44.42141" lon="6.73696">
        <ele>1212.84</ele>
        <time>2021-07-21T14:14:56Z</time>
      </trkpt>
      <trkpt lat="44.42135" lon="6.73694">
        <ele>1213.47</ele>
        <time>2021-07-21T14:14:57Z</time>
      </trkpt>
      <trkpt lat="44.4213" lon="6.73692">
        <ele>1214.25</ele>
        <time>2021-07-21T14:14:58Z</time>
      </trkpt>
      <trkpt lat="44.42124" lon="6.73689">
        <ele>1215.3</ele>
        <time>2021-07-21T14:14:59Z</time>
      </trkpt>
      <trkpt lat="44.42119" lon="6.73687">
        <ele>1216.14</ele>
        <time>2021-07-21T14:15:00Z</time>
      </trkpt>
      <trkpt lat="44.42113" lon="6.73685">
        <ele>1217.13</ele>
        <time>2021-07-21T14:15:01Z</time>
      </trkpt>
      <trkpt lat="44.42108" lon="6.73683">
        <ele>1217.94</ele>
        <time>2021-07-21T14:15:02Z</time>
      </trkpt>
      <trkpt lat="44.42104" lon="6.73682">
        <ele>1218.45</ele>
        <time>2021-07-21T14:15:03Z</time>
      </trkpt>
      <trkpt lat="44.421" lon="6.7368">
        <ele>1219.07</ele>
        <time>2021-07-21T14:15:04Z</time>
      </trkpt>
      <trkpt lat="44.42097" lon="6.73678">
        <ele>1219.59</ele>
        <time>2021-07-21T14:15:05Z</time>
      </trkpt>
      <trkpt lat="44.42092" lon="6.73676">
        <ele>1220.26</ele>
        <time>2021-07-21T14:15:06Z</time>
      </trkpt>
      <trkpt lat="44.42088" lon="6.73675">
        <ele>1220.71</ele>
        <time>2021-07-21T14:15:07Z</time>
      </trkpt>
      <trkpt lat="44.42083" lon="6.73673">
        <ele>1221.3</ele>
        <time>2021-07-21T14:15:08Z</time>
      </trkpt>
      <trkpt lat="44.42078" lon="6.73671">
        <ele>1221.31</ele>
        <time>2021-07-21T14:15:09Z</time>
      </trkpt>
      <trkpt lat="44.42074" lon="6.73669">
        <ele>1221.38</ele>
        <time>2021-07-21T14:15:10Z</time>
      </trkpt>
      <trkpt lat="44.42069" lon="6.73667">
        <ele>1221.44</ele>
        <time>2021-07-21T14:15:11Z</time>
      </trkpt>
      <trkpt lat="44.42066" lon="6.73665">
        <ele>1221.44</ele>
        <time>2021-07-21T14:15:12Z</time>
      </trkpt>
      <trkpt lat="44.42062" lon="6.73663">
        <ele>1221.36</ele>
        <time>2021-07-21T14:15:14Z</time>
      </trkpt>
      <trkpt lat="44.42055" lon="6.73658">
        <ele>1221.21</ele>
        <time>2021-07-21T14:15:15Z</time>
      </trkpt>
      <trkpt lat="44.42051" lon="6.73655">
        <ele>1220.6</ele>
        <time>2021-07-21T14:15:16Z</time>
      </trkpt>
      <trkpt lat="44.42047" lon="6.73651">
        <ele>1220.02</ele>
        <time>2021-07-21T14:15:17Z</time>
      </trkpt>
      <trkpt lat="44.42043" lon="6.73648">
        <ele>1219.41</ele>
        <time>2021-07-21T14:15:18Z</time>
      </trkpt>
      <trkpt lat="44.42039" lon="6.73645">
        <ele>1218.8</ele>
        <time>2021-07-21T14:15:20Z</time>
      </trkpt>
      <trkpt lat="44.42031" lon="6.73639">
        <ele>1217.58</ele>
        <time>2021-07-21T14:15:22Z</time>
      </trkpt>
      <trkpt lat="44.42025" lon="6.73634">
        <ele>1217.71</ele>
        <time>2021-07-21T14:15:23Z</time>
      </trkpt>
      <trkpt lat="44.42021" lon="6.73629">
        <ele>1218.75</ele>
        <time>2021-07-21T14:15:24Z</time>
      </trkpt>
      <trkpt lat="44.42015" lon="6.73621">
        <ele>1220.54</ele>
        <time>2021-07-21T14:15:25Z</time>
      </trkpt>
      <trkpt lat="44.42011" lon="6.7361">
        <ele>1222.24</ele>
        <time>2021-07-21T14:15:29Z</time>
      </trkpt>
      <trkpt lat="44.42006" lon="6.73604">
        <ele>1223.54</ele>
        <time>2021-07-21T14:15:30Z</time>
      </trkpt>
      <trkpt lat="44.42" lon="6.73598">
        <ele>1225</ele>
        <time>2021-07-21T14:15:32Z</time>
      </trkpt>
      <trkpt lat="44.41996" lon="6.73593">
        <ele>1225.38</ele>
        <time>2021-07-21T14:15:34Z</time>
      </trkpt>
      <trkpt lat="44.41991" lon="6.73586">
        <ele>1225.94</ele>
        <time>2021-07-21T14:15:35Z</time>
      </trkpt>
      <trkpt lat="44.41987" lon="6.73579">
        <ele>1226.39</ele>
        <time>2021-07-21T14:15:37Z</time>
      </trkpt>
      <trkpt lat="44.41982" lon="6.73569">
        <ele>1227.1</ele>
        <time>2021-07-21T14:15:41Z</time>
      </trkpt>
      <trkpt lat="44.41975" lon="6.7356">
        <ele>1228.37</ele>
        <time>2021-07-21T14:15:44Z</time>
      </trkpt>
      <trkpt lat="44.4197" lon="6.73552">
        <ele>1228.97</ele>
        <time>2021-07-21T14:15:47Z</time>
      </trkpt>
      <trkpt lat="44.41964" lon="6.73544">
        <ele>1228.82</ele>
        <time>2021-07-21T14:15:49Z</time>
      </trkpt>
      <trkpt lat="44.41961" lon="6.73538">
        <ele>1228.82</ele>
        <time>2021-07-21T14:15:51Z</time>
      </trkpt>
      <trkpt lat="44.41955" lon="6.73528">
        <ele>1228.75</ele>
        <time>2021-07-21T14:15:54Z</time>
      </trkpt>
      <trkpt lat="44.41952" lon="6.7352">
        <ele>1229.1</ele>
        <time>2021-07-21T14:15:57Z</time>
      </trkpt>
      <trkpt lat="44.41954" lon="6.73512">
        <ele>1229.82</ele>
        <time>2021-07-21T14:16:02Z</time>
      </trkpt>
      <trkpt lat="44.41957" lon="6.73514">
        <ele>1229.9</ele>
        <time>2021-07-21T14:17:15Z</time>
      </trkpt>
      <trkpt lat="44.4196" lon="6.73513">
        <ele>1230.18</ele>
        <time>2021-07-21T14:17:27Z</time>
      </trkpt>
      <trkpt lat="44.41963" lon="6.73504">
        <ele>1231.05</ele>
        <time>2021-07-21T14:17:38Z</time>
      </trkpt>
      <trkpt lat="44.41966" lon="6.73499">
        <ele>1231.6</ele>
        <time>2021-07-21T14:17:41Z</time>
      </trkpt>
      <trkpt lat="44.41968" lon="6.73498">
        <ele>1231.78</ele>
        <time>2021-07-21T14:17:56Z</time>
      </trkpt>
      <trkpt lat="44.41966" lon="6.73502">
        <ele>1231.41</ele>
        <time>2021-07-21T14:18:50Z</time>
      </trkpt>
      <trkpt lat="44.41964" lon="6.73506">
        <ele>1230.98</ele>
        <time>2021-07-21T14:18:53Z</time>
      </trkpt>
      <trkpt lat="44.41961" lon="6.73507">
        <ele>1230.69</ele>
        <time>2021-07-21T14:18:56Z</time>
      </trkpt>
      <trkpt lat="44.41958" lon="6.73509">
        <ele>1230.33</ele>
        <time>2021-07-21T14:19:02Z</time>
      </trkpt>
      <trkpt lat="44.41956" lon="6.73511">
        <ele>1230.04</ele>
        <time>2021-07-21T14:19:14Z</time>
      </trkpt>
      <trkpt lat="44.41952" lon="6.7351">
        <ele>1229.82</ele>
        <time>2021-07-21T14:19:20Z</time>
      </trkpt>
      <trkpt lat="44.41949" lon="6.73507">
        <ele>1229.82</ele>
        <time>2021-07-21T14:19:24Z</time>
      </trkpt>
      <trkpt lat="44.41946" lon="6.73505">
        <ele>1229.75</ele>
        <time>2021-07-21T14:19:27Z</time>
      </trkpt>
      <trkpt lat="44.41944" lon="6.73502">
        <ele>1229.73</ele>
        <time>2021-07-21T14:19:30Z</time>
      </trkpt>
      <trkpt lat="44.41941" lon="6.73499">
        <ele>1229.09</ele>
        <time>2021-07-21T14:19:32Z</time>
      </trkpt>
      <trkpt lat="44.41939" lon="6.73502">
        <ele>1228.27</ele>
        <time>2021-07-21T14:19:50Z</time>
      </trkpt>
      <trkpt lat="44.41939" lon="6.73498">
        <ele>1228.6</ele>
        <time>2021-07-21T14:20:14Z</time>
      </trkpt>
      <trkpt lat="44.41938" lon="6.73503">
        <ele>1227.9</ele>
        <time>2021-07-21T14:21:06Z</time>
      </trkpt>
      <trkpt lat="44.41937" lon="6.73499">
        <ele>1227.95</ele>
        <time>2021-07-21T14:21:15Z</time>
      </trkpt>
      <trkpt lat="44.41935" lon="6.73503">
        <ele>1227.03</ele>
        <time>2021-07-21T14:21:27Z</time>
      </trkpt>
      <trkpt lat="44.41934" lon="6.73499">
        <ele>1227.09</ele>
        <time>2021-07-21T14:21:56Z</time>
      </trkpt>
      <trkpt lat="44.41936" lon="6.73502">
        <ele>1227.4</ele>
        <time>2021-07-21T14:29:26Z</time>
      </trkpt>
      <trkpt lat="44.41939" lon="6.73505">
        <ele>1228.04</ele>
        <time>2021-07-21T14:29:42Z</time>
      </trkpt>
      <trkpt lat="44.41941" lon="6.73509">
        <ele>1228.32</ele>
        <time>2021-07-21T14:29:45Z</time>
      </trkpt>
      <trkpt lat="44.41941" lon="6.73515">
        <ele>1227.86</ele>
        <time>2021-07-21T14:29:49Z</time>
      </trkpt>
      <trkpt lat="44.41941" lon="6.73521">
        <ele>1227.4</ele>
        <time>2021-07-21T14:29:53Z</time>
      </trkpt>
      <trkpt lat="44.41944" lon="6.73515">
        <ele>1228.78</ele>
        <time>2021-07-21T14:30:03Z</time>
      </trkpt>
      <trkpt lat="44.41947" lon="6.73511">
        <ele>1229.39</ele>
        <time>2021-07-21T14:30:07Z</time>
      </trkpt>
      <trkpt lat="44.4195" lon="6.73509">
        <ele>1229.75</ele>
        <time>2021-07-21T14:30:09Z</time>
      </trkpt>
      <trkpt lat="44.41954" lon="6.73507">
        <ele>1230.18</ele>
        <time>2021-07-21T14:30:13Z</time>
      </trkpt>
      <trkpt lat="44.41957" lon="6.73506">
        <ele>1230.47</ele>
        <time>2021-07-21T14:30:17Z</time>
      </trkpt>
      <trkpt lat="44.4196" lon="6.73506">
        <ele>1230.69</ele>
        <time>2021-07-21T14:30:21Z</time>
      </trkpt>
      <trkpt lat="44.41962" lon="6.73505">
        <ele>1230.9</ele>
        <time>2021-07-21T14:30:24Z</time>
      </trkpt>
      <trkpt lat="44.41965" lon="6.73503">
        <ele>1231.26</ele>
        <time>2021-07-21T14:30:27Z</time>
      </trkpt>
      <trkpt lat="44.41968" lon="6.73504">
        <ele>1231.41</ele>
        <time>2021-07-21T14:30:36Z</time>
      </trkpt>
      <trkpt lat="44.41971" lon="6.73506">
        <ele>1231.48</ele>
        <time>2021-07-21T14:30:39Z</time>
      </trkpt>
      <trkpt lat="44.41973" lon="6.73509">
        <ele>1231.2</ele>
        <time>2021-07-21T14:30:45Z</time>
      </trkpt>
      <trkpt lat="44.41975" lon="6.73506">
        <ele>1231.05</ele>
        <time>2021-07-21T14:30:54Z</time>
      </trkpt>
      <trkpt lat="44.41975" lon="6.73502">
        <ele>1231.35</ele>
        <time>2021-07-21T14:31:18Z</time>
      </trkpt>
      <trkpt lat="44.41977" lon="6.73504">
        <ele>1230.83</ele>
        <time>2021-07-21T14:31:36Z</time>
      </trkpt>
      <trkpt lat="44.41974" lon="6.73505">
        <ele>1231.31</ele>
        <time>2021-07-21T14:31:44Z</time>
      </trkpt>
      <trkpt lat="44.4197" lon="6.73507">
        <ele>1231.34</ele>
        <time>2021-07-21T14:31:46Z</time>
      </trkpt>
      <trkpt lat="44.41968" lon="6.7351">
        <ele>1230.98</ele>
        <time>2021-07-21T14:31:48Z</time>
      </trkpt>
      <trkpt lat="44.41966" lon="6.73512">
        <ele>1230.69</ele>
        <time>2021-07-21T14:31:50Z</time>
      </trkpt>
      <trkpt lat="44.41965" lon="6.73517">
        <ele>1230.26</ele>
        <time>2021-07-21T14:31:52Z</time>
      </trkpt>
      <trkpt lat="44.41968" lon="6.73522">
        <ele>1230.11</ele>
        <time>2021-07-21T14:31:54Z</time>
      </trkpt>
      <trkpt lat="44.41969" lon="6.73525">
        <ele>1229.97</ele>
        <time>2021-07-21T14:31:55Z</time>
      </trkpt>
      <trkpt lat="44.41971" lon="6.73528">
        <ele>1229.9</ele>
        <time>2021-07-21T14:31:56Z</time>
      </trkpt>
      <trkpt lat="44.41973" lon="6.73531">
        <ele>1229.72</ele>
        <time>2021-07-21T14:31:57Z</time>
      </trkpt>
      <trkpt lat="44.41976" lon="6.73534">
        <ele>1228.99</ele>
        <time>2021-07-21T14:31:58Z</time>
      </trkpt>
      <trkpt lat="44.41978" lon="6.73537">
        <ele>1228.49</ele>
        <time>2021-07-21T14:31:59Z</time>
      </trkpt>
      <trkpt lat="44.41979" lon="6.7354">
        <ele>1228.2</ele>
        <time>2021-07-21T14:32:00Z</time>
      </trkpt>
      <trkpt lat="44.41983" lon="6.73546">
        <ele>1227.27</ele>
        <time>2021-07-21T14:32:02Z</time>
      </trkpt>
      <trkpt lat="44.41983" lon="6.73553">
        <ele>1227.12</ele>
        <time>2021-07-21T14:32:04Z</time>
      </trkpt>
      <trkpt lat="44.41981" lon="6.73559">
        <ele>1227.37</ele>
        <time>2021-07-21T14:32:06Z</time>
      </trkpt>
      <trkpt lat="44.4198" lon="6.73565">
        <ele>1227.45</ele>
        <time>2021-07-21T14:32:08Z</time>
      </trkpt>
      <trkpt lat="44.41981" lon="6.73574">
        <ele>1227.18</ele>
        <time>2021-07-21T14:32:10Z</time>
      </trkpt>
      <trkpt lat="44.41982" lon="6.73578">
        <ele>1227</ele>
        <time>2021-07-21T14:32:11Z</time>
      </trkpt>
      <trkpt lat="44.41985" lon="6.73582">
        <ele>1226.62</ele>
        <time>2021-07-21T14:32:12Z</time>
      </trkpt>
      <trkpt lat="44.41987" lon="6.73586">
        <ele>1226.36</ele>
        <time>2021-07-21T14:32:13Z</time>
      </trkpt>
      <trkpt lat="44.4199" lon="6.73591">
        <ele>1225.98</ele>
        <time>2021-07-21T14:32:14Z</time>
      </trkpt>
      <trkpt lat="44.41994" lon="6.73595">
        <ele>1225.56</ele>
        <time>2021-07-21T14:32:15Z</time>
      </trkpt>
      <trkpt lat="44.41997" lon="6.73599">
        <ele>1225.26</ele>
        <time>2021-07-21T14:32:16Z</time>
      </trkpt>
      <trkpt lat="44.41999" lon="6.73603">
        <ele>1225.08</ele>
        <time>2021-07-21T14:32:17Z</time>
      </trkpt>
      <trkpt lat="44.42002" lon="6.73605">
        <ele>1224.51</ele>
        <time>2021-07-21T14:32:18Z</time>
      </trkpt>
      <trkpt lat="44.42005" lon="6.73608">
        <ele>1223.76</ele>
        <time>2021-07-21T14:32:20Z</time>
      </trkpt>
      <trkpt lat="44.42007" lon="6.73611">
        <ele>1223.24</ele>
        <time>2021-07-21T14:32:44Z</time>
      </trkpt>
    </trkseg>
  </trk>
</gpx>